<?xml version="1.0" encoding="UTF-8" standalone="no" ?>
<gpx xmlns="http://www.topografix.com/GPX/1/1" xmlns:xsi="http://www.w3.org/2001/XMLSchema-instance" xsi:schemaLocation="http://www.topografix.com/GPX/1/1 http://www.topografix.com/GPX/1/1/gpx.xsd" version="1.1" creator="VisuGPX - https://www.visugpx.com">
  <metadata>
    <name>Tour du Mont Pela</name>
    <desc><![CDATA[Vers Innimond, tour du Mont Pela par le col du Grand Pertuis]]></desc>
  </metadata>
  <trk>
    <name><![CDATA[20200620 Tour du Mont Pela]]></name>
    <trkseg>
      <trkpt lat="45.7941" lon="5.56948">
        <ele>985.24</ele>
        <time>2020-06-20T13:27:28Z</time>
      </trkpt>
      <trkpt lat="45.79412" lon="5.56949">
        <ele>985.16</ele>
        <time>2020-06-20T13:27:32Z</time>
      </trkpt>
      <trkpt lat="45.79414" lon="5.56951">
        <ele>985.13</ele>
        <time>2020-06-20T13:27:33Z</time>
      </trkpt>
      <trkpt lat="45.79415" lon="5.56954">
        <ele>985.05</ele>
        <time>2020-06-20T13:27:36Z</time>
      </trkpt>
      <trkpt lat="45.79416" lon="5.56958">
        <ele>984.98</ele>
        <time>2020-06-20T13:27:38Z</time>
      </trkpt>
      <trkpt lat="45.79417" lon="5.56961">
        <ele>984.9</ele>
        <time>2020-06-20T13:27:40Z</time>
      </trkpt>
      <trkpt lat="45.79418" lon="5.56964">
        <ele>984.82</ele>
        <time>2020-06-20T13:27:42Z</time>
      </trkpt>
      <trkpt lat="45.79418" lon="5.56969">
        <ele>984.69</ele>
        <time>2020-06-20T13:27:46Z</time>
      </trkpt>
      <trkpt lat="45.7942" lon="5.56977">
        <ele>984.62</ele>
        <time>2020-06-20T13:27:51Z</time>
      </trkpt>
      <trkpt lat="45.79423" lon="5.56985">
        <ele>984.56</ele>
        <time>2020-06-20T13:27:55Z</time>
      </trkpt>
      <trkpt lat="45.79424" lon="5.56988">
        <ele>984.51</ele>
        <time>2020-06-20T13:27:58Z</time>
      </trkpt>
      <trkpt lat="45.79425" lon="5.56991">
        <ele>984.48</ele>
        <time>2020-06-20T13:28:00Z</time>
      </trkpt>
      <trkpt lat="45.79425" lon="5.56995">
        <ele>984.44</ele>
        <time>2020-06-20T13:28:06Z</time>
      </trkpt>
      <trkpt lat="45.79424" lon="5.56995">
        <ele>984.48</ele>
        <time>2020-06-20T13:28:12Z</time>
      </trkpt>
      <trkpt lat="45.79422" lon="5.56995">
        <ele>984.62</ele>
        <time>2020-06-20T13:28:17Z</time>
      </trkpt>
      <trkpt lat="45.7942" lon="5.56995">
        <ele>984.77</ele>
        <time>2020-06-20T13:28:21Z</time>
      </trkpt>
      <trkpt lat="45.7942" lon="5.56999">
        <ele>984.88</ele>
        <time>2020-06-20T13:28:26Z</time>
      </trkpt>
      <trkpt lat="45.79418" lon="5.57">
        <ele>984.92</ele>
        <time>2020-06-20T13:28:31Z</time>
      </trkpt>
      <trkpt lat="45.79419" lon="5.57004">
        <ele>984.91</ele>
        <time>2020-06-20T13:28:36Z</time>
      </trkpt>
      <trkpt lat="45.79421" lon="5.57006">
        <ele>984.9</ele>
        <time>2020-06-20T13:28:38Z</time>
      </trkpt>
      <trkpt lat="45.79424" lon="5.57009">
        <ele>984.9</ele>
        <time>2020-06-20T13:28:40Z</time>
      </trkpt>
      <trkpt lat="45.79426" lon="5.5701">
        <ele>984.89</ele>
        <time>2020-06-20T13:28:42Z</time>
      </trkpt>
      <trkpt lat="45.79428" lon="5.57013">
        <ele>984.88</ele>
        <time>2020-06-20T13:28:47Z</time>
      </trkpt>
      <trkpt lat="45.7943" lon="5.57016">
        <ele>984.77</ele>
        <time>2020-06-20T13:28:54Z</time>
      </trkpt>
      <trkpt lat="45.79432" lon="5.57018">
        <ele>984.63</ele>
        <time>2020-06-20T13:28:57Z</time>
      </trkpt>
      <trkpt lat="45.79432" lon="5.57023">
        <ele>984.39</ele>
        <time>2020-06-20T13:29:01Z</time>
      </trkpt>
      <trkpt lat="45.79433" lon="5.57027">
        <ele>984.14</ele>
        <time>2020-06-20T13:29:05Z</time>
      </trkpt>
      <trkpt lat="45.79434" lon="5.5703">
        <ele>984.07</ele>
        <time>2020-06-20T13:29:06Z</time>
      </trkpt>
      <trkpt lat="45.79436" lon="5.57034">
        <ele>983.73</ele>
        <time>2020-06-20T13:29:11Z</time>
      </trkpt>
      <trkpt lat="45.79437" lon="5.57038">
        <ele>983.6</ele>
        <time>2020-06-20T13:29:13Z</time>
      </trkpt>
      <trkpt lat="45.79438" lon="5.5704">
        <ele>983.4</ele>
        <time>2020-06-20T13:29:16Z</time>
      </trkpt>
      <trkpt lat="45.7944" lon="5.57044">
        <ele>983.26</ele>
        <time>2020-06-20T13:29:18Z</time>
      </trkpt>
      <trkpt lat="45.79441" lon="5.57046">
        <ele>982.91</ele>
        <time>2020-06-20T13:29:23Z</time>
      </trkpt>
      <trkpt lat="45.79444" lon="5.57047">
        <ele>982.71</ele>
        <time>2020-06-20T13:29:26Z</time>
      </trkpt>
      <trkpt lat="45.79446" lon="5.57049">
        <ele>982.58</ele>
        <time>2020-06-20T13:29:28Z</time>
      </trkpt>
      <trkpt lat="45.79449" lon="5.57052">
        <ele>982.28</ele>
        <time>2020-06-20T13:29:32Z</time>
      </trkpt>
      <trkpt lat="45.79451" lon="5.57055">
        <ele>982.04</ele>
        <time>2020-06-20T13:29:36Z</time>
      </trkpt>
      <trkpt lat="45.79451" lon="5.57059">
        <ele>981.9</ele>
        <time>2020-06-20T13:29:38Z</time>
      </trkpt>
      <trkpt lat="45.7945" lon="5.57062">
        <ele>981.69</ele>
        <time>2020-06-20T13:29:41Z</time>
      </trkpt>
      <trkpt lat="45.79452" lon="5.57065">
        <ele>981.54</ele>
        <time>2020-06-20T13:29:43Z</time>
      </trkpt>
      <trkpt lat="45.79454" lon="5.57067">
        <ele>981.17</ele>
        <time>2020-06-20T13:29:48Z</time>
      </trkpt>
      <trkpt lat="45.79456" lon="5.57072">
        <ele>980.98</ele>
        <time>2020-06-20T13:29:51Z</time>
      </trkpt>
      <trkpt lat="45.79457" lon="5.57074">
        <ele>980.71</ele>
        <time>2020-06-20T13:29:55Z</time>
      </trkpt>
      <trkpt lat="45.7946" lon="5.57077">
        <ele>980.47</ele>
        <time>2020-06-20T13:29:58Z</time>
      </trkpt>
      <trkpt lat="45.79461" lon="5.57081">
        <ele>980.3</ele>
        <time>2020-06-20T13:30:00Z</time>
      </trkpt>
      <trkpt lat="45.79462" lon="5.57085">
        <ele>979.98</ele>
        <time>2020-06-20T13:30:04Z</time>
      </trkpt>
      <trkpt lat="45.79462" lon="5.57088">
        <ele>979.74</ele>
        <time>2020-06-20T13:30:07Z</time>
      </trkpt>
      <trkpt lat="45.79463" lon="5.57092">
        <ele>979.49</ele>
        <time>2020-06-20T13:30:10Z</time>
      </trkpt>
      <trkpt lat="45.79464" lon="5.57096">
        <ele>979.32</ele>
        <time>2020-06-20T13:30:12Z</time>
      </trkpt>
      <trkpt lat="45.79464" lon="5.571">
        <ele>979.15</ele>
        <time>2020-06-20T13:30:14Z</time>
      </trkpt>
      <trkpt lat="45.79466" lon="5.57104">
        <ele>978.99</ele>
        <time>2020-06-20T13:30:16Z</time>
      </trkpt>
      <trkpt lat="45.79466" lon="5.57106">
        <ele>978.83</ele>
        <time>2020-06-20T13:30:18Z</time>
      </trkpt>
      <trkpt lat="45.79466" lon="5.5711">
        <ele>978.35</ele>
        <time>2020-06-20T13:30:24Z</time>
      </trkpt>
      <trkpt lat="45.79466" lon="5.57114">
        <ele>978.19</ele>
        <time>2020-06-20T13:30:26Z</time>
      </trkpt>
      <trkpt lat="45.79465" lon="5.57117">
        <ele>978.11</ele>
        <time>2020-06-20T13:30:27Z</time>
      </trkpt>
      <trkpt lat="45.79466" lon="5.57119">
        <ele>978.04</ele>
        <time>2020-06-20T13:30:28Z</time>
      </trkpt>
      <trkpt lat="45.79466" lon="5.57123">
        <ele>977.89</ele>
        <time>2020-06-20T13:30:30Z</time>
      </trkpt>
      <trkpt lat="45.79468" lon="5.57124">
        <ele>977.49</ele>
        <time>2020-06-20T13:30:36Z</time>
      </trkpt>
      <trkpt lat="45.7947" lon="5.57127">
        <ele>977.31</ele>
        <time>2020-06-20T13:30:39Z</time>
      </trkpt>
      <trkpt lat="45.79471" lon="5.57129">
        <ele>977.19</ele>
        <time>2020-06-20T13:30:41Z</time>
      </trkpt>
      <trkpt lat="45.79474" lon="5.57131">
        <ele>977.03</ele>
        <time>2020-06-20T13:30:44Z</time>
      </trkpt>
      <trkpt lat="45.79476" lon="5.57131">
        <ele>976.93</ele>
        <time>2020-06-20T13:30:46Z</time>
      </trkpt>
      <trkpt lat="45.79478" lon="5.57132">
        <ele>976.84</ele>
        <time>2020-06-20T13:30:48Z</time>
      </trkpt>
      <trkpt lat="45.79481" lon="5.57134">
        <ele>976.72</ele>
        <time>2020-06-20T13:30:51Z</time>
      </trkpt>
      <trkpt lat="45.79482" lon="5.57136">
        <ele>976.59</ele>
        <time>2020-06-20T13:30:55Z</time>
      </trkpt>
      <trkpt lat="45.79485" lon="5.57138">
        <ele>976.44</ele>
        <time>2020-06-20T13:31:00Z</time>
      </trkpt>
      <trkpt lat="45.79487" lon="5.57139">
        <ele>976.38</ele>
        <time>2020-06-20T13:31:02Z</time>
      </trkpt>
      <trkpt lat="45.79491" lon="5.57142">
        <ele>976.28</ele>
        <time>2020-06-20T13:31:06Z</time>
      </trkpt>
      <trkpt lat="45.79494" lon="5.57143">
        <ele>976.24</ele>
        <time>2020-06-20T13:31:08Z</time>
      </trkpt>
      <trkpt lat="45.79496" lon="5.57145">
        <ele>976.17</ele>
        <time>2020-06-20T13:31:11Z</time>
      </trkpt>
      <trkpt lat="45.79497" lon="5.5715">
        <ele>975.94</ele>
        <time>2020-06-20T13:31:29Z</time>
      </trkpt>
      <trkpt lat="45.79497" lon="5.57153">
        <ele>975.93</ele>
        <time>2020-06-20T13:31:31Z</time>
      </trkpt>
      <trkpt lat="45.79496" lon="5.57157">
        <ele>975.92</ele>
        <time>2020-06-20T13:31:33Z</time>
      </trkpt>
      <trkpt lat="45.79495" lon="5.57159">
        <ele>975.92</ele>
        <time>2020-06-20T13:31:35Z</time>
      </trkpt>
      <trkpt lat="45.79494" lon="5.57162">
        <ele>975.93</ele>
        <time>2020-06-20T13:31:36Z</time>
      </trkpt>
      <trkpt lat="45.79493" lon="5.57166">
        <ele>975.95</ele>
        <time>2020-06-20T13:31:38Z</time>
      </trkpt>
      <trkpt lat="45.79493" lon="5.5717">
        <ele>975.97</ele>
        <time>2020-06-20T13:31:40Z</time>
      </trkpt>
      <trkpt lat="45.7949" lon="5.57173">
        <ele>976.01</ele>
        <time>2020-06-20T13:31:43Z</time>
      </trkpt>
      <trkpt lat="45.79487" lon="5.57176">
        <ele>976.07</ele>
        <time>2020-06-20T13:31:46Z</time>
      </trkpt>
      <trkpt lat="45.79486" lon="5.5718">
        <ele>976.12</ele>
        <time>2020-06-20T13:31:48Z</time>
      </trkpt>
      <trkpt lat="45.79485" lon="5.57183">
        <ele>976.18</ele>
        <time>2020-06-20T13:31:50Z</time>
      </trkpt>
      <trkpt lat="45.79484" lon="5.57186">
        <ele>976.35</ele>
        <time>2020-06-20T13:31:55Z</time>
      </trkpt>
      <trkpt lat="45.79483" lon="5.57189">
        <ele>976.44</ele>
        <time>2020-06-20T13:31:57Z</time>
      </trkpt>
      <trkpt lat="45.79483" lon="5.57193">
        <ele>976.6</ele>
        <time>2020-06-20T13:32:01Z</time>
      </trkpt>
      <trkpt lat="45.79483" lon="5.57197">
        <ele>977.02</ele>
        <time>2020-06-20T13:32:10Z</time>
      </trkpt>
      <trkpt lat="45.79483" lon="5.572">
        <ele>977.14</ele>
        <time>2020-06-20T13:32:13Z</time>
      </trkpt>
      <trkpt lat="45.79484" lon="5.57202">
        <ele>977.18</ele>
        <time>2020-06-20T13:32:14Z</time>
      </trkpt>
      <trkpt lat="45.79485" lon="5.57204">
        <ele>977.4</ele>
        <time>2020-06-20T13:32:19Z</time>
      </trkpt>
      <trkpt lat="45.79486" lon="5.57208">
        <ele>977.6</ele>
        <time>2020-06-20T13:32:23Z</time>
      </trkpt>
      <trkpt lat="45.79485" lon="5.57212">
        <ele>977.82</ele>
        <time>2020-06-20T13:32:27Z</time>
      </trkpt>
      <trkpt lat="45.79485" lon="5.57215">
        <ele>977.99</ele>
        <time>2020-06-20T13:32:30Z</time>
      </trkpt>
      <trkpt lat="45.79483" lon="5.57219">
        <ele>978.24</ele>
        <time>2020-06-20T13:32:34Z</time>
      </trkpt>
      <trkpt lat="45.79483" lon="5.57222">
        <ele>978.36</ele>
        <time>2020-06-20T13:32:36Z</time>
      </trkpt>
      <trkpt lat="45.79481" lon="5.57225">
        <ele>978.6</ele>
        <time>2020-06-20T13:32:40Z</time>
      </trkpt>
      <trkpt lat="45.79481" lon="5.57228">
        <ele>978.72</ele>
        <time>2020-06-20T13:32:42Z</time>
      </trkpt>
      <trkpt lat="45.7948" lon="5.57231">
        <ele>978.83</ele>
        <time>2020-06-20T13:32:44Z</time>
      </trkpt>
      <trkpt lat="45.79478" lon="5.57233">
        <ele>978.93</ele>
        <time>2020-06-20T13:32:46Z</time>
      </trkpt>
      <trkpt lat="45.79477" lon="5.57234">
        <ele>979.04</ele>
        <time>2020-06-20T13:32:48Z</time>
      </trkpt>
      <trkpt lat="45.79475" lon="5.57237">
        <ele>979.19</ele>
        <time>2020-06-20T13:32:51Z</time>
      </trkpt>
      <trkpt lat="45.79473" lon="5.5724">
        <ele>979.3</ele>
        <time>2020-06-20T13:32:53Z</time>
      </trkpt>
      <trkpt lat="45.79472" lon="5.57242">
        <ele>979.36</ele>
        <time>2020-06-20T13:32:54Z</time>
      </trkpt>
      <trkpt lat="45.79471" lon="5.57246">
        <ele>979.52</ele>
        <time>2020-06-20T13:32:57Z</time>
      </trkpt>
      <trkpt lat="45.7947" lon="5.5725">
        <ele>979.64</ele>
        <time>2020-06-20T13:32:59Z</time>
      </trkpt>
      <trkpt lat="45.79469" lon="5.57253">
        <ele>979.76</ele>
        <time>2020-06-20T13:33:01Z</time>
      </trkpt>
      <trkpt lat="45.79467" lon="5.57256">
        <ele>979.87</ele>
        <time>2020-06-20T13:33:03Z</time>
      </trkpt>
      <trkpt lat="45.79466" lon="5.57259">
        <ele>980.09</ele>
        <time>2020-06-20T13:33:07Z</time>
      </trkpt>
      <trkpt lat="45.79464" lon="5.57262">
        <ele>980.38</ele>
        <time>2020-06-20T13:33:12Z</time>
      </trkpt>
      <trkpt lat="45.79461" lon="5.57264">
        <ele>980.56</ele>
        <time>2020-06-20T13:33:15Z</time>
      </trkpt>
      <trkpt lat="45.79461" lon="5.57268">
        <ele>980.67</ele>
        <time>2020-06-20T13:33:17Z</time>
      </trkpt>
      <trkpt lat="45.79461" lon="5.57271">
        <ele>980.86</ele>
        <time>2020-06-20T13:33:22Z</time>
      </trkpt>
      <trkpt lat="45.79462" lon="5.57274">
        <ele>981.11</ele>
        <time>2020-06-20T13:33:26Z</time>
      </trkpt>
      <trkpt lat="45.79462" lon="5.57279">
        <ele>981.47</ele>
        <time>2020-06-20T13:33:33Z</time>
      </trkpt>
      <trkpt lat="45.79463" lon="5.57283">
        <ele>981.7</ele>
        <time>2020-06-20T13:33:37Z</time>
      </trkpt>
      <trkpt lat="45.79463" lon="5.57286">
        <ele>981.86</ele>
        <time>2020-06-20T13:33:40Z</time>
      </trkpt>
      <trkpt lat="45.79463" lon="5.5729">
        <ele>981.97</ele>
        <time>2020-06-20T13:33:42Z</time>
      </trkpt>
      <trkpt lat="45.79463" lon="5.57293">
        <ele>982.17</ele>
        <time>2020-06-20T13:33:47Z</time>
      </trkpt>
      <trkpt lat="45.79463" lon="5.57296">
        <ele>982.31</ele>
        <time>2020-06-20T13:33:50Z</time>
      </trkpt>
      <trkpt lat="45.79462" lon="5.57301">
        <ele>982.4</ele>
        <time>2020-06-20T13:33:52Z</time>
      </trkpt>
      <trkpt lat="45.79462" lon="5.57304">
        <ele>982.44</ele>
        <time>2020-06-20T13:33:53Z</time>
      </trkpt>
      <trkpt lat="45.79462" lon="5.57308">
        <ele>982.54</ele>
        <time>2020-06-20T13:33:55Z</time>
      </trkpt>
      <trkpt lat="45.79462" lon="5.57313">
        <ele>982.72</ele>
        <time>2020-06-20T13:33:59Z</time>
      </trkpt>
      <trkpt lat="45.79463" lon="5.57316">
        <ele>982.98</ele>
        <time>2020-06-20T13:34:04Z</time>
      </trkpt>
      <trkpt lat="45.79463" lon="5.57321">
        <ele>983.17</ele>
        <time>2020-06-20T13:34:08Z</time>
      </trkpt>
      <trkpt lat="45.79463" lon="5.57325">
        <ele>983.37</ele>
        <time>2020-06-20T13:34:12Z</time>
      </trkpt>
      <trkpt lat="45.79462" lon="5.57329">
        <ele>983.55</ele>
        <time>2020-06-20T13:34:16Z</time>
      </trkpt>
      <trkpt lat="45.79461" lon="5.57332">
        <ele>983.68</ele>
        <time>2020-06-20T13:34:20Z</time>
      </trkpt>
      <trkpt lat="45.79461" lon="5.57338">
        <ele>983.78</ele>
        <time>2020-06-20T13:34:22Z</time>
      </trkpt>
      <trkpt lat="45.7946" lon="5.57343">
        <ele>983.86</ele>
        <time>2020-06-20T13:34:24Z</time>
      </trkpt>
      <trkpt lat="45.79459" lon="5.57347">
        <ele>983.95</ele>
        <time>2020-06-20T13:34:26Z</time>
      </trkpt>
      <trkpt lat="45.79458" lon="5.57351">
        <ele>984.04</ele>
        <time>2020-06-20T13:34:28Z</time>
      </trkpt>
      <trkpt lat="45.79458" lon="5.57354">
        <ele>984.15</ele>
        <time>2020-06-20T13:34:31Z</time>
      </trkpt>
      <trkpt lat="45.79457" lon="5.57357">
        <ele>984.23</ele>
        <time>2020-06-20T13:34:33Z</time>
      </trkpt>
      <trkpt lat="45.79456" lon="5.5736">
        <ele>984.31</ele>
        <time>2020-06-20T13:34:35Z</time>
      </trkpt>
      <trkpt lat="45.79454" lon="5.57362">
        <ele>984.51</ele>
        <time>2020-06-20T13:34:40Z</time>
      </trkpt>
      <trkpt lat="45.79454" lon="5.57365">
        <ele>984.6</ele>
        <time>2020-06-20T13:34:42Z</time>
      </trkpt>
      <trkpt lat="45.79453" lon="5.57368">
        <ele>984.68</ele>
        <time>2020-06-20T13:34:44Z</time>
      </trkpt>
      <trkpt lat="45.79453" lon="5.57372">
        <ele>984.8</ele>
        <time>2020-06-20T13:34:47Z</time>
      </trkpt>
      <trkpt lat="45.79452" lon="5.57375">
        <ele>984.88</ele>
        <time>2020-06-20T13:34:49Z</time>
      </trkpt>
      <trkpt lat="45.79452" lon="5.57379">
        <ele>985.07</ele>
        <time>2020-06-20T13:34:54Z</time>
      </trkpt>
      <trkpt lat="45.79453" lon="5.57382">
        <ele>985.22</ele>
        <time>2020-06-20T13:34:58Z</time>
      </trkpt>
      <trkpt lat="45.79453" lon="5.57385">
        <ele>985.29</ele>
        <time>2020-06-20T13:35:00Z</time>
      </trkpt>
      <trkpt lat="45.79453" lon="5.57388">
        <ele>985.41</ele>
        <time>2020-06-20T13:35:03Z</time>
      </trkpt>
      <trkpt lat="45.79452" lon="5.57392">
        <ele>985.49</ele>
        <time>2020-06-20T13:35:05Z</time>
      </trkpt>
      <trkpt lat="45.79453" lon="5.57396">
        <ele>985.6</ele>
        <time>2020-06-20T13:35:08Z</time>
      </trkpt>
      <trkpt lat="45.79452" lon="5.57399">
        <ele>985.75</ele>
        <time>2020-06-20T13:35:12Z</time>
      </trkpt>
      <trkpt lat="45.79452" lon="5.57403">
        <ele>985.91</ele>
        <time>2020-06-20T13:35:16Z</time>
      </trkpt>
      <trkpt lat="45.79452" lon="5.57407">
        <ele>985.98</ele>
        <time>2020-06-20T13:35:18Z</time>
      </trkpt>
      <trkpt lat="45.79453" lon="5.5741">
        <ele>986.02</ele>
        <time>2020-06-20T13:35:19Z</time>
      </trkpt>
      <trkpt lat="45.79452" lon="5.57413">
        <ele>986.1</ele>
        <time>2020-06-20T13:35:21Z</time>
      </trkpt>
      <trkpt lat="45.7945" lon="5.57416">
        <ele>986.27</ele>
        <time>2020-06-20T13:35:25Z</time>
      </trkpt>
      <trkpt lat="45.79451" lon="5.57419">
        <ele>986.4</ele>
        <time>2020-06-20T13:35:28Z</time>
      </trkpt>
      <trkpt lat="45.7945" lon="5.57422">
        <ele>986.57</ele>
        <time>2020-06-20T13:35:32Z</time>
      </trkpt>
      <trkpt lat="45.7945" lon="5.57425">
        <ele>986.83</ele>
        <time>2020-06-20T13:35:40Z</time>
      </trkpt>
      <trkpt lat="45.79451" lon="5.57428">
        <ele>987.16</ele>
        <time>2020-06-20T13:35:49Z</time>
      </trkpt>
      <trkpt lat="45.7945" lon="5.57432">
        <ele>987.36</ele>
        <time>2020-06-20T13:35:54Z</time>
      </trkpt>
      <trkpt lat="45.79449" lon="5.57434">
        <ele>987.45</ele>
        <time>2020-06-20T13:35:56Z</time>
      </trkpt>
      <trkpt lat="45.79448" lon="5.57438">
        <ele>987.54</ele>
        <time>2020-06-20T13:35:58Z</time>
      </trkpt>
      <trkpt lat="45.79448" lon="5.57442">
        <ele>987.68</ele>
        <time>2020-06-20T13:36:01Z</time>
      </trkpt>
      <trkpt lat="45.79448" lon="5.57446">
        <ele>987.83</ele>
        <time>2020-06-20T13:36:04Z</time>
      </trkpt>
      <trkpt lat="45.79448" lon="5.5745">
        <ele>988.09</ele>
        <time>2020-06-20T13:36:09Z</time>
      </trkpt>
      <trkpt lat="45.79448" lon="5.57455">
        <ele>988.19</ele>
        <time>2020-06-20T13:36:11Z</time>
      </trkpt>
      <trkpt lat="45.7945" lon="5.57458">
        <ele>988.33</ele>
        <time>2020-06-20T13:36:14Z</time>
      </trkpt>
      <trkpt lat="45.79453" lon="5.57458">
        <ele>988.46</ele>
        <time>2020-06-20T13:36:17Z</time>
      </trkpt>
      <trkpt lat="45.79455" lon="5.57458">
        <ele>988.54</ele>
        <time>2020-06-20T13:36:19Z</time>
      </trkpt>
      <trkpt lat="45.79458" lon="5.57456">
        <ele>988.63</ele>
        <time>2020-06-20T13:36:21Z</time>
      </trkpt>
      <trkpt lat="45.79461" lon="5.57454">
        <ele>988.81</ele>
        <time>2020-06-20T13:36:25Z</time>
      </trkpt>
      <trkpt lat="45.79463" lon="5.57453">
        <ele>988.95</ele>
        <time>2020-06-20T13:36:28Z</time>
      </trkpt>
      <trkpt lat="45.79464" lon="5.57453">
        <ele>989.11</ele>
        <time>2020-06-20T13:36:31Z</time>
      </trkpt>
      <trkpt lat="45.79466" lon="5.57451">
        <ele>989.16</ele>
        <time>2020-06-20T13:36:32Z</time>
      </trkpt>
      <trkpt lat="45.79468" lon="5.57449">
        <ele>989.38</ele>
        <time>2020-06-20T13:36:36Z</time>
      </trkpt>
      <trkpt lat="45.7947" lon="5.57448">
        <ele>989.49</ele>
        <time>2020-06-20T13:36:38Z</time>
      </trkpt>
      <trkpt lat="45.79471" lon="5.57446">
        <ele>989.71</ele>
        <time>2020-06-20T13:36:42Z</time>
      </trkpt>
      <trkpt lat="45.79473" lon="5.57443">
        <ele>989.93</ele>
        <time>2020-06-20T13:36:46Z</time>
      </trkpt>
      <trkpt lat="45.79474" lon="5.57441">
        <ele>990.05</ele>
        <time>2020-06-20T13:36:48Z</time>
      </trkpt>
      <trkpt lat="45.79477" lon="5.57438">
        <ele>990.17</ele>
        <time>2020-06-20T13:36:50Z</time>
      </trkpt>
      <trkpt lat="45.79479" lon="5.57436">
        <ele>990.36</ele>
        <time>2020-06-20T13:36:53Z</time>
      </trkpt>
      <trkpt lat="45.79481" lon="5.57432">
        <ele>990.48</ele>
        <time>2020-06-20T13:36:55Z</time>
      </trkpt>
      <trkpt lat="45.79483" lon="5.5743">
        <ele>990.6</ele>
        <time>2020-06-20T13:36:57Z</time>
      </trkpt>
      <trkpt lat="45.79484" lon="5.57428">
        <ele>990.84</ele>
        <time>2020-06-20T13:37:01Z</time>
      </trkpt>
      <trkpt lat="45.79486" lon="5.57425">
        <ele>991.22</ele>
        <time>2020-06-20T13:37:07Z</time>
      </trkpt>
      <trkpt lat="45.79488" lon="5.57423">
        <ele>991.4</ele>
        <time>2020-06-20T13:37:10Z</time>
      </trkpt>
      <trkpt lat="45.79491" lon="5.57421">
        <ele>991.65</ele>
        <time>2020-06-20T13:37:14Z</time>
      </trkpt>
      <trkpt lat="45.79494" lon="5.57419">
        <ele>991.9</ele>
        <time>2020-06-20T13:37:18Z</time>
      </trkpt>
      <trkpt lat="45.79496" lon="5.57416">
        <ele>992.2</ele>
        <time>2020-06-20T13:37:23Z</time>
      </trkpt>
      <trkpt lat="45.79498" lon="5.57413">
        <ele>992.38</ele>
        <time>2020-06-20T13:37:26Z</time>
      </trkpt>
      <trkpt lat="45.79499" lon="5.57409">
        <ele>992.69</ele>
        <time>2020-06-20T13:37:31Z</time>
      </trkpt>
      <trkpt lat="45.79501" lon="5.57407">
        <ele>993.03</ele>
        <time>2020-06-20T13:37:37Z</time>
      </trkpt>
      <trkpt lat="45.79503" lon="5.57405">
        <ele>993.2</ele>
        <time>2020-06-20T13:37:40Z</time>
      </trkpt>
      <trkpt lat="45.79505" lon="5.57401">
        <ele>993.3</ele>
        <time>2020-06-20T13:37:42Z</time>
      </trkpt>
      <trkpt lat="45.79506" lon="5.57398">
        <ele>993.41</ele>
        <time>2020-06-20T13:37:44Z</time>
      </trkpt>
      <trkpt lat="45.79507" lon="5.57396">
        <ele>993.52</ele>
        <time>2020-06-20T13:37:46Z</time>
      </trkpt>
      <trkpt lat="45.79508" lon="5.57394">
        <ele>993.67</ele>
        <time>2020-06-20T13:37:49Z</time>
      </trkpt>
      <trkpt lat="45.7951" lon="5.57392">
        <ele>993.84</ele>
        <time>2020-06-20T13:37:52Z</time>
      </trkpt>
      <trkpt lat="45.79512" lon="5.57391">
        <ele>993.9</ele>
        <time>2020-06-20T13:37:53Z</time>
      </trkpt>
      <trkpt lat="45.79513" lon="5.57389">
        <ele>993.96</ele>
        <time>2020-06-20T13:37:54Z</time>
      </trkpt>
      <trkpt lat="45.79515" lon="5.57388">
        <ele>994.01</ele>
        <time>2020-06-20T13:37:55Z</time>
      </trkpt>
      <trkpt lat="45.79518" lon="5.57387">
        <ele>994.19</ele>
        <time>2020-06-20T13:37:58Z</time>
      </trkpt>
      <trkpt lat="45.7952" lon="5.57385">
        <ele>994.57</ele>
        <time>2020-06-20T13:38:04Z</time>
      </trkpt>
      <trkpt lat="45.79522" lon="5.57382">
        <ele>994.77</ele>
        <time>2020-06-20T13:38:07Z</time>
      </trkpt>
      <trkpt lat="45.79523" lon="5.57378">
        <ele>994.98</ele>
        <time>2020-06-20T13:38:10Z</time>
      </trkpt>
      <trkpt lat="45.79524" lon="5.57375">
        <ele>995.34</ele>
        <time>2020-06-20T13:38:15Z</time>
      </trkpt>
      <trkpt lat="45.79524" lon="5.57372">
        <ele>995.7</ele>
        <time>2020-06-20T13:38:20Z</time>
      </trkpt>
      <trkpt lat="45.79525" lon="5.57368">
        <ele>995.85</ele>
        <time>2020-06-20T13:38:22Z</time>
      </trkpt>
      <trkpt lat="45.79525" lon="5.57363">
        <ele>996.21</ele>
        <time>2020-06-20T13:38:27Z</time>
      </trkpt>
      <trkpt lat="45.79527" lon="5.5736">
        <ele>996.5</ele>
        <time>2020-06-20T13:38:31Z</time>
      </trkpt>
      <trkpt lat="45.79528" lon="5.57358">
        <ele>996.65</ele>
        <time>2020-06-20T13:38:33Z</time>
      </trkpt>
      <trkpt lat="45.79529" lon="5.57355">
        <ele>996.86</ele>
        <time>2020-06-20T13:38:36Z</time>
      </trkpt>
      <trkpt lat="45.7953" lon="5.57352">
        <ele>997.14</ele>
        <time>2020-06-20T13:38:40Z</time>
      </trkpt>
      <trkpt lat="45.79532" lon="5.57349">
        <ele>997.4</ele>
        <time>2020-06-20T13:38:44Z</time>
      </trkpt>
      <trkpt lat="45.79534" lon="5.57348">
        <ele>997.59</ele>
        <time>2020-06-20T13:38:47Z</time>
      </trkpt>
      <trkpt lat="45.79536" lon="5.57346">
        <ele>997.73</ele>
        <time>2020-06-20T13:38:49Z</time>
      </trkpt>
      <trkpt lat="45.79537" lon="5.57343">
        <ele>997.86</ele>
        <time>2020-06-20T13:38:51Z</time>
      </trkpt>
      <trkpt lat="45.79538" lon="5.57339">
        <ele>998.12</ele>
        <time>2020-06-20T13:38:55Z</time>
      </trkpt>
      <trkpt lat="45.7954" lon="5.57336">
        <ele>998.31</ele>
        <time>2020-06-20T13:38:58Z</time>
      </trkpt>
      <trkpt lat="45.79542" lon="5.57334">
        <ele>998.5</ele>
        <time>2020-06-20T13:39:01Z</time>
      </trkpt>
      <trkpt lat="45.79545" lon="5.57332">
        <ele>998.69</ele>
        <time>2020-06-20T13:39:04Z</time>
      </trkpt>
      <trkpt lat="45.79547" lon="5.57331">
        <ele>998.81</ele>
        <time>2020-06-20T13:39:06Z</time>
      </trkpt>
      <trkpt lat="45.79549" lon="5.57331">
        <ele>998.87</ele>
        <time>2020-06-20T13:39:07Z</time>
      </trkpt>
      <trkpt lat="45.79552" lon="5.57331">
        <ele>998.98</ele>
        <time>2020-06-20T13:39:09Z</time>
      </trkpt>
      <trkpt lat="45.79554" lon="5.57331">
        <ele>999.1</ele>
        <time>2020-06-20T13:39:11Z</time>
      </trkpt>
      <trkpt lat="45.79557" lon="5.57332">
        <ele>999.23</ele>
        <time>2020-06-20T13:39:13Z</time>
      </trkpt>
      <trkpt lat="45.79559" lon="5.57332">
        <ele>999.29</ele>
        <time>2020-06-20T13:39:14Z</time>
      </trkpt>
      <trkpt lat="45.79562" lon="5.57331">
        <ele>999.41</ele>
        <time>2020-06-20T13:39:16Z</time>
      </trkpt>
      <trkpt lat="45.79564" lon="5.57332">
        <ele>999.59</ele>
        <time>2020-06-20T13:39:19Z</time>
      </trkpt>
      <trkpt lat="45.79567" lon="5.57332">
        <ele>999.7</ele>
        <time>2020-06-20T13:39:21Z</time>
      </trkpt>
      <trkpt lat="45.7957" lon="5.57331">
        <ele>999.82</ele>
        <time>2020-06-20T13:39:23Z</time>
      </trkpt>
      <trkpt lat="45.79573" lon="5.5733">
        <ele>999.98</ele>
        <time>2020-06-20T13:39:26Z</time>
      </trkpt>
      <trkpt lat="45.79575" lon="5.57329">
        <ele>1000.1</ele>
        <time>2020-06-20T13:39:28Z</time>
      </trkpt>
      <trkpt lat="45.79577" lon="5.57327">
        <ele>1000.26</ele>
        <time>2020-06-20T13:39:31Z</time>
      </trkpt>
      <trkpt lat="45.79579" lon="5.57326">
        <ele>1000.37</ele>
        <time>2020-06-20T13:39:33Z</time>
      </trkpt>
      <trkpt lat="45.79581" lon="5.57326">
        <ele>1000.53</ele>
        <time>2020-06-20T13:39:36Z</time>
      </trkpt>
      <trkpt lat="45.7958" lon="5.57324">
        <ele>1000.84</ele>
        <time>2020-06-20T13:39:41Z</time>
      </trkpt>
      <trkpt lat="45.7958" lon="5.57321">
        <ele>1001.22</ele>
        <time>2020-06-20T13:39:47Z</time>
      </trkpt>
      <trkpt lat="45.79582" lon="5.57319">
        <ele>1001.54</ele>
        <time>2020-06-20T13:39:52Z</time>
      </trkpt>
      <trkpt lat="45.79583" lon="5.57318">
        <ele>1001.68</ele>
        <time>2020-06-20T13:39:54Z</time>
      </trkpt>
      <trkpt lat="45.79586" lon="5.57317">
        <ele>1001.96</ele>
        <time>2020-06-20T13:39:58Z</time>
      </trkpt>
      <trkpt lat="45.79587" lon="5.57316">
        <ele>1002.1</ele>
        <time>2020-06-20T13:40:00Z</time>
      </trkpt>
      <trkpt lat="45.7959" lon="5.57317">
        <ele>1002.24</ele>
        <time>2020-06-20T13:40:02Z</time>
      </trkpt>
      <trkpt lat="45.79592" lon="5.57316">
        <ele>1002.53</ele>
        <time>2020-06-20T13:40:06Z</time>
      </trkpt>
      <trkpt lat="45.79594" lon="5.57316">
        <ele>1002.67</ele>
        <time>2020-06-20T13:40:08Z</time>
      </trkpt>
      <trkpt lat="45.79596" lon="5.57316">
        <ele>1002.74</ele>
        <time>2020-06-20T13:40:09Z</time>
      </trkpt>
      <trkpt lat="45.79598" lon="5.57317">
        <ele>1002.89</ele>
        <time>2020-06-20T13:40:11Z</time>
      </trkpt>
      <trkpt lat="45.796" lon="5.57317">
        <ele>1003.03</ele>
        <time>2020-06-20T13:40:13Z</time>
      </trkpt>
      <trkpt lat="45.79603" lon="5.57317">
        <ele>1003.25</ele>
        <time>2020-06-20T13:40:16Z</time>
      </trkpt>
      <trkpt lat="45.79607" lon="5.57317">
        <ele>1003.47</ele>
        <time>2020-06-20T13:40:19Z</time>
      </trkpt>
      <trkpt lat="45.7961" lon="5.57318">
        <ele>1003.77</ele>
        <time>2020-06-20T13:40:23Z</time>
      </trkpt>
      <trkpt lat="45.79612" lon="5.57318">
        <ele>1003.99</ele>
        <time>2020-06-20T13:40:26Z</time>
      </trkpt>
      <trkpt lat="45.79615" lon="5.57318">
        <ele>1004.35</ele>
        <time>2020-06-20T13:40:31Z</time>
      </trkpt>
      <trkpt lat="45.79617" lon="5.57317">
        <ele>1004.49</ele>
        <time>2020-06-20T13:40:33Z</time>
      </trkpt>
      <trkpt lat="45.79618" lon="5.57316">
        <ele>1004.56</ele>
        <time>2020-06-20T13:40:34Z</time>
      </trkpt>
      <trkpt lat="45.79621" lon="5.57314">
        <ele>1005.05</ele>
        <time>2020-06-20T13:40:41Z</time>
      </trkpt>
      <trkpt lat="45.79623" lon="5.57313">
        <ele>1005.26</ele>
        <time>2020-06-20T13:40:44Z</time>
      </trkpt>
      <trkpt lat="45.79625" lon="5.57312">
        <ele>1005.4</ele>
        <time>2020-06-20T13:40:46Z</time>
      </trkpt>
      <trkpt lat="45.79629" lon="5.57312">
        <ele>1005.67</ele>
        <time>2020-06-20T13:40:50Z</time>
      </trkpt>
      <trkpt lat="45.79631" lon="5.57311">
        <ele>1005.74</ele>
        <time>2020-06-20T13:40:51Z</time>
      </trkpt>
      <trkpt lat="45.79634" lon="5.57312">
        <ele>1005.87</ele>
        <time>2020-06-20T13:40:53Z</time>
      </trkpt>
      <trkpt lat="45.79636" lon="5.57311">
        <ele>1006.06</ele>
        <time>2020-06-20T13:40:56Z</time>
      </trkpt>
      <trkpt lat="45.79638" lon="5.5731">
        <ele>1006.36</ele>
        <time>2020-06-20T13:41:01Z</time>
      </trkpt>
      <trkpt lat="45.7964" lon="5.5731">
        <ele>1006.61</ele>
        <time>2020-06-20T13:41:05Z</time>
      </trkpt>
      <trkpt lat="45.79643" lon="5.57309">
        <ele>1006.86</ele>
        <time>2020-06-20T13:41:09Z</time>
      </trkpt>
      <trkpt lat="45.79646" lon="5.57309">
        <ele>1007.04</ele>
        <time>2020-06-20T13:41:12Z</time>
      </trkpt>
      <trkpt lat="45.79648" lon="5.57309">
        <ele>1007.15</ele>
        <time>2020-06-20T13:41:14Z</time>
      </trkpt>
      <trkpt lat="45.79651" lon="5.57309">
        <ele>1007.31</ele>
        <time>2020-06-20T13:41:17Z</time>
      </trkpt>
      <trkpt lat="45.79654" lon="5.57309">
        <ele>1007.51</ele>
        <time>2020-06-20T13:41:21Z</time>
      </trkpt>
      <trkpt lat="45.79657" lon="5.57309">
        <ele>1007.72</ele>
        <time>2020-06-20T13:41:25Z</time>
      </trkpt>
      <trkpt lat="45.7966" lon="5.57309">
        <ele>1007.87</ele>
        <time>2020-06-20T13:41:28Z</time>
      </trkpt>
      <trkpt lat="45.79663" lon="5.57309">
        <ele>1008.01</ele>
        <time>2020-06-20T13:41:31Z</time>
      </trkpt>
      <trkpt lat="45.79664" lon="5.5731">
        <ele>1008.15</ele>
        <time>2020-06-20T13:41:34Z</time>
      </trkpt>
      <trkpt lat="45.79667" lon="5.5731">
        <ele>1008.29</ele>
        <time>2020-06-20T13:41:37Z</time>
      </trkpt>
      <trkpt lat="45.7967" lon="5.5731">
        <ele>1008.55</ele>
        <time>2020-06-20T13:41:42Z</time>
      </trkpt>
      <trkpt lat="45.79672" lon="5.57309">
        <ele>1008.66</ele>
        <time>2020-06-20T13:41:44Z</time>
      </trkpt>
      <trkpt lat="45.79675" lon="5.57308">
        <ele>1008.81</ele>
        <time>2020-06-20T13:41:47Z</time>
      </trkpt>
      <trkpt lat="45.79678" lon="5.57307">
        <ele>1008.91</ele>
        <time>2020-06-20T13:41:49Z</time>
      </trkpt>
      <trkpt lat="45.79679" lon="5.57305">
        <ele>1009.06</ele>
        <time>2020-06-20T13:41:52Z</time>
      </trkpt>
      <trkpt lat="45.79681" lon="5.57303">
        <ele>1009.22</ele>
        <time>2020-06-20T13:41:55Z</time>
      </trkpt>
      <trkpt lat="45.79684" lon="5.57301">
        <ele>1009.33</ele>
        <time>2020-06-20T13:41:57Z</time>
      </trkpt>
      <trkpt lat="45.79687" lon="5.57301">
        <ele>1009.59</ele>
        <time>2020-06-20T13:42:02Z</time>
      </trkpt>
      <trkpt lat="45.79689" lon="5.57302">
        <ele>1009.75</ele>
        <time>2020-06-20T13:42:05Z</time>
      </trkpt>
      <trkpt lat="45.79691" lon="5.57302">
        <ele>1009.86</ele>
        <time>2020-06-20T13:42:07Z</time>
      </trkpt>
      <trkpt lat="45.79693" lon="5.57302">
        <ele>1010.02</ele>
        <time>2020-06-20T13:42:10Z</time>
      </trkpt>
      <trkpt lat="45.79694" lon="5.57303">
        <ele>1010.39</ele>
        <time>2020-06-20T13:42:18Z</time>
      </trkpt>
      <trkpt lat="45.79696" lon="5.57304">
        <ele>1010.5</ele>
        <time>2020-06-20T13:42:20Z</time>
      </trkpt>
      <trkpt lat="45.79699" lon="5.57305">
        <ele>1010.66</ele>
        <time>2020-06-20T13:42:23Z</time>
      </trkpt>
      <trkpt lat="45.79701" lon="5.57306">
        <ele>1010.78</ele>
        <time>2020-06-20T13:42:25Z</time>
      </trkpt>
      <trkpt lat="45.79703" lon="5.57308">
        <ele>1010.95</ele>
        <time>2020-06-20T13:42:28Z</time>
      </trkpt>
      <trkpt lat="45.79705" lon="5.57308">
        <ele>1011.01</ele>
        <time>2020-06-20T13:42:29Z</time>
      </trkpt>
      <trkpt lat="45.79707" lon="5.57308">
        <ele>1011.19</ele>
        <time>2020-06-20T13:42:32Z</time>
      </trkpt>
      <trkpt lat="45.7971" lon="5.57309">
        <ele>1011.31</ele>
        <time>2020-06-20T13:42:34Z</time>
      </trkpt>
      <trkpt lat="45.79713" lon="5.5731">
        <ele>1011.49</ele>
        <time>2020-06-20T13:42:37Z</time>
      </trkpt>
      <trkpt lat="45.79715" lon="5.5731">
        <ele>1011.6</ele>
        <time>2020-06-20T13:42:39Z</time>
      </trkpt>
      <trkpt lat="45.79718" lon="5.57311">
        <ele>1012.05</ele>
        <time>2020-06-20T13:42:47Z</time>
      </trkpt>
      <trkpt lat="45.7972" lon="5.57311">
        <ele>1012.16</ele>
        <time>2020-06-20T13:42:49Z</time>
      </trkpt>
      <trkpt lat="45.79723" lon="5.57311">
        <ele>1012.26</ele>
        <time>2020-06-20T13:42:51Z</time>
      </trkpt>
      <trkpt lat="45.79725" lon="5.5731">
        <ele>1012.36</ele>
        <time>2020-06-20T13:42:53Z</time>
      </trkpt>
      <trkpt lat="45.79728" lon="5.5731">
        <ele>1012.51</ele>
        <time>2020-06-20T13:42:56Z</time>
      </trkpt>
      <trkpt lat="45.79731" lon="5.57309">
        <ele>1012.62</ele>
        <time>2020-06-20T13:42:58Z</time>
      </trkpt>
      <trkpt lat="45.79733" lon="5.5731">
        <ele>1012.68</ele>
        <time>2020-06-20T13:42:59Z</time>
      </trkpt>
      <trkpt lat="45.79736" lon="5.5731">
        <ele>1012.88</ele>
        <time>2020-06-20T13:43:03Z</time>
      </trkpt>
      <trkpt lat="45.79739" lon="5.57311">
        <ele>1013.12</ele>
        <time>2020-06-20T13:43:08Z</time>
      </trkpt>
      <trkpt lat="45.79741" lon="5.57311">
        <ele>1013.32</ele>
        <time>2020-06-20T13:43:12Z</time>
      </trkpt>
      <trkpt lat="45.79744" lon="5.57309">
        <ele>1013.65</ele>
        <time>2020-06-20T13:43:18Z</time>
      </trkpt>
      <trkpt lat="45.79747" lon="5.57307">
        <ele>1013.87</ele>
        <time>2020-06-20T13:43:22Z</time>
      </trkpt>
      <trkpt lat="45.79749" lon="5.57305">
        <ele>1014.21</ele>
        <time>2020-06-20T13:43:28Z</time>
      </trkpt>
      <trkpt lat="45.79752" lon="5.57303">
        <ele>1014.33</ele>
        <time>2020-06-20T13:43:30Z</time>
      </trkpt>
      <trkpt lat="45.79755" lon="5.57302">
        <ele>1014.78</ele>
        <time>2020-06-20T13:43:37Z</time>
      </trkpt>
      <trkpt lat="45.79755" lon="5.57299">
        <ele>1015.57</ele>
        <time>2020-06-20T13:43:46Z</time>
      </trkpt>
      <trkpt lat="45.79756" lon="5.57296">
        <ele>1015.97</ele>
        <time>2020-06-20T13:43:50Z</time>
      </trkpt>
      <trkpt lat="45.79757" lon="5.57293">
        <ele>1016.3</ele>
        <time>2020-06-20T13:43:53Z</time>
      </trkpt>
      <trkpt lat="45.79759" lon="5.57291">
        <ele>1016.52</ele>
        <time>2020-06-20T13:43:55Z</time>
      </trkpt>
      <trkpt lat="45.79762" lon="5.57288">
        <ele>1016.85</ele>
        <time>2020-06-20T13:43:58Z</time>
      </trkpt>
      <trkpt lat="45.79764" lon="5.57285">
        <ele>1017.29</ele>
        <time>2020-06-20T13:44:02Z</time>
      </trkpt>
      <trkpt lat="45.79764" lon="5.57281">
        <ele>1017.63</ele>
        <time>2020-06-20T13:44:05Z</time>
      </trkpt>
      <trkpt lat="45.79766" lon="5.57279">
        <ele>1017.98</ele>
        <time>2020-06-20T13:44:08Z</time>
      </trkpt>
      <trkpt lat="45.79768" lon="5.57279">
        <ele>1018.21</ele>
        <time>2020-06-20T13:44:10Z</time>
      </trkpt>
      <trkpt lat="45.79772" lon="5.57279">
        <ele>1018.43</ele>
        <time>2020-06-20T13:44:12Z</time>
      </trkpt>
      <trkpt lat="45.79774" lon="5.5728">
        <ele>1018.54</ele>
        <time>2020-06-20T13:44:13Z</time>
      </trkpt>
      <trkpt lat="45.79777" lon="5.57281">
        <ele>1018.76</ele>
        <time>2020-06-20T13:44:15Z</time>
      </trkpt>
      <trkpt lat="45.7978" lon="5.57281">
        <ele>1018.87</ele>
        <time>2020-06-20T13:44:16Z</time>
      </trkpt>
      <trkpt lat="45.79782" lon="5.5728">
        <ele>1019.09</ele>
        <time>2020-06-20T13:44:18Z</time>
      </trkpt>
      <trkpt lat="45.79784" lon="5.57279">
        <ele>1019.42</ele>
        <time>2020-06-20T13:44:21Z</time>
      </trkpt>
      <trkpt lat="45.79786" lon="5.57278">
        <ele>1019.97</ele>
        <time>2020-06-20T13:44:27Z</time>
      </trkpt>
      <trkpt lat="45.79789" lon="5.57276">
        <ele>1020.29</ele>
        <time>2020-06-20T13:44:30Z</time>
      </trkpt>
      <trkpt lat="45.79792" lon="5.57275">
        <ele>1020.61</ele>
        <time>2020-06-20T13:44:33Z</time>
      </trkpt>
      <trkpt lat="45.79794" lon="5.57272">
        <ele>1020.82</ele>
        <time>2020-06-20T13:44:35Z</time>
      </trkpt>
      <trkpt lat="45.79796" lon="5.5727">
        <ele>1021.24</ele>
        <time>2020-06-20T13:44:39Z</time>
      </trkpt>
      <trkpt lat="45.79799" lon="5.57268">
        <ele>1021.54</ele>
        <time>2020-06-20T13:44:42Z</time>
      </trkpt>
      <trkpt lat="45.79801" lon="5.5727">
        <ele>1021.93</ele>
        <time>2020-06-20T13:44:46Z</time>
      </trkpt>
      <trkpt lat="45.79803" lon="5.5727">
        <ele>1022.23</ele>
        <time>2020-06-20T13:44:49Z</time>
      </trkpt>
      <trkpt lat="45.79806" lon="5.57269">
        <ele>1022.52</ele>
        <time>2020-06-20T13:44:52Z</time>
      </trkpt>
      <trkpt lat="45.79809" lon="5.57267">
        <ele>1022.71</ele>
        <time>2020-06-20T13:44:54Z</time>
      </trkpt>
      <trkpt lat="45.79811" lon="5.57267">
        <ele>1023.17</ele>
        <time>2020-06-20T13:44:59Z</time>
      </trkpt>
      <trkpt lat="45.79814" lon="5.57266">
        <ele>1023.36</ele>
        <time>2020-06-20T13:45:01Z</time>
      </trkpt>
      <trkpt lat="45.79816" lon="5.57265">
        <ele>1023.54</ele>
        <time>2020-06-20T13:45:03Z</time>
      </trkpt>
      <trkpt lat="45.79819" lon="5.57265">
        <ele>1023.91</ele>
        <time>2020-06-20T13:45:08Z</time>
      </trkpt>
      <trkpt lat="45.79821" lon="5.57264">
        <ele>1024.1</ele>
        <time>2020-06-20T13:45:10Z</time>
      </trkpt>
      <trkpt lat="45.79823" lon="5.57263">
        <ele>1024.48</ele>
        <time>2020-06-20T13:45:14Z</time>
      </trkpt>
      <trkpt lat="45.79825" lon="5.57262">
        <ele>1024.66</ele>
        <time>2020-06-20T13:45:16Z</time>
      </trkpt>
      <trkpt lat="45.79828" lon="5.57263">
        <ele>1024.94</ele>
        <time>2020-06-20T13:45:19Z</time>
      </trkpt>
      <trkpt lat="45.79828" lon="5.57259">
        <ele>1025.23</ele>
        <time>2020-06-20T13:45:22Z</time>
      </trkpt>
      <trkpt lat="45.79826" lon="5.57256">
        <ele>1025.43</ele>
        <time>2020-06-20T13:45:24Z</time>
      </trkpt>
      <trkpt lat="45.79826" lon="5.57254">
        <ele>1026.08</ele>
        <time>2020-06-20T13:45:30Z</time>
      </trkpt>
      <trkpt lat="45.79828" lon="5.57251">
        <ele>1026.5</ele>
        <time>2020-06-20T13:45:34Z</time>
      </trkpt>
      <trkpt lat="45.79831" lon="5.57251">
        <ele>1026.8</ele>
        <time>2020-06-20T13:45:37Z</time>
      </trkpt>
      <trkpt lat="45.79833" lon="5.57252">
        <ele>1027</ele>
        <time>2020-06-20T13:45:39Z</time>
      </trkpt>
      <trkpt lat="45.79835" lon="5.5725">
        <ele>1027.21</ele>
        <time>2020-06-20T13:45:41Z</time>
      </trkpt>
      <trkpt lat="45.79838" lon="5.5725">
        <ele>1027.5</ele>
        <time>2020-06-20T13:45:44Z</time>
      </trkpt>
      <trkpt lat="45.79838" lon="5.57248">
        <ele>1027.97</ele>
        <time>2020-06-20T13:45:49Z</time>
      </trkpt>
      <trkpt lat="45.7984" lon="5.57246">
        <ele>1028.61</ele>
        <time>2020-06-20T13:45:57Z</time>
      </trkpt>
      <trkpt lat="45.79843" lon="5.57246">
        <ele>1028.95</ele>
        <time>2020-06-20T13:46:01Z</time>
      </trkpt>
      <trkpt lat="45.79846" lon="5.57246">
        <ele>1029.13</ele>
        <time>2020-06-20T13:46:03Z</time>
      </trkpt>
      <trkpt lat="45.79849" lon="5.57245">
        <ele>1029.31</ele>
        <time>2020-06-20T13:46:05Z</time>
      </trkpt>
      <trkpt lat="45.79852" lon="5.57245">
        <ele>1029.49</ele>
        <time>2020-06-20T13:46:07Z</time>
      </trkpt>
      <trkpt lat="45.79855" lon="5.57246">
        <ele>1029.67</ele>
        <time>2020-06-20T13:46:09Z</time>
      </trkpt>
      <trkpt lat="45.79859" lon="5.57245">
        <ele>1029.94</ele>
        <time>2020-06-20T13:46:12Z</time>
      </trkpt>
      <trkpt lat="45.79861" lon="5.57246">
        <ele>1030.03</ele>
        <time>2020-06-20T13:46:13Z</time>
      </trkpt>
      <trkpt lat="45.79863" lon="5.57245">
        <ele>1030.13</ele>
        <time>2020-06-20T13:46:14Z</time>
      </trkpt>
      <trkpt lat="45.79866" lon="5.57244">
        <ele>1030.31</ele>
        <time>2020-06-20T13:46:16Z</time>
      </trkpt>
      <trkpt lat="45.7987" lon="5.57245">
        <ele>1030.59</ele>
        <time>2020-06-20T13:46:19Z</time>
      </trkpt>
      <trkpt lat="45.79872" lon="5.57244">
        <ele>1030.68</ele>
        <time>2020-06-20T13:46:20Z</time>
      </trkpt>
      <trkpt lat="45.79873" lon="5.57243">
        <ele>1030.78</ele>
        <time>2020-06-20T13:46:21Z</time>
      </trkpt>
      <trkpt lat="45.79877" lon="5.57243">
        <ele>1030.97</ele>
        <time>2020-06-20T13:46:23Z</time>
      </trkpt>
      <trkpt lat="45.79879" lon="5.57243">
        <ele>1031.06</ele>
        <time>2020-06-20T13:46:24Z</time>
      </trkpt>
      <trkpt lat="45.79882" lon="5.57244">
        <ele>1031.35</ele>
        <time>2020-06-20T13:46:27Z</time>
      </trkpt>
      <trkpt lat="45.79885" lon="5.57244">
        <ele>1031.44</ele>
        <time>2020-06-20T13:46:28Z</time>
      </trkpt>
      <trkpt lat="45.79888" lon="5.57244">
        <ele>1031.62</ele>
        <time>2020-06-20T13:46:30Z</time>
      </trkpt>
      <trkpt lat="45.7989" lon="5.57244">
        <ele>1031.71</ele>
        <time>2020-06-20T13:46:31Z</time>
      </trkpt>
      <trkpt lat="45.79893" lon="5.57246">
        <ele>1031.86</ele>
        <time>2020-06-20T13:46:33Z</time>
      </trkpt>
      <trkpt lat="45.79895" lon="5.57247">
        <ele>1032.01</ele>
        <time>2020-06-20T13:46:35Z</time>
      </trkpt>
      <trkpt lat="45.79896" lon="5.57249">
        <ele>1032.08</ele>
        <time>2020-06-20T13:46:36Z</time>
      </trkpt>
      <trkpt lat="45.799" lon="5.57249">
        <ele>1032.21</ele>
        <time>2020-06-20T13:46:38Z</time>
      </trkpt>
      <trkpt lat="45.79902" lon="5.57246">
        <ele>1032.34</ele>
        <time>2020-06-20T13:46:40Z</time>
      </trkpt>
      <trkpt lat="45.79905" lon="5.57245">
        <ele>1032.52</ele>
        <time>2020-06-20T13:46:42Z</time>
      </trkpt>
      <trkpt lat="45.79906" lon="5.57242">
        <ele>1032.62</ele>
        <time>2020-06-20T13:46:43Z</time>
      </trkpt>
      <trkpt lat="45.79908" lon="5.57239">
        <ele>1032.81</ele>
        <time>2020-06-20T13:46:45Z</time>
      </trkpt>
      <trkpt lat="45.79911" lon="5.57238">
        <ele>1033</ele>
        <time>2020-06-20T13:46:47Z</time>
      </trkpt>
      <trkpt lat="45.79914" lon="5.57235">
        <ele>1033.22</ele>
        <time>2020-06-20T13:46:49Z</time>
      </trkpt>
      <trkpt lat="45.79916" lon="5.57236">
        <ele>1034.24</ele>
        <time>2020-06-20T13:46:55Z</time>
      </trkpt>
      <trkpt lat="45.79919" lon="5.57237">
        <ele>1034.6</ele>
        <time>2020-06-20T13:46:57Z</time>
      </trkpt>
      <trkpt lat="45.79922" lon="5.57237">
        <ele>1035.17</ele>
        <time>2020-06-20T13:47:00Z</time>
      </trkpt>
      <trkpt lat="45.79925" lon="5.57237">
        <ele>1035.78</ele>
        <time>2020-06-20T13:47:03Z</time>
      </trkpt>
      <trkpt lat="45.79926" lon="5.57235">
        <ele>1035.98</ele>
        <time>2020-06-20T13:47:04Z</time>
      </trkpt>
      <trkpt lat="45.79929" lon="5.57235">
        <ele>1036.38</ele>
        <time>2020-06-20T13:47:06Z</time>
      </trkpt>
      <trkpt lat="45.79931" lon="5.57235">
        <ele>1036.77</ele>
        <time>2020-06-20T13:47:08Z</time>
      </trkpt>
      <trkpt lat="45.79933" lon="5.57233">
        <ele>1037.75</ele>
        <time>2020-06-20T13:47:13Z</time>
      </trkpt>
      <trkpt lat="45.79935" lon="5.57233">
        <ele>1038.56</ele>
        <time>2020-06-20T13:47:17Z</time>
      </trkpt>
      <trkpt lat="45.79938" lon="5.57233">
        <ele>1039.22</ele>
        <time>2020-06-20T13:47:20Z</time>
      </trkpt>
      <trkpt lat="45.79941" lon="5.57234">
        <ele>1039.66</ele>
        <time>2020-06-20T13:47:22Z</time>
      </trkpt>
      <trkpt lat="45.79944" lon="5.57236">
        <ele>1040.09</ele>
        <time>2020-06-20T13:47:23Z</time>
      </trkpt>
      <trkpt lat="45.79945" lon="5.57238">
        <ele>1040.3</ele>
        <time>2020-06-20T13:47:24Z</time>
      </trkpt>
      <trkpt lat="45.79948" lon="5.57238">
        <ele>1040.71</ele>
        <time>2020-06-20T13:47:26Z</time>
      </trkpt>
      <trkpt lat="45.79951" lon="5.57239">
        <ele>1041.11</ele>
        <time>2020-06-20T13:47:28Z</time>
      </trkpt>
      <trkpt lat="45.79954" lon="5.57239">
        <ele>1041.51</ele>
        <time>2020-06-20T13:47:30Z</time>
      </trkpt>
      <trkpt lat="45.79957" lon="5.57239">
        <ele>1042.11</ele>
        <time>2020-06-20T13:47:33Z</time>
      </trkpt>
      <trkpt lat="45.7996" lon="5.57237">
        <ele>1042.5</ele>
        <time>2020-06-20T13:47:35Z</time>
      </trkpt>
      <trkpt lat="45.79962" lon="5.57235">
        <ele>1043.05</ele>
        <time>2020-06-20T13:47:38Z</time>
      </trkpt>
      <trkpt lat="45.79965" lon="5.57235">
        <ele>1043.76</ele>
        <time>2020-06-20T13:47:42Z</time>
      </trkpt>
      <trkpt lat="45.79967" lon="5.57235">
        <ele>1044.08</ele>
        <time>2020-06-20T13:47:44Z</time>
      </trkpt>
      <trkpt lat="45.7997" lon="5.57232">
        <ele>1044.72</ele>
        <time>2020-06-20T13:47:48Z</time>
      </trkpt>
      <trkpt lat="45.79973" lon="5.57231">
        <ele>1045.34</ele>
        <time>2020-06-20T13:47:52Z</time>
      </trkpt>
      <trkpt lat="45.79974" lon="5.57228">
        <ele>1046.11</ele>
        <time>2020-06-20T13:47:57Z</time>
      </trkpt>
      <trkpt lat="45.79974" lon="5.57224">
        <ele>1046.77</ele>
        <time>2020-06-20T13:48:01Z</time>
      </trkpt>
      <trkpt lat="45.79977" lon="5.57223">
        <ele>1047.62</ele>
        <time>2020-06-20T13:48:06Z</time>
      </trkpt>
      <trkpt lat="45.79979" lon="5.57223">
        <ele>1048.12</ele>
        <time>2020-06-20T13:48:09Z</time>
      </trkpt>
      <trkpt lat="45.79982" lon="5.57222">
        <ele>1048.45</ele>
        <time>2020-06-20T13:48:11Z</time>
      </trkpt>
      <trkpt lat="45.79984" lon="5.5722">
        <ele>1048.8</ele>
        <time>2020-06-20T13:48:13Z</time>
      </trkpt>
      <trkpt lat="45.79985" lon="5.57218">
        <ele>1048.97</ele>
        <time>2020-06-20T13:48:14Z</time>
      </trkpt>
      <trkpt lat="45.79987" lon="5.57218">
        <ele>1049.5</ele>
        <time>2020-06-20T13:48:17Z</time>
      </trkpt>
      <trkpt lat="45.79989" lon="5.57217">
        <ele>1049.87</ele>
        <time>2020-06-20T13:48:19Z</time>
      </trkpt>
      <trkpt lat="45.79991" lon="5.57216">
        <ele>1050.4</ele>
        <time>2020-06-20T13:48:22Z</time>
      </trkpt>
      <trkpt lat="45.79993" lon="5.57214">
        <ele>1050.75</ele>
        <time>2020-06-20T13:48:24Z</time>
      </trkpt>
      <trkpt lat="45.79994" lon="5.57213">
        <ele>1051.3</ele>
        <time>2020-06-20T13:48:27Z</time>
      </trkpt>
      <trkpt lat="45.79996" lon="5.5721">
        <ele>1051.87</ele>
        <time>2020-06-20T13:48:30Z</time>
      </trkpt>
      <trkpt lat="45.79998" lon="5.57209">
        <ele>1052.23</ele>
        <time>2020-06-20T13:48:32Z</time>
      </trkpt>
      <trkpt lat="45.80001" lon="5.57208">
        <ele>1053.1</ele>
        <time>2020-06-20T13:48:37Z</time>
      </trkpt>
      <trkpt lat="45.80003" lon="5.57207">
        <ele>1053.28</ele>
        <time>2020-06-20T13:48:38Z</time>
      </trkpt>
      <trkpt lat="45.80006" lon="5.57206">
        <ele>1053.64</ele>
        <time>2020-06-20T13:48:40Z</time>
      </trkpt>
      <trkpt lat="45.80007" lon="5.57204">
        <ele>1053.99</ele>
        <time>2020-06-20T13:48:42Z</time>
      </trkpt>
      <trkpt lat="45.80008" lon="5.57202">
        <ele>1054.5</ele>
        <time>2020-06-20T13:48:45Z</time>
      </trkpt>
      <trkpt lat="45.80011" lon="5.572">
        <ele>1055.01</ele>
        <time>2020-06-20T13:48:49Z</time>
      </trkpt>
      <trkpt lat="45.80012" lon="5.57196">
        <ele>1055.78</ele>
        <time>2020-06-20T13:48:54Z</time>
      </trkpt>
      <trkpt lat="45.80015" lon="5.57196">
        <ele>1056.21</ele>
        <time>2020-06-20T13:48:57Z</time>
      </trkpt>
      <trkpt lat="45.80017" lon="5.57197">
        <ele>1056.5</ele>
        <time>2020-06-20T13:48:59Z</time>
      </trkpt>
      <trkpt lat="45.80021" lon="5.57198">
        <ele>1056.79</ele>
        <time>2020-06-20T13:49:01Z</time>
      </trkpt>
      <trkpt lat="45.80024" lon="5.57196">
        <ele>1057.08</ele>
        <time>2020-06-20T13:49:03Z</time>
      </trkpt>
      <trkpt lat="45.80025" lon="5.57195">
        <ele>1057.64</ele>
        <time>2020-06-20T13:49:07Z</time>
      </trkpt>
      <trkpt lat="45.80026" lon="5.57198">
        <ele>1057.78</ele>
        <time>2020-06-20T13:49:08Z</time>
      </trkpt>
      <trkpt lat="45.80028" lon="5.572">
        <ele>1058.36</ele>
        <time>2020-06-20T13:49:12Z</time>
      </trkpt>
      <trkpt lat="45.8003" lon="5.57201">
        <ele>1058.63</ele>
        <time>2020-06-20T13:49:14Z</time>
      </trkpt>
      <trkpt lat="45.80032" lon="5.57201">
        <ele>1058.9</ele>
        <time>2020-06-20T13:49:16Z</time>
      </trkpt>
      <trkpt lat="45.80034" lon="5.57199">
        <ele>1059.04</ele>
        <time>2020-06-20T13:49:17Z</time>
      </trkpt>
      <trkpt lat="45.80035" lon="5.57197">
        <ele>1059.18</ele>
        <time>2020-06-20T13:49:18Z</time>
      </trkpt>
      <trkpt lat="45.80037" lon="5.57196">
        <ele>1059.3</ele>
        <time>2020-06-20T13:49:19Z</time>
      </trkpt>
      <trkpt lat="45.8004" lon="5.57193">
        <ele>1059.55</ele>
        <time>2020-06-20T13:49:21Z</time>
      </trkpt>
      <trkpt lat="45.80044" lon="5.57193">
        <ele>1059.9</ele>
        <time>2020-06-20T13:49:24Z</time>
      </trkpt>
      <trkpt lat="45.80046" lon="5.57191">
        <ele>1060.13</ele>
        <time>2020-06-20T13:49:26Z</time>
      </trkpt>
      <trkpt lat="45.80048" lon="5.57189">
        <ele>1060.24</ele>
        <time>2020-06-20T13:49:27Z</time>
      </trkpt>
      <trkpt lat="45.8005" lon="5.57188">
        <ele>1060.57</ele>
        <time>2020-06-20T13:49:30Z</time>
      </trkpt>
      <trkpt lat="45.80051" lon="5.57189">
        <ele>1061.05</ele>
        <time>2020-06-20T13:49:35Z</time>
      </trkpt>
      <trkpt lat="45.80053" lon="5.57189">
        <ele>1061.22</ele>
        <time>2020-06-20T13:49:37Z</time>
      </trkpt>
      <trkpt lat="45.80055" lon="5.57187">
        <ele>1061.39</ele>
        <time>2020-06-20T13:49:39Z</time>
      </trkpt>
      <trkpt lat="45.80057" lon="5.57185">
        <ele>1061.47</ele>
        <time>2020-06-20T13:49:40Z</time>
      </trkpt>
      <trkpt lat="45.80059" lon="5.57184">
        <ele>1061.63</ele>
        <time>2020-06-20T13:49:42Z</time>
      </trkpt>
      <trkpt lat="45.80062" lon="5.57183">
        <ele>1061.8</ele>
        <time>2020-06-20T13:49:44Z</time>
      </trkpt>
      <trkpt lat="45.80065" lon="5.57182">
        <ele>1061.88</ele>
        <time>2020-06-20T13:49:45Z</time>
      </trkpt>
      <trkpt lat="45.80067" lon="5.57182">
        <ele>1061.97</ele>
        <time>2020-06-20T13:49:46Z</time>
      </trkpt>
      <trkpt lat="45.80069" lon="5.57181">
        <ele>1062.14</ele>
        <time>2020-06-20T13:49:48Z</time>
      </trkpt>
      <trkpt lat="45.80072" lon="5.57179">
        <ele>1062.55</ele>
        <time>2020-06-20T13:49:53Z</time>
      </trkpt>
      <trkpt lat="45.80075" lon="5.57179">
        <ele>1062.86</ele>
        <time>2020-06-20T13:49:57Z</time>
      </trkpt>
      <trkpt lat="45.80078" lon="5.57178">
        <ele>1063.01</ele>
        <time>2020-06-20T13:49:59Z</time>
      </trkpt>
      <trkpt lat="45.80081" lon="5.57176">
        <ele>1063.24</ele>
        <time>2020-06-20T13:50:02Z</time>
      </trkpt>
      <trkpt lat="45.80083" lon="5.57175">
        <ele>1063.46</ele>
        <time>2020-06-20T13:50:05Z</time>
      </trkpt>
      <trkpt lat="45.80085" lon="5.57174">
        <ele>1063.62</ele>
        <time>2020-06-20T13:50:07Z</time>
      </trkpt>
      <trkpt lat="45.80085" lon="5.57172">
        <ele>1063.94</ele>
        <time>2020-06-20T13:50:12Z</time>
      </trkpt>
      <trkpt lat="45.80088" lon="5.57169">
        <ele>1064.38</ele>
        <time>2020-06-20T13:50:17Z</time>
      </trkpt>
      <trkpt lat="45.8009" lon="5.57167">
        <ele>1064.82</ele>
        <time>2020-06-20T13:50:21Z</time>
      </trkpt>
      <trkpt lat="45.80092" lon="5.57166">
        <ele>1065.39</ele>
        <time>2020-06-20T13:50:26Z</time>
      </trkpt>
      <trkpt lat="45.80094" lon="5.57164">
        <ele>1065.97</ele>
        <time>2020-06-20T13:50:31Z</time>
      </trkpt>
      <trkpt lat="45.80096" lon="5.57163">
        <ele>1066.41</ele>
        <time>2020-06-20T13:50:35Z</time>
      </trkpt>
      <trkpt lat="45.80099" lon="5.57164">
        <ele>1066.82</ele>
        <time>2020-06-20T13:50:39Z</time>
      </trkpt>
      <trkpt lat="45.80101" lon="5.57164">
        <ele>1067.02</ele>
        <time>2020-06-20T13:50:41Z</time>
      </trkpt>
      <trkpt lat="45.80104" lon="5.57164">
        <ele>1067.21</ele>
        <time>2020-06-20T13:50:43Z</time>
      </trkpt>
      <trkpt lat="45.80106" lon="5.57161">
        <ele>1067.58</ele>
        <time>2020-06-20T13:50:47Z</time>
      </trkpt>
      <trkpt lat="45.80107" lon="5.57158">
        <ele>1068.22</ele>
        <time>2020-06-20T13:50:56Z</time>
      </trkpt>
      <trkpt lat="45.8011" lon="5.57157">
        <ele>1068.57</ele>
        <time>2020-06-20T13:51:00Z</time>
      </trkpt>
      <trkpt lat="45.80113" lon="5.57156">
        <ele>1068.91</ele>
        <time>2020-06-20T13:51:04Z</time>
      </trkpt>
      <trkpt lat="45.80115" lon="5.57155">
        <ele>1069.21</ele>
        <time>2020-06-20T13:51:08Z</time>
      </trkpt>
      <trkpt lat="45.80118" lon="5.57154">
        <ele>1069.58</ele>
        <time>2020-06-20T13:51:22Z</time>
      </trkpt>
      <trkpt lat="45.8012" lon="5.57152">
        <ele>1070.01</ele>
        <time>2020-06-20T13:51:28Z</time>
      </trkpt>
      <trkpt lat="45.80122" lon="5.5715">
        <ele>1070.14</ele>
        <time>2020-06-20T13:51:30Z</time>
      </trkpt>
      <trkpt lat="45.80124" lon="5.57148">
        <ele>1070.26</ele>
        <time>2020-06-20T13:51:32Z</time>
      </trkpt>
      <trkpt lat="45.80126" lon="5.57146">
        <ele>1070.38</ele>
        <time>2020-06-20T13:51:34Z</time>
      </trkpt>
      <trkpt lat="45.80129" lon="5.57145">
        <ele>1070.66</ele>
        <time>2020-06-20T13:51:39Z</time>
      </trkpt>
      <trkpt lat="45.80131" lon="5.57143">
        <ele>1070.88</ele>
        <time>2020-06-20T13:51:43Z</time>
      </trkpt>
      <trkpt lat="45.80135" lon="5.57141">
        <ele>1071.11</ele>
        <time>2020-06-20T13:51:47Z</time>
      </trkpt>
      <trkpt lat="45.80137" lon="5.5714">
        <ele>1071.4</ele>
        <time>2020-06-20T13:51:52Z</time>
      </trkpt>
      <trkpt lat="45.80138" lon="5.57138">
        <ele>1071.58</ele>
        <time>2020-06-20T13:51:55Z</time>
      </trkpt>
      <trkpt lat="45.80142" lon="5.57136">
        <ele>1071.81</ele>
        <time>2020-06-20T13:51:59Z</time>
      </trkpt>
      <trkpt lat="45.80144" lon="5.57135">
        <ele>1071.87</ele>
        <time>2020-06-20T13:52:00Z</time>
      </trkpt>
      <trkpt lat="45.80146" lon="5.57134">
        <ele>1072.03</ele>
        <time>2020-06-20T13:52:03Z</time>
      </trkpt>
      <trkpt lat="45.80148" lon="5.57131">
        <ele>1072.32</ele>
        <time>2020-06-20T13:52:09Z</time>
      </trkpt>
      <trkpt lat="45.8015" lon="5.57129">
        <ele>1072.46</ele>
        <time>2020-06-20T13:52:12Z</time>
      </trkpt>
      <trkpt lat="45.80151" lon="5.57127">
        <ele>1072.56</ele>
        <time>2020-06-20T13:52:14Z</time>
      </trkpt>
      <trkpt lat="45.80153" lon="5.57125">
        <ele>1072.71</ele>
        <time>2020-06-20T13:52:17Z</time>
      </trkpt>
      <trkpt lat="45.80155" lon="5.57124">
        <ele>1072.84</ele>
        <time>2020-06-20T13:52:20Z</time>
      </trkpt>
      <trkpt lat="45.80157" lon="5.57124">
        <ele>1072.93</ele>
        <time>2020-06-20T13:52:22Z</time>
      </trkpt>
      <trkpt lat="45.80159" lon="5.57123">
        <ele>1073.02</ele>
        <time>2020-06-20T13:52:24Z</time>
      </trkpt>
      <trkpt lat="45.80162" lon="5.57122">
        <ele>1073.11</ele>
        <time>2020-06-20T13:52:26Z</time>
      </trkpt>
      <trkpt lat="45.80164" lon="5.57123">
        <ele>1073.16</ele>
        <time>2020-06-20T13:52:27Z</time>
      </trkpt>
      <trkpt lat="45.80166" lon="5.57123">
        <ele>1073.2</ele>
        <time>2020-06-20T13:52:28Z</time>
      </trkpt>
      <trkpt lat="45.80168" lon="5.57123">
        <ele>1073.24</ele>
        <time>2020-06-20T13:52:29Z</time>
      </trkpt>
      <trkpt lat="45.80171" lon="5.57122">
        <ele>1073.33</ele>
        <time>2020-06-20T13:52:31Z</time>
      </trkpt>
      <trkpt lat="45.80173" lon="5.57123">
        <ele>1073.37</ele>
        <time>2020-06-20T13:52:32Z</time>
      </trkpt>
      <trkpt lat="45.80176" lon="5.57123">
        <ele>1073.41</ele>
        <time>2020-06-20T13:52:33Z</time>
      </trkpt>
      <trkpt lat="45.80178" lon="5.57123">
        <ele>1073.45</ele>
        <time>2020-06-20T13:52:34Z</time>
      </trkpt>
      <trkpt lat="45.80181" lon="5.57122">
        <ele>1073.49</ele>
        <time>2020-06-20T13:52:35Z</time>
      </trkpt>
      <trkpt lat="45.80184" lon="5.57122">
        <ele>1073.57</ele>
        <time>2020-06-20T13:52:37Z</time>
      </trkpt>
      <trkpt lat="45.80186" lon="5.5712">
        <ele>1073.7</ele>
        <time>2020-06-20T13:52:40Z</time>
      </trkpt>
      <trkpt lat="45.80189" lon="5.57119">
        <ele>1073.84</ele>
        <time>2020-06-20T13:52:43Z</time>
      </trkpt>
      <trkpt lat="45.80192" lon="5.57117">
        <ele>1074.08</ele>
        <time>2020-06-20T13:52:48Z</time>
      </trkpt>
      <trkpt lat="45.80194" lon="5.57115">
        <ele>1074.22</ele>
        <time>2020-06-20T13:52:51Z</time>
      </trkpt>
      <trkpt lat="45.80196" lon="5.57113">
        <ele>1074.33</ele>
        <time>2020-06-20T13:52:53Z</time>
      </trkpt>
      <trkpt lat="45.80199" lon="5.57109">
        <ele>1074.42</ele>
        <time>2020-06-20T13:52:55Z</time>
      </trkpt>
      <trkpt lat="45.802" lon="5.57107">
        <ele>1074.66</ele>
        <time>2020-06-20T13:53:01Z</time>
      </trkpt>
      <trkpt lat="45.80202" lon="5.57104">
        <ele>1074.86</ele>
        <time>2020-06-20T13:53:05Z</time>
      </trkpt>
      <trkpt lat="45.80204" lon="5.57102">
        <ele>1074.96</ele>
        <time>2020-06-20T13:53:07Z</time>
      </trkpt>
      <trkpt lat="45.80206" lon="5.57101">
        <ele>1075.06</ele>
        <time>2020-06-20T13:53:09Z</time>
      </trkpt>
      <trkpt lat="45.80209" lon="5.57099">
        <ele>1075.22</ele>
        <time>2020-06-20T13:53:12Z</time>
      </trkpt>
      <trkpt lat="45.80211" lon="5.57099">
        <ele>1075.35</ele>
        <time>2020-06-20T13:53:14Z</time>
      </trkpt>
      <trkpt lat="45.80215" lon="5.57097">
        <ele>1075.52</ele>
        <time>2020-06-20T13:53:17Z</time>
      </trkpt>
      <trkpt lat="45.80218" lon="5.57096">
        <ele>1075.63</ele>
        <time>2020-06-20T13:53:19Z</time>
      </trkpt>
      <trkpt lat="45.8022" lon="5.57096">
        <ele>1075.73</ele>
        <time>2020-06-20T13:53:21Z</time>
      </trkpt>
      <trkpt lat="45.80223" lon="5.57096">
        <ele>1075.79</ele>
        <time>2020-06-20T13:53:22Z</time>
      </trkpt>
      <trkpt lat="45.80226" lon="5.57095">
        <ele>1075.89</ele>
        <time>2020-06-20T13:53:24Z</time>
      </trkpt>
      <trkpt lat="45.80228" lon="5.57094">
        <ele>1075.95</ele>
        <time>2020-06-20T13:53:25Z</time>
      </trkpt>
      <trkpt lat="45.8023" lon="5.57094">
        <ele>1076</ele>
        <time>2020-06-20T13:53:26Z</time>
      </trkpt>
      <trkpt lat="45.80232" lon="5.57094">
        <ele>1076.21</ele>
        <time>2020-06-20T13:53:30Z</time>
      </trkpt>
      <trkpt lat="45.80234" lon="5.57095">
        <ele>1076.45</ele>
        <time>2020-06-20T13:53:35Z</time>
      </trkpt>
      <trkpt lat="45.80236" lon="5.57095">
        <ele>1076.56</ele>
        <time>2020-06-20T13:53:37Z</time>
      </trkpt>
      <trkpt lat="45.80239" lon="5.57095">
        <ele>1076.66</ele>
        <time>2020-06-20T13:53:39Z</time>
      </trkpt>
      <trkpt lat="45.80241" lon="5.57094">
        <ele>1076.77</ele>
        <time>2020-06-20T13:53:41Z</time>
      </trkpt>
      <trkpt lat="45.80244" lon="5.57093">
        <ele>1076.91</ele>
        <time>2020-06-20T13:53:44Z</time>
      </trkpt>
      <trkpt lat="45.80246" lon="5.57093">
        <ele>1077.19</ele>
        <time>2020-06-20T13:53:50Z</time>
      </trkpt>
      <trkpt lat="45.80249" lon="5.57092">
        <ele>1077.38</ele>
        <time>2020-06-20T13:53:54Z</time>
      </trkpt>
      <trkpt lat="45.80251" lon="5.57092">
        <ele>1077.53</ele>
        <time>2020-06-20T13:53:57Z</time>
      </trkpt>
      <trkpt lat="45.80255" lon="5.57092">
        <ele>1077.79</ele>
        <time>2020-06-20T13:54:02Z</time>
      </trkpt>
      <trkpt lat="45.80257" lon="5.57091">
        <ele>1077.94</ele>
        <time>2020-06-20T13:54:05Z</time>
      </trkpt>
      <trkpt lat="45.80259" lon="5.5709">
        <ele>1078.04</ele>
        <time>2020-06-20T13:54:07Z</time>
      </trkpt>
      <trkpt lat="45.80263" lon="5.57089">
        <ele>1078.27</ele>
        <time>2020-06-20T13:54:12Z</time>
      </trkpt>
      <trkpt lat="45.80265" lon="5.57089">
        <ele>1078.32</ele>
        <time>2020-06-20T13:54:13Z</time>
      </trkpt>
      <trkpt lat="45.80267" lon="5.57088">
        <ele>1078.36</ele>
        <time>2020-06-20T13:54:14Z</time>
      </trkpt>
      <trkpt lat="45.8027" lon="5.57087">
        <ele>1078.53</ele>
        <time>2020-06-20T13:54:18Z</time>
      </trkpt>
      <trkpt lat="45.80273" lon="5.57087">
        <ele>1078.69</ele>
        <time>2020-06-20T13:54:22Z</time>
      </trkpt>
      <trkpt lat="45.80276" lon="5.57087">
        <ele>1078.82</ele>
        <time>2020-06-20T13:54:25Z</time>
      </trkpt>
      <trkpt lat="45.80278" lon="5.57087">
        <ele>1078.9</ele>
        <time>2020-06-20T13:54:27Z</time>
      </trkpt>
      <trkpt lat="45.80282" lon="5.57086">
        <ele>1079.05</ele>
        <time>2020-06-20T13:54:31Z</time>
      </trkpt>
      <trkpt lat="45.80285" lon="5.57085">
        <ele>1079.13</ele>
        <time>2020-06-20T13:54:33Z</time>
      </trkpt>
      <trkpt lat="45.80288" lon="5.57083">
        <ele>1079.34</ele>
        <time>2020-06-20T13:54:38Z</time>
      </trkpt>
      <trkpt lat="45.8029" lon="5.57082">
        <ele>1079.47</ele>
        <time>2020-06-20T13:54:41Z</time>
      </trkpt>
      <trkpt lat="45.80293" lon="5.5708">
        <ele>1079.66</ele>
        <time>2020-06-20T13:54:46Z</time>
      </trkpt>
      <trkpt lat="45.80295" lon="5.57077">
        <ele>1079.96</ele>
        <time>2020-06-20T13:54:53Z</time>
      </trkpt>
      <trkpt lat="45.80297" lon="5.57076">
        <ele>1080.19</ele>
        <time>2020-06-20T13:54:58Z</time>
      </trkpt>
      <trkpt lat="45.80299" lon="5.57078">
        <ele>1080.28</ele>
        <time>2020-06-20T13:55:00Z</time>
      </trkpt>
      <trkpt lat="45.80302" lon="5.57079">
        <ele>1080.4</ele>
        <time>2020-06-20T13:55:04Z</time>
      </trkpt>
      <trkpt lat="45.80303" lon="5.57078">
        <ele>1080.53</ele>
        <time>2020-06-20T13:55:07Z</time>
      </trkpt>
      <trkpt lat="45.80305" lon="5.57078">
        <ele>1080.72</ele>
        <time>2020-06-20T13:55:11Z</time>
      </trkpt>
      <trkpt lat="45.80308" lon="5.57079">
        <ele>1080.86</ele>
        <time>2020-06-20T13:55:14Z</time>
      </trkpt>
      <trkpt lat="45.8031" lon="5.5708">
        <ele>1080.99</ele>
        <time>2020-06-20T13:55:17Z</time>
      </trkpt>
      <trkpt lat="45.80313" lon="5.5708">
        <ele>1081.03</ele>
        <time>2020-06-20T13:55:18Z</time>
      </trkpt>
      <trkpt lat="45.80316" lon="5.57079">
        <ele>1081.17</ele>
        <time>2020-06-20T13:55:22Z</time>
      </trkpt>
      <trkpt lat="45.80318" lon="5.57079">
        <ele>1081.28</ele>
        <time>2020-06-20T13:55:24Z</time>
      </trkpt>
      <trkpt lat="45.80321" lon="5.57079">
        <ele>1081.51</ele>
        <time>2020-06-20T13:55:28Z</time>
      </trkpt>
      <trkpt lat="45.80324" lon="5.57079">
        <ele>1081.63</ele>
        <time>2020-06-20T13:55:30Z</time>
      </trkpt>
      <trkpt lat="45.80327" lon="5.57078">
        <ele>1081.69</ele>
        <time>2020-06-20T13:55:31Z</time>
      </trkpt>
      <trkpt lat="45.80329" lon="5.57077">
        <ele>1081.87</ele>
        <time>2020-06-20T13:55:34Z</time>
      </trkpt>
      <trkpt lat="45.80331" lon="5.57076">
        <ele>1082.51</ele>
        <time>2020-06-20T13:55:43Z</time>
      </trkpt>
      <trkpt lat="45.80333" lon="5.57078">
        <ele>1082.59</ele>
        <time>2020-06-20T13:55:44Z</time>
      </trkpt>
      <trkpt lat="45.80335" lon="5.57079">
        <ele>1082.74</ele>
        <time>2020-06-20T13:55:46Z</time>
      </trkpt>
      <trkpt lat="45.80337" lon="5.5708">
        <ele>1082.96</ele>
        <time>2020-06-20T13:55:49Z</time>
      </trkpt>
      <trkpt lat="45.8034" lon="5.57081">
        <ele>1083.37</ele>
        <time>2020-06-20T13:55:55Z</time>
      </trkpt>
      <trkpt lat="45.80341" lon="5.57083">
        <ele>1083.44</ele>
        <time>2020-06-20T13:55:56Z</time>
      </trkpt>
      <trkpt lat="45.80343" lon="5.57085">
        <ele>1083.65</ele>
        <time>2020-06-20T13:55:59Z</time>
      </trkpt>
      <trkpt lat="45.80346" lon="5.57086">
        <ele>1084.06</ele>
        <time>2020-06-20T13:56:05Z</time>
      </trkpt>
      <trkpt lat="45.80348" lon="5.57086">
        <ele>1084.86</ele>
        <time>2020-06-20T13:56:18Z</time>
      </trkpt>
      <trkpt lat="45.80349" lon="5.5709">
        <ele>1085.01</ele>
        <time>2020-06-20T13:56:20Z</time>
      </trkpt>
      <trkpt lat="45.80351" lon="5.5709">
        <ele>1085.18</ele>
        <time>2020-06-20T13:56:22Z</time>
      </trkpt>
      <trkpt lat="45.80353" lon="5.57092">
        <ele>1085.55</ele>
        <time>2020-06-20T13:56:26Z</time>
      </trkpt>
      <trkpt lat="45.80356" lon="5.57094">
        <ele>1085.74</ele>
        <time>2020-06-20T13:56:28Z</time>
      </trkpt>
      <trkpt lat="45.80358" lon="5.57095">
        <ele>1085.93</ele>
        <time>2020-06-20T13:56:30Z</time>
      </trkpt>
      <trkpt lat="45.80361" lon="5.57095">
        <ele>1086.13</ele>
        <time>2020-06-20T13:56:32Z</time>
      </trkpt>
      <trkpt lat="45.80363" lon="5.57096">
        <ele>1086.46</ele>
        <time>2020-06-20T13:56:35Z</time>
      </trkpt>
      <trkpt lat="45.80364" lon="5.57099">
        <ele>1086.69</ele>
        <time>2020-06-20T13:56:37Z</time>
      </trkpt>
      <trkpt lat="45.80366" lon="5.57102">
        <ele>1087.18</ele>
        <time>2020-06-20T13:56:41Z</time>
      </trkpt>
      <trkpt lat="45.80368" lon="5.57102">
        <ele>1088.01</ele>
        <time>2020-06-20T13:56:48Z</time>
      </trkpt>
      <trkpt lat="45.8037" lon="5.57104">
        <ele>1088.58</ele>
        <time>2020-06-20T13:56:52Z</time>
      </trkpt>
      <trkpt lat="45.80373" lon="5.57104">
        <ele>1089.16</ele>
        <time>2020-06-20T13:56:56Z</time>
      </trkpt>
      <trkpt lat="45.80376" lon="5.57102">
        <ele>1089.87</ele>
        <time>2020-06-20T13:57:01Z</time>
      </trkpt>
      <trkpt lat="45.80378" lon="5.57101">
        <ele>1090.28</ele>
        <time>2020-06-20T13:57:04Z</time>
      </trkpt>
      <trkpt lat="45.80382" lon="5.57101">
        <ele>1090.68</ele>
        <time>2020-06-20T13:57:07Z</time>
      </trkpt>
      <trkpt lat="45.80384" lon="5.57101">
        <ele>1090.82</ele>
        <time>2020-06-20T13:57:08Z</time>
      </trkpt>
      <trkpt lat="45.80387" lon="5.57103">
        <ele>1091.09</ele>
        <time>2020-06-20T13:57:10Z</time>
      </trkpt>
      <trkpt lat="45.80389" lon="5.57104">
        <ele>1091.5</ele>
        <time>2020-06-20T13:57:13Z</time>
      </trkpt>
      <trkpt lat="45.80392" lon="5.57104">
        <ele>1091.92</ele>
        <time>2020-06-20T13:57:16Z</time>
      </trkpt>
      <trkpt lat="45.80394" lon="5.57105">
        <ele>1092.07</ele>
        <time>2020-06-20T13:57:17Z</time>
      </trkpt>
      <trkpt lat="45.80397" lon="5.57107">
        <ele>1092.36</ele>
        <time>2020-06-20T13:57:19Z</time>
      </trkpt>
      <trkpt lat="45.80398" lon="5.57109">
        <ele>1092.64</ele>
        <time>2020-06-20T13:57:21Z</time>
      </trkpt>
      <trkpt lat="45.80402" lon="5.57109">
        <ele>1093.15</ele>
        <time>2020-06-20T13:57:25Z</time>
      </trkpt>
      <trkpt lat="45.80404" lon="5.5711">
        <ele>1093.41</ele>
        <time>2020-06-20T13:57:27Z</time>
      </trkpt>
      <trkpt lat="45.80407" lon="5.57111">
        <ele>1093.95</ele>
        <time>2020-06-20T13:57:31Z</time>
      </trkpt>
      <trkpt lat="45.80409" lon="5.57111">
        <ele>1094.21</ele>
        <time>2020-06-20T13:57:33Z</time>
      </trkpt>
      <trkpt lat="45.8041" lon="5.57112">
        <ele>1094.58</ele>
        <time>2020-06-20T13:57:36Z</time>
      </trkpt>
      <trkpt lat="45.80413" lon="5.57115">
        <ele>1095.2</ele>
        <time>2020-06-20T13:57:41Z</time>
      </trkpt>
      <trkpt lat="45.80416" lon="5.57119">
        <ele>1095.73</ele>
        <time>2020-06-20T13:57:45Z</time>
      </trkpt>
      <trkpt lat="45.80417" lon="5.57122">
        <ele>1096.09</ele>
        <time>2020-06-20T13:57:48Z</time>
      </trkpt>
      <trkpt lat="45.80418" lon="5.57126">
        <ele>1096.62</ele>
        <time>2020-06-20T13:57:52Z</time>
      </trkpt>
      <trkpt lat="45.80418" lon="5.57127">
        <ele>1097.16</ele>
        <time>2020-06-20T13:57:56Z</time>
      </trkpt>
      <trkpt lat="45.80418" lon="5.57131">
        <ele>1097.44</ele>
        <time>2020-06-20T13:57:58Z</time>
      </trkpt>
      <trkpt lat="45.80419" lon="5.57136">
        <ele>1097.87</ele>
        <time>2020-06-20T13:58:01Z</time>
      </trkpt>
      <trkpt lat="45.80421" lon="5.57139">
        <ele>1098.02</ele>
        <time>2020-06-20T13:58:02Z</time>
      </trkpt>
      <trkpt lat="45.80422" lon="5.57144">
        <ele>1098.51</ele>
        <time>2020-06-20T13:58:05Z</time>
      </trkpt>
      <trkpt lat="45.80421" lon="5.57147">
        <ele>1098.84</ele>
        <time>2020-06-20T13:58:07Z</time>
      </trkpt>
      <trkpt lat="45.80423" lon="5.57149">
        <ele>1099.5</ele>
        <time>2020-06-20T13:58:11Z</time>
      </trkpt>
      <trkpt lat="45.80422" lon="5.57152">
        <ele>1099.99</ele>
        <time>2020-06-20T13:58:14Z</time>
      </trkpt>
      <trkpt lat="45.80421" lon="5.57157">
        <ele>1101.41</ele>
        <time>2020-06-20T13:58:22Z</time>
      </trkpt>
      <trkpt lat="45.80421" lon="5.57161">
        <ele>1101.59</ele>
        <time>2020-06-20T13:58:23Z</time>
      </trkpt>
      <trkpt lat="45.8042" lon="5.57164">
        <ele>1102.18</ele>
        <time>2020-06-20T13:58:26Z</time>
      </trkpt>
      <trkpt lat="45.80421" lon="5.57167">
        <ele>1102.57</ele>
        <time>2020-06-20T13:58:28Z</time>
      </trkpt>
      <trkpt lat="45.80422" lon="5.57169">
        <ele>1102.95</ele>
        <time>2020-06-20T13:58:30Z</time>
      </trkpt>
      <trkpt lat="45.80422" lon="5.57172">
        <ele>1103.15</ele>
        <time>2020-06-20T13:58:31Z</time>
      </trkpt>
      <trkpt lat="45.80423" lon="5.57175">
        <ele>1103.55</ele>
        <time>2020-06-20T13:58:33Z</time>
      </trkpt>
      <trkpt lat="45.80425" lon="5.57178">
        <ele>1103.98</ele>
        <time>2020-06-20T13:58:35Z</time>
      </trkpt>
      <trkpt lat="45.80427" lon="5.5718">
        <ele>1104.4</ele>
        <time>2020-06-20T13:58:37Z</time>
      </trkpt>
      <trkpt lat="45.80428" lon="5.57182">
        <ele>1104.61</ele>
        <time>2020-06-20T13:58:38Z</time>
      </trkpt>
      <trkpt lat="45.80431" lon="5.57183">
        <ele>1105.03</ele>
        <time>2020-06-20T13:58:40Z</time>
      </trkpt>
      <trkpt lat="45.80434" lon="5.57184">
        <ele>1105.45</ele>
        <time>2020-06-20T13:58:42Z</time>
      </trkpt>
      <trkpt lat="45.80437" lon="5.57187">
        <ele>1106.06</ele>
        <time>2020-06-20T13:58:45Z</time>
      </trkpt>
      <trkpt lat="45.8044" lon="5.57191">
        <ele>1106.85</ele>
        <time>2020-06-20T13:58:49Z</time>
      </trkpt>
      <trkpt lat="45.80441" lon="5.57193">
        <ele>1107.26</ele>
        <time>2020-06-20T13:58:51Z</time>
      </trkpt>
      <trkpt lat="45.80443" lon="5.57197">
        <ele>1107.68</ele>
        <time>2020-06-20T13:58:53Z</time>
      </trkpt>
      <trkpt lat="45.80445" lon="5.57197">
        <ele>1108.09</ele>
        <time>2020-06-20T13:58:55Z</time>
      </trkpt>
      <trkpt lat="45.80446" lon="5.57196">
        <ele>1108.72</ele>
        <time>2020-06-20T13:58:58Z</time>
      </trkpt>
      <trkpt lat="45.80447" lon="5.57197">
        <ele>1108.92</ele>
        <time>2020-06-20T13:58:59Z</time>
      </trkpt>
      <trkpt lat="45.80448" lon="5.572">
        <ele>1109.31</ele>
        <time>2020-06-20T13:59:01Z</time>
      </trkpt>
      <trkpt lat="45.80451" lon="5.57204">
        <ele>1109.7</ele>
        <time>2020-06-20T13:59:03Z</time>
      </trkpt>
      <trkpt lat="45.8045" lon="5.57206">
        <ele>1110.06</ele>
        <time>2020-06-20T13:59:05Z</time>
      </trkpt>
      <trkpt lat="45.80452" lon="5.57208">
        <ele>1110.24</ele>
        <time>2020-06-20T13:59:06Z</time>
      </trkpt>
      <trkpt lat="45.80455" lon="5.57208">
        <ele>1110.62</ele>
        <time>2020-06-20T13:59:08Z</time>
      </trkpt>
      <trkpt lat="45.80456" lon="5.57209">
        <ele>1111.01</ele>
        <time>2020-06-20T13:59:10Z</time>
      </trkpt>
      <trkpt lat="45.80458" lon="5.57211">
        <ele>1111.38</ele>
        <time>2020-06-20T13:59:12Z</time>
      </trkpt>
      <trkpt lat="45.80461" lon="5.57213">
        <ele>1112.14</ele>
        <time>2020-06-20T13:59:16Z</time>
      </trkpt>
      <trkpt lat="45.80462" lon="5.57215">
        <ele>1112.72</ele>
        <time>2020-06-20T13:59:20Z</time>
      </trkpt>
      <trkpt lat="45.80463" lon="5.57219">
        <ele>1113.45</ele>
        <time>2020-06-20T13:59:24Z</time>
      </trkpt>
      <trkpt lat="45.80465" lon="5.57221">
        <ele>1114.48</ele>
        <time>2020-06-20T13:59:40Z</time>
      </trkpt>
      <trkpt lat="45.80466" lon="5.57222">
        <ele>1120.42</ele>
        <time>2020-06-20T14:00:24Z</time>
      </trkpt>
      <trkpt lat="45.80467" lon="5.57224">
        <ele>1122.27</ele>
        <time>2020-06-20T14:00:52Z</time>
      </trkpt>
      <trkpt lat="45.80469" lon="5.57225">
        <ele>1123.3</ele>
        <time>2020-06-20T14:01:02Z</time>
      </trkpt>
      <trkpt lat="45.80471" lon="5.57226">
        <ele>1123.79</ele>
        <time>2020-06-20T14:01:04Z</time>
      </trkpt>
      <trkpt lat="45.80473" lon="5.57226">
        <ele>1124.42</ele>
        <time>2020-06-20T14:01:21Z</time>
      </trkpt>
      <trkpt lat="45.80475" lon="5.57228">
        <ele>1126.51</ele>
        <time>2020-06-20T14:01:35Z</time>
      </trkpt>
      <trkpt lat="45.80475" lon="5.57229">
        <ele>1129.16</ele>
        <time>2020-06-20T14:01:50Z</time>
      </trkpt>
      <trkpt lat="45.80473" lon="5.57228">
        <ele>1136.14</ele>
        <time>2020-06-20T14:03:09Z</time>
      </trkpt>
      <trkpt lat="45.80471" lon="5.57229">
        <ele>1136.34</ele>
        <time>2020-06-20T14:03:12Z</time>
      </trkpt>
      <trkpt lat="45.80469" lon="5.5723">
        <ele>1136.47</ele>
        <time>2020-06-20T14:03:14Z</time>
      </trkpt>
      <trkpt lat="45.80467" lon="5.57232">
        <ele>1136.53</ele>
        <time>2020-06-20T14:03:15Z</time>
      </trkpt>
      <trkpt lat="45.80465" lon="5.57233">
        <ele>1136.71</ele>
        <time>2020-06-20T14:03:18Z</time>
      </trkpt>
      <trkpt lat="45.80462" lon="5.57234">
        <ele>1137.03</ele>
        <time>2020-06-20T14:03:25Z</time>
      </trkpt>
      <trkpt lat="45.8046" lon="5.57236">
        <ele>1137.18</ele>
        <time>2020-06-20T14:03:28Z</time>
      </trkpt>
      <trkpt lat="45.80458" lon="5.57239">
        <ele>1137.33</ele>
        <time>2020-06-20T14:03:31Z</time>
      </trkpt>
      <trkpt lat="45.80456" lon="5.57241">
        <ele>1137.49</ele>
        <time>2020-06-20T14:03:35Z</time>
      </trkpt>
      <trkpt lat="45.80452" lon="5.57246">
        <ele>1137.79</ele>
        <time>2020-06-20T14:03:43Z</time>
      </trkpt>
      <trkpt lat="45.8045" lon="5.57244">
        <ele>1137.86</ele>
        <time>2020-06-20T14:03:45Z</time>
      </trkpt>
      <trkpt lat="45.80448" lon="5.57246">
        <ele>1137.97</ele>
        <time>2020-06-20T14:03:49Z</time>
      </trkpt>
      <trkpt lat="45.80444" lon="5.57247">
        <ele>1138.04</ele>
        <time>2020-06-20T14:03:51Z</time>
      </trkpt>
      <trkpt lat="45.80441" lon="5.57247">
        <ele>1138.22</ele>
        <time>2020-06-20T14:03:56Z</time>
      </trkpt>
      <trkpt lat="45.80439" lon="5.57248">
        <ele>1138.31</ele>
        <time>2020-06-20T14:03:59Z</time>
      </trkpt>
      <trkpt lat="45.80437" lon="5.57249">
        <ele>1138.39</ele>
        <time>2020-06-20T14:04:02Z</time>
      </trkpt>
      <trkpt lat="45.80435" lon="5.57249">
        <ele>1138.42</ele>
        <time>2020-06-20T14:04:03Z</time>
      </trkpt>
      <trkpt lat="45.80433" lon="5.57251">
        <ele>1138.44</ele>
        <time>2020-06-20T14:04:04Z</time>
      </trkpt>
      <trkpt lat="45.80431" lon="5.57253">
        <ele>1138.47</ele>
        <time>2020-06-20T14:04:05Z</time>
      </trkpt>
      <trkpt lat="45.80428" lon="5.57256">
        <ele>1138.49</ele>
        <time>2020-06-20T14:04:06Z</time>
      </trkpt>
      <trkpt lat="45.80428" lon="5.57257">
        <ele>1138.54</ele>
        <time>2020-06-20T14:04:08Z</time>
      </trkpt>
      <trkpt lat="45.8043" lon="5.57255">
        <ele>1138.57</ele>
        <time>2020-06-20T14:04:09Z</time>
      </trkpt>
      <trkpt lat="45.80428" lon="5.57257">
        <ele>1138.62</ele>
        <time>2020-06-20T14:04:11Z</time>
      </trkpt>
      <trkpt lat="45.80426" lon="5.5726">
        <ele>1138.67</ele>
        <time>2020-06-20T14:04:13Z</time>
      </trkpt>
      <trkpt lat="45.80425" lon="5.57264">
        <ele>1138.71</ele>
        <time>2020-06-20T14:04:15Z</time>
      </trkpt>
      <trkpt lat="45.80423" lon="5.57267">
        <ele>1138.78</ele>
        <time>2020-06-20T14:04:18Z</time>
      </trkpt>
      <trkpt lat="45.80422" lon="5.57271">
        <ele>1138.86</ele>
        <time>2020-06-20T14:04:22Z</time>
      </trkpt>
      <trkpt lat="45.80422" lon="5.57274">
        <ele>1138.88</ele>
        <time>2020-06-20T14:04:23Z</time>
      </trkpt>
      <trkpt lat="45.80422" lon="5.57278">
        <ele>1138.99</ele>
        <time>2020-06-20T14:04:28Z</time>
      </trkpt>
      <trkpt lat="45.80422" lon="5.57277">
        <ele>1139.23</ele>
        <time>2020-06-20T14:04:41Z</time>
      </trkpt>
      <trkpt lat="45.80421" lon="5.57282">
        <ele>1139.33</ele>
        <time>2020-06-20T14:04:45Z</time>
      </trkpt>
      <trkpt lat="45.8042" lon="5.57284">
        <ele>1139.43</ele>
        <time>2020-06-20T14:04:50Z</time>
      </trkpt>
      <trkpt lat="45.80419" lon="5.57287">
        <ele>1139.47</ele>
        <time>2020-06-20T14:04:52Z</time>
      </trkpt>
      <trkpt lat="45.80418" lon="5.5729">
        <ele>1139.51</ele>
        <time>2020-06-20T14:04:54Z</time>
      </trkpt>
      <trkpt lat="45.80416" lon="5.57287">
        <ele>1139.56</ele>
        <time>2020-06-20T14:04:56Z</time>
      </trkpt>
      <trkpt lat="45.80414" lon="5.57289">
        <ele>1139.69</ele>
        <time>2020-06-20T14:05:01Z</time>
      </trkpt>
      <trkpt lat="45.80413" lon="5.57292">
        <ele>1139.83</ele>
        <time>2020-06-20T14:05:07Z</time>
      </trkpt>
      <trkpt lat="45.80411" lon="5.57293">
        <ele>1139.98</ele>
        <time>2020-06-20T14:05:15Z</time>
      </trkpt>
      <trkpt lat="45.80409" lon="5.57294">
        <ele>1140.07</ele>
        <time>2020-06-20T14:05:25Z</time>
      </trkpt>
      <trkpt lat="45.80407" lon="5.57295">
        <ele>1140.12</ele>
        <time>2020-06-20T14:05:29Z</time>
      </trkpt>
      <trkpt lat="45.80405" lon="5.57296">
        <ele>1140.14</ele>
        <time>2020-06-20T14:05:31Z</time>
      </trkpt>
      <trkpt lat="45.80404" lon="5.57298">
        <ele>1140.16</ele>
        <time>2020-06-20T14:05:33Z</time>
      </trkpt>
      <trkpt lat="45.804" lon="5.57301">
        <ele>1140.18</ele>
        <time>2020-06-20T14:05:36Z</time>
      </trkpt>
      <trkpt lat="45.80399" lon="5.57303">
        <ele>1140.2</ele>
        <time>2020-06-20T14:05:39Z</time>
      </trkpt>
      <trkpt lat="45.80396" lon="5.57308">
        <ele>1140.24</ele>
        <time>2020-06-20T14:05:43Z</time>
      </trkpt>
      <trkpt lat="45.80395" lon="5.57311">
        <ele>1140.26</ele>
        <time>2020-06-20T14:05:45Z</time>
      </trkpt>
      <trkpt lat="45.80396" lon="5.5731">
        <ele>1140.31</ele>
        <time>2020-06-20T14:05:50Z</time>
      </trkpt>
      <trkpt lat="45.80394" lon="5.57311">
        <ele>1140.42</ele>
        <time>2020-06-20T14:06:01Z</time>
      </trkpt>
      <trkpt lat="45.80392" lon="5.57311">
        <ele>1140.38</ele>
        <time>2020-06-20T14:06:17Z</time>
      </trkpt>
      <trkpt lat="45.80392" lon="5.57315">
        <ele>1140.35</ele>
        <time>2020-06-20T14:06:19Z</time>
      </trkpt>
      <trkpt lat="45.8039" lon="5.57317">
        <ele>1140.31</ele>
        <time>2020-06-20T14:06:22Z</time>
      </trkpt>
      <trkpt lat="45.80389" lon="5.5732">
        <ele>1140.25</ele>
        <time>2020-06-20T14:06:25Z</time>
      </trkpt>
      <trkpt lat="45.80386" lon="5.57321">
        <ele>1140.23</ele>
        <time>2020-06-20T14:06:27Z</time>
      </trkpt>
      <trkpt lat="45.80381" lon="5.5732">
        <ele>1140.19</ele>
        <time>2020-06-20T14:06:30Z</time>
      </trkpt>
      <trkpt lat="45.8038" lon="5.57318">
        <ele>1140.19</ele>
        <time>2020-06-20T14:06:31Z</time>
      </trkpt>
      <trkpt lat="45.80378" lon="5.57317">
        <ele>1140.19</ele>
        <time>2020-06-20T14:06:32Z</time>
      </trkpt>
      <trkpt lat="45.80376" lon="5.57313">
        <ele>1140.18</ele>
        <time>2020-06-20T14:06:34Z</time>
      </trkpt>
      <trkpt lat="45.80374" lon="5.57311">
        <ele>1140.17</ele>
        <time>2020-06-20T14:06:35Z</time>
      </trkpt>
      <trkpt lat="45.80372" lon="5.57308">
        <ele>1140.14</ele>
        <time>2020-06-20T14:06:38Z</time>
      </trkpt>
      <trkpt lat="45.8037" lon="5.57305">
        <ele>1140.14</ele>
        <time>2020-06-20T14:06:40Z</time>
      </trkpt>
      <trkpt lat="45.80367" lon="5.57302">
        <ele>1140.07</ele>
        <time>2020-06-20T14:06:42Z</time>
      </trkpt>
      <trkpt lat="45.80364" lon="5.57301">
        <ele>1139.93</ele>
        <time>2020-06-20T14:06:44Z</time>
      </trkpt>
      <trkpt lat="45.80363" lon="5.57306">
        <ele>1139.61</ele>
        <time>2020-06-20T14:06:49Z</time>
      </trkpt>
      <trkpt lat="45.80361" lon="5.57311">
        <ele>1139.26</ele>
        <time>2020-06-20T14:06:55Z</time>
      </trkpt>
      <trkpt lat="45.80362" lon="5.57308">
        <ele>1139.06</ele>
        <time>2020-06-20T14:06:58Z</time>
      </trkpt>
      <trkpt lat="45.80362" lon="5.57313">
        <ele>1138.79</ele>
        <time>2020-06-20T14:07:02Z</time>
      </trkpt>
      <trkpt lat="45.80361" lon="5.57318">
        <ele>1138.44</ele>
        <time>2020-06-20T14:07:06Z</time>
      </trkpt>
      <trkpt lat="45.80362" lon="5.57321">
        <ele>1138.14</ele>
        <time>2020-06-20T14:07:10Z</time>
      </trkpt>
      <trkpt lat="45.80361" lon="5.57325">
        <ele>1137.88</ele>
        <time>2020-06-20T14:07:12Z</time>
      </trkpt>
      <trkpt lat="45.80361" lon="5.57325">
        <ele>1137.34</ele>
        <time>2020-06-20T14:07:16Z</time>
      </trkpt>
      <trkpt lat="45.8036" lon="5.57325">
        <ele>1136.86</ele>
        <time>2020-06-20T14:07:20Z</time>
      </trkpt>
      <trkpt lat="45.80358" lon="5.57323">
        <ele>1136.43</ele>
        <time>2020-06-20T14:07:25Z</time>
      </trkpt>
      <trkpt lat="45.80356" lon="5.57326">
        <ele>1136.1</ele>
        <time>2020-06-20T14:07:30Z</time>
      </trkpt>
      <trkpt lat="45.80354" lon="5.57328">
        <ele>1135.75</ele>
        <time>2020-06-20T14:07:33Z</time>
      </trkpt>
      <trkpt lat="45.80353" lon="5.5733">
        <ele>1135.22</ele>
        <time>2020-06-20T14:07:43Z</time>
      </trkpt>
      <trkpt lat="45.80353" lon="5.57335">
        <ele>1134.98</ele>
        <time>2020-06-20T14:07:45Z</time>
      </trkpt>
      <trkpt lat="45.80354" lon="5.57339">
        <ele>1134.74</ele>
        <time>2020-06-20T14:07:48Z</time>
      </trkpt>
      <trkpt lat="45.80353" lon="5.57341">
        <ele>1134.39</ele>
        <time>2020-06-20T14:07:52Z</time>
      </trkpt>
      <trkpt lat="45.80352" lon="5.57343">
        <ele>1134.12</ele>
        <time>2020-06-20T14:07:55Z</time>
      </trkpt>
      <trkpt lat="45.8035" lon="5.57345">
        <ele>1133.84</ele>
        <time>2020-06-20T14:07:58Z</time>
      </trkpt>
      <trkpt lat="45.80348" lon="5.57347">
        <ele>1133.5</ele>
        <time>2020-06-20T14:08:03Z</time>
      </trkpt>
      <trkpt lat="45.80347" lon="5.57351">
        <ele>1133.3</ele>
        <time>2020-06-20T14:08:06Z</time>
      </trkpt>
      <trkpt lat="45.80347" lon="5.57356">
        <ele>1133.1</ele>
        <time>2020-06-20T14:08:10Z</time>
      </trkpt>
      <trkpt lat="45.80346" lon="5.57358">
        <ele>1133.09</ele>
        <time>2020-06-20T14:08:15Z</time>
      </trkpt>
      <trkpt lat="45.80344" lon="5.57361">
        <ele>1133</ele>
        <time>2020-06-20T14:08:21Z</time>
      </trkpt>
      <trkpt lat="45.80345" lon="5.57363">
        <ele>1132.89</ele>
        <time>2020-06-20T14:08:27Z</time>
      </trkpt>
      <trkpt lat="45.80346" lon="5.57367">
        <ele>1132.99</ele>
        <time>2020-06-20T14:08:32Z</time>
      </trkpt>
      <trkpt lat="45.80346" lon="5.57371">
        <ele>1133.11</ele>
        <time>2020-06-20T14:08:34Z</time>
      </trkpt>
      <trkpt lat="45.80347" lon="5.57375">
        <ele>1133.28</ele>
        <time>2020-06-20T14:08:37Z</time>
      </trkpt>
      <trkpt lat="45.80348" lon="5.57379">
        <ele>1133.23</ele>
        <time>2020-06-20T14:08:41Z</time>
      </trkpt>
      <trkpt lat="45.80348" lon="5.57382">
        <ele>1133.13</ele>
        <time>2020-06-20T14:08:43Z</time>
      </trkpt>
      <trkpt lat="45.80348" lon="5.57385">
        <ele>1133.09</ele>
        <time>2020-06-20T14:08:46Z</time>
      </trkpt>
      <trkpt lat="45.80348" lon="5.57388">
        <ele>1133.06</ele>
        <time>2020-06-20T14:08:48Z</time>
      </trkpt>
      <trkpt lat="45.80347" lon="5.57391">
        <ele>1133.08</ele>
        <time>2020-06-20T14:08:49Z</time>
      </trkpt>
      <trkpt lat="45.80347" lon="5.57395">
        <ele>1133.14</ele>
        <time>2020-06-20T14:08:51Z</time>
      </trkpt>
      <trkpt lat="45.80346" lon="5.57398">
        <ele>1133.23</ele>
        <time>2020-06-20T14:08:54Z</time>
      </trkpt>
      <trkpt lat="45.80346" lon="5.57402">
        <ele>1133.07</ele>
        <time>2020-06-20T14:08:56Z</time>
      </trkpt>
      <trkpt lat="45.80345" lon="5.57404">
        <ele>1132.18</ele>
        <time>2020-06-20T14:09:02Z</time>
      </trkpt>
      <trkpt lat="45.80343" lon="5.57405">
        <ele>1131.1</ele>
        <time>2020-06-20T14:09:07Z</time>
      </trkpt>
      <trkpt lat="45.80342" lon="5.57409">
        <ele>1129.33</ele>
        <time>2020-06-20T14:09:16Z</time>
      </trkpt>
      <trkpt lat="45.80341" lon="5.57409">
        <ele>1128.29</ele>
        <time>2020-06-20T14:09:21Z</time>
      </trkpt>
      <trkpt lat="45.80338" lon="5.57407">
        <ele>1126.58</ele>
        <time>2020-06-20T14:09:28Z</time>
      </trkpt>
      <trkpt lat="45.80337" lon="5.57409">
        <ele>1125.92</ele>
        <time>2020-06-20T14:09:31Z</time>
      </trkpt>
      <trkpt lat="45.80337" lon="5.57414">
        <ele>1125.4</ele>
        <time>2020-06-20T14:09:33Z</time>
      </trkpt>
      <trkpt lat="45.80337" lon="5.57418">
        <ele>1125.1</ele>
        <time>2020-06-20T14:09:34Z</time>
      </trkpt>
      <trkpt lat="45.80337" lon="5.57421">
        <ele>1124.8</ele>
        <time>2020-06-20T14:09:35Z</time>
      </trkpt>
      <trkpt lat="45.80337" lon="5.57424">
        <ele>1124.12</ele>
        <time>2020-06-20T14:09:37Z</time>
      </trkpt>
      <trkpt lat="45.80337" lon="5.57428">
        <ele>1122.99</ele>
        <time>2020-06-20T14:09:40Z</time>
      </trkpt>
      <trkpt lat="45.80336" lon="5.57431">
        <ele>1121.22</ele>
        <time>2020-06-20T14:09:44Z</time>
      </trkpt>
      <trkpt lat="45.80336" lon="5.57435">
        <ele>1119.44</ele>
        <time>2020-06-20T14:09:48Z</time>
      </trkpt>
      <trkpt lat="45.80335" lon="5.57439">
        <ele>1117.6</ele>
        <time>2020-06-20T14:09:52Z</time>
      </trkpt>
      <trkpt lat="45.80333" lon="5.57442">
        <ele>1115.9</ele>
        <time>2020-06-20T14:09:55Z</time>
      </trkpt>
      <trkpt lat="45.80331" lon="5.5744">
        <ele>1114.15</ele>
        <time>2020-06-20T14:09:58Z</time>
      </trkpt>
      <trkpt lat="45.80329" lon="5.57443">
        <ele>1111.9</ele>
        <time>2020-06-20T14:10:02Z</time>
      </trkpt>
      <trkpt lat="45.80328" lon="5.57444">
        <ele>1110.64</ele>
        <time>2020-06-20T14:10:04Z</time>
      </trkpt>
      <trkpt lat="45.80326" lon="5.57442">
        <ele>1109.97</ele>
        <time>2020-06-20T14:10:05Z</time>
      </trkpt>
      <trkpt lat="45.80322" lon="5.57441">
        <ele>1107.43</ele>
        <time>2020-06-20T14:10:09Z</time>
      </trkpt>
      <trkpt lat="45.80321" lon="5.57439">
        <ele>1106.86</ele>
        <time>2020-06-20T14:10:10Z</time>
      </trkpt>
      <trkpt lat="45.80319" lon="5.5744">
        <ele>1104.04</ele>
        <time>2020-06-20T14:10:16Z</time>
      </trkpt>
      <trkpt lat="45.80319" lon="5.57443">
        <ele>1103.21</ele>
        <time>2020-06-20T14:10:18Z</time>
      </trkpt>
      <trkpt lat="45.80319" lon="5.57447">
        <ele>1102.14</ele>
        <time>2020-06-20T14:10:20Z</time>
      </trkpt>
      <trkpt lat="45.80319" lon="5.5745">
        <ele>1101.11</ele>
        <time>2020-06-20T14:10:22Z</time>
      </trkpt>
      <trkpt lat="45.80318" lon="5.57454">
        <ele>1099.57</ele>
        <time>2020-06-20T14:10:25Z</time>
      </trkpt>
      <trkpt lat="45.80316" lon="5.57456">
        <ele>1099.08</ele>
        <time>2020-06-20T14:10:26Z</time>
      </trkpt>
      <trkpt lat="45.80314" lon="5.5746">
        <ele>1098.07</ele>
        <time>2020-06-20T14:10:29Z</time>
      </trkpt>
      <trkpt lat="45.80312" lon="5.57462">
        <ele>1097.58</ele>
        <time>2020-06-20T14:10:31Z</time>
      </trkpt>
      <trkpt lat="45.80309" lon="5.57464">
        <ele>1097.17</ele>
        <time>2020-06-20T14:10:33Z</time>
      </trkpt>
      <trkpt lat="45.80307" lon="5.57466">
        <ele>1096.63</ele>
        <time>2020-06-20T14:10:36Z</time>
      </trkpt>
      <trkpt lat="45.80303" lon="5.57465">
        <ele>1095.29</ele>
        <time>2020-06-20T14:10:43Z</time>
      </trkpt>
      <trkpt lat="45.803" lon="5.57462">
        <ele>1093.95</ele>
        <time>2020-06-20T14:10:48Z</time>
      </trkpt>
      <trkpt lat="45.80299" lon="5.57466">
        <ele>1092.67</ele>
        <time>2020-06-20T14:10:55Z</time>
      </trkpt>
      <trkpt lat="45.80297" lon="5.57468">
        <ele>1092.46</ele>
        <time>2020-06-20T14:10:56Z</time>
      </trkpt>
      <trkpt lat="45.80295" lon="5.57471">
        <ele>1091.96</ele>
        <time>2020-06-20T14:10:58Z</time>
      </trkpt>
      <trkpt lat="45.80293" lon="5.57474">
        <ele>1091.68</ele>
        <time>2020-06-20T14:10:59Z</time>
      </trkpt>
      <trkpt lat="45.80291" lon="5.57477">
        <ele>1091.14</ele>
        <time>2020-06-20T14:11:01Z</time>
      </trkpt>
      <trkpt lat="45.80288" lon="5.57481">
        <ele>1090.58</ele>
        <time>2020-06-20T14:11:03Z</time>
      </trkpt>
      <trkpt lat="45.80286" lon="5.57482">
        <ele>1090.28</ele>
        <time>2020-06-20T14:11:04Z</time>
      </trkpt>
      <trkpt lat="45.80284" lon="5.57485">
        <ele>1089.66</ele>
        <time>2020-06-20T14:11:06Z</time>
      </trkpt>
      <trkpt lat="45.80281" lon="5.57487">
        <ele>1088.94</ele>
        <time>2020-06-20T14:11:08Z</time>
      </trkpt>
      <trkpt lat="45.8028" lon="5.57489">
        <ele>1088.61</ele>
        <time>2020-06-20T14:11:09Z</time>
      </trkpt>
      <trkpt lat="45.80277" lon="5.57491">
        <ele>1087.88</ele>
        <time>2020-06-20T14:11:11Z</time>
      </trkpt>
      <trkpt lat="45.80276" lon="5.57493">
        <ele>1087.56</ele>
        <time>2020-06-20T14:11:12Z</time>
      </trkpt>
      <trkpt lat="45.80275" lon="5.57496">
        <ele>1087.05</ele>
        <time>2020-06-20T14:11:14Z</time>
      </trkpt>
      <trkpt lat="45.80276" lon="5.57499">
        <ele>1086.5</ele>
        <time>2020-06-20T14:11:18Z</time>
      </trkpt>
      <trkpt lat="45.80275" lon="5.57503">
        <ele>1086.33</ele>
        <time>2020-06-20T14:11:20Z</time>
      </trkpt>
      <trkpt lat="45.80273" lon="5.57507">
        <ele>1086.12</ele>
        <time>2020-06-20T14:11:24Z</time>
      </trkpt>
      <trkpt lat="45.80271" lon="5.57509">
        <ele>1085.94</ele>
        <time>2020-06-20T14:11:26Z</time>
      </trkpt>
      <trkpt lat="45.80268" lon="5.57511">
        <ele>1085.75</ele>
        <time>2020-06-20T14:11:28Z</time>
      </trkpt>
      <trkpt lat="45.80266" lon="5.5751">
        <ele>1085.4</ele>
        <time>2020-06-20T14:11:31Z</time>
      </trkpt>
      <trkpt lat="45.80264" lon="5.57513">
        <ele>1085.33</ele>
        <time>2020-06-20T14:11:34Z</time>
      </trkpt>
      <trkpt lat="45.80261" lon="5.57516">
        <ele>1085.48</ele>
        <time>2020-06-20T14:11:38Z</time>
      </trkpt>
      <trkpt lat="45.8026" lon="5.57518">
        <ele>1085.53</ele>
        <time>2020-06-20T14:11:39Z</time>
      </trkpt>
      <trkpt lat="45.80257" lon="5.5752">
        <ele>1085.76</ele>
        <time>2020-06-20T14:11:42Z</time>
      </trkpt>
      <trkpt lat="45.80255" lon="5.57522">
        <ele>1085.97</ele>
        <time>2020-06-20T14:11:44Z</time>
      </trkpt>
      <trkpt lat="45.80254" lon="5.57524">
        <ele>1086.15</ele>
        <time>2020-06-20T14:11:46Z</time>
      </trkpt>
      <trkpt lat="45.80251" lon="5.57525">
        <ele>1086.62</ele>
        <time>2020-06-20T14:11:51Z</time>
      </trkpt>
      <trkpt lat="45.80248" lon="5.57526">
        <ele>1086.85</ele>
        <time>2020-06-20T14:11:54Z</time>
      </trkpt>
      <trkpt lat="45.80246" lon="5.57527">
        <ele>1086.89</ele>
        <time>2020-06-20T14:11:55Z</time>
      </trkpt>
      <trkpt lat="45.80242" lon="5.57528">
        <ele>1087</ele>
        <time>2020-06-20T14:11:57Z</time>
      </trkpt>
      <trkpt lat="45.80241" lon="5.57526">
        <ele>1087.08</ele>
        <time>2020-06-20T14:11:59Z</time>
      </trkpt>
      <trkpt lat="45.8024" lon="5.57522">
        <ele>1087.17</ele>
        <time>2020-06-20T14:12:00Z</time>
      </trkpt>
      <trkpt lat="45.80237" lon="5.57522">
        <ele>1087.3</ele>
        <time>2020-06-20T14:12:01Z</time>
      </trkpt>
      <trkpt lat="45.80235" lon="5.57523">
        <ele>1087.43</ele>
        <time>2020-06-20T14:12:02Z</time>
      </trkpt>
      <trkpt lat="45.80234" lon="5.5752">
        <ele>1087.84</ele>
        <time>2020-06-20T14:12:04Z</time>
      </trkpt>
      <trkpt lat="45.80231" lon="5.57521">
        <ele>1088.61</ele>
        <time>2020-06-20T14:12:07Z</time>
      </trkpt>
      <trkpt lat="45.8023" lon="5.5752">
        <ele>1089.55</ele>
        <time>2020-06-20T14:12:10Z</time>
      </trkpt>
      <trkpt lat="45.80228" lon="5.57522">
        <ele>1089.9</ele>
        <time>2020-06-20T14:12:11Z</time>
      </trkpt>
      <trkpt lat="45.80226" lon="5.57524">
        <ele>1091.34</ele>
        <time>2020-06-20T14:12:15Z</time>
      </trkpt>
      <trkpt lat="45.80223" lon="5.57525">
        <ele>1092.02</ele>
        <time>2020-06-20T14:12:17Z</time>
      </trkpt>
      <trkpt lat="45.80221" lon="5.57528">
        <ele>1092.76</ele>
        <time>2020-06-20T14:12:19Z</time>
      </trkpt>
      <trkpt lat="45.80219" lon="5.57531">
        <ele>1093.57</ele>
        <time>2020-06-20T14:12:21Z</time>
      </trkpt>
      <trkpt lat="45.80217" lon="5.57534">
        <ele>1097.08</ele>
        <time>2020-06-20T14:12:29Z</time>
      </trkpt>
      <trkpt lat="45.80219" lon="5.57535">
        <ele>1098.92</ele>
        <time>2020-06-20T14:12:33Z</time>
      </trkpt>
      <trkpt lat="45.80222" lon="5.57538">
        <ele>1108.69</ele>
        <time>2020-06-20T14:13:17Z</time>
      </trkpt>
      <trkpt lat="45.80219" lon="5.57539">
        <ele>1109.36</ele>
        <time>2020-06-20T14:13:19Z</time>
      </trkpt>
      <trkpt lat="45.80217" lon="5.57539">
        <ele>1109.7</ele>
        <time>2020-06-20T14:13:20Z</time>
      </trkpt>
      <trkpt lat="45.80214" lon="5.5754">
        <ele>1110.3</ele>
        <time>2020-06-20T14:13:22Z</time>
      </trkpt>
      <trkpt lat="45.80212" lon="5.57541">
        <ele>1110.62</ele>
        <time>2020-06-20T14:13:23Z</time>
      </trkpt>
      <trkpt lat="45.80211" lon="5.57544">
        <ele>1111.32</ele>
        <time>2020-06-20T14:13:25Z</time>
      </trkpt>
      <trkpt lat="45.80208" lon="5.57547">
        <ele>1111.69</ele>
        <time>2020-06-20T14:13:26Z</time>
      </trkpt>
      <trkpt lat="45.80207" lon="5.57548">
        <ele>1112.04</ele>
        <time>2020-06-20T14:13:27Z</time>
      </trkpt>
      <trkpt lat="45.80204" lon="5.5755">
        <ele>1112.73</ele>
        <time>2020-06-20T14:13:29Z</time>
      </trkpt>
      <trkpt lat="45.80202" lon="5.57551">
        <ele>1113.41</ele>
        <time>2020-06-20T14:13:31Z</time>
      </trkpt>
      <trkpt lat="45.80201" lon="5.57554">
        <ele>1114.09</ele>
        <time>2020-06-20T14:13:33Z</time>
      </trkpt>
      <trkpt lat="45.802" lon="5.57557">
        <ele>1114.78</ele>
        <time>2020-06-20T14:13:34Z</time>
      </trkpt>
      <trkpt lat="45.80201" lon="5.5756">
        <ele>1115.76</ele>
        <time>2020-06-20T14:13:37Z</time>
      </trkpt>
      <trkpt lat="45.802" lon="5.57563">
        <ele>1117.28</ele>
        <time>2020-06-20T14:13:42Z</time>
      </trkpt>
      <trkpt lat="45.80199" lon="5.57566">
        <ele>1118.04</ele>
        <time>2020-06-20T14:13:45Z</time>
      </trkpt>
      <trkpt lat="45.80198" lon="5.5757">
        <ele>1118.78</ele>
        <time>2020-06-20T14:13:48Z</time>
      </trkpt>
      <trkpt lat="45.80198" lon="5.57573">
        <ele>1119.51</ele>
        <time>2020-06-20T14:13:51Z</time>
      </trkpt>
      <trkpt lat="45.80197" lon="5.57577">
        <ele>1120.89</ele>
        <time>2020-06-20T14:13:56Z</time>
      </trkpt>
      <trkpt lat="45.80195" lon="5.57579">
        <ele>1121.44</ele>
        <time>2020-06-20T14:13:58Z</time>
      </trkpt>
      <trkpt lat="45.80193" lon="5.57581">
        <ele>1122.53</ele>
        <time>2020-06-20T14:14:02Z</time>
      </trkpt>
      <trkpt lat="45.80191" lon="5.57583">
        <ele>1123.24</ele>
        <time>2020-06-20T14:14:05Z</time>
      </trkpt>
      <trkpt lat="45.80189" lon="5.57585">
        <ele>1123.45</ele>
        <time>2020-06-20T14:14:06Z</time>
      </trkpt>
      <trkpt lat="45.80188" lon="5.57587">
        <ele>1123.86</ele>
        <time>2020-06-20T14:14:08Z</time>
      </trkpt>
      <trkpt lat="45.80186" lon="5.57591">
        <ele>1124.63</ele>
        <time>2020-06-20T14:14:12Z</time>
      </trkpt>
      <trkpt lat="45.80184" lon="5.57592">
        <ele>1125.76</ele>
        <time>2020-06-20T14:14:18Z</time>
      </trkpt>
      <trkpt lat="45.80182" lon="5.57595">
        <ele>1126.12</ele>
        <time>2020-06-20T14:14:20Z</time>
      </trkpt>
      <trkpt lat="45.8018" lon="5.576">
        <ele>1126.43</ele>
        <time>2020-06-20T14:14:22Z</time>
      </trkpt>
      <trkpt lat="45.80178" lon="5.57601">
        <ele>1126.7</ele>
        <time>2020-06-20T14:14:24Z</time>
      </trkpt>
      <trkpt lat="45.80176" lon="5.57603">
        <ele>1126.94</ele>
        <time>2020-06-20T14:14:26Z</time>
      </trkpt>
      <trkpt lat="45.80174" lon="5.57605">
        <ele>1127.05</ele>
        <time>2020-06-20T14:14:27Z</time>
      </trkpt>
      <trkpt lat="45.80172" lon="5.57607">
        <ele>1127.37</ele>
        <time>2020-06-20T14:14:31Z</time>
      </trkpt>
      <trkpt lat="45.8017" lon="5.57609">
        <ele>1127.53</ele>
        <time>2020-06-20T14:14:34Z</time>
      </trkpt>
      <trkpt lat="45.80168" lon="5.5761">
        <ele>1127.7</ele>
        <time>2020-06-20T14:14:37Z</time>
      </trkpt>
      <trkpt lat="45.80166" lon="5.5761">
        <ele>1127.78</ele>
        <time>2020-06-20T14:14:39Z</time>
      </trkpt>
      <trkpt lat="45.80164" lon="5.57612">
        <ele>1127.79</ele>
        <time>2020-06-20T14:14:40Z</time>
      </trkpt>
      <trkpt lat="45.80161" lon="5.57613">
        <ele>1127.82</ele>
        <time>2020-06-20T14:14:42Z</time>
      </trkpt>
      <trkpt lat="45.8016" lon="5.57614">
        <ele>1127.82</ele>
        <time>2020-06-20T14:14:43Z</time>
      </trkpt>
      <trkpt lat="45.80158" lon="5.57615">
        <ele>1127.84</ele>
        <time>2020-06-20T14:14:44Z</time>
      </trkpt>
      <trkpt lat="45.80155" lon="5.57615">
        <ele>1127.92</ele>
        <time>2020-06-20T14:14:47Z</time>
      </trkpt>
      <trkpt lat="45.80152" lon="5.57617">
        <ele>1128.09</ele>
        <time>2020-06-20T14:14:52Z</time>
      </trkpt>
      <trkpt lat="45.80151" lon="5.57619">
        <ele>1128.22</ele>
        <time>2020-06-20T14:14:55Z</time>
      </trkpt>
      <trkpt lat="45.80149" lon="5.57621">
        <ele>1128.58</ele>
        <time>2020-06-20T14:15:01Z</time>
      </trkpt>
      <trkpt lat="45.80148" lon="5.57624">
        <ele>1129.37</ele>
        <time>2020-06-20T14:15:09Z</time>
      </trkpt>
      <trkpt lat="45.80147" lon="5.57627">
        <ele>1129.73</ele>
        <time>2020-06-20T14:15:12Z</time>
      </trkpt>
      <trkpt lat="45.80145" lon="5.57631">
        <ele>1130.15</ele>
        <time>2020-06-20T14:15:16Z</time>
      </trkpt>
      <trkpt lat="45.80143" lon="5.57633">
        <ele>1130.31</ele>
        <time>2020-06-20T14:15:18Z</time>
      </trkpt>
      <trkpt lat="45.80142" lon="5.57635">
        <ele>1130.48</ele>
        <time>2020-06-20T14:15:20Z</time>
      </trkpt>
      <trkpt lat="45.8014" lon="5.57638">
        <ele>1130.85</ele>
        <time>2020-06-20T14:15:24Z</time>
      </trkpt>
      <trkpt lat="45.80138" lon="5.5764">
        <ele>1130.97</ele>
        <time>2020-06-20T14:15:26Z</time>
      </trkpt>
      <trkpt lat="45.80136" lon="5.57642">
        <ele>1131.21</ele>
        <time>2020-06-20T14:15:30Z</time>
      </trkpt>
      <trkpt lat="45.80133" lon="5.57644">
        <ele>1131.31</ele>
        <time>2020-06-20T14:15:32Z</time>
      </trkpt>
      <trkpt lat="45.80131" lon="5.57644">
        <ele>1131.36</ele>
        <time>2020-06-20T14:15:33Z</time>
      </trkpt>
      <trkpt lat="45.80129" lon="5.57646">
        <ele>1131.41</ele>
        <time>2020-06-20T14:15:34Z</time>
      </trkpt>
      <trkpt lat="45.80127" lon="5.57646">
        <ele>1131.53</ele>
        <time>2020-06-20T14:15:37Z</time>
      </trkpt>
      <trkpt lat="45.80125" lon="5.57646">
        <ele>1131.56</ele>
        <time>2020-06-20T14:15:40Z</time>
      </trkpt>
      <trkpt lat="45.80122" lon="5.57645">
        <ele>1131.54</ele>
        <time>2020-06-20T14:15:42Z</time>
      </trkpt>
      <trkpt lat="45.80119" lon="5.57645">
        <ele>1131.54</ele>
        <time>2020-06-20T14:15:43Z</time>
      </trkpt>
      <trkpt lat="45.80117" lon="5.57646">
        <ele>1131.53</ele>
        <time>2020-06-20T14:15:45Z</time>
      </trkpt>
      <trkpt lat="45.80116" lon="5.57643">
        <ele>1131.65</ele>
        <time>2020-06-20T14:15:50Z</time>
      </trkpt>
      <trkpt lat="45.80117" lon="5.57639">
        <ele>1131.75</ele>
        <time>2020-06-20T14:15:52Z</time>
      </trkpt>
      <trkpt lat="45.80119" lon="5.57637">
        <ele>1131.81</ele>
        <time>2020-06-20T14:15:53Z</time>
      </trkpt>
      <trkpt lat="45.80119" lon="5.57634">
        <ele>1132.32</ele>
        <time>2020-06-20T14:15:59Z</time>
      </trkpt>
      <trkpt lat="45.80116" lon="5.57636">
        <ele>1132.58</ele>
        <time>2020-06-20T14:16:02Z</time>
      </trkpt>
      <trkpt lat="45.80115" lon="5.57637">
        <ele>1132.7</ele>
        <time>2020-06-20T14:16:03Z</time>
      </trkpt>
      <trkpt lat="45.80113" lon="5.57638">
        <ele>1132.97</ele>
        <time>2020-06-20T14:16:05Z</time>
      </trkpt>
      <trkpt lat="45.80111" lon="5.57639">
        <ele>1133.16</ele>
        <time>2020-06-20T14:16:10Z</time>
      </trkpt>
      <trkpt lat="45.80109" lon="5.57641">
        <ele>1133.44</ele>
        <time>2020-06-20T14:16:12Z</time>
      </trkpt>
      <trkpt lat="45.80105" lon="5.57644">
        <ele>1133.71</ele>
        <time>2020-06-20T14:16:14Z</time>
      </trkpt>
      <trkpt lat="45.80102" lon="5.57646">
        <ele>1133.98</ele>
        <time>2020-06-20T14:16:16Z</time>
      </trkpt>
      <trkpt lat="45.801" lon="5.57649">
        <ele>1134.37</ele>
        <time>2020-06-20T14:16:19Z</time>
      </trkpt>
      <trkpt lat="45.80097" lon="5.57654">
        <ele>1134.76</ele>
        <time>2020-06-20T14:16:22Z</time>
      </trkpt>
      <trkpt lat="45.80095" lon="5.57655">
        <ele>1135.13</ele>
        <time>2020-06-20T14:16:25Z</time>
      </trkpt>
      <trkpt lat="45.80093" lon="5.57658">
        <ele>1135.52</ele>
        <time>2020-06-20T14:16:28Z</time>
      </trkpt>
      <trkpt lat="45.80092" lon="5.5766">
        <ele>1135.65</ele>
        <time>2020-06-20T14:16:29Z</time>
      </trkpt>
      <trkpt lat="45.8009" lon="5.57662">
        <ele>1135.79</ele>
        <time>2020-06-20T14:16:30Z</time>
      </trkpt>
      <trkpt lat="45.80089" lon="5.57666">
        <ele>1135.93</ele>
        <time>2020-06-20T14:16:31Z</time>
      </trkpt>
      <trkpt lat="45.80088" lon="5.57669">
        <ele>1136.36</ele>
        <time>2020-06-20T14:16:34Z</time>
      </trkpt>
      <trkpt lat="45.80086" lon="5.57671">
        <ele>1136.66</ele>
        <time>2020-06-20T14:16:36Z</time>
      </trkpt>
      <trkpt lat="45.80084" lon="5.57671">
        <ele>1137.12</ele>
        <time>2020-06-20T14:16:39Z</time>
      </trkpt>
      <trkpt lat="45.80082" lon="5.57672">
        <ele>1137.61</ele>
        <time>2020-06-20T14:16:42Z</time>
      </trkpt>
      <trkpt lat="45.8008" lon="5.57674">
        <ele>1137.76</ele>
        <time>2020-06-20T14:16:43Z</time>
      </trkpt>
      <trkpt lat="45.80078" lon="5.57676">
        <ele>1138.1</ele>
        <time>2020-06-20T14:16:45Z</time>
      </trkpt>
      <trkpt lat="45.80077" lon="5.57679">
        <ele>1138.49</ele>
        <time>2020-06-20T14:16:47Z</time>
      </trkpt>
      <trkpt lat="45.80074" lon="5.57682">
        <ele>1139.34</ele>
        <time>2020-06-20T14:16:51Z</time>
      </trkpt>
      <trkpt lat="45.80072" lon="5.57681">
        <ele>1140.01</ele>
        <time>2020-06-20T14:16:54Z</time>
      </trkpt>
      <trkpt lat="45.80069" lon="5.57683">
        <ele>1140.75</ele>
        <time>2020-06-20T14:16:57Z</time>
      </trkpt>
      <trkpt lat="45.80067" lon="5.57688">
        <ele>1141.45</ele>
        <time>2020-06-20T14:17:00Z</time>
      </trkpt>
      <trkpt lat="45.80065" lon="5.5769">
        <ele>1141.88</ele>
        <time>2020-06-20T14:17:02Z</time>
      </trkpt>
      <trkpt lat="45.80064" lon="5.57695">
        <ele>1142.51</ele>
        <time>2020-06-20T14:17:05Z</time>
      </trkpt>
      <trkpt lat="45.80062" lon="5.57698">
        <ele>1143.76</ele>
        <time>2020-06-20T14:17:11Z</time>
      </trkpt>
      <trkpt lat="45.80061" lon="5.57701">
        <ele>1144.69</ele>
        <time>2020-06-20T14:17:16Z</time>
      </trkpt>
      <trkpt lat="45.8006" lon="5.57703">
        <ele>1145.2</ele>
        <time>2020-06-20T14:17:19Z</time>
      </trkpt>
      <trkpt lat="45.80059" lon="5.57708">
        <ele>1145.69</ele>
        <time>2020-06-20T14:17:23Z</time>
      </trkpt>
      <trkpt lat="45.80058" lon="5.57714">
        <ele>1146.58</ele>
        <time>2020-06-20T14:17:30Z</time>
      </trkpt>
      <trkpt lat="45.80058" lon="5.57717">
        <ele>1147.02</ele>
        <time>2020-06-20T14:17:34Z</time>
      </trkpt>
      <trkpt lat="45.80059" lon="5.57721">
        <ele>1147.22</ele>
        <time>2020-06-20T14:17:36Z</time>
      </trkpt>
      <trkpt lat="45.80057" lon="5.57719">
        <ele>1147.42</ele>
        <time>2020-06-20T14:17:39Z</time>
      </trkpt>
      <trkpt lat="45.80055" lon="5.57721">
        <ele>1147.61</ele>
        <time>2020-06-20T14:17:45Z</time>
      </trkpt>
      <trkpt lat="45.80055" lon="5.57724">
        <ele>1147.65</ele>
        <time>2020-06-20T14:17:46Z</time>
      </trkpt>
      <trkpt lat="45.80054" lon="5.57727">
        <ele>1147.69</ele>
        <time>2020-06-20T14:17:48Z</time>
      </trkpt>
      <trkpt lat="45.80053" lon="5.5773">
        <ele>1147.69</ele>
        <time>2020-06-20T14:17:51Z</time>
      </trkpt>
      <trkpt lat="45.80053" lon="5.57735">
        <ele>1147.67</ele>
        <time>2020-06-20T14:17:55Z</time>
      </trkpt>
      <trkpt lat="45.8005" lon="5.57736">
        <ele>1147.56</ele>
        <time>2020-06-20T14:18:02Z</time>
      </trkpt>
      <trkpt lat="45.80048" lon="5.57736">
        <ele>1147.39</ele>
        <time>2020-06-20T14:18:05Z</time>
      </trkpt>
      <trkpt lat="45.80047" lon="5.57738">
        <ele>1147.3</ele>
        <time>2020-06-20T14:18:06Z</time>
      </trkpt>
      <trkpt lat="45.80045" lon="5.57739">
        <ele>1147.12</ele>
        <time>2020-06-20T14:18:08Z</time>
      </trkpt>
      <trkpt lat="45.80044" lon="5.57742">
        <ele>1146.92</ele>
        <time>2020-06-20T14:18:10Z</time>
      </trkpt>
      <trkpt lat="45.80041" lon="5.57743">
        <ele>1146.6</ele>
        <time>2020-06-20T14:18:13Z</time>
      </trkpt>
      <trkpt lat="45.80039" lon="5.57745">
        <ele>1146.48</ele>
        <time>2020-06-20T14:18:14Z</time>
      </trkpt>
      <trkpt lat="45.80037" lon="5.57748">
        <ele>1146.24</ele>
        <time>2020-06-20T14:18:16Z</time>
      </trkpt>
      <trkpt lat="45.80035" lon="5.57751">
        <ele>1146.12</ele>
        <time>2020-06-20T14:18:17Z</time>
      </trkpt>
      <trkpt lat="45.80034" lon="5.57752">
        <ele>1145.99</ele>
        <time>2020-06-20T14:18:18Z</time>
      </trkpt>
      <trkpt lat="45.80033" lon="5.57755">
        <ele>1145.87</ele>
        <time>2020-06-20T14:18:19Z</time>
      </trkpt>
      <trkpt lat="45.8003" lon="5.57757">
        <ele>1145.51</ele>
        <time>2020-06-20T14:18:22Z</time>
      </trkpt>
      <trkpt lat="45.80028" lon="5.5776">
        <ele>1145.11</ele>
        <time>2020-06-20T14:18:25Z</time>
      </trkpt>
      <trkpt lat="45.80025" lon="5.5776">
        <ele>1144.75</ele>
        <time>2020-06-20T14:18:28Z</time>
      </trkpt>
      <trkpt lat="45.80024" lon="5.57758">
        <ele>1144.31</ele>
        <time>2020-06-20T14:18:33Z</time>
      </trkpt>
      <trkpt lat="45.8002" lon="5.57757">
        <ele>1144.24</ele>
        <time>2020-06-20T14:18:34Z</time>
      </trkpt>
      <trkpt lat="45.80016" lon="5.57759">
        <ele>1144.21</ele>
        <time>2020-06-20T14:18:36Z</time>
      </trkpt>
      <trkpt lat="45.80015" lon="5.57757">
        <ele>1144.04</ele>
        <time>2020-06-20T14:18:42Z</time>
      </trkpt>
      <trkpt lat="45.80013" lon="5.57755">
        <ele>1143.99</ele>
        <time>2020-06-20T14:18:45Z</time>
      </trkpt>
      <trkpt lat="45.80012" lon="5.57752">
        <ele>1143.96</ele>
        <time>2020-06-20T14:18:47Z</time>
      </trkpt>
      <trkpt lat="45.80008" lon="5.57752">
        <ele>1143.93</ele>
        <time>2020-06-20T14:18:50Z</time>
      </trkpt>
      <trkpt lat="45.80005" lon="5.57753">
        <ele>1143.95</ele>
        <time>2020-06-20T14:18:52Z</time>
      </trkpt>
      <trkpt lat="45.80001" lon="5.57751">
        <ele>1144.05</ele>
        <time>2020-06-20T14:18:55Z</time>
      </trkpt>
      <trkpt lat="45.79998" lon="5.57751">
        <ele>1144.25</ele>
        <time>2020-06-20T14:18:59Z</time>
      </trkpt>
      <trkpt lat="45.79996" lon="5.5775">
        <ele>1144.43</ele>
        <time>2020-06-20T14:19:02Z</time>
      </trkpt>
      <trkpt lat="45.79992" lon="5.5775">
        <ele>1144.7</ele>
        <time>2020-06-20T14:19:07Z</time>
      </trkpt>
      <trkpt lat="45.7999" lon="5.5775">
        <ele>1144.9</ele>
        <time>2020-06-20T14:19:11Z</time>
      </trkpt>
      <trkpt lat="45.79987" lon="5.57751">
        <ele>1144.94</ele>
        <time>2020-06-20T14:19:12Z</time>
      </trkpt>
      <trkpt lat="45.79985" lon="5.57752">
        <ele>1145.12</ele>
        <time>2020-06-20T14:19:15Z</time>
      </trkpt>
      <trkpt lat="45.79983" lon="5.57754">
        <ele>1145.24</ele>
        <time>2020-06-20T14:19:17Z</time>
      </trkpt>
      <trkpt lat="45.79982" lon="5.57756">
        <ele>1145.36</ele>
        <time>2020-06-20T14:19:19Z</time>
      </trkpt>
      <trkpt lat="45.7998" lon="5.57757">
        <ele>1145.49</ele>
        <time>2020-06-20T14:19:21Z</time>
      </trkpt>
      <trkpt lat="45.79978" lon="5.57758">
        <ele>1145.57</ele>
        <time>2020-06-20T14:19:22Z</time>
      </trkpt>
      <trkpt lat="45.79976" lon="5.57758">
        <ele>1145.73</ele>
        <time>2020-06-20T14:19:24Z</time>
      </trkpt>
      <trkpt lat="45.79974" lon="5.57759">
        <ele>1146.16</ele>
        <time>2020-06-20T14:19:29Z</time>
      </trkpt>
      <trkpt lat="45.79974" lon="5.57763">
        <ele>1146.53</ele>
        <time>2020-06-20T14:19:33Z</time>
      </trkpt>
      <trkpt lat="45.79972" lon="5.57767">
        <ele>1146.87</ele>
        <time>2020-06-20T14:19:36Z</time>
      </trkpt>
      <trkpt lat="45.79969" lon="5.57768">
        <ele>1147.23</ele>
        <time>2020-06-20T14:19:39Z</time>
      </trkpt>
      <trkpt lat="45.79967" lon="5.57769">
        <ele>1147.36</ele>
        <time>2020-06-20T14:19:40Z</time>
      </trkpt>
      <trkpt lat="45.79964" lon="5.5777">
        <ele>1147.88</ele>
        <time>2020-06-20T14:19:44Z</time>
      </trkpt>
      <trkpt lat="45.79962" lon="5.57771">
        <ele>1148.09</ele>
        <time>2020-06-20T14:19:46Z</time>
      </trkpt>
      <trkpt lat="45.7996" lon="5.57773">
        <ele>1148.19</ele>
        <time>2020-06-20T14:19:47Z</time>
      </trkpt>
      <trkpt lat="45.79958" lon="5.57774">
        <ele>1148.31</ele>
        <time>2020-06-20T14:19:48Z</time>
      </trkpt>
      <trkpt lat="45.79955" lon="5.57778">
        <ele>1148.65</ele>
        <time>2020-06-20T14:19:51Z</time>
      </trkpt>
      <trkpt lat="45.79955" lon="5.57781">
        <ele>1149.13</ele>
        <time>2020-06-20T14:19:55Z</time>
      </trkpt>
      <trkpt lat="45.79956" lon="5.57785">
        <ele>1149.45</ele>
        <time>2020-06-20T14:19:57Z</time>
      </trkpt>
      <trkpt lat="45.79957" lon="5.57788">
        <ele>1150.22</ele>
        <time>2020-06-20T14:20:01Z</time>
      </trkpt>
      <trkpt lat="45.79957" lon="5.57792">
        <ele>1152.02</ele>
        <time>2020-06-20T14:20:11Z</time>
      </trkpt>
      <trkpt lat="45.79956" lon="5.57792">
        <ele>1153.67</ele>
        <time>2020-06-20T14:20:23Z</time>
      </trkpt>
      <trkpt lat="45.79958" lon="5.57792">
        <ele>1155.07</ele>
        <time>2020-06-20T14:20:31Z</time>
      </trkpt>
      <trkpt lat="45.79954" lon="5.57795">
        <ele>1155.67</ele>
        <time>2020-06-20T14:20:35Z</time>
      </trkpt>
      <trkpt lat="45.79952" lon="5.57796">
        <ele>1155.88</ele>
        <time>2020-06-20T14:20:37Z</time>
      </trkpt>
      <trkpt lat="45.7995" lon="5.57798">
        <ele>1156.05</ele>
        <time>2020-06-20T14:20:39Z</time>
      </trkpt>
      <trkpt lat="45.79949" lon="5.57802">
        <ele>1156.59</ele>
        <time>2020-06-20T14:20:46Z</time>
      </trkpt>
      <trkpt lat="45.79949" lon="5.57806">
        <ele>1157.05</ele>
        <time>2020-06-20T14:20:51Z</time>
      </trkpt>
      <trkpt lat="45.79949" lon="5.57809">
        <ele>1157.34</ele>
        <time>2020-06-20T14:20:54Z</time>
      </trkpt>
      <trkpt lat="45.79951" lon="5.57813">
        <ele>1157.81</ele>
        <time>2020-06-20T14:20:59Z</time>
      </trkpt>
      <trkpt lat="45.79952" lon="5.57816">
        <ele>1157.99</ele>
        <time>2020-06-20T14:21:01Z</time>
      </trkpt>
      <trkpt lat="45.79953" lon="5.57818">
        <ele>1158.19</ele>
        <time>2020-06-20T14:21:03Z</time>
      </trkpt>
      <trkpt lat="45.79953" lon="5.57821">
        <ele>1160.26</ele>
        <time>2020-06-20T14:21:21Z</time>
      </trkpt>
      <trkpt lat="45.7995" lon="5.57815">
        <ele>1160.57</ele>
        <time>2020-06-20T14:21:30Z</time>
      </trkpt>
      <trkpt lat="45.79948" lon="5.57816">
        <ele>1160.69</ele>
        <time>2020-06-20T14:21:33Z</time>
      </trkpt>
      <trkpt lat="45.79944" lon="5.57817">
        <ele>1160.86</ele>
        <time>2020-06-20T14:21:36Z</time>
      </trkpt>
      <trkpt lat="45.79942" lon="5.57819">
        <ele>1160.91</ele>
        <time>2020-06-20T14:21:37Z</time>
      </trkpt>
      <trkpt lat="45.79938" lon="5.57821">
        <ele>1161.02</ele>
        <time>2020-06-20T14:21:40Z</time>
      </trkpt>
      <trkpt lat="45.79935" lon="5.57821">
        <ele>1161.13</ele>
        <time>2020-06-20T14:21:43Z</time>
      </trkpt>
      <trkpt lat="45.79931" lon="5.57823">
        <ele>1161.23</ele>
        <time>2020-06-20T14:21:46Z</time>
      </trkpt>
      <trkpt lat="45.79929" lon="5.57822">
        <ele>1161.27</ele>
        <time>2020-06-20T14:21:47Z</time>
      </trkpt>
      <trkpt lat="45.79927" lon="5.57821">
        <ele>1161.37</ele>
        <time>2020-06-20T14:21:50Z</time>
      </trkpt>
      <trkpt lat="45.79925" lon="5.5782">
        <ele>1161.44</ele>
        <time>2020-06-20T14:21:52Z</time>
      </trkpt>
      <trkpt lat="45.79922" lon="5.57821">
        <ele>1161.56</ele>
        <time>2020-06-20T14:21:54Z</time>
      </trkpt>
      <trkpt lat="45.7992" lon="5.57824">
        <ele>1161.65</ele>
        <time>2020-06-20T14:21:56Z</time>
      </trkpt>
      <trkpt lat="45.79918" lon="5.57826">
        <ele>1161.7</ele>
        <time>2020-06-20T14:21:58Z</time>
      </trkpt>
      <trkpt lat="45.79918" lon="5.57825">
        <ele>1161.65</ele>
        <time>2020-06-20T14:22:03Z</time>
      </trkpt>
      <trkpt lat="45.79916" lon="5.57827">
        <ele>1161.6</ele>
        <time>2020-06-20T14:22:05Z</time>
      </trkpt>
      <trkpt lat="45.79914" lon="5.57828">
        <ele>1161.56</ele>
        <time>2020-06-20T14:22:07Z</time>
      </trkpt>
      <trkpt lat="45.79913" lon="5.57831">
        <ele>1161.52</ele>
        <time>2020-06-20T14:22:09Z</time>
      </trkpt>
      <trkpt lat="45.79911" lon="5.57835">
        <ele>1161.48</ele>
        <time>2020-06-20T14:22:11Z</time>
      </trkpt>
      <trkpt lat="45.7991" lon="5.57837">
        <ele>1161.46</ele>
        <time>2020-06-20T14:22:12Z</time>
      </trkpt>
      <trkpt lat="45.79908" lon="5.5784">
        <ele>1161.41</ele>
        <time>2020-06-20T14:22:14Z</time>
      </trkpt>
      <trkpt lat="45.79906" lon="5.57844">
        <ele>1161.34</ele>
        <time>2020-06-20T14:22:21Z</time>
      </trkpt>
      <trkpt lat="45.79904" lon="5.57846">
        <ele>1161.32</ele>
        <time>2020-06-20T14:22:23Z</time>
      </trkpt>
      <trkpt lat="45.79903" lon="5.5785">
        <ele>1161.32</ele>
        <time>2020-06-20T14:22:25Z</time>
      </trkpt>
      <trkpt lat="45.79901" lon="5.57852">
        <ele>1161.34</ele>
        <time>2020-06-20T14:22:27Z</time>
      </trkpt>
      <trkpt lat="45.79899" lon="5.57854">
        <ele>1161.35</ele>
        <time>2020-06-20T14:22:30Z</time>
      </trkpt>
      <trkpt lat="45.79898" lon="5.57859">
        <ele>1161.37</ele>
        <time>2020-06-20T14:22:32Z</time>
      </trkpt>
      <trkpt lat="45.79897" lon="5.57862">
        <ele>1161.4</ele>
        <time>2020-06-20T14:22:34Z</time>
      </trkpt>
      <trkpt lat="45.79894" lon="5.57863">
        <ele>1161.45</ele>
        <time>2020-06-20T14:22:37Z</time>
      </trkpt>
      <trkpt lat="45.79892" lon="5.57863">
        <ele>1161.47</ele>
        <time>2020-06-20T14:22:40Z</time>
      </trkpt>
      <trkpt lat="45.7989" lon="5.57864">
        <ele>1161.53</ele>
        <time>2020-06-20T14:22:43Z</time>
      </trkpt>
      <trkpt lat="45.79887" lon="5.57867">
        <ele>1161.55</ele>
        <time>2020-06-20T14:22:44Z</time>
      </trkpt>
      <trkpt lat="45.79885" lon="5.57867">
        <ele>1161.56</ele>
        <time>2020-06-20T14:22:45Z</time>
      </trkpt>
      <trkpt lat="45.79883" lon="5.57869">
        <ele>1161.64</ele>
        <time>2020-06-20T14:22:48Z</time>
      </trkpt>
      <trkpt lat="45.79881" lon="5.57872">
        <ele>1161.69</ele>
        <time>2020-06-20T14:22:50Z</time>
      </trkpt>
      <trkpt lat="45.7988" lon="5.57875">
        <ele>1161.72</ele>
        <time>2020-06-20T14:22:52Z</time>
      </trkpt>
      <trkpt lat="45.79879" lon="5.5788">
        <ele>1161.63</ele>
        <time>2020-06-20T14:22:59Z</time>
      </trkpt>
      <trkpt lat="45.79876" lon="5.57885">
        <ele>1161.59</ele>
        <time>2020-06-20T14:23:01Z</time>
      </trkpt>
      <trkpt lat="45.79876" lon="5.57888">
        <ele>1161.52</ele>
        <time>2020-06-20T14:23:04Z</time>
      </trkpt>
      <trkpt lat="45.79871" lon="5.57889">
        <ele>1161.44</ele>
        <time>2020-06-20T14:23:06Z</time>
      </trkpt>
      <trkpt lat="45.79869" lon="5.57888">
        <ele>1161.38</ele>
        <time>2020-06-20T14:23:08Z</time>
      </trkpt>
      <trkpt lat="45.79867" lon="5.57888">
        <ele>1161.35</ele>
        <time>2020-06-20T14:23:09Z</time>
      </trkpt>
      <trkpt lat="45.79864" lon="5.57885">
        <ele>1161.28</ele>
        <time>2020-06-20T14:23:11Z</time>
      </trkpt>
      <trkpt lat="45.79861" lon="5.57883">
        <ele>1161.25</ele>
        <time>2020-06-20T14:23:13Z</time>
      </trkpt>
      <trkpt lat="45.79858" lon="5.57881">
        <ele>1161.22</ele>
        <time>2020-06-20T14:23:14Z</time>
      </trkpt>
      <trkpt lat="45.79855" lon="5.57881">
        <ele>1161.17</ele>
        <time>2020-06-20T14:23:15Z</time>
      </trkpt>
      <trkpt lat="45.79851" lon="5.57881">
        <ele>1161.11</ele>
        <time>2020-06-20T14:23:16Z</time>
      </trkpt>
      <trkpt lat="45.79848" lon="5.57882">
        <ele>1161.03</ele>
        <time>2020-06-20T14:23:18Z</time>
      </trkpt>
      <trkpt lat="45.79845" lon="5.57883">
        <ele>1161.01</ele>
        <time>2020-06-20T14:23:25Z</time>
      </trkpt>
      <trkpt lat="45.79842" lon="5.57884">
        <ele>1161</ele>
        <time>2020-06-20T14:23:28Z</time>
      </trkpt>
      <trkpt lat="45.7984" lon="5.57886">
        <ele>1161</ele>
        <time>2020-06-20T14:23:31Z</time>
      </trkpt>
      <trkpt lat="45.79838" lon="5.5789">
        <ele>1161</ele>
        <time>2020-06-20T14:23:36Z</time>
      </trkpt>
      <trkpt lat="45.79836" lon="5.57891">
        <ele>1161.03</ele>
        <time>2020-06-20T14:23:38Z</time>
      </trkpt>
      <trkpt lat="45.79833" lon="5.57892">
        <ele>1161.18</ele>
        <time>2020-06-20T14:23:42Z</time>
      </trkpt>
      <trkpt lat="45.79828" lon="5.57897">
        <ele>1161.44</ele>
        <time>2020-06-20T14:23:47Z</time>
      </trkpt>
      <trkpt lat="45.79826" lon="5.57899">
        <ele>1161.55</ele>
        <time>2020-06-20T14:23:49Z</time>
      </trkpt>
      <trkpt lat="45.79824" lon="5.57901">
        <ele>1161.6</ele>
        <time>2020-06-20T14:23:50Z</time>
      </trkpt>
      <trkpt lat="45.79822" lon="5.57904">
        <ele>1161.7</ele>
        <time>2020-06-20T14:23:52Z</time>
      </trkpt>
      <trkpt lat="45.79822" lon="5.57908">
        <ele>1161.82</ele>
        <time>2020-06-20T14:23:54Z</time>
      </trkpt>
      <trkpt lat="45.79823" lon="5.5791">
        <ele>1162</ele>
        <time>2020-06-20T14:23:58Z</time>
      </trkpt>
      <trkpt lat="45.79822" lon="5.57913">
        <ele>1162.1</ele>
        <time>2020-06-20T14:24:00Z</time>
      </trkpt>
      <trkpt lat="45.79821" lon="5.57916">
        <ele>1162.18</ele>
        <time>2020-06-20T14:24:02Z</time>
      </trkpt>
      <trkpt lat="45.7982" lon="5.57921">
        <ele>1162.47</ele>
        <time>2020-06-20T14:24:08Z</time>
      </trkpt>
      <trkpt lat="45.79818" lon="5.57925">
        <ele>1162.74</ele>
        <time>2020-06-20T14:24:12Z</time>
      </trkpt>
      <trkpt lat="45.79817" lon="5.57927">
        <ele>1163.14</ele>
        <time>2020-06-20T14:24:17Z</time>
      </trkpt>
      <trkpt lat="45.79815" lon="5.57929">
        <ele>1163.38</ele>
        <time>2020-06-20T14:24:20Z</time>
      </trkpt>
      <trkpt lat="45.79814" lon="5.57931">
        <ele>1163.58</ele>
        <time>2020-06-20T14:24:23Z</time>
      </trkpt>
      <trkpt lat="45.79812" lon="5.57933">
        <ele>1163.7</ele>
        <time>2020-06-20T14:24:25Z</time>
      </trkpt>
      <trkpt lat="45.7981" lon="5.57936">
        <ele>1163.88</ele>
        <time>2020-06-20T14:24:28Z</time>
      </trkpt>
      <trkpt lat="45.79809" lon="5.57938">
        <ele>1164.06</ele>
        <time>2020-06-20T14:24:31Z</time>
      </trkpt>
      <trkpt lat="45.79807" lon="5.5794">
        <ele>1164.19</ele>
        <time>2020-06-20T14:24:33Z</time>
      </trkpt>
      <trkpt lat="45.79806" lon="5.57942">
        <ele>1164.33</ele>
        <time>2020-06-20T14:24:35Z</time>
      </trkpt>
      <trkpt lat="45.79804" lon="5.57944">
        <ele>1164.41</ele>
        <time>2020-06-20T14:24:36Z</time>
      </trkpt>
      <trkpt lat="45.79802" lon="5.57948">
        <ele>1164.56</ele>
        <time>2020-06-20T14:24:38Z</time>
      </trkpt>
      <trkpt lat="45.79801" lon="5.57951">
        <ele>1164.67</ele>
        <time>2020-06-20T14:24:40Z</time>
      </trkpt>
      <trkpt lat="45.79799" lon="5.57953">
        <ele>1164.9</ele>
        <time>2020-06-20T14:24:44Z</time>
      </trkpt>
      <trkpt lat="45.79798" lon="5.57958">
        <ele>1164.97</ele>
        <time>2020-06-20T14:24:47Z</time>
      </trkpt>
      <trkpt lat="45.79797" lon="5.57963">
        <ele>1164.96</ele>
        <time>2020-06-20T14:24:55Z</time>
      </trkpt>
      <trkpt lat="45.79796" lon="5.57965">
        <ele>1164.91</ele>
        <time>2020-06-20T14:24:57Z</time>
      </trkpt>
      <trkpt lat="45.79795" lon="5.57968">
        <ele>1164.85</ele>
        <time>2020-06-20T14:24:59Z</time>
      </trkpt>
      <trkpt lat="45.79795" lon="5.57972">
        <ele>1164.77</ele>
        <time>2020-06-20T14:25:01Z</time>
      </trkpt>
      <trkpt lat="45.79793" lon="5.57975">
        <ele>1164.53</ele>
        <time>2020-06-20T14:25:05Z</time>
      </trkpt>
      <trkpt lat="45.79792" lon="5.57979">
        <ele>1164.39</ele>
        <time>2020-06-20T14:25:07Z</time>
      </trkpt>
      <trkpt lat="45.79789" lon="5.5798">
        <ele>1164.28</ele>
        <time>2020-06-20T14:25:09Z</time>
      </trkpt>
      <trkpt lat="45.79786" lon="5.57981">
        <ele>1164.19</ele>
        <time>2020-06-20T14:25:11Z</time>
      </trkpt>
      <trkpt lat="45.79783" lon="5.57981">
        <ele>1164.02</ele>
        <time>2020-06-20T14:25:14Z</time>
      </trkpt>
      <trkpt lat="45.7978" lon="5.57984">
        <ele>1163.93</ele>
        <time>2020-06-20T14:25:16Z</time>
      </trkpt>
      <trkpt lat="45.79779" lon="5.57986">
        <ele>1163.88</ele>
        <time>2020-06-20T14:25:17Z</time>
      </trkpt>
      <trkpt lat="45.79779" lon="5.57988">
        <ele>1163.57</ele>
        <time>2020-06-20T14:25:23Z</time>
      </trkpt>
      <trkpt lat="45.79781" lon="5.5799">
        <ele>1163.5</ele>
        <time>2020-06-20T14:25:25Z</time>
      </trkpt>
      <trkpt lat="45.7978" lon="5.57994">
        <ele>1163.41</ele>
        <time>2020-06-20T14:25:29Z</time>
      </trkpt>
      <trkpt lat="45.79779" lon="5.57992">
        <ele>1163.35</ele>
        <time>2020-06-20T14:25:31Z</time>
      </trkpt>
      <trkpt lat="45.79777" lon="5.57991">
        <ele>1163.3</ele>
        <time>2020-06-20T14:25:32Z</time>
      </trkpt>
      <trkpt lat="45.79775" lon="5.57991">
        <ele>1163.18</ele>
        <time>2020-06-20T14:25:34Z</time>
      </trkpt>
      <trkpt lat="45.79775" lon="5.57987">
        <ele>1163.13</ele>
        <time>2020-06-20T14:25:35Z</time>
      </trkpt>
      <trkpt lat="45.79772" lon="5.57985">
        <ele>1162.93</ele>
        <time>2020-06-20T14:25:39Z</time>
      </trkpt>
      <trkpt lat="45.7977" lon="5.57982">
        <ele>1162.55</ele>
        <time>2020-06-20T14:25:46Z</time>
      </trkpt>
      <trkpt lat="45.79768" lon="5.57982">
        <ele>1162.27</ele>
        <time>2020-06-20T14:25:58Z</time>
      </trkpt>
      <trkpt lat="45.79768" lon="5.57985">
        <ele>1163.34</ele>
        <time>2020-06-20T14:26:25Z</time>
      </trkpt>
      <trkpt lat="45.79766" lon="5.57986">
        <ele>1163.49</ele>
        <time>2020-06-20T14:26:29Z</time>
      </trkpt>
      <trkpt lat="45.79764" lon="5.57988">
        <ele>1163.63</ele>
        <time>2020-06-20T14:26:32Z</time>
      </trkpt>
      <trkpt lat="45.79763" lon="5.57993">
        <ele>1163.7</ele>
        <time>2020-06-20T14:26:34Z</time>
      </trkpt>
      <trkpt lat="45.79763" lon="5.57996">
        <ele>1163.77</ele>
        <time>2020-06-20T14:26:36Z</time>
      </trkpt>
      <trkpt lat="45.79762" lon="5.57999">
        <ele>1163.82</ele>
        <time>2020-06-20T14:26:39Z</time>
      </trkpt>
      <trkpt lat="45.79762" lon="5.58004">
        <ele>1163.77</ele>
        <time>2020-06-20T14:26:42Z</time>
      </trkpt>
      <trkpt lat="45.79761" lon="5.58007">
        <ele>1163.7</ele>
        <time>2020-06-20T14:26:45Z</time>
      </trkpt>
      <trkpt lat="45.79759" lon="5.58009">
        <ele>1163.43</ele>
        <time>2020-06-20T14:26:51Z</time>
      </trkpt>
      <trkpt lat="45.79757" lon="5.58011">
        <ele>1163.31</ele>
        <time>2020-06-20T14:26:53Z</time>
      </trkpt>
      <trkpt lat="45.79754" lon="5.58012">
        <ele>1163.12</ele>
        <time>2020-06-20T14:26:56Z</time>
      </trkpt>
      <trkpt lat="45.79751" lon="5.58014">
        <ele>1162.96</ele>
        <time>2020-06-20T14:26:58Z</time>
      </trkpt>
      <trkpt lat="45.79749" lon="5.58015">
        <ele>1162.88</ele>
        <time>2020-06-20T14:26:59Z</time>
      </trkpt>
      <trkpt lat="45.79746" lon="5.58017">
        <ele>1162.7</ele>
        <time>2020-06-20T14:27:01Z</time>
      </trkpt>
      <trkpt lat="45.79743" lon="5.58019">
        <ele>1162.5</ele>
        <time>2020-06-20T14:27:03Z</time>
      </trkpt>
      <trkpt lat="45.7974" lon="5.5802">
        <ele>1162.31</ele>
        <time>2020-06-20T14:27:05Z</time>
      </trkpt>
      <trkpt lat="45.79738" lon="5.58024">
        <ele>1162.05</ele>
        <time>2020-06-20T14:27:08Z</time>
      </trkpt>
      <trkpt lat="45.79736" lon="5.58028">
        <ele>1161.84</ele>
        <time>2020-06-20T14:27:11Z</time>
      </trkpt>
      <trkpt lat="45.79734" lon="5.58031">
        <ele>1161.7</ele>
        <time>2020-06-20T14:27:13Z</time>
      </trkpt>
      <trkpt lat="45.79733" lon="5.58035">
        <ele>1161.39</ele>
        <time>2020-06-20T14:27:17Z</time>
      </trkpt>
      <trkpt lat="45.79732" lon="5.58039">
        <ele>1161.26</ele>
        <time>2020-06-20T14:27:19Z</time>
      </trkpt>
      <trkpt lat="45.79731" lon="5.58043">
        <ele>1161.04</ele>
        <time>2020-06-20T14:27:22Z</time>
      </trkpt>
      <trkpt lat="45.79731" lon="5.58046">
        <ele>1160.43</ele>
        <time>2020-06-20T14:27:27Z</time>
      </trkpt>
      <trkpt lat="45.79729" lon="5.58047">
        <ele>1159.65</ele>
        <time>2020-06-20T14:27:32Z</time>
      </trkpt>
      <trkpt lat="45.79728" lon="5.58049">
        <ele>1159.17</ele>
        <time>2020-06-20T14:27:35Z</time>
      </trkpt>
      <trkpt lat="45.79726" lon="5.58052">
        <ele>1158.73</ele>
        <time>2020-06-20T14:27:38Z</time>
      </trkpt>
      <trkpt lat="45.79724" lon="5.58055">
        <ele>1158.15</ele>
        <time>2020-06-20T14:27:42Z</time>
      </trkpt>
      <trkpt lat="45.79722" lon="5.58057">
        <ele>1157.57</ele>
        <time>2020-06-20T14:27:46Z</time>
      </trkpt>
      <trkpt lat="45.79721" lon="5.58061">
        <ele>1157.25</ele>
        <time>2020-06-20T14:27:48Z</time>
      </trkpt>
      <trkpt lat="45.79719" lon="5.58063">
        <ele>1156.94</ele>
        <time>2020-06-20T14:27:50Z</time>
      </trkpt>
      <trkpt lat="45.79717" lon="5.58067">
        <ele>1156.29</ele>
        <time>2020-06-20T14:27:54Z</time>
      </trkpt>
      <trkpt lat="45.79716" lon="5.58069">
        <ele>1156.13</ele>
        <time>2020-06-20T14:27:55Z</time>
      </trkpt>
      <trkpt lat="45.79713" lon="5.5807">
        <ele>1155.96</ele>
        <time>2020-06-20T14:27:56Z</time>
      </trkpt>
      <trkpt lat="45.79711" lon="5.58072">
        <ele>1155.63</ele>
        <time>2020-06-20T14:27:58Z</time>
      </trkpt>
      <trkpt lat="45.79709" lon="5.58074">
        <ele>1154.6</ele>
        <time>2020-06-20T14:28:03Z</time>
      </trkpt>
      <trkpt lat="45.79706" lon="5.58075">
        <ele>1153.82</ele>
        <time>2020-06-20T14:28:06Z</time>
      </trkpt>
      <trkpt lat="45.79704" lon="5.58077">
        <ele>1153.53</ele>
        <time>2020-06-20T14:28:07Z</time>
      </trkpt>
      <trkpt lat="45.79702" lon="5.58079">
        <ele>1153.29</ele>
        <time>2020-06-20T14:28:08Z</time>
      </trkpt>
      <trkpt lat="45.79699" lon="5.58081">
        <ele>1152.85</ele>
        <time>2020-06-20T14:28:10Z</time>
      </trkpt>
      <trkpt lat="45.79697" lon="5.58084">
        <ele>1152.43</ele>
        <time>2020-06-20T14:28:12Z</time>
      </trkpt>
      <trkpt lat="45.79695" lon="5.58086">
        <ele>1152.02</ele>
        <time>2020-06-20T14:28:14Z</time>
      </trkpt>
      <trkpt lat="45.79694" lon="5.58087">
        <ele>1151.58</ele>
        <time>2020-06-20T14:28:16Z</time>
      </trkpt>
      <trkpt lat="45.79692" lon="5.58089">
        <ele>1151.2</ele>
        <time>2020-06-20T14:28:18Z</time>
      </trkpt>
      <trkpt lat="45.7969" lon="5.58091">
        <ele>1150.59</ele>
        <time>2020-06-20T14:28:22Z</time>
      </trkpt>
      <trkpt lat="45.79688" lon="5.58093">
        <ele>1150.34</ele>
        <time>2020-06-20T14:28:24Z</time>
      </trkpt>
      <trkpt lat="45.79687" lon="5.58096">
        <ele>1150.12</ele>
        <time>2020-06-20T14:28:26Z</time>
      </trkpt>
      <trkpt lat="45.79685" lon="5.58098">
        <ele>1149.83</ele>
        <time>2020-06-20T14:28:29Z</time>
      </trkpt>
      <trkpt lat="45.79682" lon="5.58099">
        <ele>1149.64</ele>
        <time>2020-06-20T14:28:31Z</time>
      </trkpt>
      <trkpt lat="45.79679" lon="5.58101">
        <ele>1149.48</ele>
        <time>2020-06-20T14:28:33Z</time>
      </trkpt>
      <trkpt lat="45.79678" lon="5.58104">
        <ele>1149.29</ele>
        <time>2020-06-20T14:28:36Z</time>
      </trkpt>
      <trkpt lat="45.79678" lon="5.58107">
        <ele>1149.18</ele>
        <time>2020-06-20T14:28:38Z</time>
      </trkpt>
      <trkpt lat="45.79677" lon="5.58109">
        <ele>1149.08</ele>
        <time>2020-06-20T14:28:40Z</time>
      </trkpt>
      <trkpt lat="45.79675" lon="5.5811">
        <ele>1148.91</ele>
        <time>2020-06-20T14:28:43Z</time>
      </trkpt>
      <trkpt lat="45.79674" lon="5.58114">
        <ele>1148.76</ele>
        <time>2020-06-20T14:28:46Z</time>
      </trkpt>
      <trkpt lat="45.79672" lon="5.58118">
        <ele>1148.68</ele>
        <time>2020-06-20T14:28:48Z</time>
      </trkpt>
      <trkpt lat="45.7967" lon="5.58121">
        <ele>1148.56</ele>
        <time>2020-06-20T14:28:53Z</time>
      </trkpt>
      <trkpt lat="45.79667" lon="5.58122">
        <ele>1148.48</ele>
        <time>2020-06-20T14:28:57Z</time>
      </trkpt>
      <trkpt lat="45.79664" lon="5.58123">
        <ele>1148.46</ele>
        <time>2020-06-20T14:28:59Z</time>
      </trkpt>
      <trkpt lat="45.79662" lon="5.58122">
        <ele>1148.43</ele>
        <time>2020-06-20T14:29:00Z</time>
      </trkpt>
      <trkpt lat="45.7966" lon="5.58122">
        <ele>1148.41</ele>
        <time>2020-06-20T14:29:01Z</time>
      </trkpt>
      <trkpt lat="45.79658" lon="5.58122">
        <ele>1148.37</ele>
        <time>2020-06-20T14:29:03Z</time>
      </trkpt>
      <trkpt lat="45.79656" lon="5.58122">
        <ele>1148.31</ele>
        <time>2020-06-20T14:29:05Z</time>
      </trkpt>
      <trkpt lat="45.79653" lon="5.58122">
        <ele>1148.24</ele>
        <time>2020-06-20T14:29:07Z</time>
      </trkpt>
      <trkpt lat="45.79651" lon="5.58123">
        <ele>1148.16</ele>
        <time>2020-06-20T14:29:09Z</time>
      </trkpt>
      <trkpt lat="45.79649" lon="5.58125">
        <ele>1148.07</ele>
        <time>2020-06-20T14:29:12Z</time>
      </trkpt>
      <trkpt lat="45.79646" lon="5.58128">
        <ele>1148.01</ele>
        <time>2020-06-20T14:29:16Z</time>
      </trkpt>
      <trkpt lat="45.79644" lon="5.5813">
        <ele>1148.01</ele>
        <time>2020-06-20T14:29:17Z</time>
      </trkpt>
      <trkpt lat="45.79644" lon="5.58133">
        <ele>1148.01</ele>
        <time>2020-06-20T14:29:19Z</time>
      </trkpt>
      <trkpt lat="45.79642" lon="5.58136">
        <ele>1147.99</ele>
        <time>2020-06-20T14:29:22Z</time>
      </trkpt>
      <trkpt lat="45.79641" lon="5.58142">
        <ele>1147.98</ele>
        <time>2020-06-20T14:29:25Z</time>
      </trkpt>
      <trkpt lat="45.79639" lon="5.58144">
        <ele>1147.99</ele>
        <time>2020-06-20T14:29:31Z</time>
      </trkpt>
      <trkpt lat="45.79637" lon="5.58148">
        <ele>1148</ele>
        <time>2020-06-20T14:29:34Z</time>
      </trkpt>
      <trkpt lat="45.79636" lon="5.58153">
        <ele>1148.06</ele>
        <time>2020-06-20T14:29:36Z</time>
      </trkpt>
      <trkpt lat="45.79635" lon="5.58157">
        <ele>1148.2</ele>
        <time>2020-06-20T14:29:39Z</time>
      </trkpt>
      <trkpt lat="45.79633" lon="5.58159">
        <ele>1148.24</ele>
        <time>2020-06-20T14:29:40Z</time>
      </trkpt>
      <trkpt lat="45.79631" lon="5.58161">
        <ele>1148.28</ele>
        <time>2020-06-20T14:29:41Z</time>
      </trkpt>
      <trkpt lat="45.79628" lon="5.58163">
        <ele>1148.31</ele>
        <time>2020-06-20T14:29:44Z</time>
      </trkpt>
      <trkpt lat="45.79625" lon="5.58165">
        <ele>1148.32</ele>
        <time>2020-06-20T14:29:45Z</time>
      </trkpt>
      <trkpt lat="45.79624" lon="5.58167">
        <ele>1148.35</ele>
        <time>2020-06-20T14:29:46Z</time>
      </trkpt>
      <trkpt lat="45.79622" lon="5.5817">
        <ele>1148.4</ele>
        <time>2020-06-20T14:29:48Z</time>
      </trkpt>
      <trkpt lat="45.7962" lon="5.58174">
        <ele>1148.41</ele>
        <time>2020-06-20T14:29:52Z</time>
      </trkpt>
      <trkpt lat="45.79618" lon="5.58177">
        <ele>1148.35</ele>
        <time>2020-06-20T14:29:55Z</time>
      </trkpt>
      <trkpt lat="45.79616" lon="5.58178">
        <ele>1148.23</ele>
        <time>2020-06-20T14:29:58Z</time>
      </trkpt>
      <trkpt lat="45.79614" lon="5.58179">
        <ele>1148.16</ele>
        <time>2020-06-20T14:30:00Z</time>
      </trkpt>
      <trkpt lat="45.79611" lon="5.58181">
        <ele>1148.09</ele>
        <time>2020-06-20T14:30:02Z</time>
      </trkpt>
      <trkpt lat="45.79609" lon="5.58182">
        <ele>1148.06</ele>
        <time>2020-06-20T14:30:03Z</time>
      </trkpt>
      <trkpt lat="45.79605" lon="5.58184">
        <ele>1147.99</ele>
        <time>2020-06-20T14:30:06Z</time>
      </trkpt>
      <trkpt lat="45.79603" lon="5.58187">
        <ele>1147.94</ele>
        <time>2020-06-20T14:30:09Z</time>
      </trkpt>
      <trkpt lat="45.79602" lon="5.5819">
        <ele>1147.9</ele>
        <time>2020-06-20T14:30:12Z</time>
      </trkpt>
      <trkpt lat="45.796" lon="5.5819">
        <ele>1147.9</ele>
        <time>2020-06-20T14:30:17Z</time>
      </trkpt>
      <trkpt lat="45.79599" lon="5.58193">
        <ele>1147.89</ele>
        <time>2020-06-20T14:30:22Z</time>
      </trkpt>
      <trkpt lat="45.79597" lon="5.58196">
        <ele>1147.92</ele>
        <time>2020-06-20T14:30:26Z</time>
      </trkpt>
      <trkpt lat="45.79594" lon="5.58199">
        <ele>1147.93</ele>
        <time>2020-06-20T14:30:29Z</time>
      </trkpt>
      <trkpt lat="45.79592" lon="5.58201">
        <ele>1147.95</ele>
        <time>2020-06-20T14:30:31Z</time>
      </trkpt>
      <trkpt lat="45.79591" lon="5.58204">
        <ele>1147.97</ele>
        <time>2020-06-20T14:30:33Z</time>
      </trkpt>
      <trkpt lat="45.79591" lon="5.58207">
        <ele>1148.03</ele>
        <time>2020-06-20T14:30:36Z</time>
      </trkpt>
      <trkpt lat="45.7959" lon="5.58211">
        <ele>1148.06</ele>
        <time>2020-06-20T14:30:38Z</time>
      </trkpt>
      <trkpt lat="45.79589" lon="5.58214">
        <ele>1148.1</ele>
        <time>2020-06-20T14:30:40Z</time>
      </trkpt>
      <trkpt lat="45.79586" lon="5.58216">
        <ele>1148.14</ele>
        <time>2020-06-20T14:30:42Z</time>
      </trkpt>
      <trkpt lat="45.79583" lon="5.58216">
        <ele>1148.16</ele>
        <time>2020-06-20T14:30:44Z</time>
      </trkpt>
      <trkpt lat="45.79582" lon="5.58217">
        <ele>1148.16</ele>
        <time>2020-06-20T14:30:45Z</time>
      </trkpt>
      <trkpt lat="45.79579" lon="5.58219">
        <ele>1148.2</ele>
        <time>2020-06-20T14:30:48Z</time>
      </trkpt>
      <trkpt lat="45.79576" lon="5.58222">
        <ele>1148.26</ele>
        <time>2020-06-20T14:30:51Z</time>
      </trkpt>
      <trkpt lat="45.79574" lon="5.58225">
        <ele>1148.34</ele>
        <time>2020-06-20T14:30:54Z</time>
      </trkpt>
      <trkpt lat="45.79571" lon="5.58228">
        <ele>1148.52</ele>
        <time>2020-06-20T14:30:59Z</time>
      </trkpt>
      <trkpt lat="45.79569" lon="5.58231">
        <ele>1148.64</ele>
        <time>2020-06-20T14:31:02Z</time>
      </trkpt>
      <trkpt lat="45.79567" lon="5.58232">
        <ele>1148.72</ele>
        <time>2020-06-20T14:31:04Z</time>
      </trkpt>
      <trkpt lat="45.79565" lon="5.58233">
        <ele>1148.79</ele>
        <time>2020-06-20T14:31:06Z</time>
      </trkpt>
      <trkpt lat="45.79563" lon="5.58234">
        <ele>1148.84</ele>
        <time>2020-06-20T14:31:07Z</time>
      </trkpt>
      <trkpt lat="45.79561" lon="5.58236">
        <ele>1148.97</ele>
        <time>2020-06-20T14:31:09Z</time>
      </trkpt>
      <trkpt lat="45.79559" lon="5.58238">
        <ele>1149.28</ele>
        <time>2020-06-20T14:31:13Z</time>
      </trkpt>
      <trkpt lat="45.79557" lon="5.58239">
        <ele>1149.43</ele>
        <time>2020-06-20T14:31:15Z</time>
      </trkpt>
      <trkpt lat="45.79555" lon="5.58238">
        <ele>1149.67</ele>
        <time>2020-06-20T14:31:18Z</time>
      </trkpt>
      <trkpt lat="45.79553" lon="5.5824">
        <ele>1149.75</ele>
        <time>2020-06-20T14:31:19Z</time>
      </trkpt>
      <trkpt lat="45.7955" lon="5.58242">
        <ele>1150.02</ele>
        <time>2020-06-20T14:31:22Z</time>
      </trkpt>
      <trkpt lat="45.79548" lon="5.58243">
        <ele>1150.36</ele>
        <time>2020-06-20T14:31:25Z</time>
      </trkpt>
      <trkpt lat="45.79547" lon="5.58247">
        <ele>1150.67</ele>
        <time>2020-06-20T14:31:28Z</time>
      </trkpt>
      <trkpt lat="45.79544" lon="5.5825">
        <ele>1151.07</ele>
        <time>2020-06-20T14:31:32Z</time>
      </trkpt>
      <trkpt lat="45.79542" lon="5.5825">
        <ele>1151.74</ele>
        <time>2020-06-20T14:31:38Z</time>
      </trkpt>
      <trkpt lat="45.7954" lon="5.58248">
        <ele>1152.23</ele>
        <time>2020-06-20T14:31:42Z</time>
      </trkpt>
      <trkpt lat="45.79539" lon="5.58251">
        <ele>1152.6</ele>
        <time>2020-06-20T14:31:45Z</time>
      </trkpt>
      <trkpt lat="45.79537" lon="5.58252">
        <ele>1153.26</ele>
        <time>2020-06-20T14:31:50Z</time>
      </trkpt>
      <trkpt lat="45.79534" lon="5.58253">
        <ele>1153.53</ele>
        <time>2020-06-20T14:31:52Z</time>
      </trkpt>
      <trkpt lat="45.79532" lon="5.58256">
        <ele>1153.8</ele>
        <time>2020-06-20T14:31:54Z</time>
      </trkpt>
      <trkpt lat="45.7953" lon="5.58259">
        <ele>1154.06</ele>
        <time>2020-06-20T14:31:56Z</time>
      </trkpt>
      <trkpt lat="45.7953" lon="5.58262">
        <ele>1154.18</ele>
        <time>2020-06-20T14:31:57Z</time>
      </trkpt>
      <trkpt lat="45.7953" lon="5.58265">
        <ele>1154.41</ele>
        <time>2020-06-20T14:31:59Z</time>
      </trkpt>
      <trkpt lat="45.79529" lon="5.58268">
        <ele>1154.74</ele>
        <time>2020-06-20T14:32:02Z</time>
      </trkpt>
      <trkpt lat="45.79527" lon="5.58271">
        <ele>1154.96</ele>
        <time>2020-06-20T14:32:04Z</time>
      </trkpt>
      <trkpt lat="45.79524" lon="5.58274">
        <ele>1155.19</ele>
        <time>2020-06-20T14:32:06Z</time>
      </trkpt>
      <trkpt lat="45.79522" lon="5.58276">
        <ele>1155.41</ele>
        <time>2020-06-20T14:32:08Z</time>
      </trkpt>
      <trkpt lat="45.7952" lon="5.58277">
        <ele>1155.52</ele>
        <time>2020-06-20T14:32:09Z</time>
      </trkpt>
      <trkpt lat="45.79517" lon="5.5828">
        <ele>1155.81</ele>
        <time>2020-06-20T14:32:12Z</time>
      </trkpt>
      <trkpt lat="45.79516" lon="5.58283">
        <ele>1156.1</ele>
        <time>2020-06-20T14:32:15Z</time>
      </trkpt>
      <trkpt lat="45.79514" lon="5.58286">
        <ele>1156.3</ele>
        <time>2020-06-20T14:32:17Z</time>
      </trkpt>
      <trkpt lat="45.7951" lon="5.58288">
        <ele>1156.49</ele>
        <time>2020-06-20T14:32:19Z</time>
      </trkpt>
      <trkpt lat="45.79507" lon="5.58289">
        <ele>1156.68</ele>
        <time>2020-06-20T14:32:21Z</time>
      </trkpt>
      <trkpt lat="45.79505" lon="5.5829">
        <ele>1156.88</ele>
        <time>2020-06-20T14:32:23Z</time>
      </trkpt>
      <trkpt lat="45.79504" lon="5.58293">
        <ele>1157.33</ele>
        <time>2020-06-20T14:32:27Z</time>
      </trkpt>
      <trkpt lat="45.79502" lon="5.58295">
        <ele>1157.67</ele>
        <time>2020-06-20T14:32:30Z</time>
      </trkpt>
      <trkpt lat="45.795" lon="5.58296">
        <ele>1157.92</ele>
        <time>2020-06-20T14:32:32Z</time>
      </trkpt>
      <trkpt lat="45.79498" lon="5.58297">
        <ele>1158.14</ele>
        <time>2020-06-20T14:32:34Z</time>
      </trkpt>
      <trkpt lat="45.79497" lon="5.58301">
        <ele>1158.47</ele>
        <time>2020-06-20T14:32:37Z</time>
      </trkpt>
      <trkpt lat="45.79496" lon="5.58303">
        <ele>1158.7</ele>
        <time>2020-06-20T14:32:39Z</time>
      </trkpt>
      <trkpt lat="45.79494" lon="5.58304">
        <ele>1159.03</ele>
        <time>2020-06-20T14:32:42Z</time>
      </trkpt>
      <trkpt lat="45.79492" lon="5.58305">
        <ele>1159.14</ele>
        <time>2020-06-20T14:32:43Z</time>
      </trkpt>
      <trkpt lat="45.79489" lon="5.58306">
        <ele>1159.37</ele>
        <time>2020-06-20T14:32:45Z</time>
      </trkpt>
      <trkpt lat="45.79487" lon="5.58308">
        <ele>1159.6</ele>
        <time>2020-06-20T14:32:47Z</time>
      </trkpt>
      <trkpt lat="45.79486" lon="5.58311">
        <ele>1159.72</ele>
        <time>2020-06-20T14:32:48Z</time>
      </trkpt>
      <trkpt lat="45.79483" lon="5.58313">
        <ele>1159.84</ele>
        <time>2020-06-20T14:32:49Z</time>
      </trkpt>
      <trkpt lat="45.79482" lon="5.58314">
        <ele>1160.2</ele>
        <time>2020-06-20T14:32:52Z</time>
      </trkpt>
      <trkpt lat="45.7948" lon="5.58317">
        <ele>1160.8</ele>
        <time>2020-06-20T14:32:57Z</time>
      </trkpt>
      <trkpt lat="45.79479" lon="5.5832">
        <ele>1161.04</ele>
        <time>2020-06-20T14:32:59Z</time>
      </trkpt>
      <trkpt lat="45.79477" lon="5.58324">
        <ele>1161.29</ele>
        <time>2020-06-20T14:33:01Z</time>
      </trkpt>
      <trkpt lat="45.79475" lon="5.58328">
        <ele>1161.53</ele>
        <time>2020-06-20T14:33:03Z</time>
      </trkpt>
      <trkpt lat="45.79473" lon="5.58331">
        <ele>1161.76</ele>
        <time>2020-06-20T14:33:05Z</time>
      </trkpt>
      <trkpt lat="45.7947" lon="5.58334">
        <ele>1161.99</ele>
        <time>2020-06-20T14:33:07Z</time>
      </trkpt>
      <trkpt lat="45.79468" lon="5.58337">
        <ele>1162.21</ele>
        <time>2020-06-20T14:33:09Z</time>
      </trkpt>
      <trkpt lat="45.79467" lon="5.5834">
        <ele>1162.43</ele>
        <time>2020-06-20T14:33:11Z</time>
      </trkpt>
      <trkpt lat="45.79465" lon="5.58342">
        <ele>1162.79</ele>
        <time>2020-06-20T14:33:14Z</time>
      </trkpt>
      <trkpt lat="45.79462" lon="5.58347">
        <ele>1163.14</ele>
        <time>2020-06-20T14:33:17Z</time>
      </trkpt>
      <trkpt lat="45.79461" lon="5.58348">
        <ele>1163.36</ele>
        <time>2020-06-20T14:33:19Z</time>
      </trkpt>
      <trkpt lat="45.7946" lon="5.58352">
        <ele>1163.59</ele>
        <time>2020-06-20T14:33:21Z</time>
      </trkpt>
      <trkpt lat="45.79458" lon="5.58355">
        <ele>1164.06</ele>
        <time>2020-06-20T14:33:25Z</time>
      </trkpt>
      <trkpt lat="45.79456" lon="5.58357">
        <ele>1164.41</ele>
        <time>2020-06-20T14:33:28Z</time>
      </trkpt>
      <trkpt lat="45.79453" lon="5.58358">
        <ele>1164.64</ele>
        <time>2020-06-20T14:33:30Z</time>
      </trkpt>
      <trkpt lat="45.7945" lon="5.5836">
        <ele>1164.95</ele>
        <time>2020-06-20T14:33:33Z</time>
      </trkpt>
      <trkpt lat="45.79447" lon="5.58362">
        <ele>1165.38</ele>
        <time>2020-06-20T14:33:37Z</time>
      </trkpt>
      <trkpt lat="45.79445" lon="5.58363">
        <ele>1165.6</ele>
        <time>2020-06-20T14:33:39Z</time>
      </trkpt>
      <trkpt lat="45.79443" lon="5.58366">
        <ele>1166.07</ele>
        <time>2020-06-20T14:33:43Z</time>
      </trkpt>
      <trkpt lat="45.79442" lon="5.58368">
        <ele>1166.3</ele>
        <time>2020-06-20T14:33:45Z</time>
      </trkpt>
      <trkpt lat="45.7944" lon="5.5837">
        <ele>1166.64</ele>
        <time>2020-06-20T14:33:48Z</time>
      </trkpt>
      <trkpt lat="45.79438" lon="5.58372">
        <ele>1166.85</ele>
        <time>2020-06-20T14:33:50Z</time>
      </trkpt>
      <trkpt lat="45.79436" lon="5.58374">
        <ele>1167.15</ele>
        <time>2020-06-20T14:33:53Z</time>
      </trkpt>
      <trkpt lat="45.79434" lon="5.58377">
        <ele>1167.61</ele>
        <time>2020-06-20T14:33:58Z</time>
      </trkpt>
      <trkpt lat="45.79433" lon="5.5838">
        <ele>1167.78</ele>
        <time>2020-06-20T14:34:00Z</time>
      </trkpt>
      <trkpt lat="45.79432" lon="5.58382">
        <ele>1167.95</ele>
        <time>2020-06-20T14:34:02Z</time>
      </trkpt>
      <trkpt lat="45.79429" lon="5.58383">
        <ele>1168.09</ele>
        <time>2020-06-20T14:34:04Z</time>
      </trkpt>
      <trkpt lat="45.79427" lon="5.58384">
        <ele>1168.31</ele>
        <time>2020-06-20T14:34:07Z</time>
      </trkpt>
      <trkpt lat="45.79425" lon="5.58386">
        <ele>1168.61</ele>
        <time>2020-06-20T14:34:11Z</time>
      </trkpt>
      <trkpt lat="45.79424" lon="5.58388">
        <ele>1168.76</ele>
        <time>2020-06-20T14:34:13Z</time>
      </trkpt>
      <trkpt lat="45.79423" lon="5.5839">
        <ele>1168.92</ele>
        <time>2020-06-20T14:34:15Z</time>
      </trkpt>
      <trkpt lat="45.79421" lon="5.58393">
        <ele>1169.17</ele>
        <time>2020-06-20T14:34:19Z</time>
      </trkpt>
      <trkpt lat="45.79419" lon="5.58395">
        <ele>1169.4</ele>
        <time>2020-06-20T14:34:23Z</time>
      </trkpt>
      <trkpt lat="45.79417" lon="5.58398">
        <ele>1169.57</ele>
        <time>2020-06-20T14:34:26Z</time>
      </trkpt>
      <trkpt lat="45.79415" lon="5.58401">
        <ele>1169.74</ele>
        <time>2020-06-20T14:34:29Z</time>
      </trkpt>
      <trkpt lat="45.79413" lon="5.58405">
        <ele>1169.91</ele>
        <time>2020-06-20T14:34:32Z</time>
      </trkpt>
      <trkpt lat="45.79412" lon="5.58408">
        <ele>1170.08</ele>
        <time>2020-06-20T14:34:35Z</time>
      </trkpt>
      <trkpt lat="45.79411" lon="5.58411">
        <ele>1170.19</ele>
        <time>2020-06-20T14:34:37Z</time>
      </trkpt>
      <trkpt lat="45.79409" lon="5.58414">
        <ele>1170.31</ele>
        <time>2020-06-20T14:34:39Z</time>
      </trkpt>
      <trkpt lat="45.79408" lon="5.58417">
        <ele>1170.43</ele>
        <time>2020-06-20T14:34:41Z</time>
      </trkpt>
      <trkpt lat="45.79406" lon="5.58419">
        <ele>1170.64</ele>
        <time>2020-06-20T14:34:45Z</time>
      </trkpt>
      <trkpt lat="45.79403" lon="5.58421">
        <ele>1170.84</ele>
        <time>2020-06-20T14:34:49Z</time>
      </trkpt>
      <trkpt lat="45.794" lon="5.58423">
        <ele>1170.99</ele>
        <time>2020-06-20T14:34:52Z</time>
      </trkpt>
      <trkpt lat="45.79398" lon="5.58424">
        <ele>1171.09</ele>
        <time>2020-06-20T14:34:54Z</time>
      </trkpt>
      <trkpt lat="45.79396" lon="5.58426">
        <ele>1171.19</ele>
        <time>2020-06-20T14:34:56Z</time>
      </trkpt>
      <trkpt lat="45.79394" lon="5.58427">
        <ele>1171.34</ele>
        <time>2020-06-20T14:34:59Z</time>
      </trkpt>
      <trkpt lat="45.79392" lon="5.58429">
        <ele>1171.44</ele>
        <time>2020-06-20T14:35:01Z</time>
      </trkpt>
      <trkpt lat="45.79389" lon="5.58431">
        <ele>1171.59</ele>
        <time>2020-06-20T14:35:04Z</time>
      </trkpt>
      <trkpt lat="45.79388" lon="5.58433">
        <ele>1171.65</ele>
        <time>2020-06-20T14:35:05Z</time>
      </trkpt>
      <trkpt lat="45.79387" lon="5.58436">
        <ele>1171.76</ele>
        <time>2020-06-20T14:35:07Z</time>
      </trkpt>
      <trkpt lat="45.79386" lon="5.58438">
        <ele>1171.81</ele>
        <time>2020-06-20T14:35:08Z</time>
      </trkpt>
      <trkpt lat="45.79385" lon="5.58442">
        <ele>1171.92</ele>
        <time>2020-06-20T14:35:10Z</time>
      </trkpt>
      <trkpt lat="45.79382" lon="5.58445">
        <ele>1172.02</ele>
        <time>2020-06-20T14:35:12Z</time>
      </trkpt>
      <trkpt lat="45.79381" lon="5.58447">
        <ele>1172.07</ele>
        <time>2020-06-20T14:35:13Z</time>
      </trkpt>
      <trkpt lat="45.79379" lon="5.58448">
        <ele>1172.16</ele>
        <time>2020-06-20T14:35:15Z</time>
      </trkpt>
      <trkpt lat="45.79376" lon="5.5845">
        <ele>1172.29</ele>
        <time>2020-06-20T14:35:18Z</time>
      </trkpt>
      <trkpt lat="45.79375" lon="5.58451">
        <ele>1172.42</ele>
        <time>2020-06-20T14:35:21Z</time>
      </trkpt>
      <trkpt lat="45.79372" lon="5.58454">
        <ele>1172.63</ele>
        <time>2020-06-20T14:35:26Z</time>
      </trkpt>
      <trkpt lat="45.79371" lon="5.58455">
        <ele>1172.71</ele>
        <time>2020-06-20T14:35:28Z</time>
      </trkpt>
      <trkpt lat="45.79369" lon="5.58458">
        <ele>1172.75</ele>
        <time>2020-06-20T14:35:29Z</time>
      </trkpt>
      <trkpt lat="45.79368" lon="5.5846">
        <ele>1172.86</ele>
        <time>2020-06-20T14:35:32Z</time>
      </trkpt>
      <trkpt lat="45.79366" lon="5.58463">
        <ele>1172.94</ele>
        <time>2020-06-20T14:35:34Z</time>
      </trkpt>
      <trkpt lat="45.79364" lon="5.58466">
        <ele>1173.01</ele>
        <time>2020-06-20T14:35:36Z</time>
      </trkpt>
      <trkpt lat="45.79362" lon="5.58468">
        <ele>1173.08</ele>
        <time>2020-06-20T14:35:38Z</time>
      </trkpt>
      <trkpt lat="45.7936" lon="5.5847">
        <ele>1173.15</ele>
        <time>2020-06-20T14:35:40Z</time>
      </trkpt>
      <trkpt lat="45.79358" lon="5.58471">
        <ele>1173.31</ele>
        <time>2020-06-20T14:35:45Z</time>
      </trkpt>
      <trkpt lat="45.79356" lon="5.58474">
        <ele>1173.38</ele>
        <time>2020-06-20T14:35:47Z</time>
      </trkpt>
      <trkpt lat="45.79354" lon="5.58475">
        <ele>1173.57</ele>
        <time>2020-06-20T14:35:52Z</time>
      </trkpt>
      <trkpt lat="45.79353" lon="5.58478">
        <ele>1173.71</ele>
        <time>2020-06-20T14:35:56Z</time>
      </trkpt>
      <trkpt lat="45.79352" lon="5.58481">
        <ele>1173.84</ele>
        <time>2020-06-20T14:35:59Z</time>
      </trkpt>
      <trkpt lat="45.79349" lon="5.58483">
        <ele>1173.93</ele>
        <time>2020-06-20T14:36:01Z</time>
      </trkpt>
      <trkpt lat="45.79347" lon="5.58485">
        <ele>1174.21</ele>
        <time>2020-06-20T14:36:07Z</time>
      </trkpt>
      <trkpt lat="45.79345" lon="5.58486">
        <ele>1174.41</ele>
        <time>2020-06-20T14:36:10Z</time>
      </trkpt>
      <trkpt lat="45.79343" lon="5.58488">
        <ele>1174.57</ele>
        <time>2020-06-20T14:36:12Z</time>
      </trkpt>
      <trkpt lat="45.7934" lon="5.5849">
        <ele>1174.73</ele>
        <time>2020-06-20T14:36:14Z</time>
      </trkpt>
      <trkpt lat="45.79338" lon="5.58493">
        <ele>1174.89</ele>
        <time>2020-06-20T14:36:16Z</time>
      </trkpt>
      <trkpt lat="45.79335" lon="5.58495">
        <ele>1175.05</ele>
        <time>2020-06-20T14:36:18Z</time>
      </trkpt>
      <trkpt lat="45.79331" lon="5.58498">
        <ele>1175.2</ele>
        <time>2020-06-20T14:36:20Z</time>
      </trkpt>
      <trkpt lat="45.79327" lon="5.585">
        <ele>1175.36</ele>
        <time>2020-06-20T14:36:22Z</time>
      </trkpt>
      <trkpt lat="45.79325" lon="5.58501">
        <ele>1175.52</ele>
        <time>2020-06-20T14:36:24Z</time>
      </trkpt>
      <trkpt lat="45.79323" lon="5.58503">
        <ele>1175.74</ele>
        <time>2020-06-20T14:36:27Z</time>
      </trkpt>
      <trkpt lat="45.7932" lon="5.58505">
        <ele>1175.94</ele>
        <time>2020-06-20T14:36:30Z</time>
      </trkpt>
      <trkpt lat="45.79318" lon="5.58507">
        <ele>1176.06</ele>
        <time>2020-06-20T14:36:32Z</time>
      </trkpt>
      <trkpt lat="45.79316" lon="5.58509">
        <ele>1176.18</ele>
        <time>2020-06-20T14:36:34Z</time>
      </trkpt>
      <trkpt lat="45.79314" lon="5.58513">
        <ele>1176.35</ele>
        <time>2020-06-20T14:36:37Z</time>
      </trkpt>
      <trkpt lat="45.79313" lon="5.58515">
        <ele>1176.47</ele>
        <time>2020-06-20T14:36:39Z</time>
      </trkpt>
      <trkpt lat="45.79311" lon="5.58517">
        <ele>1176.53</ele>
        <time>2020-06-20T14:36:40Z</time>
      </trkpt>
      <trkpt lat="45.79307" lon="5.5852">
        <ele>1176.69</ele>
        <time>2020-06-20T14:36:43Z</time>
      </trkpt>
      <trkpt lat="45.79307" lon="5.58524">
        <ele>1177.07</ele>
        <time>2020-06-20T14:36:51Z</time>
      </trkpt>
      <trkpt lat="45.79306" lon="5.58528">
        <ele>1177.15</ele>
        <time>2020-06-20T14:36:53Z</time>
      </trkpt>
      <trkpt lat="45.79304" lon="5.58531">
        <ele>1177.24</ele>
        <time>2020-06-20T14:36:55Z</time>
      </trkpt>
      <trkpt lat="45.79303" lon="5.58534">
        <ele>1177.43</ele>
        <time>2020-06-20T14:36:59Z</time>
      </trkpt>
      <trkpt lat="45.79302" lon="5.58537">
        <ele>1177.51</ele>
        <time>2020-06-20T14:37:01Z</time>
      </trkpt>
      <trkpt lat="45.79302" lon="5.58541">
        <ele>1177.63</ele>
        <time>2020-06-20T14:37:04Z</time>
      </trkpt>
      <trkpt lat="45.793" lon="5.58544">
        <ele>1177.71</ele>
        <time>2020-06-20T14:37:06Z</time>
      </trkpt>
      <trkpt lat="45.79298" lon="5.58546">
        <ele>1177.78</ele>
        <time>2020-06-20T14:37:08Z</time>
      </trkpt>
      <trkpt lat="45.79297" lon="5.58547">
        <ele>1177.9</ele>
        <time>2020-06-20T14:37:12Z</time>
      </trkpt>
      <trkpt lat="45.79294" lon="5.58548">
        <ele>1177.98</ele>
        <time>2020-06-20T14:37:15Z</time>
      </trkpt>
      <trkpt lat="45.79292" lon="5.5855">
        <ele>1178.04</ele>
        <time>2020-06-20T14:37:17Z</time>
      </trkpt>
      <trkpt lat="45.79289" lon="5.58555">
        <ele>1178.12</ele>
        <time>2020-06-20T14:37:20Z</time>
      </trkpt>
      <trkpt lat="45.79286" lon="5.58557">
        <ele>1178.17</ele>
        <time>2020-06-20T14:37:22Z</time>
      </trkpt>
      <trkpt lat="45.79283" lon="5.5856">
        <ele>1178.21</ele>
        <time>2020-06-20T14:37:24Z</time>
      </trkpt>
      <trkpt lat="45.7928" lon="5.58563">
        <ele>1178.26</ele>
        <time>2020-06-20T14:37:26Z</time>
      </trkpt>
      <trkpt lat="45.79278" lon="5.58565">
        <ele>1178.28</ele>
        <time>2020-06-20T14:37:27Z</time>
      </trkpt>
      <trkpt lat="45.79278" lon="5.58568">
        <ele>1178.39</ele>
        <time>2020-06-20T14:37:33Z</time>
      </trkpt>
      <trkpt lat="45.79277" lon="5.5857">
        <ele>1178.43</ele>
        <time>2020-06-20T14:37:36Z</time>
      </trkpt>
      <trkpt lat="45.79275" lon="5.58574">
        <ele>1178.51</ele>
        <time>2020-06-20T14:37:43Z</time>
      </trkpt>
      <trkpt lat="45.79273" lon="5.58576">
        <ele>1178.53</ele>
        <time>2020-06-20T14:37:46Z</time>
      </trkpt>
      <trkpt lat="45.79271" lon="5.58578">
        <ele>1178.55</ele>
        <time>2020-06-20T14:37:48Z</time>
      </trkpt>
      <trkpt lat="45.79269" lon="5.5858">
        <ele>1178.61</ele>
        <time>2020-06-20T14:37:53Z</time>
      </trkpt>
      <trkpt lat="45.79268" lon="5.58584">
        <ele>1178.65</ele>
        <time>2020-06-20T14:37:56Z</time>
      </trkpt>
      <trkpt lat="45.79267" lon="5.58588">
        <ele>1178.67</ele>
        <time>2020-06-20T14:37:58Z</time>
      </trkpt>
      <trkpt lat="45.79265" lon="5.58591">
        <ele>1178.7</ele>
        <time>2020-06-20T14:38:01Z</time>
      </trkpt>
      <trkpt lat="45.79263" lon="5.58593">
        <ele>1178.7</ele>
        <time>2020-06-20T14:38:02Z</time>
      </trkpt>
      <trkpt lat="45.79261" lon="5.58595">
        <ele>1178.72</ele>
        <time>2020-06-20T14:38:04Z</time>
      </trkpt>
      <trkpt lat="45.79259" lon="5.58597">
        <ele>1178.76</ele>
        <time>2020-06-20T14:38:09Z</time>
      </trkpt>
      <trkpt lat="45.79256" lon="5.58598">
        <ele>1178.86</ele>
        <time>2020-06-20T14:38:20Z</time>
      </trkpt>
      <trkpt lat="45.79254" lon="5.58599">
        <ele>1178.91</ele>
        <time>2020-06-20T14:38:22Z</time>
      </trkpt>
      <trkpt lat="45.79253" lon="5.586">
        <ele>1178.99</ele>
        <time>2020-06-20T14:38:25Z</time>
      </trkpt>
      <trkpt lat="45.7925" lon="5.58601">
        <ele>1179.07</ele>
        <time>2020-06-20T14:38:28Z</time>
      </trkpt>
      <trkpt lat="45.79247" lon="5.58602">
        <ele>1179.13</ele>
        <time>2020-06-20T14:38:30Z</time>
      </trkpt>
      <trkpt lat="45.79245" lon="5.58605">
        <ele>1179.27</ele>
        <time>2020-06-20T14:38:34Z</time>
      </trkpt>
      <trkpt lat="45.79243" lon="5.58608">
        <ele>1179.35</ele>
        <time>2020-06-20T14:38:36Z</time>
      </trkpt>
      <trkpt lat="45.79241" lon="5.58611">
        <ele>1179.42</ele>
        <time>2020-06-20T14:38:38Z</time>
      </trkpt>
      <trkpt lat="45.79239" lon="5.58613">
        <ele>1179.5</ele>
        <time>2020-06-20T14:38:40Z</time>
      </trkpt>
      <trkpt lat="45.79237" lon="5.58616">
        <ele>1179.57</ele>
        <time>2020-06-20T14:38:42Z</time>
      </trkpt>
      <trkpt lat="45.79235" lon="5.58619">
        <ele>1179.75</ele>
        <time>2020-06-20T14:38:47Z</time>
      </trkpt>
      <trkpt lat="45.79234" lon="5.58622">
        <ele>1179.98</ele>
        <time>2020-06-20T14:38:53Z</time>
      </trkpt>
      <trkpt lat="45.79233" lon="5.58626">
        <ele>1180.08</ele>
        <time>2020-06-20T14:38:56Z</time>
      </trkpt>
      <trkpt lat="45.79231" lon="5.5863">
        <ele>1180.18</ele>
        <time>2020-06-20T14:38:59Z</time>
      </trkpt>
      <trkpt lat="45.79229" lon="5.58632">
        <ele>1180.27</ele>
        <time>2020-06-20T14:39:02Z</time>
      </trkpt>
      <trkpt lat="45.79225" lon="5.58633">
        <ele>1180.36</ele>
        <time>2020-06-20T14:39:05Z</time>
      </trkpt>
      <trkpt lat="45.79223" lon="5.58634">
        <ele>1180.38</ele>
        <time>2020-06-20T14:39:06Z</time>
      </trkpt>
      <trkpt lat="45.7922" lon="5.58635">
        <ele>1180.44</ele>
        <time>2020-06-20T14:39:08Z</time>
      </trkpt>
      <trkpt lat="45.79216" lon="5.58635">
        <ele>1180.48</ele>
        <time>2020-06-20T14:39:10Z</time>
      </trkpt>
      <trkpt lat="45.79214" lon="5.58636">
        <ele>1180.53</ele>
        <time>2020-06-20T14:39:12Z</time>
      </trkpt>
      <trkpt lat="45.79212" lon="5.58637">
        <ele>1180.58</ele>
        <time>2020-06-20T14:39:14Z</time>
      </trkpt>
      <trkpt lat="45.7921" lon="5.5864">
        <ele>1180.64</ele>
        <time>2020-06-20T14:39:17Z</time>
      </trkpt>
      <trkpt lat="45.79208" lon="5.58641">
        <ele>1180.68</ele>
        <time>2020-06-20T14:39:19Z</time>
      </trkpt>
      <trkpt lat="45.79206" lon="5.58643">
        <ele>1180.75</ele>
        <time>2020-06-20T14:39:22Z</time>
      </trkpt>
      <trkpt lat="45.79204" lon="5.58648">
        <ele>1180.79</ele>
        <time>2020-06-20T14:39:24Z</time>
      </trkpt>
      <trkpt lat="45.79203" lon="5.58652">
        <ele>1180.89</ele>
        <time>2020-06-20T14:39:29Z</time>
      </trkpt>
      <trkpt lat="45.79202" lon="5.58655">
        <ele>1181.01</ele>
        <time>2020-06-20T14:39:34Z</time>
      </trkpt>
      <trkpt lat="45.79198" lon="5.58658">
        <ele>1181.06</ele>
        <time>2020-06-20T14:39:36Z</time>
      </trkpt>
      <trkpt lat="45.79196" lon="5.5866">
        <ele>1181.1</ele>
        <time>2020-06-20T14:39:38Z</time>
      </trkpt>
      <trkpt lat="45.79195" lon="5.58661">
        <ele>1181.12</ele>
        <time>2020-06-20T14:39:39Z</time>
      </trkpt>
      <trkpt lat="45.79192" lon="5.58664">
        <ele>1181.17</ele>
        <time>2020-06-20T14:39:41Z</time>
      </trkpt>
      <trkpt lat="45.79189" lon="5.58666">
        <ele>1181.22</ele>
        <time>2020-06-20T14:39:42Z</time>
      </trkpt>
      <trkpt lat="45.79188" lon="5.58668">
        <ele>1181.26</ele>
        <time>2020-06-20T14:39:44Z</time>
      </trkpt>
      <trkpt lat="45.79185" lon="5.5867">
        <ele>1181.33</ele>
        <time>2020-06-20T14:39:47Z</time>
      </trkpt>
      <trkpt lat="45.79183" lon="5.58672">
        <ele>1181.38</ele>
        <time>2020-06-20T14:39:49Z</time>
      </trkpt>
      <trkpt lat="45.7918" lon="5.58676">
        <ele>1181.42</ele>
        <time>2020-06-20T14:39:51Z</time>
      </trkpt>
      <trkpt lat="45.79179" lon="5.58678">
        <ele>1181.44</ele>
        <time>2020-06-20T14:39:52Z</time>
      </trkpt>
      <trkpt lat="45.79176" lon="5.58681">
        <ele>1181.51</ele>
        <time>2020-06-20T14:39:55Z</time>
      </trkpt>
      <trkpt lat="45.79175" lon="5.58683">
        <ele>1181.53</ele>
        <time>2020-06-20T14:39:56Z</time>
      </trkpt>
      <trkpt lat="45.79173" lon="5.58685">
        <ele>1181.55</ele>
        <time>2020-06-20T14:39:57Z</time>
      </trkpt>
      <trkpt lat="45.79171" lon="5.58687">
        <ele>1181.59</ele>
        <time>2020-06-20T14:39:59Z</time>
      </trkpt>
      <trkpt lat="45.7917" lon="5.58689">
        <ele>1181.63</ele>
        <time>2020-06-20T14:40:01Z</time>
      </trkpt>
      <trkpt lat="45.79168" lon="5.58691">
        <ele>1181.65</ele>
        <time>2020-06-20T14:40:02Z</time>
      </trkpt>
      <trkpt lat="45.79167" lon="5.58693">
        <ele>1181.67</ele>
        <time>2020-06-20T14:40:03Z</time>
      </trkpt>
      <trkpt lat="45.79165" lon="5.58695">
        <ele>1181.69</ele>
        <time>2020-06-20T14:40:04Z</time>
      </trkpt>
      <trkpt lat="45.79163" lon="5.58699">
        <ele>1181.73</ele>
        <time>2020-06-20T14:40:06Z</time>
      </trkpt>
      <trkpt lat="45.79161" lon="5.58701">
        <ele>1181.77</ele>
        <time>2020-06-20T14:40:08Z</time>
      </trkpt>
      <trkpt lat="45.79159" lon="5.58703">
        <ele>1181.82</ele>
        <time>2020-06-20T14:40:11Z</time>
      </trkpt>
      <trkpt lat="45.79157" lon="5.58706">
        <ele>1181.85</ele>
        <time>2020-06-20T14:40:13Z</time>
      </trkpt>
      <trkpt lat="45.79155" lon="5.58708">
        <ele>1181.91</ele>
        <time>2020-06-20T14:40:16Z</time>
      </trkpt>
      <trkpt lat="45.79153" lon="5.5871">
        <ele>1181.98</ele>
        <time>2020-06-20T14:40:20Z</time>
      </trkpt>
      <trkpt lat="45.7915" lon="5.58711">
        <ele>1182.02</ele>
        <time>2020-06-20T14:40:22Z</time>
      </trkpt>
      <trkpt lat="45.79148" lon="5.58711">
        <ele>1182.04</ele>
        <time>2020-06-20T14:40:23Z</time>
      </trkpt>
      <trkpt lat="45.79146" lon="5.58713">
        <ele>1182.07</ele>
        <time>2020-06-20T14:40:25Z</time>
      </trkpt>
      <trkpt lat="45.79144" lon="5.58714">
        <ele>1182.17</ele>
        <time>2020-06-20T14:40:30Z</time>
      </trkpt>
      <trkpt lat="45.79142" lon="5.58716">
        <ele>1182.2</ele>
        <time>2020-06-20T14:40:32Z</time>
      </trkpt>
      <trkpt lat="45.79139" lon="5.58718">
        <ele>1182.26</ele>
        <time>2020-06-20T14:40:35Z</time>
      </trkpt>
      <trkpt lat="45.79137" lon="5.5872">
        <ele>1182.33</ele>
        <time>2020-06-20T14:40:39Z</time>
      </trkpt>
      <trkpt lat="45.79135" lon="5.58723">
        <ele>1182.42</ele>
        <time>2020-06-20T14:40:44Z</time>
      </trkpt>
      <trkpt lat="45.79133" lon="5.58726">
        <ele>1182.57</ele>
        <time>2020-06-20T14:40:55Z</time>
      </trkpt>
      <trkpt lat="45.79132" lon="5.58728">
        <ele>1182.65</ele>
        <time>2020-06-20T14:40:57Z</time>
      </trkpt>
      <trkpt lat="45.7913" lon="5.5873">
        <ele>1182.69</ele>
        <time>2020-06-20T14:40:58Z</time>
      </trkpt>
      <trkpt lat="45.79129" lon="5.58732">
        <ele>1182.73</ele>
        <time>2020-06-20T14:40:59Z</time>
      </trkpt>
      <trkpt lat="45.79127" lon="5.58734">
        <ele>1182.83</ele>
        <time>2020-06-20T14:41:02Z</time>
      </trkpt>
      <trkpt lat="45.79126" lon="5.58737">
        <ele>1182.98</ele>
        <time>2020-06-20T14:41:06Z</time>
      </trkpt>
      <trkpt lat="45.79124" lon="5.5874">
        <ele>1183.12</ele>
        <time>2020-06-20T14:41:10Z</time>
      </trkpt>
      <trkpt lat="45.79123" lon="5.58742">
        <ele>1183.19</ele>
        <time>2020-06-20T14:41:12Z</time>
      </trkpt>
      <trkpt lat="45.79121" lon="5.58744">
        <ele>1183.25</ele>
        <time>2020-06-20T14:41:14Z</time>
      </trkpt>
      <trkpt lat="45.7912" lon="5.58747">
        <ele>1183.34</ele>
        <time>2020-06-20T14:41:17Z</time>
      </trkpt>
      <trkpt lat="45.79119" lon="5.58751">
        <ele>1183.43</ele>
        <time>2020-06-20T14:41:20Z</time>
      </trkpt>
      <trkpt lat="45.79117" lon="5.58751">
        <ele>1183.49</ele>
        <time>2020-06-20T14:41:23Z</time>
      </trkpt>
      <trkpt lat="45.79116" lon="5.5875">
        <ele>1183.6</ele>
        <time>2020-06-20T14:41:36Z</time>
      </trkpt>
      <trkpt lat="45.79114" lon="5.58751">
        <ele>1183.8</ele>
        <time>2020-06-20T14:41:41Z</time>
      </trkpt>
      <trkpt lat="45.79111" lon="5.58751">
        <ele>1184.02</ele>
        <time>2020-06-20T14:41:47Z</time>
      </trkpt>
      <trkpt lat="45.79109" lon="5.58751">
        <ele>1184.18</ele>
        <time>2020-06-20T14:41:52Z</time>
      </trkpt>
      <trkpt lat="45.79107" lon="5.58751">
        <ele>1184.27</ele>
        <time>2020-06-20T14:41:55Z</time>
      </trkpt>
      <trkpt lat="45.79104" lon="5.58752">
        <ele>1184.34</ele>
        <time>2020-06-20T14:41:58Z</time>
      </trkpt>
      <trkpt lat="45.79102" lon="5.58754">
        <ele>1184.39</ele>
        <time>2020-06-20T14:42:00Z</time>
      </trkpt>
      <trkpt lat="45.791" lon="5.58756">
        <ele>1184.44</ele>
        <time>2020-06-20T14:42:02Z</time>
      </trkpt>
      <trkpt lat="45.79097" lon="5.58759">
        <ele>1184.5</ele>
        <time>2020-06-20T14:42:05Z</time>
      </trkpt>
      <trkpt lat="45.79095" lon="5.58762">
        <ele>1184.54</ele>
        <time>2020-06-20T14:42:07Z</time>
      </trkpt>
      <trkpt lat="45.79093" lon="5.58764">
        <ele>1184.61</ele>
        <time>2020-06-20T14:42:11Z</time>
      </trkpt>
      <trkpt lat="45.7909" lon="5.58766">
        <ele>1184.64</ele>
        <time>2020-06-20T14:42:13Z</time>
      </trkpt>
      <trkpt lat="45.79088" lon="5.58768">
        <ele>1184.67</ele>
        <time>2020-06-20T14:42:15Z</time>
      </trkpt>
      <trkpt lat="45.79087" lon="5.5877">
        <ele>1184.7</ele>
        <time>2020-06-20T14:42:17Z</time>
      </trkpt>
      <trkpt lat="45.79085" lon="5.58772">
        <ele>1184.73</ele>
        <time>2020-06-20T14:42:19Z</time>
      </trkpt>
      <trkpt lat="45.79083" lon="5.58774">
        <ele>1184.76</ele>
        <time>2020-06-20T14:42:21Z</time>
      </trkpt>
      <trkpt lat="45.79081" lon="5.58776">
        <ele>1184.77</ele>
        <time>2020-06-20T14:42:22Z</time>
      </trkpt>
      <trkpt lat="45.79079" lon="5.58778">
        <ele>1184.8</ele>
        <time>2020-06-20T14:42:24Z</time>
      </trkpt>
      <trkpt lat="45.79077" lon="5.5878">
        <ele>1184.82</ele>
        <time>2020-06-20T14:42:26Z</time>
      </trkpt>
      <trkpt lat="45.79075" lon="5.58783">
        <ele>1184.86</ele>
        <time>2020-06-20T14:42:29Z</time>
      </trkpt>
      <trkpt lat="45.79073" lon="5.58785">
        <ele>1184.87</ele>
        <time>2020-06-20T14:42:30Z</time>
      </trkpt>
      <trkpt lat="45.79072" lon="5.58787">
        <ele>1184.88</ele>
        <time>2020-06-20T14:42:31Z</time>
      </trkpt>
      <trkpt lat="45.7907" lon="5.58789">
        <ele>1184.9</ele>
        <time>2020-06-20T14:42:33Z</time>
      </trkpt>
      <trkpt lat="45.79068" lon="5.58792">
        <ele>1184.96</ele>
        <time>2020-06-20T14:42:38Z</time>
      </trkpt>
      <trkpt lat="45.79066" lon="5.58793">
        <ele>1184.97</ele>
        <time>2020-06-20T14:42:39Z</time>
      </trkpt>
      <trkpt lat="45.79063" lon="5.58796">
        <ele>1185</ele>
        <time>2020-06-20T14:42:42Z</time>
      </trkpt>
      <trkpt lat="45.79062" lon="5.58799">
        <ele>1185.03</ele>
        <time>2020-06-20T14:42:45Z</time>
      </trkpt>
      <trkpt lat="45.79059" lon="5.58802">
        <ele>1185.07</ele>
        <time>2020-06-20T14:42:49Z</time>
      </trkpt>
      <trkpt lat="45.79057" lon="5.58804">
        <ele>1185.09</ele>
        <time>2020-06-20T14:42:52Z</time>
      </trkpt>
      <trkpt lat="45.79055" lon="5.58806">
        <ele>1185.11</ele>
        <time>2020-06-20T14:42:55Z</time>
      </trkpt>
      <trkpt lat="45.79054" lon="5.58808">
        <ele>1185.14</ele>
        <time>2020-06-20T14:42:59Z</time>
      </trkpt>
      <trkpt lat="45.79053" lon="5.58811">
        <ele>1185.19</ele>
        <time>2020-06-20T14:43:12Z</time>
      </trkpt>
      <trkpt lat="45.79056" lon="5.58809">
        <ele>1185.21</ele>
        <time>2020-06-20T14:43:16Z</time>
      </trkpt>
      <trkpt lat="45.79057" lon="5.58809">
        <ele>1185.26</ele>
        <time>2020-06-20T14:43:27Z</time>
      </trkpt>
      <trkpt lat="45.79058" lon="5.58811">
        <ele>1185.33</ele>
        <time>2020-06-20T14:43:47Z</time>
      </trkpt>
      <trkpt lat="45.79058" lon="5.58814">
        <ele>1185.36</ele>
        <time>2020-06-20T14:43:53Z</time>
      </trkpt>
      <trkpt lat="45.7906" lon="5.58816">
        <ele>1185.38</ele>
        <time>2020-06-20T14:43:56Z</time>
      </trkpt>
      <trkpt lat="45.7906" lon="5.5882">
        <ele>1185.4</ele>
        <time>2020-06-20T14:44:02Z</time>
      </trkpt>
      <trkpt lat="45.79058" lon="5.5882">
        <ele>1185.47</ele>
        <time>2020-06-20T14:44:32Z</time>
      </trkpt>
      <trkpt lat="45.79056" lon="5.58821">
        <ele>1185.51</ele>
        <time>2020-06-20T14:44:38Z</time>
      </trkpt>
      <trkpt lat="45.79053" lon="5.58823">
        <ele>1185.54</ele>
        <time>2020-06-20T14:44:42Z</time>
      </trkpt>
      <trkpt lat="45.79052" lon="5.58829">
        <ele>1185.58</ele>
        <time>2020-06-20T14:45:03Z</time>
      </trkpt>
      <trkpt lat="45.7905" lon="5.58826">
        <ele>1185.55</ele>
        <time>2020-06-20T14:45:26Z</time>
      </trkpt>
      <trkpt lat="45.79048" lon="5.58825">
        <ele>1185.59</ele>
        <time>2020-06-20T14:45:44Z</time>
      </trkpt>
      <trkpt lat="45.79047" lon="5.58822">
        <ele>1185.7</ele>
        <time>2020-06-20T14:46:20Z</time>
      </trkpt>
      <trkpt lat="45.79045" lon="5.58822">
        <ele>1185.68</ele>
        <time>2020-06-20T14:46:43Z</time>
      </trkpt>
      <trkpt lat="45.79044" lon="5.58823">
        <ele>1185.69</ele>
        <time>2020-06-20T14:47:04Z</time>
      </trkpt>
      <trkpt lat="45.79041" lon="5.58822">
        <ele>1185.69</ele>
        <time>2020-06-20T14:47:22Z</time>
      </trkpt>
      <trkpt lat="45.7904" lon="5.58821">
        <ele>1185.69</ele>
        <time>2020-06-20T14:47:26Z</time>
      </trkpt>
      <trkpt lat="45.79035" lon="5.58818">
        <ele>1185.69</ele>
        <time>2020-06-20T14:47:46Z</time>
      </trkpt>
      <trkpt lat="45.79037" lon="5.58821">
        <ele>1185.69</ele>
        <time>2020-06-20T14:47:47Z</time>
      </trkpt>
      <trkpt lat="45.7904" lon="5.58821">
        <ele>1185.69</ele>
        <time>2020-06-20T14:47:51Z</time>
      </trkpt>
      <trkpt lat="45.79042" lon="5.58824">
        <ele>1185.7</ele>
        <time>2020-06-20T14:47:59Z</time>
      </trkpt>
      <trkpt lat="45.79042" lon="5.58827">
        <ele>1185.72</ele>
        <time>2020-06-20T14:48:09Z</time>
      </trkpt>
      <trkpt lat="45.7904" lon="5.58826">
        <ele>1185.93</ele>
        <time>2020-06-20T14:48:49Z</time>
      </trkpt>
      <trkpt lat="45.79039" lon="5.58828">
        <ele>1186.07</ele>
        <time>2020-06-20T14:49:06Z</time>
      </trkpt>
      <trkpt lat="45.79037" lon="5.5883">
        <ele>1186.13</ele>
        <time>2020-06-20T14:49:10Z</time>
      </trkpt>
      <trkpt lat="45.79034" lon="5.58831">
        <ele>1186.16</ele>
        <time>2020-06-20T14:49:12Z</time>
      </trkpt>
      <trkpt lat="45.79031" lon="5.58834">
        <ele>1186.2</ele>
        <time>2020-06-20T14:49:14Z</time>
      </trkpt>
      <trkpt lat="45.79028" lon="5.58836">
        <ele>1186.21</ele>
        <time>2020-06-20T14:49:15Z</time>
      </trkpt>
      <trkpt lat="45.79026" lon="5.58839">
        <ele>1186.24</ele>
        <time>2020-06-20T14:49:17Z</time>
      </trkpt>
      <trkpt lat="45.79023" lon="5.5884">
        <ele>1186.27</ele>
        <time>2020-06-20T14:49:19Z</time>
      </trkpt>
      <trkpt lat="45.7902" lon="5.58842">
        <ele>1186.3</ele>
        <time>2020-06-20T14:49:21Z</time>
      </trkpt>
      <trkpt lat="45.79018" lon="5.58843">
        <ele>1186.33</ele>
        <time>2020-06-20T14:49:23Z</time>
      </trkpt>
      <trkpt lat="45.79015" lon="5.58844">
        <ele>1186.36</ele>
        <time>2020-06-20T14:49:26Z</time>
      </trkpt>
      <trkpt lat="45.79012" lon="5.58846">
        <ele>1186.41</ele>
        <time>2020-06-20T14:49:30Z</time>
      </trkpt>
      <trkpt lat="45.7901" lon="5.58848">
        <ele>1186.43</ele>
        <time>2020-06-20T14:49:32Z</time>
      </trkpt>
      <trkpt lat="45.79008" lon="5.58851">
        <ele>1186.45</ele>
        <time>2020-06-20T14:49:34Z</time>
      </trkpt>
      <trkpt lat="45.79006" lon="5.58852">
        <ele>1186.5</ele>
        <time>2020-06-20T14:49:38Z</time>
      </trkpt>
      <trkpt lat="45.79004" lon="5.58855">
        <ele>1186.55</ele>
        <time>2020-06-20T14:49:44Z</time>
      </trkpt>
      <trkpt lat="45.79001" lon="5.58856">
        <ele>1186.57</ele>
        <time>2020-06-20T14:49:47Z</time>
      </trkpt>
      <trkpt lat="45.79" lon="5.58857">
        <ele>1186.59</ele>
        <time>2020-06-20T14:49:49Z</time>
      </trkpt>
      <trkpt lat="45.78998" lon="5.58859">
        <ele>1186.61</ele>
        <time>2020-06-20T14:49:53Z</time>
      </trkpt>
      <trkpt lat="45.78995" lon="5.58861">
        <ele>1186.62</ele>
        <time>2020-06-20T14:49:56Z</time>
      </trkpt>
      <trkpt lat="45.78994" lon="5.58863">
        <ele>1186.63</ele>
        <time>2020-06-20T14:49:58Z</time>
      </trkpt>
      <trkpt lat="45.78991" lon="5.58865">
        <ele>1186.64</ele>
        <time>2020-06-20T14:50:00Z</time>
      </trkpt>
      <trkpt lat="45.78988" lon="5.58866">
        <ele>1186.65</ele>
        <time>2020-06-20T14:50:02Z</time>
      </trkpt>
      <trkpt lat="45.78985" lon="5.58868">
        <ele>1186.66</ele>
        <time>2020-06-20T14:50:05Z</time>
      </trkpt>
      <trkpt lat="45.78982" lon="5.5887">
        <ele>1186.67</ele>
        <time>2020-06-20T14:50:08Z</time>
      </trkpt>
      <trkpt lat="45.78979" lon="5.58872">
        <ele>1186.68</ele>
        <time>2020-06-20T14:50:10Z</time>
      </trkpt>
      <trkpt lat="45.78976" lon="5.58874">
        <ele>1186.69</ele>
        <time>2020-06-20T14:50:13Z</time>
      </trkpt>
      <trkpt lat="45.78974" lon="5.58877">
        <ele>1186.69</ele>
        <time>2020-06-20T14:50:15Z</time>
      </trkpt>
      <trkpt lat="45.78971" lon="5.58878">
        <ele>1186.7</ele>
        <time>2020-06-20T14:50:17Z</time>
      </trkpt>
      <trkpt lat="45.78968" lon="5.58881">
        <ele>1186.7</ele>
        <time>2020-06-20T14:50:20Z</time>
      </trkpt>
      <trkpt lat="45.78966" lon="5.58882">
        <ele>1186.71</ele>
        <time>2020-06-20T14:50:23Z</time>
      </trkpt>
      <trkpt lat="45.78964" lon="5.58884">
        <ele>1186.71</ele>
        <time>2020-06-20T14:50:25Z</time>
      </trkpt>
      <trkpt lat="45.78961" lon="5.58885">
        <ele>1186.71</ele>
        <time>2020-06-20T14:50:27Z</time>
      </trkpt>
      <trkpt lat="45.78959" lon="5.58888">
        <ele>1186.7</ele>
        <time>2020-06-20T14:50:31Z</time>
      </trkpt>
      <trkpt lat="45.78955" lon="5.5889">
        <ele>1186.69</ele>
        <time>2020-06-20T14:50:36Z</time>
      </trkpt>
      <trkpt lat="45.78953" lon="5.5889">
        <ele>1186.68</ele>
        <time>2020-06-20T14:50:38Z</time>
      </trkpt>
      <trkpt lat="45.7895" lon="5.58892">
        <ele>1186.67</ele>
        <time>2020-06-20T14:50:40Z</time>
      </trkpt>
      <trkpt lat="45.78947" lon="5.58896">
        <ele>1186.65</ele>
        <time>2020-06-20T14:50:44Z</time>
      </trkpt>
      <trkpt lat="45.78945" lon="5.58898">
        <ele>1186.65</ele>
        <time>2020-06-20T14:50:45Z</time>
      </trkpt>
      <trkpt lat="45.78945" lon="5.58902">
        <ele>1186.64</ele>
        <time>2020-06-20T14:50:47Z</time>
      </trkpt>
      <trkpt lat="45.78943" lon="5.58906">
        <ele>1186.62</ele>
        <time>2020-06-20T14:50:49Z</time>
      </trkpt>
      <trkpt lat="45.78942" lon="5.58909">
        <ele>1186.61</ele>
        <time>2020-06-20T14:50:53Z</time>
      </trkpt>
      <trkpt lat="45.7894" lon="5.58913">
        <ele>1186.59</ele>
        <time>2020-06-20T14:50:56Z</time>
      </trkpt>
      <trkpt lat="45.78938" lon="5.58914">
        <ele>1186.58</ele>
        <time>2020-06-20T14:50:58Z</time>
      </trkpt>
      <trkpt lat="45.78936" lon="5.58915">
        <ele>1186.57</ele>
        <time>2020-06-20T14:51:00Z</time>
      </trkpt>
      <trkpt lat="45.78934" lon="5.58915">
        <ele>1186.56</ele>
        <time>2020-06-20T14:51:03Z</time>
      </trkpt>
      <trkpt lat="45.78932" lon="5.58916">
        <ele>1186.55</ele>
        <time>2020-06-20T14:51:05Z</time>
      </trkpt>
      <trkpt lat="45.7893" lon="5.58916">
        <ele>1186.54</ele>
        <time>2020-06-20T14:51:07Z</time>
      </trkpt>
      <trkpt lat="45.78928" lon="5.58917">
        <ele>1186.53</ele>
        <time>2020-06-20T14:51:09Z</time>
      </trkpt>
      <trkpt lat="45.78926" lon="5.58919">
        <ele>1186.52</ele>
        <time>2020-06-20T14:51:11Z</time>
      </trkpt>
      <trkpt lat="45.78925" lon="5.58921">
        <ele>1186.51</ele>
        <time>2020-06-20T14:51:16Z</time>
      </trkpt>
      <trkpt lat="45.7892" lon="5.58924">
        <ele>1186.5</ele>
        <time>2020-06-20T14:51:21Z</time>
      </trkpt>
      <trkpt lat="45.78918" lon="5.58925">
        <ele>1186.49</ele>
        <time>2020-06-20T14:51:23Z</time>
      </trkpt>
      <trkpt lat="45.78916" lon="5.58926">
        <ele>1186.48</ele>
        <time>2020-06-20T14:51:25Z</time>
      </trkpt>
      <trkpt lat="45.78914" lon="5.5893">
        <ele>1186.47</ele>
        <time>2020-06-20T14:51:28Z</time>
      </trkpt>
      <trkpt lat="45.78912" lon="5.58932">
        <ele>1186.45</ele>
        <time>2020-06-20T14:51:32Z</time>
      </trkpt>
      <trkpt lat="45.78911" lon="5.58935">
        <ele>1186.44</ele>
        <time>2020-06-20T14:51:34Z</time>
      </trkpt>
      <trkpt lat="45.78909" lon="5.58939">
        <ele>1186.42</ele>
        <time>2020-06-20T14:51:39Z</time>
      </trkpt>
      <trkpt lat="45.78908" lon="5.58941">
        <ele>1186.41</ele>
        <time>2020-06-20T14:51:40Z</time>
      </trkpt>
      <trkpt lat="45.78904" lon="5.58944">
        <ele>1186.39</ele>
        <time>2020-06-20T14:51:44Z</time>
      </trkpt>
      <trkpt lat="45.78902" lon="5.58943">
        <ele>1186.37</ele>
        <time>2020-06-20T14:51:48Z</time>
      </trkpt>
      <trkpt lat="45.78899" lon="5.58944">
        <ele>1186.35</ele>
        <time>2020-06-20T14:51:51Z</time>
      </trkpt>
      <trkpt lat="45.78896" lon="5.58945">
        <ele>1186.33</ele>
        <time>2020-06-20T14:51:53Z</time>
      </trkpt>
      <trkpt lat="45.78894" lon="5.58946">
        <ele>1186.32</ele>
        <time>2020-06-20T14:51:55Z</time>
      </trkpt>
      <trkpt lat="45.78892" lon="5.58948">
        <ele>1186.31</ele>
        <time>2020-06-20T14:51:58Z</time>
      </trkpt>
      <trkpt lat="45.7889" lon="5.58951">
        <ele>1186.28</ele>
        <time>2020-06-20T14:52:02Z</time>
      </trkpt>
      <trkpt lat="45.78888" lon="5.58953">
        <ele>1186.26</ele>
        <time>2020-06-20T14:52:04Z</time>
      </trkpt>
      <trkpt lat="45.78886" lon="5.58955">
        <ele>1186.23</ele>
        <time>2020-06-20T14:52:08Z</time>
      </trkpt>
      <trkpt lat="45.78884" lon="5.58957">
        <ele>1186.2</ele>
        <time>2020-06-20T14:52:11Z</time>
      </trkpt>
      <trkpt lat="45.78883" lon="5.58959">
        <ele>1186.19</ele>
        <time>2020-06-20T14:52:13Z</time>
      </trkpt>
      <trkpt lat="45.7888" lon="5.58961">
        <ele>1186.16</ele>
        <time>2020-06-20T14:52:16Z</time>
      </trkpt>
      <trkpt lat="45.78878" lon="5.58962">
        <ele>1186.15</ele>
        <time>2020-06-20T14:52:17Z</time>
      </trkpt>
      <trkpt lat="45.78876" lon="5.58963">
        <ele>1186.14</ele>
        <time>2020-06-20T14:52:18Z</time>
      </trkpt>
      <trkpt lat="45.78873" lon="5.58964">
        <ele>1186.13</ele>
        <time>2020-06-20T14:52:19Z</time>
      </trkpt>
      <trkpt lat="45.78871" lon="5.58965">
        <ele>1186.11</ele>
        <time>2020-06-20T14:52:22Z</time>
      </trkpt>
      <trkpt lat="45.78868" lon="5.58966">
        <ele>1186.09</ele>
        <time>2020-06-20T14:52:24Z</time>
      </trkpt>
      <trkpt lat="45.78866" lon="5.58967">
        <ele>1186.04</ele>
        <time>2020-06-20T14:52:29Z</time>
      </trkpt>
      <trkpt lat="45.78863" lon="5.58968">
        <ele>1186.01</ele>
        <time>2020-06-20T14:52:32Z</time>
      </trkpt>
      <trkpt lat="45.78862" lon="5.58969">
        <ele>1186</ele>
        <time>2020-06-20T14:52:33Z</time>
      </trkpt>
      <trkpt lat="45.7886" lon="5.5897">
        <ele>1185.99</ele>
        <time>2020-06-20T14:52:34Z</time>
      </trkpt>
      <trkpt lat="45.78856" lon="5.58971">
        <ele>1185.97</ele>
        <time>2020-06-20T14:52:36Z</time>
      </trkpt>
      <trkpt lat="45.78854" lon="5.58973">
        <ele>1185.93</ele>
        <time>2020-06-20T14:52:40Z</time>
      </trkpt>
      <trkpt lat="45.78851" lon="5.58973">
        <ele>1185.87</ele>
        <time>2020-06-20T14:52:46Z</time>
      </trkpt>
      <trkpt lat="45.78849" lon="5.58975">
        <ele>1185.86</ele>
        <time>2020-06-20T14:52:48Z</time>
      </trkpt>
      <trkpt lat="45.78846" lon="5.58977">
        <ele>1185.82</ele>
        <time>2020-06-20T14:52:52Z</time>
      </trkpt>
      <trkpt lat="45.78845" lon="5.5898">
        <ele>1185.8</ele>
        <time>2020-06-20T14:52:54Z</time>
      </trkpt>
      <trkpt lat="45.78843" lon="5.58983">
        <ele>1185.78</ele>
        <time>2020-06-20T14:52:56Z</time>
      </trkpt>
      <trkpt lat="45.78841" lon="5.58984">
        <ele>1185.76</ele>
        <time>2020-06-20T14:52:58Z</time>
      </trkpt>
      <trkpt lat="45.7884" lon="5.58986">
        <ele>1185.75</ele>
        <time>2020-06-20T14:52:59Z</time>
      </trkpt>
      <trkpt lat="45.78837" lon="5.58987">
        <ele>1185.73</ele>
        <time>2020-06-20T14:53:02Z</time>
      </trkpt>
      <trkpt lat="45.78835" lon="5.58989">
        <ele>1185.72</ele>
        <time>2020-06-20T14:53:04Z</time>
      </trkpt>
      <trkpt lat="45.78832" lon="5.58991">
        <ele>1185.66</ele>
        <time>2020-06-20T14:53:11Z</time>
      </trkpt>
      <trkpt lat="45.7883" lon="5.58993">
        <ele>1185.6</ele>
        <time>2020-06-20T14:53:17Z</time>
      </trkpt>
      <trkpt lat="45.78828" lon="5.58994">
        <ele>1185.59</ele>
        <time>2020-06-20T14:53:18Z</time>
      </trkpt>
      <trkpt lat="45.78825" lon="5.58994">
        <ele>1185.58</ele>
        <time>2020-06-20T14:53:19Z</time>
      </trkpt>
      <trkpt lat="45.78823" lon="5.58994">
        <ele>1185.57</ele>
        <time>2020-06-20T14:53:20Z</time>
      </trkpt>
      <trkpt lat="45.78821" lon="5.58996">
        <ele>1185.55</ele>
        <time>2020-06-20T14:53:21Z</time>
      </trkpt>
      <trkpt lat="45.78819" lon="5.58995">
        <ele>1185.52</ele>
        <time>2020-06-20T14:53:24Z</time>
      </trkpt>
      <trkpt lat="45.78816" lon="5.58995">
        <ele>1185.49</ele>
        <time>2020-06-20T14:53:26Z</time>
      </trkpt>
      <trkpt lat="45.78814" lon="5.58995">
        <ele>1185.47</ele>
        <time>2020-06-20T14:53:28Z</time>
      </trkpt>
      <trkpt lat="45.78811" lon="5.58995">
        <ele>1185.43</ele>
        <time>2020-06-20T14:53:32Z</time>
      </trkpt>
      <trkpt lat="45.78808" lon="5.58996">
        <ele>1185.41</ele>
        <time>2020-06-20T14:53:34Z</time>
      </trkpt>
      <trkpt lat="45.78806" lon="5.58997">
        <ele>1185.39</ele>
        <time>2020-06-20T14:53:36Z</time>
      </trkpt>
      <trkpt lat="45.78803" lon="5.58999">
        <ele>1185.36</ele>
        <time>2020-06-20T14:53:41Z</time>
      </trkpt>
      <trkpt lat="45.78801" lon="5.59001">
        <ele>1185.26</ele>
        <time>2020-06-20T14:53:55Z</time>
      </trkpt>
      <trkpt lat="45.78799" lon="5.59004">
        <ele>1185.24</ele>
        <time>2020-06-20T14:53:57Z</time>
      </trkpt>
      <trkpt lat="45.78798" lon="5.59007">
        <ele>1185.22</ele>
        <time>2020-06-20T14:53:58Z</time>
      </trkpt>
      <trkpt lat="45.78797" lon="5.59009">
        <ele>1185.21</ele>
        <time>2020-06-20T14:53:59Z</time>
      </trkpt>
      <trkpt lat="45.78795" lon="5.59012">
        <ele>1185.2</ele>
        <time>2020-06-20T14:54:00Z</time>
      </trkpt>
      <trkpt lat="45.78793" lon="5.59015">
        <ele>1185.16</ele>
        <time>2020-06-20T14:54:03Z</time>
      </trkpt>
      <trkpt lat="45.78789" lon="5.59019">
        <ele>1185.14</ele>
        <time>2020-06-20T14:54:04Z</time>
      </trkpt>
      <trkpt lat="45.78785" lon="5.59024">
        <ele>1185.11</ele>
        <time>2020-06-20T14:54:06Z</time>
      </trkpt>
      <trkpt lat="45.78785" lon="5.59021">
        <ele>1185.02</ele>
        <time>2020-06-20T14:54:13Z</time>
      </trkpt>
      <trkpt lat="45.78784" lon="5.59019">
        <ele>1185.01</ele>
        <time>2020-06-20T14:54:14Z</time>
      </trkpt>
      <trkpt lat="45.78782" lon="5.59017">
        <ele>1184.98</ele>
        <time>2020-06-20T14:54:16Z</time>
      </trkpt>
      <trkpt lat="45.78779" lon="5.59016">
        <ele>1184.95</ele>
        <time>2020-06-20T14:54:18Z</time>
      </trkpt>
      <trkpt lat="45.78777" lon="5.59015">
        <ele>1184.89</ele>
        <time>2020-06-20T14:54:23Z</time>
      </trkpt>
      <trkpt lat="45.78773" lon="5.59019">
        <ele>1184.85</ele>
        <time>2020-06-20T14:54:25Z</time>
      </trkpt>
      <trkpt lat="45.78771" lon="5.59021">
        <ele>1184.84</ele>
        <time>2020-06-20T14:54:26Z</time>
      </trkpt>
      <trkpt lat="45.78765" lon="5.59022">
        <ele>1184.75</ele>
        <time>2020-06-20T14:54:31Z</time>
      </trkpt>
      <trkpt lat="45.78763" lon="5.59022">
        <ele>1184.67</ele>
        <time>2020-06-20T14:54:36Z</time>
      </trkpt>
      <trkpt lat="45.78762" lon="5.59025">
        <ele>1184.62</ele>
        <time>2020-06-20T14:54:39Z</time>
      </trkpt>
      <trkpt lat="45.7876" lon="5.59025">
        <ele>1184.57</ele>
        <time>2020-06-20T14:54:42Z</time>
      </trkpt>
      <trkpt lat="45.78757" lon="5.59023">
        <ele>1184.48</ele>
        <time>2020-06-20T14:54:48Z</time>
      </trkpt>
      <trkpt lat="45.78755" lon="5.59022">
        <ele>1184.43</ele>
        <time>2020-06-20T14:54:51Z</time>
      </trkpt>
      <trkpt lat="45.78752" lon="5.59022">
        <ele>1184.4</ele>
        <time>2020-06-20T14:54:54Z</time>
      </trkpt>
      <trkpt lat="45.7875" lon="5.59023">
        <ele>1184.38</ele>
        <time>2020-06-20T14:54:55Z</time>
      </trkpt>
      <trkpt lat="45.78743" lon="5.59019">
        <ele>1184.34</ele>
        <time>2020-06-20T14:54:57Z</time>
      </trkpt>
      <trkpt lat="45.7874" lon="5.59019">
        <ele>1184.32</ele>
        <time>2020-06-20T14:54:58Z</time>
      </trkpt>
      <trkpt lat="45.78737" lon="5.59016">
        <ele>1184.3</ele>
        <time>2020-06-20T14:54:59Z</time>
      </trkpt>
      <trkpt lat="45.78735" lon="5.59014">
        <ele>1184.28</ele>
        <time>2020-06-20T14:55:00Z</time>
      </trkpt>
      <trkpt lat="45.78732" lon="5.59011">
        <ele>1184.21</ele>
        <time>2020-06-20T14:55:03Z</time>
      </trkpt>
      <trkpt lat="45.78729" lon="5.59008">
        <ele>1184.13</ele>
        <time>2020-06-20T14:55:08Z</time>
      </trkpt>
      <trkpt lat="45.78728" lon="5.59006">
        <ele>1184.07</ele>
        <time>2020-06-20T14:55:10Z</time>
      </trkpt>
      <trkpt lat="45.78724" lon="5.59004">
        <ele>1184.02</ele>
        <time>2020-06-20T14:55:12Z</time>
      </trkpt>
      <trkpt lat="45.7872" lon="5.59003">
        <ele>1183.9</ele>
        <time>2020-06-20T14:55:16Z</time>
      </trkpt>
      <trkpt lat="45.78717" lon="5.59003">
        <ele>1183.83</ele>
        <time>2020-06-20T14:55:18Z</time>
      </trkpt>
      <trkpt lat="45.78713" lon="5.59002">
        <ele>1183.69</ele>
        <time>2020-06-20T14:55:23Z</time>
      </trkpt>
      <trkpt lat="45.78711" lon="5.59002">
        <ele>1183.66</ele>
        <time>2020-06-20T14:55:24Z</time>
      </trkpt>
      <trkpt lat="45.78708" lon="5.59">
        <ele>1183.52</ele>
        <time>2020-06-20T14:55:27Z</time>
      </trkpt>
      <trkpt lat="45.78704" lon="5.59001">
        <ele>1183.26</ele>
        <time>2020-06-20T14:55:31Z</time>
      </trkpt>
      <trkpt lat="45.787" lon="5.59004">
        <ele>1183.1</ele>
        <time>2020-06-20T14:55:33Z</time>
      </trkpt>
      <trkpt lat="45.78696" lon="5.59007">
        <ele>1182.91</ele>
        <time>2020-06-20T14:55:35Z</time>
      </trkpt>
      <trkpt lat="45.78693" lon="5.59011">
        <ele>1182.71</ele>
        <time>2020-06-20T14:55:37Z</time>
      </trkpt>
      <trkpt lat="45.7869" lon="5.59018">
        <ele>1182.36</ele>
        <time>2020-06-20T14:55:40Z</time>
      </trkpt>
      <trkpt lat="45.7869" lon="5.59019">
        <ele>1182.11</ele>
        <time>2020-06-20T14:55:42Z</time>
      </trkpt>
      <trkpt lat="45.78688" lon="5.59022">
        <ele>1181.99</ele>
        <time>2020-06-20T14:55:43Z</time>
      </trkpt>
      <trkpt lat="45.78685" lon="5.59026">
        <ele>1181.74</ele>
        <time>2020-06-20T14:55:45Z</time>
      </trkpt>
      <trkpt lat="45.78686" lon="5.59029">
        <ele>1181.61</ele>
        <time>2020-06-20T14:55:46Z</time>
      </trkpt>
      <trkpt lat="45.78684" lon="5.59034">
        <ele>1181.21</ele>
        <time>2020-06-20T14:55:49Z</time>
      </trkpt>
      <trkpt lat="45.7868" lon="5.5903">
        <ele>1180.93</ele>
        <time>2020-06-20T14:55:51Z</time>
      </trkpt>
      <trkpt lat="45.78678" lon="5.59031">
        <ele>1179.89</ele>
        <time>2020-06-20T14:55:58Z</time>
      </trkpt>
      <trkpt lat="45.78676" lon="5.59032">
        <ele>1178.78</ele>
        <time>2020-06-20T14:56:05Z</time>
      </trkpt>
      <trkpt lat="45.78674" lon="5.59036">
        <ele>1178.44</ele>
        <time>2020-06-20T14:56:07Z</time>
      </trkpt>
      <trkpt lat="45.78672" lon="5.59038">
        <ele>1178.07</ele>
        <time>2020-06-20T14:56:09Z</time>
      </trkpt>
      <trkpt lat="45.78672" lon="5.59039">
        <ele>1176.8</ele>
        <time>2020-06-20T14:56:16Z</time>
      </trkpt>
      <trkpt lat="45.7867" lon="5.59041">
        <ele>1176.13</ele>
        <time>2020-06-20T14:56:26Z</time>
      </trkpt>
      <trkpt lat="45.78667" lon="5.59041">
        <ele>1175.54</ele>
        <time>2020-06-20T14:56:29Z</time>
      </trkpt>
      <trkpt lat="45.78666" lon="5.59039">
        <ele>1174.58</ele>
        <time>2020-06-20T14:56:34Z</time>
      </trkpt>
      <trkpt lat="45.78664" lon="5.59038">
        <ele>1174.38</ele>
        <time>2020-06-20T14:56:35Z</time>
      </trkpt>
      <trkpt lat="45.78662" lon="5.59035">
        <ele>1173.81</ele>
        <time>2020-06-20T14:56:38Z</time>
      </trkpt>
      <trkpt lat="45.7866" lon="5.59034">
        <ele>1173.05</ele>
        <time>2020-06-20T14:56:42Z</time>
      </trkpt>
      <trkpt lat="45.78658" lon="5.59035">
        <ele>1172.66</ele>
        <time>2020-06-20T14:56:44Z</time>
      </trkpt>
      <trkpt lat="45.78657" lon="5.5904">
        <ele>1172.09</ele>
        <time>2020-06-20T14:56:47Z</time>
      </trkpt>
      <trkpt lat="45.78655" lon="5.59037">
        <ele>1171.9</ele>
        <time>2020-06-20T14:56:48Z</time>
      </trkpt>
      <trkpt lat="45.78653" lon="5.59035">
        <ele>1171.71</ele>
        <time>2020-06-20T14:56:49Z</time>
      </trkpt>
      <trkpt lat="45.7865" lon="5.59035">
        <ele>1170.21</ele>
        <time>2020-06-20T14:56:59Z</time>
      </trkpt>
      <trkpt lat="45.78649" lon="5.59034">
        <ele>1169.62</ele>
        <time>2020-06-20T14:57:02Z</time>
      </trkpt>
      <trkpt lat="45.78645" lon="5.59035">
        <ele>1169.03</ele>
        <time>2020-06-20T14:57:05Z</time>
      </trkpt>
      <trkpt lat="45.78642" lon="5.59036">
        <ele>1168.65</ele>
        <time>2020-06-20T14:57:07Z</time>
      </trkpt>
      <trkpt lat="45.78637" lon="5.5904">
        <ele>1168.09</ele>
        <time>2020-06-20T14:57:10Z</time>
      </trkpt>
      <trkpt lat="45.78634" lon="5.59042">
        <ele>1167.9</ele>
        <time>2020-06-20T14:57:11Z</time>
      </trkpt>
      <trkpt lat="45.78632" lon="5.59044">
        <ele>1167.52</ele>
        <time>2020-06-20T14:57:13Z</time>
      </trkpt>
      <trkpt lat="45.78628" lon="5.59046">
        <ele>1167.15</ele>
        <time>2020-06-20T14:57:15Z</time>
      </trkpt>
      <trkpt lat="45.78626" lon="5.59047">
        <ele>1166.2</ele>
        <time>2020-06-20T14:57:20Z</time>
      </trkpt>
      <trkpt lat="45.78623" lon="5.5905">
        <ele>1165.82</ele>
        <time>2020-06-20T14:57:22Z</time>
      </trkpt>
      <trkpt lat="45.78622" lon="5.59052">
        <ele>1165.62</ele>
        <time>2020-06-20T14:57:23Z</time>
      </trkpt>
      <trkpt lat="45.7862" lon="5.59056">
        <ele>1165.42</ele>
        <time>2020-06-20T14:57:24Z</time>
      </trkpt>
      <trkpt lat="45.78617" lon="5.59059">
        <ele>1164.82</ele>
        <time>2020-06-20T14:57:27Z</time>
      </trkpt>
      <trkpt lat="45.78615" lon="5.59061">
        <ele>1164.62</ele>
        <time>2020-06-20T14:57:28Z</time>
      </trkpt>
      <trkpt lat="45.78614" lon="5.59064">
        <ele>1164.41</ele>
        <time>2020-06-20T14:57:29Z</time>
      </trkpt>
      <trkpt lat="45.78614" lon="5.59067">
        <ele>1164.21</ele>
        <time>2020-06-20T14:57:30Z</time>
      </trkpt>
      <trkpt lat="45.78613" lon="5.5907">
        <ele>1163.8</ele>
        <time>2020-06-20T14:57:32Z</time>
      </trkpt>
      <trkpt lat="45.78611" lon="5.59073">
        <ele>1163.4</ele>
        <time>2020-06-20T14:57:34Z</time>
      </trkpt>
      <trkpt lat="45.78609" lon="5.59074">
        <ele>1163.21</ele>
        <time>2020-06-20T14:57:35Z</time>
      </trkpt>
      <trkpt lat="45.78607" lon="5.59076">
        <ele>1162.65</ele>
        <time>2020-06-20T14:57:38Z</time>
      </trkpt>
      <trkpt lat="45.78605" lon="5.5908">
        <ele>1162.11</ele>
        <time>2020-06-20T14:57:41Z</time>
      </trkpt>
      <trkpt lat="45.78603" lon="5.59082">
        <ele>1161.75</ele>
        <time>2020-06-20T14:57:43Z</time>
      </trkpt>
      <trkpt lat="45.78602" lon="5.59086">
        <ele>1161.05</ele>
        <time>2020-06-20T14:57:47Z</time>
      </trkpt>
      <trkpt lat="45.78601" lon="5.59089">
        <ele>1160.53</ele>
        <time>2020-06-20T14:57:50Z</time>
      </trkpt>
      <trkpt lat="45.786" lon="5.59092">
        <ele>1160.2</ele>
        <time>2020-06-20T14:57:52Z</time>
      </trkpt>
      <trkpt lat="45.78598" lon="5.59095">
        <ele>1159.69</ele>
        <time>2020-06-20T14:57:55Z</time>
      </trkpt>
      <trkpt lat="45.78597" lon="5.59098">
        <ele>1158.89</ele>
        <time>2020-06-20T14:58:00Z</time>
      </trkpt>
      <trkpt lat="45.78596" lon="5.59101">
        <ele>1158.25</ele>
        <time>2020-06-20T14:58:04Z</time>
      </trkpt>
      <trkpt lat="45.78595" lon="5.59104">
        <ele>1157.44</ele>
        <time>2020-06-20T14:58:10Z</time>
      </trkpt>
      <trkpt lat="45.78594" lon="5.59107">
        <ele>1156.97</ele>
        <time>2020-06-20T14:58:13Z</time>
      </trkpt>
      <trkpt lat="45.78591" lon="5.5911">
        <ele>1156.49</ele>
        <time>2020-06-20T14:58:16Z</time>
      </trkpt>
      <trkpt lat="45.78589" lon="5.59112">
        <ele>1156.01</ele>
        <time>2020-06-20T14:58:19Z</time>
      </trkpt>
      <trkpt lat="45.78588" lon="5.59115">
        <ele>1155.23</ele>
        <time>2020-06-20T14:58:24Z</time>
      </trkpt>
      <trkpt lat="45.78585" lon="5.59117">
        <ele>1154.92</ele>
        <time>2020-06-20T14:58:26Z</time>
      </trkpt>
      <trkpt lat="45.78583" lon="5.59119">
        <ele>1154.61</ele>
        <time>2020-06-20T14:58:28Z</time>
      </trkpt>
      <trkpt lat="45.78581" lon="5.5912">
        <ele>1154.3</ele>
        <time>2020-06-20T14:58:30Z</time>
      </trkpt>
      <trkpt lat="45.78579" lon="5.59121">
        <ele>1153.84</ele>
        <time>2020-06-20T14:58:33Z</time>
      </trkpt>
      <trkpt lat="45.78577" lon="5.59123">
        <ele>1153.38</ele>
        <time>2020-06-20T14:58:36Z</time>
      </trkpt>
      <trkpt lat="45.78577" lon="5.59123">
        <ele>1152.58</ele>
        <time>2020-06-20T14:58:41Z</time>
      </trkpt>
      <trkpt lat="45.78576" lon="5.59122">
        <ele>1152.09</ele>
        <time>2020-06-20T14:58:44Z</time>
      </trkpt>
      <trkpt lat="45.78574" lon="5.59125">
        <ele>1151.63</ele>
        <time>2020-06-20T14:58:47Z</time>
      </trkpt>
      <trkpt lat="45.78572" lon="5.59124">
        <ele>1107.76</ele>
        <time>2020-06-20T15:04:58Z</time>
      </trkpt>
      <trkpt lat="45.7857" lon="5.59124">
        <ele>1107.33</ele>
        <time>2020-06-20T15:05:02Z</time>
      </trkpt>
      <trkpt lat="45.78567" lon="5.59127">
        <ele>1107.04</ele>
        <time>2020-06-20T15:05:05Z</time>
      </trkpt>
      <trkpt lat="45.78565" lon="5.59129">
        <ele>1106.85</ele>
        <time>2020-06-20T15:05:07Z</time>
      </trkpt>
      <trkpt lat="45.78563" lon="5.5913">
        <ele>1106.67</ele>
        <time>2020-06-20T15:05:09Z</time>
      </trkpt>
      <trkpt lat="45.78561" lon="5.5913">
        <ele>1106.59</ele>
        <time>2020-06-20T15:05:10Z</time>
      </trkpt>
      <trkpt lat="45.78558" lon="5.59131">
        <ele>1106.51</ele>
        <time>2020-06-20T15:05:11Z</time>
      </trkpt>
      <trkpt lat="45.78556" lon="5.5913">
        <ele>1106.43</ele>
        <time>2020-06-20T15:05:12Z</time>
      </trkpt>
      <trkpt lat="45.78553" lon="5.5913">
        <ele>1106.28</ele>
        <time>2020-06-20T15:05:14Z</time>
      </trkpt>
      <trkpt lat="45.78551" lon="5.59129">
        <ele>1106.13</ele>
        <time>2020-06-20T15:05:16Z</time>
      </trkpt>
      <trkpt lat="45.78549" lon="5.59126">
        <ele>1106.05</ele>
        <time>2020-06-20T15:05:17Z</time>
      </trkpt>
      <trkpt lat="45.78547" lon="5.59124">
        <ele>1105.98</ele>
        <time>2020-06-20T15:05:18Z</time>
      </trkpt>
      <trkpt lat="45.78545" lon="5.59122">
        <ele>1105.91</ele>
        <time>2020-06-20T15:05:19Z</time>
      </trkpt>
      <trkpt lat="45.78543" lon="5.59119">
        <ele>1105.76</ele>
        <time>2020-06-20T15:05:21Z</time>
      </trkpt>
      <trkpt lat="45.78541" lon="5.59117">
        <ele>1105.62</ele>
        <time>2020-06-20T15:05:23Z</time>
      </trkpt>
      <trkpt lat="45.78539" lon="5.59114">
        <ele>1105.49</ele>
        <time>2020-06-20T15:05:25Z</time>
      </trkpt>
      <trkpt lat="45.78538" lon="5.59112">
        <ele>1105.29</ele>
        <time>2020-06-20T15:05:28Z</time>
      </trkpt>
      <trkpt lat="45.78537" lon="5.59109">
        <ele>1105.11</ele>
        <time>2020-06-20T15:05:31Z</time>
      </trkpt>
      <trkpt lat="45.78538" lon="5.59105">
        <ele>1104.98</ele>
        <time>2020-06-20T15:05:33Z</time>
      </trkpt>
      <trkpt lat="45.78538" lon="5.59102">
        <ele>1104.92</ele>
        <time>2020-06-20T15:05:34Z</time>
      </trkpt>
      <trkpt lat="45.78541" lon="5.59098">
        <ele>1104.74</ele>
        <time>2020-06-20T15:05:37Z</time>
      </trkpt>
      <trkpt lat="45.78541" lon="5.59095">
        <ele>1104.63</ele>
        <time>2020-06-20T15:05:39Z</time>
      </trkpt>
      <trkpt lat="45.78542" lon="5.59092">
        <ele>1104.57</ele>
        <time>2020-06-20T15:05:40Z</time>
      </trkpt>
      <trkpt lat="45.78543" lon="5.59089">
        <ele>1104.52</ele>
        <time>2020-06-20T15:05:41Z</time>
      </trkpt>
      <trkpt lat="45.78542" lon="5.59089">
        <ele>1104.36</ele>
        <time>2020-06-20T15:05:44Z</time>
      </trkpt>
      <trkpt lat="45.78542" lon="5.59086">
        <ele>1104.25</ele>
        <time>2020-06-20T15:05:46Z</time>
      </trkpt>
      <trkpt lat="45.78543" lon="5.59082">
        <ele>1104.05</ele>
        <time>2020-06-20T15:05:50Z</time>
      </trkpt>
      <trkpt lat="45.78544" lon="5.59079">
        <ele>1103.94</ele>
        <time>2020-06-20T15:05:51Z</time>
      </trkpt>
      <trkpt lat="45.78543" lon="5.59076">
        <ele>1103.9</ele>
        <time>2020-06-20T15:05:52Z</time>
      </trkpt>
      <trkpt lat="45.78543" lon="5.59074">
        <ele>1103.85</ele>
        <time>2020-06-20T15:05:53Z</time>
      </trkpt>
      <trkpt lat="45.78544" lon="5.59069">
        <ele>1103.7</ele>
        <time>2020-06-20T15:05:56Z</time>
      </trkpt>
      <trkpt lat="45.78546" lon="5.59069">
        <ele>1103.65</ele>
        <time>2020-06-20T15:05:57Z</time>
      </trkpt>
      <trkpt lat="45.78547" lon="5.59067">
        <ele>1103.61</ele>
        <time>2020-06-20T15:05:58Z</time>
      </trkpt>
      <trkpt lat="45.78549" lon="5.59066">
        <ele>1103.56</ele>
        <time>2020-06-20T15:05:59Z</time>
      </trkpt>
      <trkpt lat="45.7855" lon="5.59062">
        <ele>1103.48</ele>
        <time>2020-06-20T15:06:01Z</time>
      </trkpt>
      <trkpt lat="45.78552" lon="5.59057">
        <ele>1103.35</ele>
        <time>2020-06-20T15:06:04Z</time>
      </trkpt>
      <trkpt lat="45.78553" lon="5.59054">
        <ele>1103.27</ele>
        <time>2020-06-20T15:06:06Z</time>
      </trkpt>
      <trkpt lat="45.78555" lon="5.59051">
        <ele>1103.19</ele>
        <time>2020-06-20T15:06:08Z</time>
      </trkpt>
      <trkpt lat="45.78555" lon="5.59047">
        <ele>1103.11</ele>
        <time>2020-06-20T15:06:10Z</time>
      </trkpt>
      <trkpt lat="45.78557" lon="5.59045">
        <ele>1103.03</ele>
        <time>2020-06-20T15:06:12Z</time>
      </trkpt>
      <trkpt lat="45.78557" lon="5.5904">
        <ele>1102.87</ele>
        <time>2020-06-20T15:06:16Z</time>
      </trkpt>
      <trkpt lat="45.78557" lon="5.59037">
        <ele>1102.8</ele>
        <time>2020-06-20T15:06:18Z</time>
      </trkpt>
      <trkpt lat="45.78558" lon="5.59032">
        <ele>1102.68</ele>
        <time>2020-06-20T15:06:21Z</time>
      </trkpt>
      <trkpt lat="45.78559" lon="5.59029">
        <ele>1102.56</ele>
        <time>2020-06-20T15:06:24Z</time>
      </trkpt>
      <trkpt lat="45.78558" lon="5.59026">
        <ele>1102.49</ele>
        <time>2020-06-20T15:06:26Z</time>
      </trkpt>
      <trkpt lat="45.78559" lon="5.59022">
        <ele>1102.42</ele>
        <time>2020-06-20T15:06:28Z</time>
      </trkpt>
      <trkpt lat="45.78562" lon="5.5902">
        <ele>1102.35</ele>
        <time>2020-06-20T15:06:30Z</time>
      </trkpt>
      <trkpt lat="45.78562" lon="5.59017">
        <ele>1102.24</ele>
        <time>2020-06-20T15:06:33Z</time>
      </trkpt>
      <trkpt lat="45.78562" lon="5.59014">
        <ele>1102.14</ele>
        <time>2020-06-20T15:06:36Z</time>
      </trkpt>
      <trkpt lat="45.78563" lon="5.5901">
        <ele>1102.04</ele>
        <time>2020-06-20T15:06:39Z</time>
      </trkpt>
      <trkpt lat="45.78563" lon="5.59005">
        <ele>1101.97</ele>
        <time>2020-06-20T15:06:41Z</time>
      </trkpt>
      <trkpt lat="45.78564" lon="5.59002">
        <ele>1101.9</ele>
        <time>2020-06-20T15:06:43Z</time>
      </trkpt>
      <trkpt lat="45.78564" lon="5.58997">
        <ele>1101.83</ele>
        <time>2020-06-20T15:06:45Z</time>
      </trkpt>
      <trkpt lat="45.78564" lon="5.58993">
        <ele>1101.76</ele>
        <time>2020-06-20T15:06:47Z</time>
      </trkpt>
      <trkpt lat="45.78565" lon="5.58989">
        <ele>1101.61</ele>
        <time>2020-06-20T15:06:51Z</time>
      </trkpt>
      <trkpt lat="45.78565" lon="5.58986">
        <ele>1101.49</ele>
        <time>2020-06-20T15:06:54Z</time>
      </trkpt>
      <trkpt lat="45.78566" lon="5.58983">
        <ele>1101.42</ele>
        <time>2020-06-20T15:06:56Z</time>
      </trkpt>
      <trkpt lat="45.78568" lon="5.5898">
        <ele>1101.34</ele>
        <time>2020-06-20T15:06:58Z</time>
      </trkpt>
      <trkpt lat="45.78568" lon="5.58976">
        <ele>1101.23</ele>
        <time>2020-06-20T15:07:01Z</time>
      </trkpt>
      <trkpt lat="45.78569" lon="5.58972">
        <ele>1101.16</ele>
        <time>2020-06-20T15:07:03Z</time>
      </trkpt>
      <trkpt lat="45.78569" lon="5.58968">
        <ele>1101.08</ele>
        <time>2020-06-20T15:07:05Z</time>
      </trkpt>
      <trkpt lat="45.78569" lon="5.58962">
        <ele>1100.98</ele>
        <time>2020-06-20T15:07:08Z</time>
      </trkpt>
      <trkpt lat="45.78569" lon="5.58959">
        <ele>1100.91</ele>
        <time>2020-06-20T15:07:10Z</time>
      </trkpt>
      <trkpt lat="45.78568" lon="5.58954">
        <ele>1100.84</ele>
        <time>2020-06-20T15:07:12Z</time>
      </trkpt>
      <trkpt lat="45.7857" lon="5.5895">
        <ele>1100.78</ele>
        <time>2020-06-20T15:07:14Z</time>
      </trkpt>
      <trkpt lat="45.78571" lon="5.58945">
        <ele>1100.68</ele>
        <time>2020-06-20T15:07:17Z</time>
      </trkpt>
      <trkpt lat="45.78571" lon="5.5894">
        <ele>1100.61</ele>
        <time>2020-06-20T15:07:19Z</time>
      </trkpt>
      <trkpt lat="45.78571" lon="5.58935">
        <ele>1100.51</ele>
        <time>2020-06-20T15:07:22Z</time>
      </trkpt>
      <trkpt lat="45.78571" lon="5.58932">
        <ele>1100.45</ele>
        <time>2020-06-20T15:07:24Z</time>
      </trkpt>
      <trkpt lat="45.7857" lon="5.58928">
        <ele>1100.38</ele>
        <time>2020-06-20T15:07:26Z</time>
      </trkpt>
      <trkpt lat="45.78569" lon="5.58925">
        <ele>1100.32</ele>
        <time>2020-06-20T15:07:28Z</time>
      </trkpt>
      <trkpt lat="45.78567" lon="5.58923">
        <ele>1100.2</ele>
        <time>2020-06-20T15:07:32Z</time>
      </trkpt>
      <trkpt lat="45.78565" lon="5.5892">
        <ele>1100.02</ele>
        <time>2020-06-20T15:07:39Z</time>
      </trkpt>
      <trkpt lat="45.78563" lon="5.58919">
        <ele>1099.96</ele>
        <time>2020-06-20T15:07:41Z</time>
      </trkpt>
      <trkpt lat="45.78561" lon="5.58916">
        <ele>1099.91</ele>
        <time>2020-06-20T15:07:43Z</time>
      </trkpt>
      <trkpt lat="45.78558" lon="5.58913">
        <ele>1099.85</ele>
        <time>2020-06-20T15:07:45Z</time>
      </trkpt>
      <trkpt lat="45.78556" lon="5.58909">
        <ele>1099.77</ele>
        <time>2020-06-20T15:07:48Z</time>
      </trkpt>
      <trkpt lat="45.78553" lon="5.58908">
        <ele>1099.71</ele>
        <time>2020-06-20T15:07:50Z</time>
      </trkpt>
      <trkpt lat="45.78552" lon="5.58905">
        <ele>1099.66</ele>
        <time>2020-06-20T15:07:52Z</time>
      </trkpt>
      <trkpt lat="45.78551" lon="5.58902">
        <ele>1099.6</ele>
        <time>2020-06-20T15:07:54Z</time>
      </trkpt>
      <trkpt lat="45.78551" lon="5.58899">
        <ele>1099.55</ele>
        <time>2020-06-20T15:07:56Z</time>
      </trkpt>
      <trkpt lat="45.78549" lon="5.58896">
        <ele>1099.5</ele>
        <time>2020-06-20T15:07:58Z</time>
      </trkpt>
      <trkpt lat="45.78548" lon="5.58894">
        <ele>1099.47</ele>
        <time>2020-06-20T15:07:59Z</time>
      </trkpt>
      <trkpt lat="45.78546" lon="5.5889">
        <ele>1099.37</ele>
        <time>2020-06-20T15:08:03Z</time>
      </trkpt>
      <trkpt lat="45.78545" lon="5.58888">
        <ele>1099.32</ele>
        <time>2020-06-20T15:08:05Z</time>
      </trkpt>
      <trkpt lat="45.78543" lon="5.58885">
        <ele>1099.2</ele>
        <time>2020-06-20T15:08:10Z</time>
      </trkpt>
      <trkpt lat="45.78542" lon="5.58882">
        <ele>1099.15</ele>
        <time>2020-06-20T15:08:12Z</time>
      </trkpt>
      <trkpt lat="45.78541" lon="5.58879">
        <ele>1099.13</ele>
        <time>2020-06-20T15:08:13Z</time>
      </trkpt>
      <trkpt lat="45.78539" lon="5.58875">
        <ele>1099.07</ele>
        <time>2020-06-20T15:08:15Z</time>
      </trkpt>
      <trkpt lat="45.78537" lon="5.58872">
        <ele>1099.02</ele>
        <time>2020-06-20T15:08:17Z</time>
      </trkpt>
      <trkpt lat="45.78536" lon="5.58869">
        <ele>1098.96</ele>
        <time>2020-06-20T15:08:19Z</time>
      </trkpt>
      <trkpt lat="45.78535" lon="5.58866">
        <ele>1098.87</ele>
        <time>2020-06-20T15:08:22Z</time>
      </trkpt>
      <trkpt lat="45.78535" lon="5.58861">
        <ele>1098.81</ele>
        <time>2020-06-20T15:08:24Z</time>
      </trkpt>
      <trkpt lat="45.78535" lon="5.58858">
        <ele>1098.74</ele>
        <time>2020-06-20T15:08:26Z</time>
      </trkpt>
      <trkpt lat="45.78535" lon="5.58855">
        <ele>1098.72</ele>
        <time>2020-06-20T15:08:27Z</time>
      </trkpt>
      <trkpt lat="45.78534" lon="5.58852">
        <ele>1098.69</ele>
        <time>2020-06-20T15:08:28Z</time>
      </trkpt>
      <trkpt lat="45.78534" lon="5.58846">
        <ele>1098.63</ele>
        <time>2020-06-20T15:08:30Z</time>
      </trkpt>
      <trkpt lat="45.78535" lon="5.58842">
        <ele>1098.55</ele>
        <time>2020-06-20T15:08:33Z</time>
      </trkpt>
      <trkpt lat="45.78534" lon="5.58839">
        <ele>1098.49</ele>
        <time>2020-06-20T15:08:35Z</time>
      </trkpt>
      <trkpt lat="45.78534" lon="5.58836">
        <ele>1098.46</ele>
        <time>2020-06-20T15:08:36Z</time>
      </trkpt>
      <trkpt lat="45.78534" lon="5.58832">
        <ele>1098.43</ele>
        <time>2020-06-20T15:08:37Z</time>
      </trkpt>
      <trkpt lat="45.78535" lon="5.58829">
        <ele>1098.37</ele>
        <time>2020-06-20T15:08:39Z</time>
      </trkpt>
      <trkpt lat="45.78535" lon="5.58825">
        <ele>1098.31</ele>
        <time>2020-06-20T15:08:41Z</time>
      </trkpt>
      <trkpt lat="45.78536" lon="5.58822">
        <ele>1098.25</ele>
        <time>2020-06-20T15:08:43Z</time>
      </trkpt>
      <trkpt lat="45.78538" lon="5.58818">
        <ele>1098.14</ele>
        <time>2020-06-20T15:08:47Z</time>
      </trkpt>
      <trkpt lat="45.78539" lon="5.58815">
        <ele>1098.08</ele>
        <time>2020-06-20T15:08:49Z</time>
      </trkpt>
      <trkpt lat="45.78539" lon="5.58811">
        <ele>1097.99</ele>
        <time>2020-06-20T15:08:52Z</time>
      </trkpt>
      <trkpt lat="45.78539" lon="5.58806">
        <ele>1097.88</ele>
        <time>2020-06-20T15:08:56Z</time>
      </trkpt>
      <trkpt lat="45.7854" lon="5.58802">
        <ele>1097.79</ele>
        <time>2020-06-20T15:08:59Z</time>
      </trkpt>
      <trkpt lat="45.7854" lon="5.58799">
        <ele>1097.76</ele>
        <time>2020-06-20T15:09:00Z</time>
      </trkpt>
      <trkpt lat="45.78541" lon="5.58795">
        <ele>1097.71</ele>
        <time>2020-06-20T15:09:02Z</time>
      </trkpt>
      <trkpt lat="45.78541" lon="5.5879">
        <ele>1097.62</ele>
        <time>2020-06-20T15:09:05Z</time>
      </trkpt>
      <trkpt lat="45.78542" lon="5.58787">
        <ele>1097.56</ele>
        <time>2020-06-20T15:09:07Z</time>
      </trkpt>
      <trkpt lat="45.78543" lon="5.58781">
        <ele>1097.48</ele>
        <time>2020-06-20T15:09:10Z</time>
      </trkpt>
      <trkpt lat="45.78543" lon="5.58778">
        <ele>1097.45</ele>
        <time>2020-06-20T15:09:11Z</time>
      </trkpt>
      <trkpt lat="45.78543" lon="5.58773">
        <ele>1097.31</ele>
        <time>2020-06-20T15:09:16Z</time>
      </trkpt>
      <trkpt lat="45.78543" lon="5.58769">
        <ele>1097.18</ele>
        <time>2020-06-20T15:09:19Z</time>
      </trkpt>
      <trkpt lat="45.78543" lon="5.58766">
        <ele>1096.9</ele>
        <time>2020-06-20T15:09:28Z</time>
      </trkpt>
      <trkpt lat="45.78545" lon="5.58764">
        <ele>1096.53</ele>
        <time>2020-06-20T15:09:34Z</time>
      </trkpt>
      <trkpt lat="45.78546" lon="5.58762">
        <ele>1096.19</ele>
        <time>2020-06-20T15:09:40Z</time>
      </trkpt>
      <trkpt lat="45.78547" lon="5.58758">
        <ele>1095.73</ele>
        <time>2020-06-20T15:09:47Z</time>
      </trkpt>
      <trkpt lat="45.7855" lon="5.58757">
        <ele>1095.34</ele>
        <time>2020-06-20T15:09:54Z</time>
      </trkpt>
      <trkpt lat="45.78553" lon="5.58755">
        <ele>1095.15</ele>
        <time>2020-06-20T15:09:57Z</time>
      </trkpt>
      <trkpt lat="45.78553" lon="5.58751">
        <ele>1094.68</ele>
        <time>2020-06-20T15:10:05Z</time>
      </trkpt>
      <trkpt lat="45.78553" lon="5.58748">
        <ele>1094.34</ele>
        <time>2020-06-20T15:10:10Z</time>
      </trkpt>
      <trkpt lat="45.78556" lon="5.5875">
        <ele>1094.27</ele>
        <time>2020-06-20T15:10:11Z</time>
      </trkpt>
      <trkpt lat="45.78555" lon="5.58745">
        <ele>1093.84</ele>
        <time>2020-06-20T15:10:18Z</time>
      </trkpt>
      <trkpt lat="45.78554" lon="5.58741">
        <ele>1093.61</ele>
        <time>2020-06-20T15:10:22Z</time>
      </trkpt>
      <trkpt lat="45.78554" lon="5.58737">
        <ele>1093.38</ele>
        <time>2020-06-20T15:10:27Z</time>
      </trkpt>
      <trkpt lat="45.78555" lon="5.58733">
        <ele>1093.15</ele>
        <time>2020-06-20T15:10:33Z</time>
      </trkpt>
      <trkpt lat="45.78555" lon="5.58729">
        <ele>1093.03</ele>
        <time>2020-06-20T15:10:35Z</time>
      </trkpt>
      <trkpt lat="45.78554" lon="5.58726">
        <ele>1092.98</ele>
        <time>2020-06-20T15:10:36Z</time>
      </trkpt>
      <trkpt lat="45.78552" lon="5.58717">
        <ele>1092.8</ele>
        <time>2020-06-20T15:10:39Z</time>
      </trkpt>
      <trkpt lat="45.78552" lon="5.58713">
        <ele>1092.74</ele>
        <time>2020-06-20T15:10:40Z</time>
      </trkpt>
      <trkpt lat="45.78552" lon="5.58704">
        <ele>1092.62</ele>
        <time>2020-06-20T15:10:42Z</time>
      </trkpt>
      <trkpt lat="45.78551" lon="5.58697">
        <ele>1092.37</ele>
        <time>2020-06-20T15:10:46Z</time>
      </trkpt>
      <trkpt lat="45.78552" lon="5.58694">
        <ele>1092.24</ele>
        <time>2020-06-20T15:10:48Z</time>
      </trkpt>
      <trkpt lat="45.78554" lon="5.58693">
        <ele>1092.11</ele>
        <time>2020-06-20T15:10:50Z</time>
      </trkpt>
      <trkpt lat="45.78557" lon="5.58693">
        <ele>1091.98</ele>
        <time>2020-06-20T15:10:52Z</time>
      </trkpt>
      <trkpt lat="45.78559" lon="5.58691">
        <ele>1091.54</ele>
        <time>2020-06-20T15:10:59Z</time>
      </trkpt>
      <trkpt lat="45.78558" lon="5.58691">
        <ele>1090.99</ele>
        <time>2020-06-20T15:11:07Z</time>
      </trkpt>
      <trkpt lat="45.78558" lon="5.58685">
        <ele>1090.85</ele>
        <time>2020-06-20T15:11:09Z</time>
      </trkpt>
      <trkpt lat="45.78558" lon="5.5868">
        <ele>1090.78</ele>
        <time>2020-06-20T15:11:10Z</time>
      </trkpt>
      <trkpt lat="45.7856" lon="5.58677">
        <ele>1090.58</ele>
        <time>2020-06-20T15:11:13Z</time>
      </trkpt>
      <trkpt lat="45.78561" lon="5.58674">
        <ele>1090.44</ele>
        <time>2020-06-20T15:11:15Z</time>
      </trkpt>
      <trkpt lat="45.78563" lon="5.58671">
        <ele>1090.37</ele>
        <time>2020-06-20T15:11:16Z</time>
      </trkpt>
      <trkpt lat="45.78563" lon="5.58665">
        <ele>1090.17</ele>
        <time>2020-06-20T15:11:19Z</time>
      </trkpt>
      <trkpt lat="45.78566" lon="5.58664">
        <ele>1090.02</ele>
        <time>2020-06-20T15:11:21Z</time>
      </trkpt>
      <trkpt lat="45.78569" lon="5.58664">
        <ele>1089.94</ele>
        <time>2020-06-20T15:11:23Z</time>
      </trkpt>
      <trkpt lat="45.78571" lon="5.58664">
        <ele>1089.86</ele>
        <time>2020-06-20T15:11:24Z</time>
      </trkpt>
      <trkpt lat="45.78573" lon="5.58663">
        <ele>1089.68</ele>
        <time>2020-06-20T15:11:27Z</time>
      </trkpt>
      <trkpt lat="45.78574" lon="5.5866">
        <ele>1089.44</ele>
        <time>2020-06-20T15:11:30Z</time>
      </trkpt>
      <trkpt lat="45.78574" lon="5.58657">
        <ele>1089.35</ele>
        <time>2020-06-20T15:11:31Z</time>
      </trkpt>
      <trkpt lat="45.78574" lon="5.58654">
        <ele>1089.27</ele>
        <time>2020-06-20T15:11:32Z</time>
      </trkpt>
      <trkpt lat="45.78575" lon="5.58649">
        <ele>1089.13</ele>
        <time>2020-06-20T15:11:34Z</time>
      </trkpt>
      <trkpt lat="45.78577" lon="5.58647">
        <ele>1088.85</ele>
        <time>2020-06-20T15:11:38Z</time>
      </trkpt>
      <trkpt lat="45.78578" lon="5.58643">
        <ele>1088.71</ele>
        <time>2020-06-20T15:11:40Z</time>
      </trkpt>
      <trkpt lat="45.7858" lon="5.5864">
        <ele>1088.55</ele>
        <time>2020-06-20T15:11:42Z</time>
      </trkpt>
      <trkpt lat="45.7858" lon="5.58636">
        <ele>1088.47</ele>
        <time>2020-06-20T15:11:43Z</time>
      </trkpt>
      <trkpt lat="45.78582" lon="5.58632">
        <ele>1088.23</ele>
        <time>2020-06-20T15:11:46Z</time>
      </trkpt>
      <trkpt lat="45.78584" lon="5.58628">
        <ele>1087.83</ele>
        <time>2020-06-20T15:11:51Z</time>
      </trkpt>
      <trkpt lat="45.78585" lon="5.58624">
        <ele>1087.46</ele>
        <time>2020-06-20T15:11:55Z</time>
      </trkpt>
      <trkpt lat="45.78584" lon="5.58621">
        <ele>1087.26</ele>
        <time>2020-06-20T15:11:57Z</time>
      </trkpt>
      <trkpt lat="45.78584" lon="5.58617">
        <ele>1086.73</ele>
        <time>2020-06-20T15:12:02Z</time>
      </trkpt>
      <trkpt lat="45.78585" lon="5.58613">
        <ele>1086.51</ele>
        <time>2020-06-20T15:12:04Z</time>
      </trkpt>
      <trkpt lat="45.78586" lon="5.5861">
        <ele>1086.31</ele>
        <time>2020-06-20T15:12:06Z</time>
      </trkpt>
      <trkpt lat="45.78585" lon="5.58607">
        <ele>1085.87</ele>
        <time>2020-06-20T15:12:10Z</time>
      </trkpt>
      <trkpt lat="45.78586" lon="5.58603">
        <ele>1085.4</ele>
        <time>2020-06-20T15:12:14Z</time>
      </trkpt>
      <trkpt lat="45.78588" lon="5.58602">
        <ele>1084.7</ele>
        <time>2020-06-20T15:12:20Z</time>
      </trkpt>
      <trkpt lat="45.78589" lon="5.58596">
        <ele>1084.34</ele>
        <time>2020-06-20T15:12:23Z</time>
      </trkpt>
      <trkpt lat="45.78589" lon="5.58593">
        <ele>1084.1</ele>
        <time>2020-06-20T15:12:25Z</time>
      </trkpt>
      <trkpt lat="45.78589" lon="5.58591">
        <ele>1083.98</ele>
        <time>2020-06-20T15:12:26Z</time>
      </trkpt>
      <trkpt lat="45.7859" lon="5.58587">
        <ele>1083.74</ele>
        <time>2020-06-20T15:12:28Z</time>
      </trkpt>
      <trkpt lat="45.78591" lon="5.58583">
        <ele>1083.37</ele>
        <time>2020-06-20T15:12:31Z</time>
      </trkpt>
      <trkpt lat="45.78592" lon="5.5858">
        <ele>1082.98</ele>
        <time>2020-06-20T15:12:34Z</time>
      </trkpt>
      <trkpt lat="45.78593" lon="5.58576">
        <ele>1082.73</ele>
        <time>2020-06-20T15:12:36Z</time>
      </trkpt>
      <trkpt lat="45.78593" lon="5.58573">
        <ele>1082.34</ele>
        <time>2020-06-20T15:12:39Z</time>
      </trkpt>
      <trkpt lat="45.78593" lon="5.58569">
        <ele>1082.08</ele>
        <time>2020-06-20T15:12:41Z</time>
      </trkpt>
      <trkpt lat="45.78594" lon="5.58566">
        <ele>1081.57</ele>
        <time>2020-06-20T15:12:45Z</time>
      </trkpt>
      <trkpt lat="45.78596" lon="5.58562">
        <ele>1081.17</ele>
        <time>2020-06-20T15:12:48Z</time>
      </trkpt>
      <trkpt lat="45.78597" lon="5.5856">
        <ele>1080.88</ele>
        <time>2020-06-20T15:12:50Z</time>
      </trkpt>
      <trkpt lat="45.78599" lon="5.58555">
        <ele>1080.31</ele>
        <time>2020-06-20T15:12:54Z</time>
      </trkpt>
      <trkpt lat="45.786" lon="5.58552">
        <ele>1080.03</ele>
        <time>2020-06-20T15:12:56Z</time>
      </trkpt>
      <trkpt lat="45.78601" lon="5.5855">
        <ele>1079.74</ele>
        <time>2020-06-20T15:12:58Z</time>
      </trkpt>
      <trkpt lat="45.78601" lon="5.58548">
        <ele>1079.6</ele>
        <time>2020-06-20T15:12:59Z</time>
      </trkpt>
      <trkpt lat="45.78603" lon="5.58545">
        <ele>1079.31</ele>
        <time>2020-06-20T15:13:01Z</time>
      </trkpt>
      <trkpt lat="45.78604" lon="5.58544">
        <ele>1078.88</ele>
        <time>2020-06-20T15:13:04Z</time>
      </trkpt>
      <trkpt lat="45.78606" lon="5.58542">
        <ele>1078.48</ele>
        <time>2020-06-20T15:13:07Z</time>
      </trkpt>
      <trkpt lat="45.78608" lon="5.58541">
        <ele>1078.21</ele>
        <time>2020-06-20T15:13:09Z</time>
      </trkpt>
      <trkpt lat="45.7861" lon="5.58539">
        <ele>1077.81</ele>
        <time>2020-06-20T15:13:12Z</time>
      </trkpt>
      <trkpt lat="45.78613" lon="5.58539">
        <ele>1077.24</ele>
        <time>2020-06-20T15:13:19Z</time>
      </trkpt>
      <trkpt lat="45.78614" lon="5.58536">
        <ele>1076.7</ele>
        <time>2020-06-20T15:13:23Z</time>
      </trkpt>
      <trkpt lat="45.78616" lon="5.58534">
        <ele>1076.57</ele>
        <time>2020-06-20T15:13:24Z</time>
      </trkpt>
      <trkpt lat="45.78618" lon="5.58532">
        <ele>1076.31</ele>
        <time>2020-06-20T15:13:26Z</time>
      </trkpt>
      <trkpt lat="45.78621" lon="5.58528">
        <ele>1076.17</ele>
        <time>2020-06-20T15:13:27Z</time>
      </trkpt>
      <trkpt lat="45.78622" lon="5.58524">
        <ele>1075.53</ele>
        <time>2020-06-20T15:13:32Z</time>
      </trkpt>
      <trkpt lat="45.78624" lon="5.58522">
        <ele>1075.28</ele>
        <time>2020-06-20T15:13:34Z</time>
      </trkpt>
      <trkpt lat="45.78626" lon="5.58519">
        <ele>1075.16</ele>
        <time>2020-06-20T15:13:35Z</time>
      </trkpt>
      <trkpt lat="45.78627" lon="5.58516">
        <ele>1075.05</ele>
        <time>2020-06-20T15:13:36Z</time>
      </trkpt>
      <trkpt lat="45.78628" lon="5.58513">
        <ele>1074.93</ele>
        <time>2020-06-20T15:13:37Z</time>
      </trkpt>
      <trkpt lat="45.78631" lon="5.58509">
        <ele>1074.49</ele>
        <time>2020-06-20T15:13:41Z</time>
      </trkpt>
      <trkpt lat="45.78633" lon="5.58504">
        <ele>1074.27</ele>
        <time>2020-06-20T15:13:43Z</time>
      </trkpt>
      <trkpt lat="45.78635" lon="5.58499">
        <ele>1074.04</ele>
        <time>2020-06-20T15:13:45Z</time>
      </trkpt>
      <trkpt lat="45.78635" lon="5.58496">
        <ele>1073.7</ele>
        <time>2020-06-20T15:13:48Z</time>
      </trkpt>
      <trkpt lat="45.78636" lon="5.58492">
        <ele>1073.36</ele>
        <time>2020-06-20T15:13:51Z</time>
      </trkpt>
      <trkpt lat="45.78638" lon="5.58486">
        <ele>1072.91</ele>
        <time>2020-06-20T15:13:55Z</time>
      </trkpt>
      <trkpt lat="45.78639" lon="5.58482">
        <ele>1072.8</ele>
        <time>2020-06-20T15:13:56Z</time>
      </trkpt>
      <trkpt lat="45.7864" lon="5.58478">
        <ele>1072.57</ele>
        <time>2020-06-20T15:13:58Z</time>
      </trkpt>
      <trkpt lat="45.78642" lon="5.58476">
        <ele>1072.34</ele>
        <time>2020-06-20T15:14:00Z</time>
      </trkpt>
      <trkpt lat="45.78643" lon="5.58473">
        <ele>1071.87</ele>
        <time>2020-06-20T15:14:04Z</time>
      </trkpt>
      <trkpt lat="45.78644" lon="5.5847">
        <ele>1071.63</ele>
        <time>2020-06-20T15:14:06Z</time>
      </trkpt>
      <trkpt lat="45.78645" lon="5.58467">
        <ele>1071.29</ele>
        <time>2020-06-20T15:14:09Z</time>
      </trkpt>
      <trkpt lat="45.78647" lon="5.58465">
        <ele>1070.74</ele>
        <time>2020-06-20T15:14:14Z</time>
      </trkpt>
      <trkpt lat="45.78649" lon="5.58461">
        <ele>1070.52</ele>
        <time>2020-06-20T15:14:16Z</time>
      </trkpt>
      <trkpt lat="45.78649" lon="5.58459">
        <ele>1070.41</ele>
        <time>2020-06-20T15:14:17Z</time>
      </trkpt>
      <trkpt lat="45.7865" lon="5.58456">
        <ele>1070.09</ele>
        <time>2020-06-20T15:14:20Z</time>
      </trkpt>
      <trkpt lat="45.78651" lon="5.58453">
        <ele>1069.66</ele>
        <time>2020-06-20T15:14:24Z</time>
      </trkpt>
      <trkpt lat="45.78651" lon="5.58449">
        <ele>1069.21</ele>
        <time>2020-06-20T15:14:28Z</time>
      </trkpt>
      <trkpt lat="45.78653" lon="5.58445">
        <ele>1068.99</ele>
        <time>2020-06-20T15:14:30Z</time>
      </trkpt>
      <trkpt lat="45.78654" lon="5.58442">
        <ele>1068.57</ele>
        <time>2020-06-20T15:14:34Z</time>
      </trkpt>
      <trkpt lat="45.78655" lon="5.58439">
        <ele>1068.16</ele>
        <time>2020-06-20T15:14:38Z</time>
      </trkpt>
      <trkpt lat="45.78656" lon="5.58434">
        <ele>1067.85</ele>
        <time>2020-06-20T15:14:41Z</time>
      </trkpt>
      <trkpt lat="45.78656" lon="5.58431">
        <ele>1067.76</ele>
        <time>2020-06-20T15:14:42Z</time>
      </trkpt>
      <trkpt lat="45.78657" lon="5.58428">
        <ele>1067.56</ele>
        <time>2020-06-20T15:14:44Z</time>
      </trkpt>
      <trkpt lat="45.78657" lon="5.58425">
        <ele>1067.27</ele>
        <time>2020-06-20T15:14:47Z</time>
      </trkpt>
      <trkpt lat="45.78658" lon="5.58422">
        <ele>1066.99</ele>
        <time>2020-06-20T15:14:50Z</time>
      </trkpt>
      <trkpt lat="45.78659" lon="5.58415">
        <ele>1066.62</ele>
        <time>2020-06-20T15:14:54Z</time>
      </trkpt>
      <trkpt lat="45.7866" lon="5.58412">
        <ele>1066.53</ele>
        <time>2020-06-20T15:14:55Z</time>
      </trkpt>
      <trkpt lat="45.78662" lon="5.58407">
        <ele>1066.09</ele>
        <time>2020-06-20T15:15:00Z</time>
      </trkpt>
      <trkpt lat="45.78665" lon="5.58405">
        <ele>1065.93</ele>
        <time>2020-06-20T15:15:02Z</time>
      </trkpt>
      <trkpt lat="45.78665" lon="5.58402">
        <ele>1065.76</ele>
        <time>2020-06-20T15:15:04Z</time>
      </trkpt>
      <trkpt lat="45.78668" lon="5.58397">
        <ele>1065.52</ele>
        <time>2020-06-20T15:15:07Z</time>
      </trkpt>
      <trkpt lat="45.78669" lon="5.58394">
        <ele>1065.28</ele>
        <time>2020-06-20T15:15:10Z</time>
      </trkpt>
      <trkpt lat="45.7867" lon="5.58391">
        <ele>1065.21</ele>
        <time>2020-06-20T15:15:11Z</time>
      </trkpt>
      <trkpt lat="45.78671" lon="5.58389">
        <ele>1065.14</ele>
        <time>2020-06-20T15:15:12Z</time>
      </trkpt>
      <trkpt lat="45.78673" lon="5.58387">
        <ele>1065</ele>
        <time>2020-06-20T15:15:14Z</time>
      </trkpt>
      <trkpt lat="45.78676" lon="5.58382">
        <ele>1064.79</ele>
        <time>2020-06-20T15:15:17Z</time>
      </trkpt>
      <trkpt lat="45.78678" lon="5.58376">
        <ele>1064.65</ele>
        <time>2020-06-20T15:15:19Z</time>
      </trkpt>
      <trkpt lat="45.7868" lon="5.58373">
        <ele>1064.57</ele>
        <time>2020-06-20T15:15:20Z</time>
      </trkpt>
      <trkpt lat="45.78681" lon="5.5837">
        <ele>1064.43</ele>
        <time>2020-06-20T15:15:22Z</time>
      </trkpt>
      <trkpt lat="45.7868" lon="5.58364">
        <ele>1064.2</ele>
        <time>2020-06-20T15:15:25Z</time>
      </trkpt>
      <trkpt lat="45.78679" lon="5.58361">
        <ele>1064.13</ele>
        <time>2020-06-20T15:15:26Z</time>
      </trkpt>
      <trkpt lat="45.7868" lon="5.58356">
        <ele>1063.82</ele>
        <time>2020-06-20T15:15:30Z</time>
      </trkpt>
      <trkpt lat="45.78681" lon="5.58351">
        <ele>1063.74</ele>
        <time>2020-06-20T15:15:31Z</time>
      </trkpt>
      <trkpt lat="45.78681" lon="5.58346">
        <ele>1063.58</ele>
        <time>2020-06-20T15:15:33Z</time>
      </trkpt>
      <trkpt lat="45.78682" lon="5.58343">
        <ele>1063.43</ele>
        <time>2020-06-20T15:15:35Z</time>
      </trkpt>
      <trkpt lat="45.78682" lon="5.58339">
        <ele>1063.27</ele>
        <time>2020-06-20T15:15:37Z</time>
      </trkpt>
      <trkpt lat="45.78683" lon="5.58337">
        <ele>1063.19</ele>
        <time>2020-06-20T15:15:38Z</time>
      </trkpt>
      <trkpt lat="45.78683" lon="5.58334">
        <ele>1063.03</ele>
        <time>2020-06-20T15:15:40Z</time>
      </trkpt>
      <trkpt lat="45.78685" lon="5.58332">
        <ele>1062.61</ele>
        <time>2020-06-20T15:15:45Z</time>
      </trkpt>
      <trkpt lat="45.78686" lon="5.58329">
        <ele>1062.35</ele>
        <time>2020-06-20T15:15:48Z</time>
      </trkpt>
      <trkpt lat="45.78686" lon="5.58324">
        <ele>1062.09</ele>
        <time>2020-06-20T15:15:51Z</time>
      </trkpt>
      <trkpt lat="45.78686" lon="5.58322">
        <ele>1061.83</ele>
        <time>2020-06-20T15:15:54Z</time>
      </trkpt>
      <trkpt lat="45.78686" lon="5.58318">
        <ele>1061.66</ele>
        <time>2020-06-20T15:15:56Z</time>
      </trkpt>
      <trkpt lat="45.78686" lon="5.58314">
        <ele>1061.4</ele>
        <time>2020-06-20T15:15:59Z</time>
      </trkpt>
      <trkpt lat="45.78686" lon="5.58311">
        <ele>1061.14</ele>
        <time>2020-06-20T15:16:02Z</time>
      </trkpt>
      <trkpt lat="45.78687" lon="5.58308">
        <ele>1060.79</ele>
        <time>2020-06-20T15:16:06Z</time>
      </trkpt>
      <trkpt lat="45.78689" lon="5.58305">
        <ele>1060.53</ele>
        <time>2020-06-20T15:16:09Z</time>
      </trkpt>
      <trkpt lat="45.7869" lon="5.58302">
        <ele>1060.18</ele>
        <time>2020-06-20T15:16:13Z</time>
      </trkpt>
      <trkpt lat="45.78692" lon="5.58299">
        <ele>1060</ele>
        <time>2020-06-20T15:16:15Z</time>
      </trkpt>
      <trkpt lat="45.78693" lon="5.58296">
        <ele>1059.81</ele>
        <time>2020-06-20T15:16:17Z</time>
      </trkpt>
      <trkpt lat="45.78694" lon="5.58293">
        <ele>1059.63</ele>
        <time>2020-06-20T15:16:19Z</time>
      </trkpt>
      <trkpt lat="45.78694" lon="5.5829">
        <ele>1059.44</ele>
        <time>2020-06-20T15:16:21Z</time>
      </trkpt>
      <trkpt lat="45.78694" lon="5.58287">
        <ele>1059.26</ele>
        <time>2020-06-20T15:16:23Z</time>
      </trkpt>
      <trkpt lat="45.78694" lon="5.58284">
        <ele>1058.88</ele>
        <time>2020-06-20T15:16:27Z</time>
      </trkpt>
      <trkpt lat="45.78696" lon="5.58282">
        <ele>1058.4</ele>
        <time>2020-06-20T15:16:32Z</time>
      </trkpt>
      <trkpt lat="45.78697" lon="5.5828">
        <ele>1058.21</ele>
        <time>2020-06-20T15:16:34Z</time>
      </trkpt>
      <trkpt lat="45.78698" lon="5.58276">
        <ele>1058.01</ele>
        <time>2020-06-20T15:16:36Z</time>
      </trkpt>
      <trkpt lat="45.78699" lon="5.58274">
        <ele>1057.72</ele>
        <time>2020-06-20T15:16:40Z</time>
      </trkpt>
      <trkpt lat="45.78702" lon="5.58271">
        <ele>1057.45</ele>
        <time>2020-06-20T15:16:43Z</time>
      </trkpt>
      <trkpt lat="45.78704" lon="5.58271">
        <ele>1057.26</ele>
        <time>2020-06-20T15:16:45Z</time>
      </trkpt>
      <trkpt lat="45.78706" lon="5.5827">
        <ele>1056.84</ele>
        <time>2020-06-20T15:16:50Z</time>
      </trkpt>
      <trkpt lat="45.78708" lon="5.58268">
        <ele>1056.67</ele>
        <time>2020-06-20T15:16:52Z</time>
      </trkpt>
      <trkpt lat="45.7871" lon="5.58267">
        <ele>1056.5</ele>
        <time>2020-06-20T15:16:54Z</time>
      </trkpt>
      <trkpt lat="45.78712" lon="5.58267">
        <ele>1056.42</ele>
        <time>2020-06-20T15:16:55Z</time>
      </trkpt>
      <trkpt lat="45.78715" lon="5.58265">
        <ele>1056.26</ele>
        <time>2020-06-20T15:16:57Z</time>
      </trkpt>
      <trkpt lat="45.78718" lon="5.58265">
        <ele>1055.88</ele>
        <time>2020-06-20T15:17:02Z</time>
      </trkpt>
      <trkpt lat="45.7872" lon="5.58262">
        <ele>1055.67</ele>
        <time>2020-06-20T15:17:05Z</time>
      </trkpt>
      <trkpt lat="45.78723" lon="5.5826">
        <ele>1055.53</ele>
        <time>2020-06-20T15:17:07Z</time>
      </trkpt>
      <trkpt lat="45.78725" lon="5.58257">
        <ele>1055.39</ele>
        <time>2020-06-20T15:17:09Z</time>
      </trkpt>
      <trkpt lat="45.78725" lon="5.58252">
        <ele>1055.26</ele>
        <time>2020-06-20T15:17:11Z</time>
      </trkpt>
      <trkpt lat="45.78724" lon="5.58249">
        <ele>1055.2</ele>
        <time>2020-06-20T15:17:12Z</time>
      </trkpt>
      <trkpt lat="45.78723" lon="5.58245">
        <ele>1055.13</ele>
        <time>2020-06-20T15:17:13Z</time>
      </trkpt>
      <trkpt lat="45.78723" lon="5.5824">
        <ele>1055</ele>
        <time>2020-06-20T15:17:15Z</time>
      </trkpt>
      <trkpt lat="45.78725" lon="5.58236">
        <ele>1054.87</ele>
        <time>2020-06-20T15:17:17Z</time>
      </trkpt>
      <trkpt lat="45.78726" lon="5.58232">
        <ele>1054.8</ele>
        <time>2020-06-20T15:17:18Z</time>
      </trkpt>
      <trkpt lat="45.78728" lon="5.58225">
        <ele>1054.55</ele>
        <time>2020-06-20T15:17:22Z</time>
      </trkpt>
      <trkpt lat="45.78728" lon="5.58221">
        <ele>1054.43</ele>
        <time>2020-06-20T15:17:24Z</time>
      </trkpt>
      <trkpt lat="45.78728" lon="5.58217">
        <ele>1054.3</ele>
        <time>2020-06-20T15:17:26Z</time>
      </trkpt>
      <trkpt lat="45.7873" lon="5.58213">
        <ele>1054.18</ele>
        <time>2020-06-20T15:17:28Z</time>
      </trkpt>
      <trkpt lat="45.78731" lon="5.5821">
        <ele>1054.12</ele>
        <time>2020-06-20T15:17:29Z</time>
      </trkpt>
      <trkpt lat="45.78728" lon="5.58201">
        <ele>1053.41</ele>
        <time>2020-06-20T15:17:40Z</time>
      </trkpt>
      <trkpt lat="45.78729" lon="5.58198">
        <ele>1053.27</ele>
        <time>2020-06-20T15:17:43Z</time>
      </trkpt>
      <trkpt lat="45.78728" lon="5.58194">
        <ele>1053.14</ele>
        <time>2020-06-20T15:17:45Z</time>
      </trkpt>
      <trkpt lat="45.78727" lon="5.58188">
        <ele>1052.69</ele>
        <time>2020-06-20T15:17:52Z</time>
      </trkpt>
      <trkpt lat="45.78729" lon="5.58185">
        <ele>1052.45</ele>
        <time>2020-06-20T15:17:58Z</time>
      </trkpt>
      <trkpt lat="45.78732" lon="5.5818">
        <ele>1052.21</ele>
        <time>2020-06-20T15:18:07Z</time>
      </trkpt>
      <trkpt lat="45.78735" lon="5.58175">
        <ele>1052.1</ele>
        <time>2020-06-20T15:18:09Z</time>
      </trkpt>
      <trkpt lat="45.78736" lon="5.58173">
        <ele>1052.05</ele>
        <time>2020-06-20T15:18:10Z</time>
      </trkpt>
      <trkpt lat="45.78736" lon="5.58169">
        <ele>1051.95</ele>
        <time>2020-06-20T15:18:12Z</time>
      </trkpt>
      <trkpt lat="45.78738" lon="5.58163">
        <ele>1051.85</ele>
        <time>2020-06-20T15:18:14Z</time>
      </trkpt>
      <trkpt lat="45.78737" lon="5.58159">
        <ele>1051.64</ele>
        <time>2020-06-20T15:18:18Z</time>
      </trkpt>
      <trkpt lat="45.78735" lon="5.58156">
        <ele>1051.58</ele>
        <time>2020-06-20T15:18:19Z</time>
      </trkpt>
      <trkpt lat="45.78736" lon="5.58152">
        <ele>1051.48</ele>
        <time>2020-06-20T15:18:21Z</time>
      </trkpt>
      <trkpt lat="45.78737" lon="5.58149">
        <ele>1051.37</ele>
        <time>2020-06-20T15:18:23Z</time>
      </trkpt>
      <trkpt lat="45.78738" lon="5.58146">
        <ele>1051.26</ele>
        <time>2020-06-20T15:18:25Z</time>
      </trkpt>
      <trkpt lat="45.78735" lon="5.58142">
        <ele>1051</ele>
        <time>2020-06-20T15:18:30Z</time>
      </trkpt>
      <trkpt lat="45.78735" lon="5.58139">
        <ele>1050.95</ele>
        <time>2020-06-20T15:18:31Z</time>
      </trkpt>
      <trkpt lat="45.78737" lon="5.58136">
        <ele>1050.86</ele>
        <time>2020-06-20T15:18:33Z</time>
      </trkpt>
      <trkpt lat="45.78739" lon="5.58133">
        <ele>1050.76</ele>
        <time>2020-06-20T15:18:35Z</time>
      </trkpt>
      <trkpt lat="45.78739" lon="5.58129">
        <ele>1050.61</ele>
        <time>2020-06-20T15:18:39Z</time>
      </trkpt>
      <trkpt lat="45.78739" lon="5.58126">
        <ele>1050.56</ele>
        <time>2020-06-20T15:18:40Z</time>
      </trkpt>
      <trkpt lat="45.78739" lon="5.58122">
        <ele>1050.47</ele>
        <time>2020-06-20T15:18:42Z</time>
      </trkpt>
      <trkpt lat="45.78739" lon="5.58117">
        <ele>1050.33</ele>
        <time>2020-06-20T15:18:45Z</time>
      </trkpt>
      <trkpt lat="45.78737" lon="5.58113">
        <ele>1050.23</ele>
        <time>2020-06-20T15:18:47Z</time>
      </trkpt>
      <trkpt lat="45.78736" lon="5.58109">
        <ele>1050.18</ele>
        <time>2020-06-20T15:18:48Z</time>
      </trkpt>
      <trkpt lat="45.78735" lon="5.58105">
        <ele>1050.09</ele>
        <time>2020-06-20T15:18:50Z</time>
      </trkpt>
      <trkpt lat="45.78735" lon="5.58099">
        <ele>1049.84</ele>
        <time>2020-06-20T15:18:56Z</time>
      </trkpt>
      <trkpt lat="45.78735" lon="5.58094">
        <ele>1049.69</ele>
        <time>2020-06-20T15:18:59Z</time>
      </trkpt>
      <trkpt lat="45.78734" lon="5.58091">
        <ele>1049.64</ele>
        <time>2020-06-20T15:19:00Z</time>
      </trkpt>
      <trkpt lat="45.78734" lon="5.58078">
        <ele>1049.27</ele>
        <time>2020-06-20T15:19:08Z</time>
      </trkpt>
      <trkpt lat="45.78734" lon="5.58073">
        <ele>1049.18</ele>
        <time>2020-06-20T15:19:10Z</time>
      </trkpt>
      <trkpt lat="45.78737" lon="5.58072">
        <ele>1049.09</ele>
        <time>2020-06-20T15:19:12Z</time>
      </trkpt>
      <trkpt lat="45.78738" lon="5.58068">
        <ele>1048.99</ele>
        <time>2020-06-20T15:19:14Z</time>
      </trkpt>
      <trkpt lat="45.78738" lon="5.58064">
        <ele>1048.9</ele>
        <time>2020-06-20T15:19:16Z</time>
      </trkpt>
      <trkpt lat="45.78739" lon="5.58061">
        <ele>1048.75</ele>
        <time>2020-06-20T15:19:19Z</time>
      </trkpt>
      <trkpt lat="45.78741" lon="5.58056">
        <ele>1048.39</ele>
        <time>2020-06-20T15:19:27Z</time>
      </trkpt>
      <trkpt lat="45.78741" lon="5.58051">
        <ele>1048.22</ele>
        <time>2020-06-20T15:19:32Z</time>
      </trkpt>
      <trkpt lat="45.7874" lon="5.58047">
        <ele>1048.1</ele>
        <time>2020-06-20T15:19:34Z</time>
      </trkpt>
      <trkpt lat="45.78739" lon="5.58043">
        <ele>1047.98</ele>
        <time>2020-06-20T15:19:36Z</time>
      </trkpt>
      <trkpt lat="45.78736" lon="5.58042">
        <ele>1047.85</ele>
        <time>2020-06-20T15:19:38Z</time>
      </trkpt>
      <trkpt lat="45.78735" lon="5.58038">
        <ele>1047.66</ele>
        <time>2020-06-20T15:19:41Z</time>
      </trkpt>
      <trkpt lat="45.78734" lon="5.58036">
        <ele>1047.59</ele>
        <time>2020-06-20T15:19:42Z</time>
      </trkpt>
      <trkpt lat="45.78734" lon="5.58033">
        <ele>1047.45</ele>
        <time>2020-06-20T15:19:44Z</time>
      </trkpt>
      <trkpt lat="45.78733" lon="5.58028">
        <ele>1047.17</ele>
        <time>2020-06-20T15:19:48Z</time>
      </trkpt>
      <trkpt lat="45.78732" lon="5.58024">
        <ele>1046.82</ele>
        <time>2020-06-20T15:19:53Z</time>
      </trkpt>
      <trkpt lat="45.78732" lon="5.58021">
        <ele>1046.69</ele>
        <time>2020-06-20T15:19:55Z</time>
      </trkpt>
      <trkpt lat="45.78731" lon="5.58015">
        <ele>1046.49</ele>
        <time>2020-06-20T15:19:58Z</time>
      </trkpt>
      <trkpt lat="45.78732" lon="5.58013">
        <ele>1046.35</ele>
        <time>2020-06-20T15:20:00Z</time>
      </trkpt>
      <trkpt lat="45.78732" lon="5.58008">
        <ele>1046.2</ele>
        <time>2020-06-20T15:20:02Z</time>
      </trkpt>
      <trkpt lat="45.78731" lon="5.58004">
        <ele>1046</ele>
        <time>2020-06-20T15:20:05Z</time>
      </trkpt>
      <trkpt lat="45.78732" lon="5.58002">
        <ele>1045.81</ele>
        <time>2020-06-20T15:20:08Z</time>
      </trkpt>
      <trkpt lat="45.78733" lon="5.57998">
        <ele>1045.54</ele>
        <time>2020-06-20T15:20:12Z</time>
      </trkpt>
      <trkpt lat="45.78732" lon="5.57995">
        <ele>1045.41</ele>
        <time>2020-06-20T15:20:14Z</time>
      </trkpt>
      <trkpt lat="45.78732" lon="5.57994">
        <ele>1045.14</ele>
        <time>2020-06-20T15:20:19Z</time>
      </trkpt>
      <trkpt lat="45.78732" lon="5.57989">
        <ele>1044.94</ele>
        <time>2020-06-20T15:20:22Z</time>
      </trkpt>
      <trkpt lat="45.78733" lon="5.57986">
        <ele>1044.82</ele>
        <time>2020-06-20T15:20:24Z</time>
      </trkpt>
      <trkpt lat="45.78734" lon="5.57982">
        <ele>1044.7</ele>
        <time>2020-06-20T15:20:26Z</time>
      </trkpt>
      <trkpt lat="45.78733" lon="5.57978">
        <ele>1044.45</ele>
        <time>2020-06-20T15:20:30Z</time>
      </trkpt>
      <trkpt lat="45.78732" lon="5.57974">
        <ele>1044.28</ele>
        <time>2020-06-20T15:20:33Z</time>
      </trkpt>
      <trkpt lat="45.78732" lon="5.57969">
        <ele>1044.11</ele>
        <time>2020-06-20T15:20:36Z</time>
      </trkpt>
      <trkpt lat="45.78731" lon="5.57964">
        <ele>1043.85</ele>
        <time>2020-06-20T15:20:41Z</time>
      </trkpt>
      <trkpt lat="45.78731" lon="5.57957">
        <ele>1043.79</ele>
        <time>2020-06-20T15:20:42Z</time>
      </trkpt>
      <trkpt lat="45.78731" lon="5.57952">
        <ele>1043.73</ele>
        <time>2020-06-20T15:20:43Z</time>
      </trkpt>
      <trkpt lat="45.78732" lon="5.57949">
        <ele>1043.66</ele>
        <time>2020-06-20T15:20:44Z</time>
      </trkpt>
      <trkpt lat="45.78733" lon="5.57946">
        <ele>1043.58</ele>
        <time>2020-06-20T15:20:45Z</time>
      </trkpt>
      <trkpt lat="45.78735" lon="5.57943">
        <ele>1043.38</ele>
        <time>2020-06-20T15:20:47Z</time>
      </trkpt>
      <trkpt lat="45.78738" lon="5.57941">
        <ele>1043.07</ele>
        <time>2020-06-20T15:20:51Z</time>
      </trkpt>
      <trkpt lat="45.78739" lon="5.5794">
        <ele>1042.25</ele>
        <time>2020-06-20T15:20:57Z</time>
      </trkpt>
      <trkpt lat="45.78741" lon="5.57939">
        <ele>1041.37</ele>
        <time>2020-06-20T15:21:03Z</time>
      </trkpt>
      <trkpt lat="45.7874" lon="5.57936">
        <ele>1041.1</ele>
        <time>2020-06-20T15:21:05Z</time>
      </trkpt>
      <trkpt lat="45.78739" lon="5.57933">
        <ele>1040.58</ele>
        <time>2020-06-20T15:21:09Z</time>
      </trkpt>
      <trkpt lat="45.78739" lon="5.5793">
        <ele>1040.21</ele>
        <time>2020-06-20T15:21:12Z</time>
      </trkpt>
      <trkpt lat="45.78739" lon="5.57927">
        <ele>1039.73</ele>
        <time>2020-06-20T15:21:16Z</time>
      </trkpt>
      <trkpt lat="45.78739" lon="5.57925">
        <ele>1039.17</ele>
        <time>2020-06-20T15:21:21Z</time>
      </trkpt>
      <trkpt lat="45.78739" lon="5.57921">
        <ele>1038.65</ele>
        <time>2020-06-20T15:21:26Z</time>
      </trkpt>
      <trkpt lat="45.78738" lon="5.57916">
        <ele>1038.36</ele>
        <time>2020-06-20T15:21:29Z</time>
      </trkpt>
      <trkpt lat="45.78737" lon="5.57912">
        <ele>1038.17</ele>
        <time>2020-06-20T15:21:31Z</time>
      </trkpt>
      <trkpt lat="45.78737" lon="5.57908">
        <ele>1037.81</ele>
        <time>2020-06-20T15:21:35Z</time>
      </trkpt>
      <trkpt lat="45.78736" lon="5.57905">
        <ele>1037.64</ele>
        <time>2020-06-20T15:21:37Z</time>
      </trkpt>
      <trkpt lat="45.78736" lon="5.57902">
        <ele>1037.3</ele>
        <time>2020-06-20T15:21:41Z</time>
      </trkpt>
      <trkpt lat="45.78737" lon="5.57899">
        <ele>1036.98</ele>
        <time>2020-06-20T15:21:45Z</time>
      </trkpt>
      <trkpt lat="45.78737" lon="5.57896">
        <ele>1036.9</ele>
        <time>2020-06-20T15:21:46Z</time>
      </trkpt>
      <trkpt lat="45.78737" lon="5.57893">
        <ele>1036.74</ele>
        <time>2020-06-20T15:21:48Z</time>
      </trkpt>
      <trkpt lat="45.78737" lon="5.57889">
        <ele>1036.58</ele>
        <time>2020-06-20T15:21:50Z</time>
      </trkpt>
      <trkpt lat="45.78738" lon="5.57886">
        <ele>1036.51</ele>
        <time>2020-06-20T15:21:51Z</time>
      </trkpt>
      <trkpt lat="45.7874" lon="5.57881">
        <ele>1036.3</ele>
        <time>2020-06-20T15:21:54Z</time>
      </trkpt>
      <trkpt lat="45.7874" lon="5.57877">
        <ele>1036.1</ele>
        <time>2020-06-20T15:21:57Z</time>
      </trkpt>
      <trkpt lat="45.78741" lon="5.57874">
        <ele>1035.84</ele>
        <time>2020-06-20T15:22:01Z</time>
      </trkpt>
      <trkpt lat="45.78742" lon="5.57871">
        <ele>1035.77</ele>
        <time>2020-06-20T15:22:02Z</time>
      </trkpt>
      <trkpt lat="45.78745" lon="5.57867">
        <ele>1035.56</ele>
        <time>2020-06-20T15:22:05Z</time>
      </trkpt>
      <trkpt lat="45.78746" lon="5.57862">
        <ele>1035.49</ele>
        <time>2020-06-20T15:22:06Z</time>
      </trkpt>
      <trkpt lat="45.78748" lon="5.57858">
        <ele>1035.42</ele>
        <time>2020-06-20T15:22:07Z</time>
      </trkpt>
      <trkpt lat="45.7875" lon="5.57854">
        <ele>1035.27</ele>
        <time>2020-06-20T15:22:09Z</time>
      </trkpt>
      <trkpt lat="45.78752" lon="5.5785">
        <ele>1035.06</ele>
        <time>2020-06-20T15:22:12Z</time>
      </trkpt>
      <trkpt lat="45.78754" lon="5.57844">
        <ele>1034.85</ele>
        <time>2020-06-20T15:22:15Z</time>
      </trkpt>
      <trkpt lat="45.78755" lon="5.57839">
        <ele>1034.57</ele>
        <time>2020-06-20T15:22:19Z</time>
      </trkpt>
      <trkpt lat="45.78755" lon="5.57837">
        <ele>1034.51</ele>
        <time>2020-06-20T15:22:20Z</time>
      </trkpt>
      <trkpt lat="45.78752" lon="5.57836">
        <ele>1032.05</ele>
        <time>2020-06-20T15:23:07Z</time>
      </trkpt>
      <trkpt lat="45.78751" lon="5.57834">
        <ele>1030.57</ele>
        <time>2020-06-20T15:23:31Z</time>
      </trkpt>
      <trkpt lat="45.78751" lon="5.57831">
        <ele>1030.37</ele>
        <time>2020-06-20T15:23:35Z</time>
      </trkpt>
      <trkpt lat="45.78751" lon="5.57831">
        <ele>1030.08</ele>
        <time>2020-06-20T15:23:38Z</time>
      </trkpt>
      <trkpt lat="45.78751" lon="5.57828">
        <ele>1029.9</ele>
        <time>2020-06-20T15:23:40Z</time>
      </trkpt>
      <trkpt lat="45.7875" lon="5.57825">
        <ele>1029.8</ele>
        <time>2020-06-20T15:23:41Z</time>
      </trkpt>
      <trkpt lat="45.7875" lon="5.57822">
        <ele>1029.7</ele>
        <time>2020-06-20T15:23:42Z</time>
      </trkpt>
      <trkpt lat="45.78752" lon="5.5782">
        <ele>1029.5</ele>
        <time>2020-06-20T15:23:44Z</time>
      </trkpt>
      <trkpt lat="45.78752" lon="5.57814">
        <ele>1029.3</ele>
        <time>2020-06-20T15:23:46Z</time>
      </trkpt>
      <trkpt lat="45.78751" lon="5.57801">
        <ele>1029.1</ele>
        <time>2020-06-20T15:23:48Z</time>
      </trkpt>
      <trkpt lat="45.78751" lon="5.57794">
        <ele>1028.98</ele>
        <time>2020-06-20T15:23:50Z</time>
      </trkpt>
      <trkpt lat="45.78751" lon="5.57787">
        <ele>1028.97</ele>
        <time>2020-06-20T15:23:51Z</time>
      </trkpt>
      <trkpt lat="45.78755" lon="5.57774">
        <ele>1028.96</ele>
        <time>2020-06-20T15:23:52Z</time>
      </trkpt>
      <trkpt lat="45.78759" lon="5.57768">
        <ele>1028.92</ele>
        <time>2020-06-20T15:23:56Z</time>
      </trkpt>
      <trkpt lat="45.78762" lon="5.57763">
        <ele>1028.69</ele>
        <time>2020-06-20T15:23:58Z</time>
      </trkpt>
      <trkpt lat="45.78764" lon="5.57761">
        <ele>1028.58</ele>
        <time>2020-06-20T15:23:59Z</time>
      </trkpt>
      <trkpt lat="45.78765" lon="5.57758">
        <ele>1028.22</ele>
        <time>2020-06-20T15:24:03Z</time>
      </trkpt>
      <trkpt lat="45.78767" lon="5.57756">
        <ele>1027.88</ele>
        <time>2020-06-20T15:24:06Z</time>
      </trkpt>
      <trkpt lat="45.78769" lon="5.57751">
        <ele>1027.66</ele>
        <time>2020-06-20T15:24:08Z</time>
      </trkpt>
      <trkpt lat="45.7877" lon="5.57746">
        <ele>1027.44</ele>
        <time>2020-06-20T15:24:10Z</time>
      </trkpt>
      <trkpt lat="45.7877" lon="5.57741">
        <ele>1027.1</ele>
        <time>2020-06-20T15:24:13Z</time>
      </trkpt>
      <trkpt lat="45.78771" lon="5.57737">
        <ele>1026.87</ele>
        <time>2020-06-20T15:24:15Z</time>
      </trkpt>
      <trkpt lat="45.78773" lon="5.57738">
        <ele>1026.36</ele>
        <time>2020-06-20T15:24:19Z</time>
      </trkpt>
      <trkpt lat="45.78776" lon="5.57737">
        <ele>1025.58</ele>
        <time>2020-06-20T15:24:25Z</time>
      </trkpt>
      <trkpt lat="45.78778" lon="5.57735">
        <ele>1022.42</ele>
        <time>2020-06-20T15:24:56Z</time>
      </trkpt>
      <trkpt lat="45.78778" lon="5.57738">
        <ele>1019.81</ele>
        <time>2020-06-20T15:25:26Z</time>
      </trkpt>
      <trkpt lat="45.7878" lon="5.57741">
        <ele>1017.15</ele>
        <time>2020-06-20T15:25:51Z</time>
      </trkpt>
      <trkpt lat="45.78778" lon="5.57743">
        <ele>1016.3</ele>
        <time>2020-06-20T15:25:56Z</time>
      </trkpt>
      <trkpt lat="45.78778" lon="5.57746">
        <ele>1014.13</ele>
        <time>2020-06-20T15:26:22Z</time>
      </trkpt>
      <trkpt lat="45.78777" lon="5.5775">
        <ele>1013.08</ele>
        <time>2020-06-20T15:26:30Z</time>
      </trkpt>
      <trkpt lat="45.78779" lon="5.57749">
        <ele>1011.59</ele>
        <time>2020-06-20T15:26:47Z</time>
      </trkpt>
      <trkpt lat="45.78782" lon="5.57752">
        <ele>1010.26</ele>
        <time>2020-06-20T15:27:10Z</time>
      </trkpt>
      <trkpt lat="45.78783" lon="5.57757">
        <ele>1009.91</ele>
        <time>2020-06-20T15:27:14Z</time>
      </trkpt>
      <trkpt lat="45.78784" lon="5.5776">
        <ele>1009.58</ele>
        <time>2020-06-20T15:27:19Z</time>
      </trkpt>
      <trkpt lat="45.78784" lon="5.5776">
        <ele>1008.96</ele>
        <time>2020-06-20T15:27:33Z</time>
      </trkpt>
      <trkpt lat="45.78786" lon="5.57762">
        <ele>1008.79</ele>
        <time>2020-06-20T15:27:36Z</time>
      </trkpt>
      <trkpt lat="45.78788" lon="5.57764">
        <ele>1008.59</ele>
        <time>2020-06-20T15:27:40Z</time>
      </trkpt>
      <trkpt lat="45.78791" lon="5.57763">
        <ele>1008.4</ele>
        <time>2020-06-20T15:27:44Z</time>
      </trkpt>
      <trkpt lat="45.78794" lon="5.57762">
        <ele>1008.22</ele>
        <time>2020-06-20T15:27:48Z</time>
      </trkpt>
      <trkpt lat="45.78797" lon="5.57761">
        <ele>1008.14</ele>
        <time>2020-06-20T15:27:50Z</time>
      </trkpt>
      <trkpt lat="45.78799" lon="5.5776">
        <ele>1008.06</ele>
        <time>2020-06-20T15:27:52Z</time>
      </trkpt>
      <trkpt lat="45.78801" lon="5.57758">
        <ele>1007.79</ele>
        <time>2020-06-20T15:28:00Z</time>
      </trkpt>
      <trkpt lat="45.78803" lon="5.57757">
        <ele>1007.64</ele>
        <time>2020-06-20T15:28:04Z</time>
      </trkpt>
      <trkpt lat="45.78806" lon="5.57756">
        <ele>1007.54</ele>
        <time>2020-06-20T15:28:07Z</time>
      </trkpt>
      <trkpt lat="45.78809" lon="5.57756">
        <ele>1007.44</ele>
        <time>2020-06-20T15:28:10Z</time>
      </trkpt>
      <trkpt lat="45.78811" lon="5.57756">
        <ele>1007.41</ele>
        <time>2020-06-20T15:28:11Z</time>
      </trkpt>
      <trkpt lat="45.78814" lon="5.57756">
        <ele>1007.35</ele>
        <time>2020-06-20T15:28:13Z</time>
      </trkpt>
      <trkpt lat="45.78818" lon="5.57756">
        <ele>1007.29</ele>
        <time>2020-06-20T15:28:15Z</time>
      </trkpt>
      <trkpt lat="45.7882" lon="5.57756">
        <ele>1007.26</ele>
        <time>2020-06-20T15:28:16Z</time>
      </trkpt>
      <trkpt lat="45.78824" lon="5.57757">
        <ele>1007.17</ele>
        <time>2020-06-20T15:28:19Z</time>
      </trkpt>
      <trkpt lat="45.78826" lon="5.57756">
        <ele>1006.98</ele>
        <time>2020-06-20T15:28:30Z</time>
      </trkpt>
      <trkpt lat="45.78833" lon="5.57753">
        <ele>1006.8</ele>
        <time>2020-06-20T15:28:44Z</time>
      </trkpt>
      <trkpt lat="45.78835" lon="5.57752">
        <ele>1006.75</ele>
        <time>2020-06-20T15:28:48Z</time>
      </trkpt>
      <trkpt lat="45.78842" lon="5.57749">
        <ele>1006.66</ele>
        <time>2020-06-20T15:28:54Z</time>
      </trkpt>
      <trkpt lat="45.78844" lon="5.5775">
        <ele>1006.56</ele>
        <time>2020-06-20T15:29:03Z</time>
      </trkpt>
      <trkpt lat="45.78847" lon="5.57752">
        <ele>1006.52</ele>
        <time>2020-06-20T15:29:09Z</time>
      </trkpt>
      <trkpt lat="45.78851" lon="5.5775">
        <ele>1006.48</ele>
        <time>2020-06-20T15:29:14Z</time>
      </trkpt>
      <trkpt lat="45.78852" lon="5.57751">
        <ele>1006.41</ele>
        <time>2020-06-20T15:29:20Z</time>
      </trkpt>
      <trkpt lat="45.78854" lon="5.5775">
        <ele>1006.38</ele>
        <time>2020-06-20T15:29:22Z</time>
      </trkpt>
      <trkpt lat="45.78856" lon="5.5775">
        <ele>1006.34</ele>
        <time>2020-06-20T15:29:25Z</time>
      </trkpt>
      <trkpt lat="45.78859" lon="5.57751">
        <ele>1006.29</ele>
        <time>2020-06-20T15:29:28Z</time>
      </trkpt>
      <trkpt lat="45.78864" lon="5.57752">
        <ele>1006.18</ele>
        <time>2020-06-20T15:29:33Z</time>
      </trkpt>
      <trkpt lat="45.78867" lon="5.57751">
        <ele>1006.14</ele>
        <time>2020-06-20T15:29:35Z</time>
      </trkpt>
      <trkpt lat="45.78871" lon="5.57751">
        <ele>1006.06</ele>
        <time>2020-06-20T15:29:39Z</time>
      </trkpt>
      <trkpt lat="45.78874" lon="5.57751">
        <ele>1005.88</ele>
        <time>2020-06-20T15:29:50Z</time>
      </trkpt>
      <trkpt lat="45.78876" lon="5.57756">
        <ele>1005.8</ele>
        <time>2020-06-20T15:29:55Z</time>
      </trkpt>
      <trkpt lat="45.78877" lon="5.57761">
        <ele>1005.74</ele>
        <time>2020-06-20T15:29:59Z</time>
      </trkpt>
      <trkpt lat="45.78878" lon="5.57766">
        <ele>1005.71</ele>
        <time>2020-06-20T15:30:01Z</time>
      </trkpt>
      <trkpt lat="45.78879" lon="5.57771">
        <ele>1005.67</ele>
        <time>2020-06-20T15:30:03Z</time>
      </trkpt>
      <trkpt lat="45.7888" lon="5.57774">
        <ele>1005.64</ele>
        <time>2020-06-20T15:30:05Z</time>
      </trkpt>
      <trkpt lat="45.78881" lon="5.57779">
        <ele>1005.6</ele>
        <time>2020-06-20T15:30:07Z</time>
      </trkpt>
      <trkpt lat="45.78882" lon="5.57783">
        <ele>1005.56</ele>
        <time>2020-06-20T15:30:09Z</time>
      </trkpt>
      <trkpt lat="45.78884" lon="5.57788">
        <ele>1005.52</ele>
        <time>2020-06-20T15:30:12Z</time>
      </trkpt>
      <trkpt lat="45.7889" lon="5.57796">
        <ele>1005.39</ele>
        <time>2020-06-20T15:30:22Z</time>
      </trkpt>
      <trkpt lat="45.78891" lon="5.578">
        <ele>1005.33</ele>
        <time>2020-06-20T15:30:28Z</time>
      </trkpt>
      <trkpt lat="45.78893" lon="5.57804">
        <ele>1005.32</ele>
        <time>2020-06-20T15:30:29Z</time>
      </trkpt>
      <trkpt lat="45.78891" lon="5.57805">
        <ele>1005.3</ele>
        <time>2020-06-20T15:30:31Z</time>
      </trkpt>
      <trkpt lat="45.78892" lon="5.57807">
        <ele>1005.22</ele>
        <time>2020-06-20T15:30:38Z</time>
      </trkpt>
      <trkpt lat="45.78894" lon="5.57809">
        <ele>1005.21</ele>
        <time>2020-06-20T15:30:39Z</time>
      </trkpt>
      <trkpt lat="45.78897" lon="5.57811">
        <ele>1005.19</ele>
        <time>2020-06-20T15:30:41Z</time>
      </trkpt>
      <trkpt lat="45.78907" lon="5.57815">
        <ele>1005.13</ele>
        <time>2020-06-20T15:30:48Z</time>
      </trkpt>
      <trkpt lat="45.7891" lon="5.57817">
        <ele>1005.1</ele>
        <time>2020-06-20T15:30:52Z</time>
      </trkpt>
      <trkpt lat="45.78928" lon="5.57815">
        <ele>1005.02</ele>
        <time>2020-06-20T15:31:03Z</time>
      </trkpt>
      <trkpt lat="45.7893" lon="5.57815">
        <ele>1005.01</ele>
        <time>2020-06-20T15:31:04Z</time>
      </trkpt>
      <trkpt lat="45.78933" lon="5.57815">
        <ele>1005</ele>
        <time>2020-06-20T15:31:06Z</time>
      </trkpt>
      <trkpt lat="45.78934" lon="5.57817">
        <ele>1004.97</ele>
        <time>2020-06-20T15:31:10Z</time>
      </trkpt>
      <trkpt lat="45.78932" lon="5.57818">
        <ele>1004.94</ele>
        <time>2020-06-20T15:31:13Z</time>
      </trkpt>
      <trkpt lat="45.7893" lon="5.57819">
        <ele>1004.92</ele>
        <time>2020-06-20T15:31:14Z</time>
      </trkpt>
      <trkpt lat="45.78928" lon="5.57819">
        <ele>1004.88</ele>
        <time>2020-06-20T15:31:17Z</time>
      </trkpt>
      <trkpt lat="45.78925" lon="5.57817">
        <ele>1004.85</ele>
        <time>2020-06-20T15:31:21Z</time>
      </trkpt>
      <trkpt lat="45.78922" lon="5.57816">
        <ele>1004.81</ele>
        <time>2020-06-20T15:31:25Z</time>
      </trkpt>
      <trkpt lat="45.7892" lon="5.57816">
        <ele>1004.77</ele>
        <time>2020-06-20T15:31:30Z</time>
      </trkpt>
      <trkpt lat="45.78914" lon="5.57816">
        <ele>1004.64</ele>
        <time>2020-06-20T15:31:44Z</time>
      </trkpt>
      <trkpt lat="45.78912" lon="5.57812">
        <ele>1004.61</ele>
        <time>2020-06-20T15:31:46Z</time>
      </trkpt>
      <trkpt lat="45.78912" lon="5.57809">
        <ele>1004.6</ele>
        <time>2020-06-20T15:31:47Z</time>
      </trkpt>
      <trkpt lat="45.78913" lon="5.57806">
        <ele>1004.58</ele>
        <time>2020-06-20T15:31:48Z</time>
      </trkpt>
      <trkpt lat="45.78913" lon="5.57801">
        <ele>1004.55</ele>
        <time>2020-06-20T15:31:50Z</time>
      </trkpt>
      <trkpt lat="45.78914" lon="5.57798">
        <ele>1004.49</ele>
        <time>2020-06-20T15:31:54Z</time>
      </trkpt>
      <trkpt lat="45.78915" lon="5.57796">
        <ele>1004.44</ele>
        <time>2020-06-20T15:31:56Z</time>
      </trkpt>
      <trkpt lat="45.78916" lon="5.57794">
        <ele>1004.43</ele>
        <time>2020-06-20T15:31:57Z</time>
      </trkpt>
      <trkpt lat="45.78917" lon="5.57791">
        <ele>1004.39</ele>
        <time>2020-06-20T15:31:59Z</time>
      </trkpt>
      <trkpt lat="45.78919" lon="5.57791">
        <ele>1004.32</ele>
        <time>2020-06-20T15:32:02Z</time>
      </trkpt>
      <trkpt lat="45.78923" lon="5.57792">
        <ele>1004.25</ele>
        <time>2020-06-20T15:32:04Z</time>
      </trkpt>
      <trkpt lat="45.78926" lon="5.57792">
        <ele>1004.19</ele>
        <time>2020-06-20T15:32:06Z</time>
      </trkpt>
      <trkpt lat="45.78929" lon="5.57792">
        <ele>1004.12</ele>
        <time>2020-06-20T15:32:08Z</time>
      </trkpt>
      <trkpt lat="45.78931" lon="5.57794">
        <ele>1003.92</ele>
        <time>2020-06-20T15:32:14Z</time>
      </trkpt>
      <trkpt lat="45.78933" lon="5.57795">
        <ele>1003.82</ele>
        <time>2020-06-20T15:32:17Z</time>
      </trkpt>
      <trkpt lat="45.78936" lon="5.57796">
        <ele>1003.76</ele>
        <time>2020-06-20T15:32:19Z</time>
      </trkpt>
      <trkpt lat="45.78938" lon="5.57799">
        <ele>1003.63</ele>
        <time>2020-06-20T15:32:23Z</time>
      </trkpt>
      <trkpt lat="45.78943" lon="5.57797">
        <ele>1003.52</ele>
        <time>2020-06-20T15:32:26Z</time>
      </trkpt>
      <trkpt lat="45.78944" lon="5.57802">
        <ele>1003.4</ele>
        <time>2020-06-20T15:32:30Z</time>
      </trkpt>
      <trkpt lat="45.78944" lon="5.57805">
        <ele>1003.37</ele>
        <time>2020-06-20T15:32:31Z</time>
      </trkpt>
      <trkpt lat="45.78944" lon="5.57808">
        <ele>1003.32</ele>
        <time>2020-06-20T15:32:33Z</time>
      </trkpt>
      <trkpt lat="45.78945" lon="5.57812">
        <ele>1003.15</ele>
        <time>2020-06-20T15:32:39Z</time>
      </trkpt>
      <trkpt lat="45.78948" lon="5.57811">
        <ele>1003.04</ele>
        <time>2020-06-20T15:32:44Z</time>
      </trkpt>
      <trkpt lat="45.7895" lon="5.57809">
        <ele>1002.96</ele>
        <time>2020-06-20T15:32:48Z</time>
      </trkpt>
      <trkpt lat="45.78951" lon="5.57807">
        <ele>1002.84</ele>
        <time>2020-06-20T15:32:54Z</time>
      </trkpt>
      <trkpt lat="45.78952" lon="5.57802">
        <ele>1002.76</ele>
        <time>2020-06-20T15:32:58Z</time>
      </trkpt>
      <trkpt lat="45.78953" lon="5.57799">
        <ele>1002.69</ele>
        <time>2020-06-20T15:33:03Z</time>
      </trkpt>
      <trkpt lat="45.78955" lon="5.57797">
        <ele>1002.65</ele>
        <time>2020-06-20T15:33:06Z</time>
      </trkpt>
      <trkpt lat="45.78956" lon="5.57793">
        <ele>1002.61</ele>
        <time>2020-06-20T15:33:09Z</time>
      </trkpt>
      <trkpt lat="45.78957" lon="5.5779">
        <ele>1002.59</ele>
        <time>2020-06-20T15:33:11Z</time>
      </trkpt>
      <trkpt lat="45.7896" lon="5.57786">
        <ele>1002.55</ele>
        <time>2020-06-20T15:33:14Z</time>
      </trkpt>
      <trkpt lat="45.78961" lon="5.57782">
        <ele>1002.52</ele>
        <time>2020-06-20T15:33:18Z</time>
      </trkpt>
      <trkpt lat="45.78963" lon="5.5778">
        <ele>1002.5</ele>
        <time>2020-06-20T15:33:20Z</time>
      </trkpt>
      <trkpt lat="45.78965" lon="5.57777">
        <ele>1002.48</ele>
        <time>2020-06-20T15:33:22Z</time>
      </trkpt>
      <trkpt lat="45.78966" lon="5.57774">
        <ele>1002.45</ele>
        <time>2020-06-20T15:33:28Z</time>
      </trkpt>
      <trkpt lat="45.78967" lon="5.57771">
        <ele>1002.43</ele>
        <time>2020-06-20T15:33:30Z</time>
      </trkpt>
      <trkpt lat="45.78969" lon="5.57768">
        <ele>1002.42</ele>
        <time>2020-06-20T15:33:33Z</time>
      </trkpt>
      <trkpt lat="45.78971" lon="5.57765">
        <ele>1002.41</ele>
        <time>2020-06-20T15:33:35Z</time>
      </trkpt>
      <trkpt lat="45.78972" lon="5.57763">
        <ele>1002.4</ele>
        <time>2020-06-20T15:33:38Z</time>
      </trkpt>
      <trkpt lat="45.78974" lon="5.5776">
        <ele>1002.4</ele>
        <time>2020-06-20T15:33:40Z</time>
      </trkpt>
      <trkpt lat="45.78975" lon="5.57756">
        <ele>1002.39</ele>
        <time>2020-06-20T15:33:44Z</time>
      </trkpt>
      <trkpt lat="45.78977" lon="5.57754">
        <ele>1002.4</ele>
        <time>2020-06-20T15:33:46Z</time>
      </trkpt>
      <trkpt lat="45.78979" lon="5.57752">
        <ele>1002.42</ele>
        <time>2020-06-20T15:33:50Z</time>
      </trkpt>
      <trkpt lat="45.78981" lon="5.57749">
        <ele>1002.42</ele>
        <time>2020-06-20T15:33:52Z</time>
      </trkpt>
      <trkpt lat="45.78982" lon="5.57745">
        <ele>1002.43</ele>
        <time>2020-06-20T15:33:54Z</time>
      </trkpt>
      <trkpt lat="45.78984" lon="5.57741">
        <ele>1002.44</ele>
        <time>2020-06-20T15:33:56Z</time>
      </trkpt>
      <trkpt lat="45.78985" lon="5.57738">
        <ele>1002.45</ele>
        <time>2020-06-20T15:33:58Z</time>
      </trkpt>
      <trkpt lat="45.78987" lon="5.57735">
        <ele>1002.46</ele>
        <time>2020-06-20T15:34:00Z</time>
      </trkpt>
      <trkpt lat="45.78988" lon="5.5773">
        <ele>1002.49</ele>
        <time>2020-06-20T15:34:05Z</time>
      </trkpt>
      <trkpt lat="45.78989" lon="5.57726">
        <ele>1002.5</ele>
        <time>2020-06-20T15:34:08Z</time>
      </trkpt>
      <trkpt lat="45.78989" lon="5.57724">
        <ele>1002.52</ele>
        <time>2020-06-20T15:34:10Z</time>
      </trkpt>
      <trkpt lat="45.78991" lon="5.57721">
        <ele>1002.53</ele>
        <time>2020-06-20T15:34:12Z</time>
      </trkpt>
      <trkpt lat="45.78992" lon="5.57718">
        <ele>1002.55</ele>
        <time>2020-06-20T15:34:14Z</time>
      </trkpt>
      <trkpt lat="45.78993" lon="5.57715">
        <ele>1002.55</ele>
        <time>2020-06-20T15:34:15Z</time>
      </trkpt>
      <trkpt lat="45.78995" lon="5.57712">
        <ele>1002.56</ele>
        <time>2020-06-20T15:34:16Z</time>
      </trkpt>
      <trkpt lat="45.78997" lon="5.57708">
        <ele>1002.58</ele>
        <time>2020-06-20T15:34:18Z</time>
      </trkpt>
      <trkpt lat="45.78999" lon="5.57706">
        <ele>1002.61</ele>
        <time>2020-06-20T15:34:22Z</time>
      </trkpt>
      <trkpt lat="45.79" lon="5.57704">
        <ele>1002.64</ele>
        <time>2020-06-20T15:34:27Z</time>
      </trkpt>
      <trkpt lat="45.79001" lon="5.57701">
        <ele>1002.69</ele>
        <time>2020-06-20T15:34:35Z</time>
      </trkpt>
      <trkpt lat="45.79002" lon="5.57698">
        <ele>1002.71</ele>
        <time>2020-06-20T15:34:38Z</time>
      </trkpt>
      <trkpt lat="45.79003" lon="5.57696">
        <ele>1002.72</ele>
        <time>2020-06-20T15:34:39Z</time>
      </trkpt>
      <trkpt lat="45.79004" lon="5.57692">
        <ele>1002.72</ele>
        <time>2020-06-20T15:34:42Z</time>
      </trkpt>
      <trkpt lat="45.79005" lon="5.5769">
        <ele>1002.72</ele>
        <time>2020-06-20T15:34:45Z</time>
      </trkpt>
      <trkpt lat="45.79007" lon="5.57687">
        <ele>1002.72</ele>
        <time>2020-06-20T15:34:47Z</time>
      </trkpt>
      <trkpt lat="45.79009" lon="5.57685">
        <ele>1002.74</ele>
        <time>2020-06-20T15:34:51Z</time>
      </trkpt>
      <trkpt lat="45.79011" lon="5.57683">
        <ele>1002.75</ele>
        <time>2020-06-20T15:34:55Z</time>
      </trkpt>
      <trkpt lat="45.79013" lon="5.57679">
        <ele>1002.76</ele>
        <time>2020-06-20T15:34:58Z</time>
      </trkpt>
      <trkpt lat="45.79014" lon="5.57676">
        <ele>1002.76</ele>
        <time>2020-06-20T15:35:01Z</time>
      </trkpt>
      <trkpt lat="45.79016" lon="5.57673">
        <ele>1002.77</ele>
        <time>2020-06-20T15:35:04Z</time>
      </trkpt>
      <trkpt lat="45.79018" lon="5.5767">
        <ele>1002.81</ele>
        <time>2020-06-20T15:35:07Z</time>
      </trkpt>
      <trkpt lat="45.79019" lon="5.57667">
        <ele>1002.87</ele>
        <time>2020-06-20T15:35:11Z</time>
      </trkpt>
      <trkpt lat="45.7902" lon="5.57664">
        <ele>1002.9</ele>
        <time>2020-06-20T15:35:13Z</time>
      </trkpt>
      <trkpt lat="45.79022" lon="5.5766">
        <ele>1002.92</ele>
        <time>2020-06-20T15:35:15Z</time>
      </trkpt>
      <trkpt lat="45.79023" lon="5.57658">
        <ele>1002.98</ele>
        <time>2020-06-20T15:35:18Z</time>
      </trkpt>
      <trkpt lat="45.79023" lon="5.57654">
        <ele>1003.04</ele>
        <time>2020-06-20T15:35:21Z</time>
      </trkpt>
      <trkpt lat="45.79024" lon="5.57651">
        <ele>1003.06</ele>
        <time>2020-06-20T15:35:22Z</time>
      </trkpt>
      <trkpt lat="45.79024" lon="5.57648">
        <ele>1003.1</ele>
        <time>2020-06-20T15:35:24Z</time>
      </trkpt>
      <trkpt lat="45.79025" lon="5.57644">
        <ele>1003.14</ele>
        <time>2020-06-20T15:35:26Z</time>
      </trkpt>
      <trkpt lat="45.79025" lon="5.57641">
        <ele>1003.18</ele>
        <time>2020-06-20T15:35:28Z</time>
      </trkpt>
      <trkpt lat="45.79026" lon="5.57638">
        <ele>1003.22</ele>
        <time>2020-06-20T15:35:30Z</time>
      </trkpt>
      <trkpt lat="45.79026" lon="5.57634">
        <ele>1003.3</ele>
        <time>2020-06-20T15:35:34Z</time>
      </trkpt>
      <trkpt lat="45.79026" lon="5.57631">
        <ele>1003.38</ele>
        <time>2020-06-20T15:35:38Z</time>
      </trkpt>
      <trkpt lat="45.79025" lon="5.57628">
        <ele>1003.43</ele>
        <time>2020-06-20T15:35:41Z</time>
      </trkpt>
      <trkpt lat="45.79027" lon="5.57624">
        <ele>1003.46</ele>
        <time>2020-06-20T15:35:43Z</time>
      </trkpt>
      <trkpt lat="45.79028" lon="5.57619">
        <ele>1003.49</ele>
        <time>2020-06-20T15:35:45Z</time>
      </trkpt>
      <trkpt lat="45.79028" lon="5.57616">
        <ele>1003.5</ele>
        <time>2020-06-20T15:35:46Z</time>
      </trkpt>
      <trkpt lat="45.79028" lon="5.57613">
        <ele>1003.53</ele>
        <time>2020-06-20T15:35:48Z</time>
      </trkpt>
      <trkpt lat="45.79029" lon="5.57609">
        <ele>1003.59</ele>
        <time>2020-06-20T15:35:52Z</time>
      </trkpt>
      <trkpt lat="45.79029" lon="5.57606">
        <ele>1003.62</ele>
        <time>2020-06-20T15:35:54Z</time>
      </trkpt>
      <trkpt lat="45.79029" lon="5.57603">
        <ele>1003.64</ele>
        <time>2020-06-20T15:35:56Z</time>
      </trkpt>
      <trkpt lat="45.79029" lon="5.576">
        <ele>1003.65</ele>
        <time>2020-06-20T15:35:57Z</time>
      </trkpt>
      <trkpt lat="45.7903" lon="5.57596">
        <ele>1003.68</ele>
        <time>2020-06-20T15:35:59Z</time>
      </trkpt>
      <trkpt lat="45.7903" lon="5.57593">
        <ele>1003.7</ele>
        <time>2020-06-20T15:36:01Z</time>
      </trkpt>
      <trkpt lat="45.79031" lon="5.5759">
        <ele>1003.72</ele>
        <time>2020-06-20T15:36:03Z</time>
      </trkpt>
      <trkpt lat="45.79033" lon="5.57587">
        <ele>1003.76</ele>
        <time>2020-06-20T15:36:06Z</time>
      </trkpt>
      <trkpt lat="45.79034" lon="5.57584">
        <ele>1003.79</ele>
        <time>2020-06-20T15:36:08Z</time>
      </trkpt>
      <trkpt lat="45.79036" lon="5.57582">
        <ele>1003.83</ele>
        <time>2020-06-20T15:36:11Z</time>
      </trkpt>
      <trkpt lat="45.79036" lon="5.57579">
        <ele>1003.87</ele>
        <time>2020-06-20T15:36:13Z</time>
      </trkpt>
      <trkpt lat="45.79037" lon="5.57575">
        <ele>1003.92</ele>
        <time>2020-06-20T15:36:16Z</time>
      </trkpt>
      <trkpt lat="45.79037" lon="5.5757">
        <ele>1003.99</ele>
        <time>2020-06-20T15:36:19Z</time>
      </trkpt>
      <trkpt lat="45.79037" lon="5.57566">
        <ele>1004.06</ele>
        <time>2020-06-20T15:36:23Z</time>
      </trkpt>
      <trkpt lat="45.79035" lon="5.57562">
        <ele>1004.13</ele>
        <time>2020-06-20T15:36:27Z</time>
      </trkpt>
      <trkpt lat="45.79035" lon="5.57559">
        <ele>1004.18</ele>
        <time>2020-06-20T15:36:30Z</time>
      </trkpt>
      <trkpt lat="45.79034" lon="5.57556">
        <ele>1004.23</ele>
        <time>2020-06-20T15:36:33Z</time>
      </trkpt>
      <trkpt lat="45.79034" lon="5.57553">
        <ele>1004.29</ele>
        <time>2020-06-20T15:36:37Z</time>
      </trkpt>
      <trkpt lat="45.79032" lon="5.57549">
        <ele>1004.36</ele>
        <time>2020-06-20T15:36:42Z</time>
      </trkpt>
      <trkpt lat="45.7903" lon="5.57547">
        <ele>1004.39</ele>
        <time>2020-06-20T15:36:44Z</time>
      </trkpt>
      <trkpt lat="45.79028" lon="5.57545">
        <ele>1004.42</ele>
        <time>2020-06-20T15:36:46Z</time>
      </trkpt>
      <trkpt lat="45.79028" lon="5.57545">
        <ele>1004.5</ele>
        <time>2020-06-20T15:36:51Z</time>
      </trkpt>
      <trkpt lat="45.79027" lon="5.57539">
        <ele>1004.59</ele>
        <time>2020-06-20T15:36:57Z</time>
      </trkpt>
      <trkpt lat="45.79027" lon="5.57535">
        <ele>1004.62</ele>
        <time>2020-06-20T15:36:59Z</time>
      </trkpt>
      <trkpt lat="45.79028" lon="5.57532">
        <ele>1004.63</ele>
        <time>2020-06-20T15:37:00Z</time>
      </trkpt>
      <trkpt lat="45.79029" lon="5.57529">
        <ele>1004.64</ele>
        <time>2020-06-20T15:37:01Z</time>
      </trkpt>
      <trkpt lat="45.7903" lon="5.57525">
        <ele>1004.66</ele>
        <time>2020-06-20T15:37:03Z</time>
      </trkpt>
      <trkpt lat="45.79031" lon="5.57522">
        <ele>1004.67</ele>
        <time>2020-06-20T15:37:04Z</time>
      </trkpt>
      <trkpt lat="45.79031" lon="5.57519">
        <ele>1004.68</ele>
        <time>2020-06-20T15:37:05Z</time>
      </trkpt>
      <trkpt lat="45.79033" lon="5.57513">
        <ele>1004.7</ele>
        <time>2020-06-20T15:37:08Z</time>
      </trkpt>
      <trkpt lat="45.79034" lon="5.5751">
        <ele>1004.71</ele>
        <time>2020-06-20T15:37:10Z</time>
      </trkpt>
      <trkpt lat="45.79035" lon="5.57504">
        <ele>1004.74</ele>
        <time>2020-06-20T15:37:14Z</time>
      </trkpt>
      <trkpt lat="45.79035" lon="5.575">
        <ele>1004.75</ele>
        <time>2020-06-20T15:37:17Z</time>
      </trkpt>
      <trkpt lat="45.79036" lon="5.57496">
        <ele>1004.76</ele>
        <time>2020-06-20T15:37:19Z</time>
      </trkpt>
      <trkpt lat="45.79036" lon="5.57494">
        <ele>1004.76</ele>
        <time>2020-06-20T15:37:21Z</time>
      </trkpt>
      <trkpt lat="45.79037" lon="5.57491">
        <ele>1004.77</ele>
        <time>2020-06-20T15:37:23Z</time>
      </trkpt>
      <trkpt lat="45.79038" lon="5.57488">
        <ele>1004.78</ele>
        <time>2020-06-20T15:37:27Z</time>
      </trkpt>
      <trkpt lat="45.79039" lon="5.57486">
        <ele>1004.79</ele>
        <time>2020-06-20T15:37:31Z</time>
      </trkpt>
      <trkpt lat="45.79041" lon="5.57484">
        <ele>1004.79</ele>
        <time>2020-06-20T15:37:35Z</time>
      </trkpt>
      <trkpt lat="45.79042" lon="5.5748">
        <ele>1004.8</ele>
        <time>2020-06-20T15:37:38Z</time>
      </trkpt>
      <trkpt lat="45.79043" lon="5.57476">
        <ele>1004.81</ele>
        <time>2020-06-20T15:37:40Z</time>
      </trkpt>
      <trkpt lat="45.79043" lon="5.57473">
        <ele>1004.82</ele>
        <time>2020-06-20T15:37:42Z</time>
      </trkpt>
      <trkpt lat="45.79044" lon="5.57469">
        <ele>1004.83</ele>
        <time>2020-06-20T15:37:51Z</time>
      </trkpt>
      <trkpt lat="45.79043" lon="5.57464">
        <ele>1004.83</ele>
        <time>2020-06-20T15:38:01Z</time>
      </trkpt>
      <trkpt lat="45.79042" lon="5.5746">
        <ele>1004.83</ele>
        <time>2020-06-20T15:38:03Z</time>
      </trkpt>
      <trkpt lat="45.79041" lon="5.57456">
        <ele>1004.83</ele>
        <time>2020-06-20T15:38:06Z</time>
      </trkpt>
      <trkpt lat="45.79041" lon="5.57452">
        <ele>1004.83</ele>
        <time>2020-06-20T15:38:07Z</time>
      </trkpt>
      <trkpt lat="45.79041" lon="5.57449">
        <ele>1004.83</ele>
        <time>2020-06-20T15:38:08Z</time>
      </trkpt>
      <trkpt lat="45.79041" lon="5.57446">
        <ele>1004.84</ele>
        <time>2020-06-20T15:38:09Z</time>
      </trkpt>
      <trkpt lat="45.79042" lon="5.57443">
        <ele>1004.84</ele>
        <time>2020-06-20T15:38:11Z</time>
      </trkpt>
      <trkpt lat="45.79043" lon="5.57437">
        <ele>1004.85</ele>
        <time>2020-06-20T15:38:12Z</time>
      </trkpt>
      <trkpt lat="45.79042" lon="5.57432">
        <ele>1004.85</ele>
        <time>2020-06-20T15:38:14Z</time>
      </trkpt>
      <trkpt lat="45.79044" lon="5.57428">
        <ele>1004.86</ele>
        <time>2020-06-20T15:38:18Z</time>
      </trkpt>
      <trkpt lat="45.79044" lon="5.57424">
        <ele>1004.87</ele>
        <time>2020-06-20T15:38:20Z</time>
      </trkpt>
      <trkpt lat="45.79046" lon="5.57421">
        <ele>1004.88</ele>
        <time>2020-06-20T15:38:22Z</time>
      </trkpt>
      <trkpt lat="45.79047" lon="5.57418">
        <ele>1004.89</ele>
        <time>2020-06-20T15:38:24Z</time>
      </trkpt>
      <trkpt lat="45.79048" lon="5.57415">
        <ele>1004.9</ele>
        <time>2020-06-20T15:38:26Z</time>
      </trkpt>
      <trkpt lat="45.7905" lon="5.57412">
        <ele>1004.94</ele>
        <time>2020-06-20T15:38:31Z</time>
      </trkpt>
      <trkpt lat="45.7905" lon="5.57408">
        <ele>1004.97</ele>
        <time>2020-06-20T15:38:36Z</time>
      </trkpt>
      <trkpt lat="45.79051" lon="5.57405">
        <ele>1004.98</ele>
        <time>2020-06-20T15:38:38Z</time>
      </trkpt>
      <trkpt lat="45.79051" lon="5.57402">
        <ele>1004.98</ele>
        <time>2020-06-20T15:38:43Z</time>
      </trkpt>
      <trkpt lat="45.79051" lon="5.57399">
        <ele>1004.98</ele>
        <time>2020-06-20T15:38:46Z</time>
      </trkpt>
      <trkpt lat="45.79051" lon="5.57395">
        <ele>1004.97</ele>
        <time>2020-06-20T15:38:48Z</time>
      </trkpt>
      <trkpt lat="45.79051" lon="5.57391">
        <ele>1004.95</ele>
        <time>2020-06-20T15:38:53Z</time>
      </trkpt>
      <trkpt lat="45.7905" lon="5.57387">
        <ele>1004.95</ele>
        <time>2020-06-20T15:38:54Z</time>
      </trkpt>
      <trkpt lat="45.7905" lon="5.57383">
        <ele>1004.94</ele>
        <time>2020-06-20T15:38:56Z</time>
      </trkpt>
      <trkpt lat="45.7905" lon="5.5738">
        <ele>1004.94</ele>
        <time>2020-06-20T15:38:57Z</time>
      </trkpt>
      <trkpt lat="45.7905" lon="5.57374">
        <ele>1004.93</ele>
        <time>2020-06-20T15:38:59Z</time>
      </trkpt>
      <trkpt lat="45.7905" lon="5.5737">
        <ele>1004.92</ele>
        <time>2020-06-20T15:39:01Z</time>
      </trkpt>
      <trkpt lat="45.79049" lon="5.57365">
        <ele>1004.91</ele>
        <time>2020-06-20T15:39:05Z</time>
      </trkpt>
      <trkpt lat="45.79048" lon="5.57362">
        <ele>1004.9</ele>
        <time>2020-06-20T15:39:07Z</time>
      </trkpt>
      <trkpt lat="45.79048" lon="5.57359">
        <ele>1004.89</ele>
        <time>2020-06-20T15:39:09Z</time>
      </trkpt>
      <trkpt lat="45.79048" lon="5.57355">
        <ele>1004.88</ele>
        <time>2020-06-20T15:39:12Z</time>
      </trkpt>
      <trkpt lat="45.79049" lon="5.57351">
        <ele>1004.86</ele>
        <time>2020-06-20T15:39:15Z</time>
      </trkpt>
      <trkpt lat="45.7905" lon="5.57347">
        <ele>1004.85</ele>
        <time>2020-06-20T15:39:18Z</time>
      </trkpt>
      <trkpt lat="45.7905" lon="5.57343">
        <ele>1004.84</ele>
        <time>2020-06-20T15:39:20Z</time>
      </trkpt>
      <trkpt lat="45.79051" lon="5.57339">
        <ele>1004.84</ele>
        <time>2020-06-20T15:39:23Z</time>
      </trkpt>
      <trkpt lat="45.79052" lon="5.57336">
        <ele>1004.83</ele>
        <time>2020-06-20T15:39:26Z</time>
      </trkpt>
      <trkpt lat="45.79053" lon="5.57332">
        <ele>1004.82</ele>
        <time>2020-06-20T15:39:29Z</time>
      </trkpt>
      <trkpt lat="45.79053" lon="5.5733">
        <ele>1004.82</ele>
        <time>2020-06-20T15:39:32Z</time>
      </trkpt>
      <trkpt lat="45.79054" lon="5.57327">
        <ele>1004.81</ele>
        <time>2020-06-20T15:39:34Z</time>
      </trkpt>
      <trkpt lat="45.79056" lon="5.57324">
        <ele>1004.81</ele>
        <time>2020-06-20T15:39:39Z</time>
      </trkpt>
      <trkpt lat="45.79058" lon="5.57321">
        <ele>1004.81</ele>
        <time>2020-06-20T15:39:43Z</time>
      </trkpt>
      <trkpt lat="45.79059" lon="5.57316">
        <ele>1004.81</ele>
        <time>2020-06-20T15:39:46Z</time>
      </trkpt>
      <trkpt lat="45.79061" lon="5.57313">
        <ele>1004.81</ele>
        <time>2020-06-20T15:39:48Z</time>
      </trkpt>
      <trkpt lat="45.79062" lon="5.57309">
        <ele>1004.81</ele>
        <time>2020-06-20T15:39:51Z</time>
      </trkpt>
      <trkpt lat="45.79063" lon="5.57307">
        <ele>1004.81</ele>
        <time>2020-06-20T15:39:53Z</time>
      </trkpt>
      <trkpt lat="45.79064" lon="5.57302">
        <ele>1004.81</ele>
        <time>2020-06-20T15:39:57Z</time>
      </trkpt>
      <trkpt lat="45.79064" lon="5.57298">
        <ele>1004.82</ele>
        <time>2020-06-20T15:40:00Z</time>
      </trkpt>
      <trkpt lat="45.79064" lon="5.57295">
        <ele>1004.82</ele>
        <time>2020-06-20T15:40:03Z</time>
      </trkpt>
      <trkpt lat="45.79064" lon="5.57292">
        <ele>1004.82</ele>
        <time>2020-06-20T15:40:05Z</time>
      </trkpt>
      <trkpt lat="45.79063" lon="5.57289">
        <ele>1004.82</ele>
        <time>2020-06-20T15:40:07Z</time>
      </trkpt>
      <trkpt lat="45.79061" lon="5.57286">
        <ele>1004.82</ele>
        <time>2020-06-20T15:40:11Z</time>
      </trkpt>
      <trkpt lat="45.79059" lon="5.57283">
        <ele>1004.82</ele>
        <time>2020-06-20T15:40:13Z</time>
      </trkpt>
      <trkpt lat="45.79058" lon="5.5728">
        <ele>1004.82</ele>
        <time>2020-06-20T15:40:16Z</time>
      </trkpt>
      <trkpt lat="45.79057" lon="5.57278">
        <ele>1004.82</ele>
        <time>2020-06-20T15:40:18Z</time>
      </trkpt>
      <trkpt lat="45.79055" lon="5.57277">
        <ele>1004.82</ele>
        <time>2020-06-20T15:40:19Z</time>
      </trkpt>
      <trkpt lat="45.79052" lon="5.57276">
        <ele>1004.82</ele>
        <time>2020-06-20T15:40:21Z</time>
      </trkpt>
      <trkpt lat="45.7905" lon="5.57273">
        <ele>1004.83</ele>
        <time>2020-06-20T15:40:25Z</time>
      </trkpt>
      <trkpt lat="45.79047" lon="5.57271">
        <ele>1004.84</ele>
        <time>2020-06-20T15:40:28Z</time>
      </trkpt>
      <trkpt lat="45.79044" lon="5.5727">
        <ele>1004.85</ele>
        <time>2020-06-20T15:40:31Z</time>
      </trkpt>
      <trkpt lat="45.79041" lon="5.57269">
        <ele>1004.86</ele>
        <time>2020-06-20T15:40:34Z</time>
      </trkpt>
      <trkpt lat="45.7904" lon="5.5727">
        <ele>1004.87</ele>
        <time>2020-06-20T15:40:36Z</time>
      </trkpt>
      <trkpt lat="45.79037" lon="5.5727">
        <ele>1004.87</ele>
        <time>2020-06-20T15:40:41Z</time>
      </trkpt>
      <trkpt lat="45.79035" lon="5.57269">
        <ele>1004.87</ele>
        <time>2020-06-20T15:40:47Z</time>
      </trkpt>
      <trkpt lat="45.79034" lon="5.57267">
        <ele>1004.87</ele>
        <time>2020-06-20T15:40:50Z</time>
      </trkpt>
      <trkpt lat="45.79033" lon="5.57263">
        <ele>1004.87</ele>
        <time>2020-06-20T15:40:51Z</time>
      </trkpt>
      <trkpt lat="45.79032" lon="5.57259">
        <ele>1004.87</ele>
        <time>2020-06-20T15:40:52Z</time>
      </trkpt>
      <trkpt lat="45.79032" lon="5.57256">
        <ele>1004.87</ele>
        <time>2020-06-20T15:40:54Z</time>
      </trkpt>
      <trkpt lat="45.79031" lon="5.5725">
        <ele>1004.87</ele>
        <time>2020-06-20T15:40:55Z</time>
      </trkpt>
      <trkpt lat="45.79029" lon="5.57248">
        <ele>1004.87</ele>
        <time>2020-06-20T15:40:57Z</time>
      </trkpt>
      <trkpt lat="45.79026" lon="5.57242">
        <ele>1004.88</ele>
        <time>2020-06-20T15:40:59Z</time>
      </trkpt>
      <trkpt lat="45.79024" lon="5.57238">
        <ele>1004.89</ele>
        <time>2020-06-20T15:41:00Z</time>
      </trkpt>
      <trkpt lat="45.79023" lon="5.57235">
        <ele>1004.89</ele>
        <time>2020-06-20T15:41:01Z</time>
      </trkpt>
      <trkpt lat="45.79022" lon="5.57231">
        <ele>1004.9</ele>
        <time>2020-06-20T15:41:03Z</time>
      </trkpt>
      <trkpt lat="45.79021" lon="5.57229">
        <ele>1004.91</ele>
        <time>2020-06-20T15:41:04Z</time>
      </trkpt>
      <trkpt lat="45.7902" lon="5.57223">
        <ele>1004.93</ele>
        <time>2020-06-20T15:41:07Z</time>
      </trkpt>
      <trkpt lat="45.7902" lon="5.5722">
        <ele>1004.94</ele>
        <time>2020-06-20T15:41:08Z</time>
      </trkpt>
      <trkpt lat="45.7902" lon="5.57217">
        <ele>1004.96</ele>
        <time>2020-06-20T15:41:11Z</time>
      </trkpt>
      <trkpt lat="45.79021" lon="5.57213">
        <ele>1004.96</ele>
        <time>2020-06-20T15:41:12Z</time>
      </trkpt>
      <trkpt lat="45.79021" lon="5.5721">
        <ele>1004.98</ele>
        <time>2020-06-20T15:41:15Z</time>
      </trkpt>
      <trkpt lat="45.79021" lon="5.57206">
        <ele>1005.01</ele>
        <time>2020-06-20T15:41:19Z</time>
      </trkpt>
      <trkpt lat="45.7902" lon="5.57203">
        <ele>1005.02</ele>
        <time>2020-06-20T15:41:21Z</time>
      </trkpt>
      <trkpt lat="45.7902" lon="5.572">
        <ele>1005.03</ele>
        <time>2020-06-20T15:41:22Z</time>
      </trkpt>
      <trkpt lat="45.79019" lon="5.57196">
        <ele>1005.06</ele>
        <time>2020-06-20T15:41:27Z</time>
      </trkpt>
      <trkpt lat="45.79018" lon="5.57192">
        <ele>1005.07</ele>
        <time>2020-06-20T15:41:29Z</time>
      </trkpt>
      <trkpt lat="45.79017" lon="5.57188">
        <ele>1005.1</ele>
        <time>2020-06-20T15:41:32Z</time>
      </trkpt>
      <trkpt lat="45.79016" lon="5.57184">
        <ele>1005.12</ele>
        <time>2020-06-20T15:41:35Z</time>
      </trkpt>
      <trkpt lat="45.79017" lon="5.57181">
        <ele>1005.15</ele>
        <time>2020-06-20T15:41:42Z</time>
      </trkpt>
      <trkpt lat="45.79022" lon="5.5718">
        <ele>1005.16</ele>
        <time>2020-06-20T15:41:46Z</time>
      </trkpt>
      <trkpt lat="45.79025" lon="5.57181">
        <ele>1005.15</ele>
        <time>2020-06-20T15:41:48Z</time>
      </trkpt>
      <trkpt lat="45.79027" lon="5.57183">
        <ele>1005.13</ele>
        <time>2020-06-20T15:41:50Z</time>
      </trkpt>
      <trkpt lat="45.79031" lon="5.57184">
        <ele>1005.12</ele>
        <time>2020-06-20T15:41:52Z</time>
      </trkpt>
      <trkpt lat="45.79033" lon="5.57184">
        <ele>1005.11</ele>
        <time>2020-06-20T15:41:53Z</time>
      </trkpt>
      <trkpt lat="45.79035" lon="5.57183">
        <ele>1005.11</ele>
        <time>2020-06-20T15:41:54Z</time>
      </trkpt>
      <trkpt lat="45.79038" lon="5.57182">
        <ele>1005.09</ele>
        <time>2020-06-20T15:41:56Z</time>
      </trkpt>
      <trkpt lat="45.79042" lon="5.57181">
        <ele>1005.08</ele>
        <time>2020-06-20T15:41:58Z</time>
      </trkpt>
      <trkpt lat="45.79044" lon="5.5718">
        <ele>1005.08</ele>
        <time>2020-06-20T15:41:59Z</time>
      </trkpt>
      <trkpt lat="45.79049" lon="5.57178">
        <ele>1005.06</ele>
        <time>2020-06-20T15:42:01Z</time>
      </trkpt>
      <trkpt lat="45.79052" lon="5.57177">
        <ele>1005.06</ele>
        <time>2020-06-20T15:42:02Z</time>
      </trkpt>
      <trkpt lat="45.79055" lon="5.57175">
        <ele>1005.04</ele>
        <time>2020-06-20T15:42:05Z</time>
      </trkpt>
      <trkpt lat="45.79058" lon="5.57175">
        <ele>1005.04</ele>
        <time>2020-06-20T15:42:06Z</time>
      </trkpt>
      <trkpt lat="45.79061" lon="5.57176">
        <ele>1005.02</ele>
        <time>2020-06-20T15:42:08Z</time>
      </trkpt>
      <trkpt lat="45.79066" lon="5.57175">
        <ele>1005.01</ele>
        <time>2020-06-20T15:42:10Z</time>
      </trkpt>
      <trkpt lat="45.79069" lon="5.57173">
        <ele>1004.98</ele>
        <time>2020-06-20T15:42:14Z</time>
      </trkpt>
      <trkpt lat="45.79072" lon="5.57173">
        <ele>1004.96</ele>
        <time>2020-06-20T15:42:16Z</time>
      </trkpt>
      <trkpt lat="45.79074" lon="5.57173">
        <ele>1004.95</ele>
        <time>2020-06-20T15:42:18Z</time>
      </trkpt>
      <trkpt lat="45.79076" lon="5.57173">
        <ele>1004.9</ele>
        <time>2020-06-20T15:42:25Z</time>
      </trkpt>
      <trkpt lat="45.79078" lon="5.57173">
        <ele>1004.89</ele>
        <time>2020-06-20T15:42:27Z</time>
      </trkpt>
      <trkpt lat="45.7908" lon="5.57173">
        <ele>1004.87</ele>
        <time>2020-06-20T15:42:29Z</time>
      </trkpt>
      <trkpt lat="45.79083" lon="5.57172">
        <ele>1004.86</ele>
        <time>2020-06-20T15:42:30Z</time>
      </trkpt>
      <trkpt lat="45.79086" lon="5.57172">
        <ele>1004.84</ele>
        <time>2020-06-20T15:42:33Z</time>
      </trkpt>
      <trkpt lat="45.7909" lon="5.57172">
        <ele>1004.81</ele>
        <time>2020-06-20T15:42:36Z</time>
      </trkpt>
      <trkpt lat="45.79092" lon="5.57171">
        <ele>1004.8</ele>
        <time>2020-06-20T15:42:37Z</time>
      </trkpt>
      <trkpt lat="45.79094" lon="5.57171">
        <ele>1004.8</ele>
        <time>2020-06-20T15:42:38Z</time>
      </trkpt>
      <trkpt lat="45.79096" lon="5.57171">
        <ele>1004.79</ele>
        <time>2020-06-20T15:42:39Z</time>
      </trkpt>
      <trkpt lat="45.79099" lon="5.57171">
        <ele>1004.76</ele>
        <time>2020-06-20T15:42:42Z</time>
      </trkpt>
      <trkpt lat="45.79101" lon="5.57172">
        <ele>1004.73</ele>
        <time>2020-06-20T15:42:46Z</time>
      </trkpt>
      <trkpt lat="45.79104" lon="5.57172">
        <ele>1004.71</ele>
        <time>2020-06-20T15:42:48Z</time>
      </trkpt>
      <trkpt lat="45.79106" lon="5.57171">
        <ele>1004.71</ele>
        <time>2020-06-20T15:42:49Z</time>
      </trkpt>
      <trkpt lat="45.7911" lon="5.57172">
        <ele>1004.69</ele>
        <time>2020-06-20T15:42:51Z</time>
      </trkpt>
      <trkpt lat="45.79112" lon="5.57172">
        <ele>1004.68</ele>
        <time>2020-06-20T15:42:52Z</time>
      </trkpt>
      <trkpt lat="45.79115" lon="5.57173">
        <ele>1004.68</ele>
        <time>2020-06-20T15:42:53Z</time>
      </trkpt>
      <trkpt lat="45.79118" lon="5.57173">
        <ele>1004.65</ele>
        <time>2020-06-20T15:42:57Z</time>
      </trkpt>
      <trkpt lat="45.7912" lon="5.57176">
        <ele>1004.64</ele>
        <time>2020-06-20T15:43:00Z</time>
      </trkpt>
      <trkpt lat="45.79123" lon="5.57177">
        <ele>1004.62</ele>
        <time>2020-06-20T15:43:04Z</time>
      </trkpt>
      <trkpt lat="45.79125" lon="5.57175">
        <ele>1004.62</ele>
        <time>2020-06-20T15:43:05Z</time>
      </trkpt>
      <trkpt lat="45.79128" lon="5.57173">
        <ele>1004.61</ele>
        <time>2020-06-20T15:43:07Z</time>
      </trkpt>
      <trkpt lat="45.7913" lon="5.57173">
        <ele>1004.6</ele>
        <time>2020-06-20T15:43:08Z</time>
      </trkpt>
      <trkpt lat="45.79133" lon="5.57172">
        <ele>1004.6</ele>
        <time>2020-06-20T15:43:10Z</time>
      </trkpt>
      <trkpt lat="45.79134" lon="5.57172">
        <ele>1004.58</ele>
        <time>2020-06-20T15:43:16Z</time>
      </trkpt>
      <trkpt lat="45.79136" lon="5.57173">
        <ele>1004.57</ele>
        <time>2020-06-20T15:43:18Z</time>
      </trkpt>
      <trkpt lat="45.7914" lon="5.57174">
        <ele>1004.56</ele>
        <time>2020-06-20T15:43:20Z</time>
      </trkpt>
      <trkpt lat="45.79141" lon="5.57175">
        <ele>1004.55</ele>
        <time>2020-06-20T15:43:22Z</time>
      </trkpt>
      <trkpt lat="45.79145" lon="5.57176">
        <ele>1004.55</ele>
        <time>2020-06-20T15:43:25Z</time>
      </trkpt>
      <trkpt lat="45.79148" lon="5.57176">
        <ele>1004.54</ele>
        <time>2020-06-20T15:43:27Z</time>
      </trkpt>
      <trkpt lat="45.79149" lon="5.57175">
        <ele>1004.54</ele>
        <time>2020-06-20T15:43:33Z</time>
      </trkpt>
      <trkpt lat="45.79152" lon="5.57176">
        <ele>1004.54</ele>
        <time>2020-06-20T15:43:35Z</time>
      </trkpt>
      <trkpt lat="45.79154" lon="5.57177">
        <ele>1004.54</ele>
        <time>2020-06-20T15:43:37Z</time>
      </trkpt>
      <trkpt lat="45.79157" lon="5.57176">
        <ele>1004.54</ele>
        <time>2020-06-20T15:43:39Z</time>
      </trkpt>
      <trkpt lat="45.79161" lon="5.57175">
        <ele>1004.53</ele>
        <time>2020-06-20T15:43:43Z</time>
      </trkpt>
      <trkpt lat="45.79164" lon="5.57173">
        <ele>1004.53</ele>
        <time>2020-06-20T15:43:46Z</time>
      </trkpt>
      <trkpt lat="45.79166" lon="5.57171">
        <ele>1004.52</ele>
        <time>2020-06-20T15:43:48Z</time>
      </trkpt>
      <trkpt lat="45.79169" lon="5.57172">
        <ele>1004.5</ele>
        <time>2020-06-20T15:44:00Z</time>
      </trkpt>
      <trkpt lat="45.79172" lon="5.57172">
        <ele>1004.5</ele>
        <time>2020-06-20T15:44:02Z</time>
      </trkpt>
      <trkpt lat="45.79174" lon="5.57173">
        <ele>1004.49</ele>
        <time>2020-06-20T15:44:04Z</time>
      </trkpt>
      <trkpt lat="45.79176" lon="5.57175">
        <ele>1004.5</ele>
        <time>2020-06-20T15:44:05Z</time>
      </trkpt>
      <trkpt lat="45.79181" lon="5.57172">
        <ele>1004.49</ele>
        <time>2020-06-20T15:44:09Z</time>
      </trkpt>
      <trkpt lat="45.79184" lon="5.5717">
        <ele>1004.49</ele>
        <time>2020-06-20T15:44:11Z</time>
      </trkpt>
      <trkpt lat="45.79189" lon="5.57168">
        <ele>1004.49</ele>
        <time>2020-06-20T15:44:13Z</time>
      </trkpt>
      <trkpt lat="45.79191" lon="5.57169">
        <ele>1004.49</ele>
        <time>2020-06-20T15:44:14Z</time>
      </trkpt>
      <trkpt lat="45.79192" lon="5.57171">
        <ele>1004.49</ele>
        <time>2020-06-20T15:44:15Z</time>
      </trkpt>
      <trkpt lat="45.79195" lon="5.57171">
        <ele>1004.49</ele>
        <time>2020-06-20T15:44:16Z</time>
      </trkpt>
      <trkpt lat="45.79198" lon="5.5717">
        <ele>1004.49</ele>
        <time>2020-06-20T15:44:17Z</time>
      </trkpt>
      <trkpt lat="45.79199" lon="5.57169">
        <ele>1004.49</ele>
        <time>2020-06-20T15:44:18Z</time>
      </trkpt>
      <trkpt lat="45.79201" lon="5.57169">
        <ele>1004.49</ele>
        <time>2020-06-20T15:44:21Z</time>
      </trkpt>
      <trkpt lat="45.79203" lon="5.57168">
        <ele>1004.49</ele>
        <time>2020-06-20T15:44:22Z</time>
      </trkpt>
      <trkpt lat="45.79205" lon="5.57168">
        <ele>1004.49</ele>
        <time>2020-06-20T15:44:23Z</time>
      </trkpt>
      <trkpt lat="45.79207" lon="5.57168">
        <ele>1004.48</ele>
        <time>2020-06-20T15:44:24Z</time>
      </trkpt>
      <trkpt lat="45.79209" lon="5.57167">
        <ele>1004.48</ele>
        <time>2020-06-20T15:44:26Z</time>
      </trkpt>
      <trkpt lat="45.79212" lon="5.57166">
        <ele>1004.48</ele>
        <time>2020-06-20T15:44:28Z</time>
      </trkpt>
      <trkpt lat="45.79215" lon="5.57166">
        <ele>1004.48</ele>
        <time>2020-06-20T15:44:30Z</time>
      </trkpt>
      <trkpt lat="45.79219" lon="5.57165">
        <ele>1004.48</ele>
        <time>2020-06-20T15:44:32Z</time>
      </trkpt>
      <trkpt lat="45.79221" lon="5.57165">
        <ele>1004.48</ele>
        <time>2020-06-20T15:44:34Z</time>
      </trkpt>
      <trkpt lat="45.79224" lon="5.57165">
        <ele>1004.48</ele>
        <time>2020-06-20T15:44:36Z</time>
      </trkpt>
      <trkpt lat="45.79226" lon="5.57165">
        <ele>1004.47</ele>
        <time>2020-06-20T15:44:39Z</time>
      </trkpt>
      <trkpt lat="45.7923" lon="5.57166">
        <ele>1004.47</ele>
        <time>2020-06-20T15:44:42Z</time>
      </trkpt>
      <trkpt lat="45.79232" lon="5.57165">
        <ele>1004.47</ele>
        <time>2020-06-20T15:44:44Z</time>
      </trkpt>
      <trkpt lat="45.79235" lon="5.57164">
        <ele>1004.47</ele>
        <time>2020-06-20T15:44:47Z</time>
      </trkpt>
      <trkpt lat="45.79236" lon="5.57162">
        <ele>1004.47</ele>
        <time>2020-06-20T15:44:49Z</time>
      </trkpt>
      <trkpt lat="45.79238" lon="5.5716">
        <ele>1004.46</ele>
        <time>2020-06-20T15:44:52Z</time>
      </trkpt>
      <trkpt lat="45.7924" lon="5.57157">
        <ele>1004.46</ele>
        <time>2020-06-20T15:44:54Z</time>
      </trkpt>
      <trkpt lat="45.79242" lon="5.57154">
        <ele>1004.46</ele>
        <time>2020-06-20T15:44:56Z</time>
      </trkpt>
      <trkpt lat="45.79244" lon="5.57152">
        <ele>1004.46</ele>
        <time>2020-06-20T15:44:58Z</time>
      </trkpt>
      <trkpt lat="45.79247" lon="5.57148">
        <ele>1004.45</ele>
        <time>2020-06-20T15:45:03Z</time>
      </trkpt>
      <trkpt lat="45.79249" lon="5.57145">
        <ele>1004.45</ele>
        <time>2020-06-20T15:45:06Z</time>
      </trkpt>
      <trkpt lat="45.79252" lon="5.57141">
        <ele>1004.44</ele>
        <time>2020-06-20T15:45:11Z</time>
      </trkpt>
      <trkpt lat="45.79253" lon="5.5714">
        <ele>1004.44</ele>
        <time>2020-06-20T15:45:12Z</time>
      </trkpt>
      <trkpt lat="45.79254" lon="5.57138">
        <ele>1004.43</ele>
        <time>2020-06-20T15:45:14Z</time>
      </trkpt>
      <trkpt lat="45.79257" lon="5.57136">
        <ele>1004.42</ele>
        <time>2020-06-20T15:45:16Z</time>
      </trkpt>
      <trkpt lat="45.79259" lon="5.57134">
        <ele>1004.41</ele>
        <time>2020-06-20T15:45:19Z</time>
      </trkpt>
      <trkpt lat="45.79261" lon="5.57131">
        <ele>1004.4</ele>
        <time>2020-06-20T15:45:21Z</time>
      </trkpt>
      <trkpt lat="45.79263" lon="5.57129">
        <ele>1004.39</ele>
        <time>2020-06-20T15:45:23Z</time>
      </trkpt>
      <trkpt lat="45.79265" lon="5.57128">
        <ele>1004.37</ele>
        <time>2020-06-20T15:45:27Z</time>
      </trkpt>
      <trkpt lat="45.79269" lon="5.57125">
        <ele>1004.35</ele>
        <time>2020-06-20T15:45:31Z</time>
      </trkpt>
      <trkpt lat="45.79271" lon="5.57123">
        <ele>1004.35</ele>
        <time>2020-06-20T15:45:33Z</time>
      </trkpt>
      <trkpt lat="45.79274" lon="5.5712">
        <ele>1004.34</ele>
        <time>2020-06-20T15:45:36Z</time>
      </trkpt>
      <trkpt lat="45.79275" lon="5.57119">
        <ele>1004.34</ele>
        <time>2020-06-20T15:45:39Z</time>
      </trkpt>
      <trkpt lat="45.79277" lon="5.57118">
        <ele>1004.34</ele>
        <time>2020-06-20T15:45:41Z</time>
      </trkpt>
      <trkpt lat="45.79281" lon="5.57117">
        <ele>1004.36</ele>
        <time>2020-06-20T15:45:46Z</time>
      </trkpt>
      <trkpt lat="45.79282" lon="5.57115">
        <ele>1004.37</ele>
        <time>2020-06-20T15:45:50Z</time>
      </trkpt>
      <trkpt lat="45.79285" lon="5.57113">
        <ele>1004.38</ele>
        <time>2020-06-20T15:45:52Z</time>
      </trkpt>
      <trkpt lat="45.79287" lon="5.57111">
        <ele>1004.38</ele>
        <time>2020-06-20T15:45:53Z</time>
      </trkpt>
      <trkpt lat="45.7929" lon="5.5711">
        <ele>1004.39</ele>
        <time>2020-06-20T15:45:55Z</time>
      </trkpt>
      <trkpt lat="45.79293" lon="5.57109">
        <ele>1004.4</ele>
        <time>2020-06-20T15:45:57Z</time>
      </trkpt>
      <trkpt lat="45.79295" lon="5.57104">
        <ele>1004.41</ele>
        <time>2020-06-20T15:46:00Z</time>
      </trkpt>
      <trkpt lat="45.79297" lon="5.57102">
        <ele>1004.42</ele>
        <time>2020-06-20T15:46:01Z</time>
      </trkpt>
      <trkpt lat="45.79298" lon="5.571">
        <ele>1004.42</ele>
        <time>2020-06-20T15:46:03Z</time>
      </trkpt>
      <trkpt lat="45.793" lon="5.57099">
        <ele>1004.44</ele>
        <time>2020-06-20T15:46:05Z</time>
      </trkpt>
      <trkpt lat="45.79302" lon="5.57096">
        <ele>1004.46</ele>
        <time>2020-06-20T15:46:10Z</time>
      </trkpt>
      <trkpt lat="45.79304" lon="5.57094">
        <ele>1004.47</ele>
        <time>2020-06-20T15:46:15Z</time>
      </trkpt>
      <trkpt lat="45.79305" lon="5.57092">
        <ele>1004.48</ele>
        <time>2020-06-20T15:46:21Z</time>
      </trkpt>
      <trkpt lat="45.79306" lon="5.57089">
        <ele>1004.49</ele>
        <time>2020-06-20T15:46:23Z</time>
      </trkpt>
      <trkpt lat="45.79308" lon="5.57086">
        <ele>1004.5</ele>
        <time>2020-06-20T15:46:26Z</time>
      </trkpt>
      <trkpt lat="45.79309" lon="5.57084">
        <ele>1004.51</ele>
        <time>2020-06-20T15:46:28Z</time>
      </trkpt>
      <trkpt lat="45.7931" lon="5.57082">
        <ele>1004.51</ele>
        <time>2020-06-20T15:46:34Z</time>
      </trkpt>
      <trkpt lat="45.7931" lon="5.57078">
        <ele>1004.51</ele>
        <time>2020-06-20T15:46:35Z</time>
      </trkpt>
      <trkpt lat="45.79311" lon="5.57075">
        <ele>1004.52</ele>
        <time>2020-06-20T15:46:38Z</time>
      </trkpt>
      <trkpt lat="45.79313" lon="5.57068">
        <ele>1004.51</ele>
        <time>2020-06-20T15:46:42Z</time>
      </trkpt>
      <trkpt lat="45.79315" lon="5.57065">
        <ele>1004.5</ele>
        <time>2020-06-20T15:46:44Z</time>
      </trkpt>
      <trkpt lat="45.79317" lon="5.57064">
        <ele>1004.5</ele>
        <time>2020-06-20T15:46:46Z</time>
      </trkpt>
      <trkpt lat="45.79319" lon="5.57062">
        <ele>1004.49</ele>
        <time>2020-06-20T15:46:50Z</time>
      </trkpt>
      <trkpt lat="45.7932" lon="5.5706">
        <ele>1004.49</ele>
        <time>2020-06-20T15:46:51Z</time>
      </trkpt>
      <trkpt lat="45.79323" lon="5.57058">
        <ele>1004.48</ele>
        <time>2020-06-20T15:46:54Z</time>
      </trkpt>
      <trkpt lat="45.79327" lon="5.57055">
        <ele>1004.48</ele>
        <time>2020-06-20T15:46:55Z</time>
      </trkpt>
      <trkpt lat="45.79328" lon="5.57054">
        <ele>1004.47</ele>
        <time>2020-06-20T15:46:56Z</time>
      </trkpt>
      <trkpt lat="45.79329" lon="5.57051">
        <ele>1004.47</ele>
        <time>2020-06-20T15:46:57Z</time>
      </trkpt>
      <trkpt lat="45.79333" lon="5.57049">
        <ele>1004.46</ele>
        <time>2020-06-20T15:46:59Z</time>
      </trkpt>
      <trkpt lat="45.79335" lon="5.57046">
        <ele>1004.45</ele>
        <time>2020-06-20T15:47:01Z</time>
      </trkpt>
      <trkpt lat="45.79337" lon="5.57043">
        <ele>1004.44</ele>
        <time>2020-06-20T15:47:03Z</time>
      </trkpt>
      <trkpt lat="45.79342" lon="5.5704">
        <ele>1004.42</ele>
        <time>2020-06-20T15:47:07Z</time>
      </trkpt>
      <trkpt lat="45.79344" lon="5.57039">
        <ele>1004.41</ele>
        <time>2020-06-20T15:47:10Z</time>
      </trkpt>
      <trkpt lat="45.79345" lon="5.57036">
        <ele>1004.4</ele>
        <time>2020-06-20T15:47:12Z</time>
      </trkpt>
      <trkpt lat="45.79348" lon="5.57038">
        <ele>1004.37</ele>
        <time>2020-06-20T15:47:17Z</time>
      </trkpt>
      <trkpt lat="45.79349" lon="5.57035">
        <ele>1004.36</ele>
        <time>2020-06-20T15:47:18Z</time>
      </trkpt>
      <trkpt lat="45.79351" lon="5.57032">
        <ele>1004.36</ele>
        <time>2020-06-20T15:47:19Z</time>
      </trkpt>
      <trkpt lat="45.79353" lon="5.57029">
        <ele>1004.34</ele>
        <time>2020-06-20T15:47:22Z</time>
      </trkpt>
      <trkpt lat="45.79354" lon="5.57026">
        <ele>1004.31</ele>
        <time>2020-06-20T15:47:25Z</time>
      </trkpt>
      <trkpt lat="45.79355" lon="5.57022">
        <ele>1004.28</ele>
        <time>2020-06-20T15:47:30Z</time>
      </trkpt>
      <trkpt lat="45.79356" lon="5.5702">
        <ele>1004.23</ele>
        <time>2020-06-20T15:47:38Z</time>
      </trkpt>
      <trkpt lat="45.7936" lon="5.57014">
        <ele>1004.17</ele>
        <time>2020-06-20T15:47:43Z</time>
      </trkpt>
      <trkpt lat="45.79362" lon="5.57012">
        <ele>1004.15</ele>
        <time>2020-06-20T15:47:45Z</time>
      </trkpt>
      <trkpt lat="45.79364" lon="5.57008">
        <ele>1004.11</ele>
        <time>2020-06-20T15:47:49Z</time>
      </trkpt>
      <trkpt lat="45.79367" lon="5.57007">
        <ele>1004.08</ele>
        <time>2020-06-20T15:47:52Z</time>
      </trkpt>
      <trkpt lat="45.79369" lon="5.57004">
        <ele>1004.07</ele>
        <time>2020-06-20T15:47:54Z</time>
      </trkpt>
      <trkpt lat="45.7937" lon="5.57">
        <ele>1004.04</ele>
        <time>2020-06-20T15:47:58Z</time>
      </trkpt>
      <trkpt lat="45.79372" lon="5.56999">
        <ele>1004.02</ele>
        <time>2020-06-20T15:48:00Z</time>
      </trkpt>
      <trkpt lat="45.79373" lon="5.56998">
        <ele>1004.01</ele>
        <time>2020-06-20T15:48:03Z</time>
      </trkpt>
      <trkpt lat="45.79376" lon="5.56994">
        <ele>1003.99</ele>
        <time>2020-06-20T15:48:06Z</time>
      </trkpt>
      <trkpt lat="45.79378" lon="5.56992">
        <ele>1003.98</ele>
        <time>2020-06-20T15:48:07Z</time>
      </trkpt>
      <trkpt lat="45.79379" lon="5.5699">
        <ele>1003.98</ele>
        <time>2020-06-20T15:48:08Z</time>
      </trkpt>
      <trkpt lat="45.79381" lon="5.56988">
        <ele>1003.97</ele>
        <time>2020-06-20T15:48:10Z</time>
      </trkpt>
      <trkpt lat="45.79383" lon="5.56985">
        <ele>1003.95</ele>
        <time>2020-06-20T15:48:12Z</time>
      </trkpt>
      <trkpt lat="45.79384" lon="5.56983">
        <ele>1003.94</ele>
        <time>2020-06-20T15:48:15Z</time>
      </trkpt>
      <trkpt lat="45.79389" lon="5.56974">
        <ele>1003.92</ele>
        <time>2020-06-20T15:48:21Z</time>
      </trkpt>
      <trkpt lat="45.79391" lon="5.56972">
        <ele>1003.91</ele>
        <time>2020-06-20T15:48:23Z</time>
      </trkpt>
      <trkpt lat="45.79394" lon="5.56968">
        <ele>1003.91</ele>
        <time>2020-06-20T15:48:25Z</time>
      </trkpt>
      <trkpt lat="45.79396" lon="5.56964">
        <ele>1003.9</ele>
        <time>2020-06-20T15:48:27Z</time>
      </trkpt>
      <trkpt lat="45.79398" lon="5.56961">
        <ele>1003.9</ele>
        <time>2020-06-20T15:48:29Z</time>
      </trkpt>
      <trkpt lat="45.794" lon="5.56958">
        <ele>1003.89</ele>
        <time>2020-06-20T15:48:31Z</time>
      </trkpt>
      <trkpt lat="45.79402" lon="5.56954">
        <ele>1003.89</ele>
        <time>2020-06-20T15:48:34Z</time>
      </trkpt>
      <trkpt lat="45.79405" lon="5.56951">
        <ele>1003.88</ele>
        <time>2020-06-20T15:48:39Z</time>
      </trkpt>
      <trkpt lat="45.79407" lon="5.56949">
        <ele>1003.88</ele>
        <time>2020-06-20T15:48:42Z</time>
      </trkpt>
      <trkpt lat="45.79409" lon="5.56947">
        <ele>1003.88</ele>
        <time>2020-06-20T15:48:43Z</time>
      </trkpt>
      <trkpt lat="45.79412" lon="5.56943">
        <ele>1003.86</ele>
        <time>2020-06-20T15:48:55Z</time>
      </trkpt>
      <trkpt lat="45.79414" lon="5.56941">
        <ele>1003.87</ele>
        <time>2020-06-20T15:49:02Z</time>
      </trkpt>
    </trkseg>
  </trk>
</gpx>